<?xml version="1.0" encoding="UTF-8" standalone="no" ?>
<gpx xmlns="http://www.topografix.com/GPX/1/1" xmlns:xsi="http://www.w3.org/2001/XMLSchema-instance" xsi:schemaLocation="http://www.topografix.com/GPX/1/1 http://www.topografix.com/GPX/1/1/gpx.xsd" version="1.1" creator="VisuGPX - https://www.visugpx.com">
  <metadata>
    <name>GR 441, GR 30, étape 04</name>
    <desc><![CDATA[Du Puy de Bleymas au Col de la Moreno.]]></desc>
  </metadata>
  <trk>
    <name><![CDATA[GR 441, GR 30, étape 04]]></name>
    <extensions>
      <line xmlns="http://www.topografix.com/GPX/gpx_style/0/2">
        <color>0000FF</color>
        <width>4</width>
      </line>
    </extensions>
    <trkseg>
      <trkpt lat="45.85237" lon="2.97603">
        <ele>929.2</ele>
        <time>2021-08-28T05:10:19.000Z</time>
      </trkpt>
      <trkpt lat="45.85241" lon="2.97595">
        <ele>931.8</ele>
        <time>2021-08-28T05:10:26.000Z</time>
      </trkpt>
      <trkpt lat="45.85238" lon="2.97605">
        <ele>928.8</ele>
        <time>2021-08-28T05:10:51.000Z</time>
      </trkpt>
      <trkpt lat="45.85232" lon="2.97608">
        <ele>927.3</ele>
        <time>2021-08-28T05:11:44.000Z</time>
      </trkpt>
      <trkpt lat="45.85235" lon="2.976">
        <ele>929.7</ele>
        <time>2021-08-28T05:13:01.000Z</time>
      </trkpt>
      <trkpt lat="45.8524" lon="2.97593">
        <ele>932.1</ele>
        <time>2021-08-28T05:13:08.000Z</time>
      </trkpt>
      <trkpt lat="45.85238" lon="2.97584">
        <ele>934.1</ele>
        <time>2021-08-28T05:13:20.000Z</time>
      </trkpt>
      <trkpt lat="45.85234" lon="2.97576">
        <ele>935.5</ele>
        <time>2021-08-28T05:13:31.000Z</time>
      </trkpt>
      <trkpt lat="45.8523" lon="2.97567">
        <ele>937.1</ele>
        <time>2021-08-28T05:13:41.000Z</time>
      </trkpt>
      <trkpt lat="45.85227" lon="2.9755">
        <ele>940.8</ele>
        <time>2021-08-28T05:14:11.000Z</time>
      </trkpt>
      <trkpt lat="45.85218" lon="2.97535">
        <ele>943.2</ele>
        <time>2021-08-28T05:15:02.000Z</time>
      </trkpt>
      <trkpt lat="45.85212" lon="2.97524">
        <ele>945.1</ele>
        <time>2021-08-28T05:15:30.000Z</time>
      </trkpt>
      <trkpt lat="45.85206" lon="2.97514">
        <ele>946.7</ele>
        <time>2021-08-28T05:15:42.000Z</time>
      </trkpt>
      <trkpt lat="45.85199" lon="2.97509">
        <ele>947</ele>
        <time>2021-08-28T05:15:50.000Z</time>
      </trkpt>
      <trkpt lat="45.85196" lon="2.97501">
        <ele>948.6</ele>
        <time>2021-08-28T05:15:56.000Z</time>
      </trkpt>
      <trkpt lat="45.85187" lon="2.97492">
        <ele>950</ele>
        <time>2021-08-28T05:16:22.000Z</time>
      </trkpt>
      <trkpt lat="45.8518" lon="2.97479">
        <ele>953.1</ele>
        <time>2021-08-28T05:16:35.000Z</time>
      </trkpt>
      <trkpt lat="45.85175" lon="2.97462">
        <ele>957.7</ele>
        <time>2021-08-28T05:16:54.000Z</time>
      </trkpt>
      <trkpt lat="45.85173" lon="2.97452">
        <ele>960.5</ele>
        <time>2021-08-28T05:16:59.000Z</time>
      </trkpt>
      <trkpt lat="45.85165" lon="2.97446">
        <ele>961.9</ele>
        <time>2021-08-28T05:18:20.000Z</time>
      </trkpt>
      <trkpt lat="45.85159" lon="2.97441">
        <ele>963.6</ele>
        <time>2021-08-28T05:19:49.000Z</time>
      </trkpt>
      <trkpt lat="45.85153" lon="2.97436">
        <ele>965.4</ele>
        <time>2021-08-28T05:20:05.000Z</time>
      </trkpt>
      <trkpt lat="45.8515" lon="2.97421">
        <ele>970.1</ele>
        <time>2021-08-28T05:20:35.000Z</time>
      </trkpt>
      <trkpt lat="45.85149" lon="2.97412">
        <ele>972.6</ele>
        <time>2021-08-28T05:20:45.000Z</time>
      </trkpt>
      <trkpt lat="45.85145" lon="2.97403">
        <ele>975</ele>
        <time>2021-08-28T05:20:53.000Z</time>
      </trkpt>
      <trkpt lat="45.85136" lon="2.97388">
        <ele>979.1</ele>
        <time>2021-08-28T05:21:05.000Z</time>
      </trkpt>
      <trkpt lat="45.85128" lon="2.97383">
        <ele>980.8</ele>
        <time>2021-08-28T05:21:11.000Z</time>
      </trkpt>
      <trkpt lat="45.8512" lon="2.97377">
        <ele>982.7</ele>
        <time>2021-08-28T05:21:17.000Z</time>
      </trkpt>
      <trkpt lat="45.85115" lon="2.97372">
        <ele>984.3</ele>
        <time>2021-08-28T05:21:28.000Z</time>
      </trkpt>
      <trkpt lat="45.85108" lon="2.97373">
        <ele>984.4</ele>
        <time>2021-08-28T05:21:37.000Z</time>
      </trkpt>
      <trkpt lat="45.851" lon="2.97364">
        <ele>987.3</ele>
        <time>2021-08-28T05:22:08.000Z</time>
      </trkpt>
      <trkpt lat="45.85098" lon="2.97355">
        <ele>989.9</ele>
        <time>2021-08-28T05:22:15.000Z</time>
      </trkpt>
      <trkpt lat="45.85097" lon="2.97345">
        <ele>992.7</ele>
        <time>2021-08-28T05:22:22.000Z</time>
      </trkpt>
      <trkpt lat="45.85094" lon="2.97336">
        <ele>995.5</ele>
        <time>2021-08-28T05:22:27.000Z</time>
      </trkpt>
      <trkpt lat="45.85088" lon="2.97332">
        <ele>997</ele>
        <time>2021-08-28T05:22:36.000Z</time>
      </trkpt>
      <trkpt lat="45.85091" lon="2.97323">
        <ele>998.7</ele>
        <time>2021-08-28T05:23:00.000Z</time>
      </trkpt>
      <trkpt lat="45.85097" lon="2.97318">
        <ele>999.3</ele>
        <time>2021-08-28T05:23:07.000Z</time>
      </trkpt>
      <trkpt lat="45.85103" lon="2.97313">
        <ele>999.8</ele>
        <time>2021-08-28T05:23:14.000Z</time>
      </trkpt>
      <trkpt lat="45.85109" lon="2.97308">
        <ele>1000.2</ele>
        <time>2021-08-28T05:23:21.000Z</time>
      </trkpt>
      <trkpt lat="45.85113" lon="2.973">
        <ele>1001.3</ele>
        <time>2021-08-28T05:23:31.000Z</time>
      </trkpt>
      <trkpt lat="45.85117" lon="2.97292">
        <ele>1002.4</ele>
        <time>2021-08-28T05:23:40.000Z</time>
      </trkpt>
      <trkpt lat="45.85124" lon="2.97289">
        <ele>1002.1</ele>
        <time>2021-08-28T05:23:56.000Z</time>
      </trkpt>
      <trkpt lat="45.85132" lon="2.97282">
        <ele>1002.3</ele>
        <time>2021-08-28T05:24:28.000Z</time>
      </trkpt>
      <trkpt lat="45.85135" lon="2.97274">
        <ele>1003.3</ele>
        <time>2021-08-28T05:24:37.000Z</time>
      </trkpt>
      <trkpt lat="45.85143" lon="2.97262">
        <ele>1004.1</ele>
        <time>2021-08-28T05:25:00.000Z</time>
      </trkpt>
      <trkpt lat="45.85149" lon="2.97256">
        <ele>1004.1</ele>
        <time>2021-08-28T05:25:05.000Z</time>
      </trkpt>
      <trkpt lat="45.85154" lon="2.97249">
        <ele>1004.3</ele>
        <time>2021-08-28T05:25:11.000Z</time>
      </trkpt>
      <trkpt lat="45.85158" lon="2.97241">
        <ele>1005</ele>
        <time>2021-08-28T05:25:16.000Z</time>
      </trkpt>
      <trkpt lat="45.85163" lon="2.97233">
        <ele>1005.5</ele>
        <time>2021-08-28T05:25:21.000Z</time>
      </trkpt>
      <trkpt lat="45.85167" lon="2.97225">
        <ele>1006.2</ele>
        <time>2021-08-28T05:25:27.000Z</time>
      </trkpt>
      <trkpt lat="45.85172" lon="2.97218">
        <ele>1007.1</ele>
        <time>2021-08-28T05:25:32.000Z</time>
      </trkpt>
      <trkpt lat="45.85179" lon="2.97215">
        <ele>1007.1</ele>
        <time>2021-08-28T05:25:41.000Z</time>
      </trkpt>
      <trkpt lat="45.85184" lon="2.97209">
        <ele>1007.7</ele>
        <time>2021-08-28T05:25:47.000Z</time>
      </trkpt>
      <trkpt lat="45.8519" lon="2.97203">
        <ele>1008</ele>
        <time>2021-08-28T05:25:54.000Z</time>
      </trkpt>
      <trkpt lat="45.85194" lon="2.97195">
        <ele>1008.6</ele>
        <time>2021-08-28T05:26:02.000Z</time>
      </trkpt>
      <trkpt lat="45.852" lon="2.97189">
        <ele>1008.7</ele>
        <time>2021-08-28T05:26:07.000Z</time>
      </trkpt>
      <trkpt lat="45.85204" lon="2.97181">
        <ele>1009.1</ele>
        <time>2021-08-28T05:26:13.000Z</time>
      </trkpt>
      <trkpt lat="45.85211" lon="2.97172">
        <ele>1009.1</ele>
        <time>2021-08-28T05:26:19.000Z</time>
      </trkpt>
      <trkpt lat="45.85215" lon="2.97164">
        <ele>1009.2</ele>
        <time>2021-08-28T05:26:26.000Z</time>
      </trkpt>
      <trkpt lat="45.85221" lon="2.97155">
        <ele>1009</ele>
        <time>2021-08-28T05:26:31.000Z</time>
      </trkpt>
      <trkpt lat="45.85225" lon="2.97145">
        <ele>1009.1</ele>
        <time>2021-08-28T05:26:37.000Z</time>
      </trkpt>
      <trkpt lat="45.85228" lon="2.97136">
        <ele>1009.3</ele>
        <time>2021-08-28T05:26:45.000Z</time>
      </trkpt>
      <trkpt lat="45.85236" lon="2.97124">
        <ele>1008.8</ele>
        <time>2021-08-28T05:26:59.000Z</time>
      </trkpt>
      <trkpt lat="45.85239" lon="2.97109">
        <ele>1009.3</ele>
        <time>2021-08-28T05:27:08.000Z</time>
      </trkpt>
      <trkpt lat="45.85244" lon="2.971">
        <ele>1009</ele>
        <time>2021-08-28T05:27:14.000Z</time>
      </trkpt>
      <trkpt lat="45.85246" lon="2.9709">
        <ele>1009.3</ele>
        <time>2021-08-28T05:27:20.000Z</time>
      </trkpt>
      <trkpt lat="45.85248" lon="2.97081">
        <ele>1009.6</ele>
        <time>2021-08-28T05:27:26.000Z</time>
      </trkpt>
      <trkpt lat="45.85252" lon="2.97072">
        <ele>1010</ele>
        <time>2021-08-28T05:27:31.000Z</time>
      </trkpt>
      <trkpt lat="45.85251" lon="2.97061">
        <ele>1011.1</ele>
        <time>2021-08-28T05:27:37.000Z</time>
      </trkpt>
      <trkpt lat="45.85254" lon="2.97052">
        <ele>1011.8</ele>
        <time>2021-08-28T05:27:54.000Z</time>
      </trkpt>
      <trkpt lat="45.85253" lon="2.97043">
        <ele>1012.7</ele>
        <time>2021-08-28T05:28:04.000Z</time>
      </trkpt>
      <trkpt lat="45.8525" lon="2.97033">
        <ele>1013.8</ele>
        <time>2021-08-28T05:28:10.000Z</time>
      </trkpt>
      <trkpt lat="45.8525" lon="2.97024">
        <ele>1014.7</ele>
        <time>2021-08-28T05:28:16.000Z</time>
      </trkpt>
      <trkpt lat="45.85248" lon="2.97006">
        <ele>1016.8</ele>
        <time>2021-08-28T05:28:32.000Z</time>
      </trkpt>
      <trkpt lat="45.85243" lon="2.96991">
        <ele>1019.1</ele>
        <time>2021-08-28T05:28:46.000Z</time>
      </trkpt>
      <trkpt lat="45.85238" lon="2.96975">
        <ele>1021.4</ele>
        <time>2021-08-28T05:28:57.000Z</time>
      </trkpt>
      <trkpt lat="45.85232" lon="2.96957">
        <ele>1024.3</ele>
        <time>2021-08-28T05:29:08.000Z</time>
      </trkpt>
      <trkpt lat="45.8523" lon="2.96943">
        <ele>1026</ele>
        <time>2021-08-28T05:29:16.000Z</time>
      </trkpt>
      <trkpt lat="45.85233" lon="2.96926">
        <ele>1027</ele>
        <time>2021-08-28T05:29:27.000Z</time>
      </trkpt>
      <trkpt lat="45.85234" lon="2.96915">
        <ele>1027.8</ele>
        <time>2021-08-28T05:29:32.000Z</time>
      </trkpt>
      <trkpt lat="45.85236" lon="2.96904">
        <ele>1028</ele>
        <time>2021-08-28T05:29:39.000Z</time>
      </trkpt>
      <trkpt lat="45.85238" lon="2.96894">
        <ele>1028.2</ele>
        <time>2021-08-28T05:29:43.000Z</time>
      </trkpt>
      <trkpt lat="45.85241" lon="2.96884">
        <ele>1028.1</ele>
        <time>2021-08-28T05:29:49.000Z</time>
      </trkpt>
      <trkpt lat="45.85246" lon="2.96878">
        <ele>1027.3</ele>
        <time>2021-08-28T05:29:54.000Z</time>
      </trkpt>
      <trkpt lat="45.85251" lon="2.9687">
        <ele>1026.7</ele>
        <time>2021-08-28T05:29:59.000Z</time>
      </trkpt>
      <trkpt lat="45.85255" lon="2.9686">
        <ele>1026.7</ele>
        <time>2021-08-28T05:30:05.000Z</time>
      </trkpt>
      <trkpt lat="45.8526" lon="2.96851">
        <ele>1026.6</ele>
        <time>2021-08-28T05:30:17.000Z</time>
      </trkpt>
      <trkpt lat="45.85264" lon="2.96843">
        <ele>1026.5</ele>
        <time>2021-08-28T05:30:28.000Z</time>
      </trkpt>
      <trkpt lat="45.85266" lon="2.96834">
        <ele>1026.7</ele>
        <time>2021-08-28T05:30:38.000Z</time>
      </trkpt>
      <trkpt lat="45.85271" lon="2.96825">
        <ele>1026.4</ele>
        <time>2021-08-28T05:30:47.000Z</time>
      </trkpt>
      <trkpt lat="45.85278" lon="2.96813">
        <ele>1026</ele>
        <time>2021-08-28T05:31:02.000Z</time>
      </trkpt>
      <trkpt lat="45.85286" lon="2.96802">
        <ele>1025.4</ele>
        <time>2021-08-28T05:31:16.000Z</time>
      </trkpt>
      <trkpt lat="45.85288" lon="2.96793">
        <ele>1025.5</ele>
        <time>2021-08-28T05:31:24.000Z</time>
      </trkpt>
      <trkpt lat="45.8529" lon="2.96783">
        <ele>1025.7</ele>
        <time>2021-08-28T05:31:29.000Z</time>
      </trkpt>
      <trkpt lat="45.85292" lon="2.96768">
        <ele>1026.1</ele>
        <time>2021-08-28T05:31:39.000Z</time>
      </trkpt>
      <trkpt lat="45.85289" lon="2.96747">
        <ele>1027.6</ele>
        <time>2021-08-28T05:31:50.000Z</time>
      </trkpt>
      <trkpt lat="45.85283" lon="2.96738">
        <ele>1029.1</ele>
        <time>2021-08-28T05:31:54.000Z</time>
      </trkpt>
      <trkpt lat="45.85277" lon="2.96726">
        <ele>1030.8</ele>
        <time>2021-08-28T05:32:01.000Z</time>
      </trkpt>
      <trkpt lat="45.85269" lon="2.9671">
        <ele>1033.3</ele>
        <time>2021-08-28T05:32:11.000Z</time>
      </trkpt>
      <trkpt lat="45.85262" lon="2.96695">
        <ele>1035.6</ele>
        <time>2021-08-28T05:32:24.000Z</time>
      </trkpt>
      <trkpt lat="45.85258" lon="2.96688">
        <ele>1036.8</ele>
        <time>2021-08-28T05:32:35.000Z</time>
      </trkpt>
      <trkpt lat="45.85249" lon="2.96671">
        <ele>1040</ele>
        <time>2021-08-28T05:32:42.000Z</time>
      </trkpt>
      <trkpt lat="45.85254" lon="2.96654">
        <ele>1040</ele>
        <time>2021-08-28T05:32:49.000Z</time>
      </trkpt>
      <trkpt lat="45.85251" lon="2.96642">
        <ele>1041.5</ele>
        <time>2021-08-28T05:32:57.000Z</time>
      </trkpt>
      <trkpt lat="45.85252" lon="2.96626">
        <ele>1042.5</ele>
        <time>2021-08-28T05:33:12.000Z</time>
      </trkpt>
      <trkpt lat="45.85257" lon="2.96609">
        <ele>1042.5</ele>
        <time>2021-08-28T05:33:23.000Z</time>
      </trkpt>
      <trkpt lat="45.85258" lon="2.96599">
        <ele>1042.9</ele>
        <time>2021-08-28T05:33:38.000Z</time>
      </trkpt>
      <trkpt lat="45.85248" lon="2.96599">
        <ele>1045.5</ele>
        <time>2021-08-28T05:34:30.000Z</time>
      </trkpt>
      <trkpt lat="45.85234" lon="2.96598">
        <ele>1050.1</ele>
        <time>2021-08-28T05:35:03.000Z</time>
      </trkpt>
      <trkpt lat="45.85222" lon="2.96599">
        <ele>1053.9</ele>
        <time>2021-08-28T05:35:12.000Z</time>
      </trkpt>
      <trkpt lat="45.85213" lon="2.96604">
        <ele>1056.5</ele>
        <time>2021-08-28T05:35:17.000Z</time>
      </trkpt>
      <trkpt lat="45.85206" lon="2.96604">
        <ele>1058.8</ele>
        <time>2021-08-28T05:35:25.000Z</time>
      </trkpt>
      <trkpt lat="45.85193" lon="2.96605">
        <ele>1062.9</ele>
        <time>2021-08-28T05:35:35.000Z</time>
      </trkpt>
      <trkpt lat="45.8518" lon="2.96613">
        <ele>1066.9</ele>
        <time>2021-08-28T05:36:03.000Z</time>
      </trkpt>
      <trkpt lat="45.85169" lon="2.96619">
        <ele>1070.4</ele>
        <time>2021-08-28T05:36:15.000Z</time>
      </trkpt>
      <trkpt lat="45.85163" lon="2.96626">
        <ele>1072.3</ele>
        <time>2021-08-28T05:36:32.000Z</time>
      </trkpt>
      <trkpt lat="45.85156" lon="2.96632">
        <ele>1074.7</ele>
        <time>2021-08-28T05:37:07.000Z</time>
      </trkpt>
      <trkpt lat="45.85148" lon="2.96641">
        <ele>1077.2</ele>
        <time>2021-08-28T05:38:08.000Z</time>
      </trkpt>
      <trkpt lat="45.85139" lon="2.96651">
        <ele>1080.1</ele>
        <time>2021-08-28T05:38:28.000Z</time>
      </trkpt>
      <trkpt lat="45.85128" lon="2.96663">
        <ele>1083.6</ele>
        <time>2021-08-28T05:38:40.000Z</time>
      </trkpt>
      <trkpt lat="45.85117" lon="2.96675">
        <ele>1086.5</ele>
        <time>2021-08-28T05:38:49.000Z</time>
      </trkpt>
      <trkpt lat="45.85111" lon="2.96681">
        <ele>1088.1</ele>
        <time>2021-08-28T05:38:52.000Z</time>
      </trkpt>
      <trkpt lat="45.85105" lon="2.96686">
        <ele>1089.7</ele>
        <time>2021-08-28T05:38:58.000Z</time>
      </trkpt>
      <trkpt lat="45.85097" lon="2.96696">
        <ele>1091.7</ele>
        <time>2021-08-28T05:39:49.000Z</time>
      </trkpt>
      <trkpt lat="45.85087" lon="2.96703">
        <ele>1094.6</ele>
        <time>2021-08-28T05:40:20.000Z</time>
      </trkpt>
      <trkpt lat="45.85055" lon="2.96607">
        <ele>1109.4</ele>
        <time>2021-08-28T05:40:39.000Z</time>
      </trkpt>
      <trkpt lat="45.85052" lon="2.96588">
        <ele>1111.7</ele>
        <time>2021-08-28T05:40:44.000Z</time>
      </trkpt>
      <trkpt lat="45.85058" lon="2.96583">
        <ele>1110.3</ele>
        <time>2021-08-28T05:40:50.000Z</time>
      </trkpt>
      <trkpt lat="45.85044" lon="2.96585">
        <ele>1114.2</ele>
        <time>2021-08-28T05:42:04.000Z</time>
      </trkpt>
      <trkpt lat="45.85039" lon="2.96594">
        <ele>1114.8</ele>
        <time>2021-08-28T05:43:45.000Z</time>
      </trkpt>
      <trkpt lat="45.85037" lon="2.96579">
        <ele>1116</ele>
        <time>2021-08-28T05:44:16.000Z</time>
      </trkpt>
      <trkpt lat="45.85031" lon="2.96583">
        <ele>1118.1</ele>
        <time>2021-08-28T05:46:50.000Z</time>
      </trkpt>
      <trkpt lat="45.85025" lon="2.9658">
        <ele>1119.6</ele>
        <time>2021-08-28T05:47:14.000Z</time>
      </trkpt>
      <trkpt lat="45.85016" lon="2.96584">
        <ele>1122.3</ele>
        <time>2021-08-28T05:47:42.000Z</time>
      </trkpt>
      <trkpt lat="45.8501" lon="2.96583">
        <ele>1124.1</ele>
        <time>2021-08-28T05:48:12.000Z</time>
      </trkpt>
      <trkpt lat="45.85002" lon="2.96581">
        <ele>1126.3</ele>
        <time>2021-08-28T05:48:18.000Z</time>
      </trkpt>
      <trkpt lat="45.84995" lon="2.96581">
        <ele>1127</ele>
        <time>2021-08-28T05:48:25.000Z</time>
      </trkpt>
      <trkpt lat="45.84989" lon="2.96579">
        <ele>1127</ele>
        <time>2021-08-28T05:48:54.000Z</time>
      </trkpt>
      <trkpt lat="45.84984" lon="2.96573">
        <ele>1127.1</ele>
        <time>2021-08-28T05:49:02.000Z</time>
      </trkpt>
      <trkpt lat="45.84978" lon="2.96569">
        <ele>1127.3</ele>
        <time>2021-08-28T05:49:11.000Z</time>
      </trkpt>
      <trkpt lat="45.84971" lon="2.96568">
        <ele>1127.6</ele>
        <time>2021-08-28T05:49:19.000Z</time>
      </trkpt>
      <trkpt lat="45.84966" lon="2.9656">
        <ele>1128.1</ele>
        <time>2021-08-28T05:49:29.000Z</time>
      </trkpt>
      <trkpt lat="45.84961" lon="2.96553">
        <ele>1128.7</ele>
        <time>2021-08-28T05:49:37.000Z</time>
      </trkpt>
      <trkpt lat="45.84955" lon="2.96549">
        <ele>1129.5</ele>
        <time>2021-08-28T05:49:44.000Z</time>
      </trkpt>
      <trkpt lat="45.84948" lon="2.96544">
        <ele>1130.4</ele>
        <time>2021-08-28T05:49:54.000Z</time>
      </trkpt>
      <trkpt lat="45.84942" lon="2.9654">
        <ele>1131.4</ele>
        <time>2021-08-28T05:50:01.000Z</time>
      </trkpt>
      <trkpt lat="45.84936" lon="2.96536">
        <ele>1132.5</ele>
        <time>2021-08-28T05:50:09.000Z</time>
      </trkpt>
      <trkpt lat="45.84928" lon="2.96528">
        <ele>1134.4</ele>
        <time>2021-08-28T05:50:20.000Z</time>
      </trkpt>
      <trkpt lat="45.84928" lon="2.96519">
        <ele>1135.4</ele>
        <time>2021-08-28T05:50:34.000Z</time>
      </trkpt>
      <trkpt lat="45.84931" lon="2.9651">
        <ele>1136</ele>
        <time>2021-08-28T05:50:42.000Z</time>
      </trkpt>
      <trkpt lat="45.84933" lon="2.96501">
        <ele>1136.6</ele>
        <time>2021-08-28T05:50:50.000Z</time>
      </trkpt>
      <trkpt lat="45.84934" lon="2.96492">
        <ele>1135</ele>
        <time>2021-08-28T05:51:04.000Z</time>
      </trkpt>
      <trkpt lat="45.84933" lon="2.96482">
        <ele>1133.3</ele>
        <time>2021-08-28T05:51:17.000Z</time>
      </trkpt>
      <trkpt lat="45.84929" lon="2.96474">
        <ele>1132.7</ele>
        <time>2021-08-28T05:51:33.000Z</time>
      </trkpt>
      <trkpt lat="45.84934" lon="2.96463">
        <ele>1129.5</ele>
        <time>2021-08-28T05:51:45.000Z</time>
      </trkpt>
      <trkpt lat="45.84927" lon="2.96463">
        <ele>1131.1</ele>
        <time>2021-08-28T05:51:59.000Z</time>
      </trkpt>
      <trkpt lat="45.84921" lon="2.96467">
        <ele>1133.1</ele>
        <time>2021-08-28T05:52:06.000Z</time>
      </trkpt>
      <trkpt lat="45.84913" lon="2.96465">
        <ele>1134.2</ele>
        <time>2021-08-28T05:52:12.000Z</time>
      </trkpt>
      <trkpt lat="45.84914" lon="2.96456">
        <ele>1132.4</ele>
        <time>2021-08-28T05:52:46.000Z</time>
      </trkpt>
      <trkpt lat="45.84915" lon="2.96445">
        <ele>1130.3</ele>
        <time>2021-08-28T05:52:53.000Z</time>
      </trkpt>
      <trkpt lat="45.84908" lon="2.96431">
        <ele>1128.4</ele>
        <time>2021-08-28T05:54:15.000Z</time>
      </trkpt>
      <trkpt lat="45.84912" lon="2.96424">
        <ele>1126.7</ele>
        <time>2021-08-28T05:54:27.000Z</time>
      </trkpt>
      <trkpt lat="45.84919" lon="2.96407">
        <ele>1121.1</ele>
        <time>2021-08-28T05:56:44.000Z</time>
      </trkpt>
      <trkpt lat="45.84914" lon="2.96414">
        <ele>1124.3</ele>
        <time>2021-08-28T05:57:34.000Z</time>
      </trkpt>
      <trkpt lat="45.84908" lon="2.96418">
        <ele>1126</ele>
        <time>2021-08-28T05:57:52.000Z</time>
      </trkpt>
      <trkpt lat="45.84901" lon="2.96417">
        <ele>1126.4</ele>
        <time>2021-08-28T05:58:17.000Z</time>
      </trkpt>
      <trkpt lat="45.84895" lon="2.96418">
        <ele>1127.1</ele>
        <time>2021-08-28T05:58:27.000Z</time>
      </trkpt>
      <trkpt lat="45.84888" lon="2.9642">
        <ele>1128.1</ele>
        <time>2021-08-28T05:58:34.000Z</time>
      </trkpt>
      <trkpt lat="45.84881" lon="2.96421">
        <ele>1128.9</ele>
        <time>2021-08-28T05:58:41.000Z</time>
      </trkpt>
      <trkpt lat="45.84874" lon="2.96423">
        <ele>1130</ele>
        <time>2021-08-28T05:58:49.000Z</time>
      </trkpt>
      <trkpt lat="45.84867" lon="2.96424">
        <ele>1130.8</ele>
        <time>2021-08-28T05:58:57.000Z</time>
      </trkpt>
      <trkpt lat="45.84861" lon="2.96418">
        <ele>1130</ele>
        <time>2021-08-28T05:59:02.000Z</time>
      </trkpt>
      <trkpt lat="45.84855" lon="2.96411">
        <ele>1128.2</ele>
        <time>2021-08-28T05:59:08.000Z</time>
      </trkpt>
      <trkpt lat="45.8485" lon="2.96417">
        <ele>1130.7</ele>
        <time>2021-08-28T05:59:20.000Z</time>
      </trkpt>
      <trkpt lat="45.84843" lon="2.96419">
        <ele>1131.8</ele>
        <time>2021-08-28T05:59:28.000Z</time>
      </trkpt>
      <trkpt lat="45.84836" lon="2.96421">
        <ele>1132.9</ele>
        <time>2021-08-28T05:59:36.000Z</time>
      </trkpt>
      <trkpt lat="45.8483" lon="2.96423">
        <ele>1133.1</ele>
        <time>2021-08-28T05:59:44.000Z</time>
      </trkpt>
      <trkpt lat="45.84823" lon="2.96426">
        <ele>1132.8</ele>
        <time>2021-08-28T05:59:53.000Z</time>
      </trkpt>
      <trkpt lat="45.84817" lon="2.96431">
        <ele>1133.2</ele>
        <time>2021-08-28T05:59:59.000Z</time>
      </trkpt>
      <trkpt lat="45.8481" lon="2.96435">
        <ele>1133.2</ele>
        <time>2021-08-28T06:00:06.000Z</time>
      </trkpt>
      <trkpt lat="45.84803" lon="2.96435">
        <ele>1132.2</ele>
        <time>2021-08-28T06:00:14.000Z</time>
      </trkpt>
      <trkpt lat="45.84797" lon="2.96439">
        <ele>1132.4</ele>
        <time>2021-08-28T06:00:23.000Z</time>
      </trkpt>
      <trkpt lat="45.8479" lon="2.96443">
        <ele>1132.5</ele>
        <time>2021-08-28T06:00:34.000Z</time>
      </trkpt>
      <trkpt lat="45.84784" lon="2.96446">
        <ele>1132.5</ele>
        <time>2021-08-28T06:00:43.000Z</time>
      </trkpt>
      <trkpt lat="45.84776" lon="2.96448">
        <ele>1132</ele>
        <time>2021-08-28T06:00:53.000Z</time>
      </trkpt>
      <trkpt lat="45.84769" lon="2.96447">
        <ele>1130.7</ele>
        <time>2021-08-28T06:01:02.000Z</time>
      </trkpt>
      <trkpt lat="45.84761" lon="2.96448">
        <ele>1129.9</ele>
        <time>2021-08-28T06:01:11.000Z</time>
      </trkpt>
      <trkpt lat="45.84755" lon="2.96451">
        <ele>1130</ele>
        <time>2021-08-28T06:01:40.000Z</time>
      </trkpt>
      <trkpt lat="45.84752" lon="2.9646">
        <ele>1132.3</ele>
        <time>2021-08-28T06:01:54.000Z</time>
      </trkpt>
      <trkpt lat="45.84746" lon="2.96464">
        <ele>1132.2</ele>
        <time>2021-08-28T06:02:05.000Z</time>
      </trkpt>
      <trkpt lat="45.8474" lon="2.96468">
        <ele>1132</ele>
        <time>2021-08-28T06:02:21.000Z</time>
      </trkpt>
      <trkpt lat="45.84734" lon="2.96475">
        <ele>1132.5</ele>
        <time>2021-08-28T06:02:39.000Z</time>
      </trkpt>
      <trkpt lat="45.84729" lon="2.96481">
        <ele>1132.9</ele>
        <time>2021-08-28T06:02:49.000Z</time>
      </trkpt>
      <trkpt lat="45.84721" lon="2.96477">
        <ele>1129.8</ele>
        <time>2021-08-28T06:03:06.000Z</time>
      </trkpt>
      <trkpt lat="45.84713" lon="2.96469">
        <ele>1125.6</ele>
        <time>2021-08-28T06:03:23.000Z</time>
      </trkpt>
      <trkpt lat="45.84708" lon="2.9648">
        <ele>1127.3</ele>
      </trkpt>
      <trkpt lat="45.84696" lon="2.96492">
        <ele>1127.1</ele>
      </trkpt>
      <trkpt lat="45.84694" lon="2.96502">
        <ele>1128.8</ele>
      </trkpt>
      <trkpt lat="45.84683" lon="2.96524">
        <ele>1129</ele>
        <time>2021-08-28T06:04:09.000Z</time>
      </trkpt>
      <trkpt lat="45.84675" lon="2.96562">
        <ele>1132.6</ele>
      </trkpt>
      <trkpt lat="45.84665" lon="2.96598">
        <ele>1134</ele>
      </trkpt>
      <trkpt lat="45.84666" lon="2.96581">
        <ele>1133.6</ele>
      </trkpt>
      <trkpt lat="45.84672" lon="2.96562">
        <ele>1131.9</ele>
      </trkpt>
      <trkpt lat="45.84686" lon="2.9651">
        <ele>1127.8</ele>
        <time>2021-08-28T06:04:28.000Z</time>
      </trkpt>
      <trkpt lat="45.84702" lon="2.965">
        <ele>1130.8</ele>
      </trkpt>
      <trkpt lat="45.84718" lon="2.96485">
        <ele>1131.2</ele>
        <time>2021-08-28T06:05:18.000Z</time>
      </trkpt>
      <trkpt lat="45.84725" lon="2.96487">
        <ele>1133.5</ele>
        <time>2021-08-28T06:05:31.000Z</time>
      </trkpt>
      <trkpt lat="45.84731" lon="2.96489">
        <ele>1135.7</ele>
        <time>2021-08-28T06:05:52.000Z</time>
      </trkpt>
      <trkpt lat="45.8473" lon="2.9648">
        <ele>1132.9</ele>
        <time>2021-08-28T06:06:03.000Z</time>
      </trkpt>
      <trkpt lat="45.84732" lon="2.9647">
        <ele>1130.6</ele>
        <time>2021-08-28T06:06:13.000Z</time>
      </trkpt>
      <trkpt lat="45.8473" lon="2.96461">
        <ele>1127.6</ele>
        <time>2021-08-28T06:06:27.000Z</time>
      </trkpt>
      <trkpt lat="45.84723" lon="2.96469">
        <ele>1128.1</ele>
        <time>2021-08-28T06:06:45.000Z</time>
      </trkpt>
      <trkpt lat="45.84717" lon="2.96467">
        <ele>1126.1</ele>
        <time>2021-08-28T06:07:00.000Z</time>
      </trkpt>
      <trkpt lat="45.84724" lon="2.96466">
        <ele>1127.5</ele>
        <time>2021-08-28T06:07:40.000Z</time>
      </trkpt>
      <trkpt lat="45.8473" lon="2.9647">
        <ele>1130.1</ele>
        <time>2021-08-28T06:07:55.000Z</time>
      </trkpt>
      <trkpt lat="45.84733" lon="2.96479">
        <ele>1133.4</ele>
        <time>2021-08-28T06:08:09.000Z</time>
      </trkpt>
      <trkpt lat="45.84736" lon="2.96488">
        <ele>1136.7</ele>
        <time>2021-08-28T06:08:15.000Z</time>
      </trkpt>
      <trkpt lat="45.84738" lon="2.96505">
        <ele>1141.2</ele>
        <time>2021-08-28T06:08:27.000Z</time>
      </trkpt>
      <trkpt lat="45.84744" lon="2.96506">
        <ele>1142.9</ele>
        <time>2021-08-28T06:08:46.000Z</time>
      </trkpt>
      <trkpt lat="45.84746" lon="2.9652">
        <ele>1144.9</ele>
        <time>2021-08-28T06:09:08.000Z</time>
      </trkpt>
      <trkpt lat="45.8474" lon="2.96523">
        <ele>1143.6</ele>
        <time>2021-08-28T06:09:50.000Z</time>
      </trkpt>
      <trkpt lat="45.8473" lon="2.96526">
        <ele>1141.4</ele>
        <time>2021-08-28T06:10:03.000Z</time>
      </trkpt>
      <trkpt lat="45.84737" lon="2.96529">
        <ele>1143.5</ele>
        <time>2021-08-28T06:10:32.000Z</time>
      </trkpt>
      <trkpt lat="45.84743" lon="2.9653">
        <ele>1145.1</ele>
        <time>2021-08-28T06:10:44.000Z</time>
      </trkpt>
      <trkpt lat="45.84748" lon="2.96537">
        <ele>1147.1</ele>
        <time>2021-08-28T06:10:53.000Z</time>
      </trkpt>
      <trkpt lat="45.84753" lon="2.96543">
        <ele>1148.1</ele>
        <time>2021-08-28T06:11:04.000Z</time>
      </trkpt>
      <trkpt lat="45.84759" lon="2.96549">
        <ele>1148.4</ele>
        <time>2021-08-28T06:11:15.000Z</time>
      </trkpt>
      <trkpt lat="45.84763" lon="2.96557">
        <ele>1148.7</ele>
        <time>2021-08-28T06:11:40.000Z</time>
      </trkpt>
      <trkpt lat="45.8477" lon="2.9656">
        <ele>1148.5</ele>
        <time>2021-08-28T06:11:56.000Z</time>
      </trkpt>
      <trkpt lat="45.84777" lon="2.96559">
        <ele>1148</ele>
        <time>2021-08-28T06:12:09.000Z</time>
      </trkpt>
      <trkpt lat="45.84783" lon="2.9656">
        <ele>1147.6</ele>
        <time>2021-08-28T06:12:19.000Z</time>
      </trkpt>
      <trkpt lat="45.84788" lon="2.96552">
        <ele>1147.4</ele>
        <time>2021-08-28T06:12:34.000Z</time>
      </trkpt>
      <trkpt lat="45.84789" lon="2.96542">
        <ele>1147.5</ele>
        <time>2021-08-28T06:12:44.000Z</time>
      </trkpt>
      <trkpt lat="45.84795" lon="2.96541">
        <ele>1147.5</ele>
        <time>2021-08-28T06:12:55.000Z</time>
      </trkpt>
      <trkpt lat="45.84802" lon="2.96537">
        <ele>1147.6</ele>
        <time>2021-08-28T06:13:05.000Z</time>
      </trkpt>
      <trkpt lat="45.84808" lon="2.96537">
        <ele>1147.6</ele>
        <time>2021-08-28T06:13:13.000Z</time>
      </trkpt>
      <trkpt lat="45.84815" lon="2.96536">
        <ele>1147.7</ele>
        <time>2021-08-28T06:13:20.000Z</time>
      </trkpt>
      <trkpt lat="45.84822" lon="2.96535">
        <ele>1147.9</ele>
        <time>2021-08-28T06:13:25.000Z</time>
      </trkpt>
      <trkpt lat="45.84828" lon="2.96535">
        <ele>1147.9</ele>
        <time>2021-08-28T06:13:31.000Z</time>
      </trkpt>
      <trkpt lat="45.84835" lon="2.96536">
        <ele>1147.6</ele>
        <time>2021-08-28T06:13:37.000Z</time>
      </trkpt>
      <trkpt lat="45.84842" lon="2.96534">
        <ele>1146.8</ele>
        <time>2021-08-28T06:13:44.000Z</time>
      </trkpt>
      <trkpt lat="45.84848" lon="2.96531">
        <ele>1146.2</ele>
        <time>2021-08-28T06:13:52.000Z</time>
      </trkpt>
      <trkpt lat="45.84854" lon="2.96526">
        <ele>1146</ele>
        <time>2021-08-28T06:14:20.000Z</time>
      </trkpt>
      <trkpt lat="45.84858" lon="2.96519">
        <ele>1146.4</ele>
        <time>2021-08-28T06:14:32.000Z</time>
      </trkpt>
      <trkpt lat="45.84864" lon="2.96513">
        <ele>1146.3</ele>
        <time>2021-08-28T06:14:43.000Z</time>
      </trkpt>
      <trkpt lat="45.84869" lon="2.96506">
        <ele>1146.6</ele>
        <time>2021-08-28T06:14:57.000Z</time>
      </trkpt>
      <trkpt lat="45.84874" lon="2.965">
        <ele>1146.7</ele>
        <time>2021-08-28T06:15:07.000Z</time>
      </trkpt>
      <trkpt lat="45.84879" lon="2.96479">
        <ele>1141.4</ele>
        <time>2021-08-28T06:15:49.000Z</time>
      </trkpt>
      <trkpt lat="45.8488" lon="2.9647">
        <ele>1139.4</ele>
        <time>2021-08-28T06:16:01.000Z</time>
      </trkpt>
      <trkpt lat="45.8488" lon="2.96459">
        <ele>1137</ele>
        <time>2021-08-28T06:16:20.000Z</time>
      </trkpt>
      <trkpt lat="45.8488" lon="2.9645">
        <ele>1135.1</ele>
        <time>2021-08-28T06:16:34.000Z</time>
      </trkpt>
      <trkpt lat="45.84888" lon="2.96431">
        <ele>1130.3</ele>
        <time>2021-08-28T06:16:57.000Z</time>
      </trkpt>
      <trkpt lat="45.84887" lon="2.96415">
        <ele>1126.9</ele>
        <time>2021-08-28T06:17:25.000Z</time>
      </trkpt>
      <trkpt lat="45.84891" lon="2.964">
        <ele>1121.3</ele>
        <time>2021-08-28T06:17:55.000Z</time>
      </trkpt>
      <trkpt lat="45.84894" lon="2.96386">
        <ele>1116.1</ele>
        <time>2021-08-28T06:18:36.000Z</time>
      </trkpt>
      <trkpt lat="45.84898" lon="2.96368">
        <ele>1109.5</ele>
        <time>2021-08-28T06:19:11.000Z</time>
      </trkpt>
      <trkpt lat="45.849" lon="2.96353">
        <ele>1104.1</ele>
        <time>2021-08-28T06:19:34.000Z</time>
      </trkpt>
      <trkpt lat="45.84904" lon="2.96345">
        <ele>1101</ele>
        <time>2021-08-28T06:19:43.000Z</time>
      </trkpt>
      <trkpt lat="45.84907" lon="2.9633">
        <ele>1095.5</ele>
        <time>2021-08-28T06:20:06.000Z</time>
      </trkpt>
      <trkpt lat="45.84911" lon="2.96317">
        <ele>1090.5</ele>
        <time>2021-08-28T06:20:28.000Z</time>
      </trkpt>
      <trkpt lat="45.84914" lon="2.96301">
        <ele>1084.6</ele>
        <time>2021-08-28T06:20:57.000Z</time>
      </trkpt>
      <trkpt lat="45.84918" lon="2.96287">
        <ele>1079</ele>
        <time>2021-08-28T06:21:13.000Z</time>
      </trkpt>
      <trkpt lat="45.84921" lon="2.96267">
        <ele>1071.1</ele>
        <time>2021-08-28T06:21:40.000Z</time>
      </trkpt>
      <trkpt lat="45.84919" lon="2.96252">
        <ele>1066.2</ele>
        <time>2021-08-28T06:22:16.000Z</time>
      </trkpt>
      <trkpt lat="45.84892" lon="2.96308">
        <ele>1088.7</ele>
      </trkpt>
      <trkpt lat="45.8487" lon="2.96342">
        <ele>1102.4</ele>
      </trkpt>
      <trkpt lat="45.84867" lon="2.96374">
        <ele>1114</ele>
      </trkpt>
      <trkpt lat="45.84845" lon="2.96448">
        <ele>1138.6</ele>
        <time>2021-08-28T06:22:25.000Z</time>
      </trkpt>
      <trkpt lat="45.84841" lon="2.96486">
        <ele>1148.4</ele>
      </trkpt>
      <trkpt lat="45.84809" lon="2.96504">
        <ele>1150.1</ele>
        <time>2021-08-28T06:22:31.000Z</time>
      </trkpt>
      <trkpt lat="45.84814" lon="2.96556">
        <ele>1146</ele>
      </trkpt>
      <trkpt lat="45.84821" lon="2.96582">
        <ele>1142.8</ele>
      </trkpt>
      <trkpt lat="45.84805" lon="2.96609">
        <ele>1141.7</ele>
        <time>2021-08-28T06:22:40.000Z</time>
      </trkpt>
      <trkpt lat="45.84815" lon="2.96604">
        <ele>1140.6</ele>
        <time>2021-08-28T06:22:49.000Z</time>
      </trkpt>
      <trkpt lat="45.84825" lon="2.96591">
        <ele>1140.9</ele>
        <time>2021-08-28T06:23:01.000Z</time>
      </trkpt>
      <trkpt lat="45.84829" lon="2.9658">
        <ele>1142</ele>
        <time>2021-08-28T06:23:07.000Z</time>
      </trkpt>
      <trkpt lat="45.84831" lon="2.96568">
        <ele>1143.4</ele>
        <time>2021-08-28T06:23:21.000Z</time>
      </trkpt>
      <trkpt lat="45.84846" lon="2.96564">
        <ele>1141.8</ele>
        <time>2021-08-28T06:23:31.000Z</time>
      </trkpt>
      <trkpt lat="45.84857" lon="2.96561">
        <ele>1140.5</ele>
        <time>2021-08-28T06:23:44.000Z</time>
      </trkpt>
      <trkpt lat="45.84862" lon="2.96546">
        <ele>1141.9</ele>
        <time>2021-08-28T06:23:56.000Z</time>
      </trkpt>
      <trkpt lat="45.84872" lon="2.96535">
        <ele>1141.9</ele>
        <time>2021-08-28T06:24:10.000Z</time>
      </trkpt>
      <trkpt lat="45.84878" lon="2.9653">
        <ele>1141.7</ele>
        <time>2021-08-28T06:24:16.000Z</time>
      </trkpt>
      <trkpt lat="45.84889" lon="2.96518">
        <ele>1141.7</ele>
        <time>2021-08-28T06:24:32.000Z</time>
      </trkpt>
      <trkpt lat="45.84894" lon="2.96523">
        <ele>1140.2</ele>
        <time>2021-08-28T06:24:42.000Z</time>
      </trkpt>
      <trkpt lat="45.84899" lon="2.96515">
        <ele>1140.6</ele>
        <time>2021-08-28T06:24:51.000Z</time>
      </trkpt>
      <trkpt lat="45.84899" lon="2.96498">
        <ele>1142.4</ele>
        <time>2021-08-28T06:25:07.000Z</time>
      </trkpt>
      <trkpt lat="45.84905" lon="2.96494">
        <ele>1140.7</ele>
        <time>2021-08-28T06:25:27.000Z</time>
      </trkpt>
      <trkpt lat="45.84912" lon="2.96492">
        <ele>1139.3</ele>
        <time>2021-08-28T06:25:33.000Z</time>
      </trkpt>
      <trkpt lat="45.84916" lon="2.96501">
        <ele>1140</ele>
        <time>2021-08-28T06:25:40.000Z</time>
      </trkpt>
      <trkpt lat="45.84928" lon="2.96497">
        <ele>1137.1</ele>
        <time>2021-08-28T06:25:45.000Z</time>
      </trkpt>
      <trkpt lat="45.84941" lon="2.96488">
        <ele>1132.7</ele>
        <time>2021-08-28T06:25:51.000Z</time>
      </trkpt>
      <trkpt lat="45.84954" lon="2.96481">
        <ele>1128.7</ele>
        <time>2021-08-28T06:25:57.000Z</time>
      </trkpt>
      <trkpt lat="45.84963" lon="2.96482">
        <ele>1126.9</ele>
        <time>2021-08-28T06:26:15.000Z</time>
      </trkpt>
      <trkpt lat="45.84964" lon="2.96491">
        <ele>1128.5</ele>
        <time>2021-08-28T06:26:26.000Z</time>
      </trkpt>
      <trkpt lat="45.84967" lon="2.965">
        <ele>1129.7</ele>
        <time>2021-08-28T06:27:01.000Z</time>
      </trkpt>
      <trkpt lat="45.84968" lon="2.96509">
        <ele>1129.3</ele>
        <time>2021-08-28T06:27:13.000Z</time>
      </trkpt>
      <trkpt lat="45.84968" lon="2.96519">
        <ele>1129</ele>
        <time>2021-08-28T06:27:20.000Z</time>
      </trkpt>
      <trkpt lat="45.84964" lon="2.9653">
        <ele>1129.3</ele>
        <time>2021-08-28T06:27:58.000Z</time>
      </trkpt>
      <trkpt lat="45.8496" lon="2.96522">
        <ele>1130.2</ele>
        <time>2021-08-28T06:28:20.000Z</time>
      </trkpt>
      <trkpt lat="45.84954" lon="2.96525">
        <ele>1130.9</ele>
        <time>2021-08-28T06:29:15.000Z</time>
      </trkpt>
      <trkpt lat="45.8496" lon="2.96528">
        <ele>1129.9</ele>
        <time>2021-08-28T06:30:21.000Z</time>
      </trkpt>
      <trkpt lat="45.84965" lon="2.96535">
        <ele>1129</ele>
        <time>2021-08-28T06:30:31.000Z</time>
      </trkpt>
      <trkpt lat="45.8497" lon="2.96541">
        <ele>1128.3</ele>
        <time>2021-08-28T06:30:43.000Z</time>
      </trkpt>
      <trkpt lat="45.84978" lon="2.96543">
        <ele>1127.4</ele>
        <time>2021-08-28T06:30:55.000Z</time>
      </trkpt>
      <trkpt lat="45.84985" lon="2.96542">
        <ele>1126.6</ele>
        <time>2021-08-28T06:32:21.000Z</time>
      </trkpt>
      <trkpt lat="45.84991" lon="2.96543">
        <ele>1126</ele>
        <time>2021-08-28T06:32:34.000Z</time>
      </trkpt>
      <trkpt lat="45.84997" lon="2.96549">
        <ele>1125.6</ele>
        <time>2021-08-28T06:32:43.000Z</time>
      </trkpt>
      <trkpt lat="45.85002" lon="2.96555">
        <ele>1125</ele>
        <time>2021-08-28T06:32:57.000Z</time>
      </trkpt>
      <trkpt lat="45.85009" lon="2.96557">
        <ele>1123</ele>
        <time>2021-08-28T06:33:15.000Z</time>
      </trkpt>
      <trkpt lat="45.85004" lon="2.96552">
        <ele>1124.3</ele>
        <time>2021-08-28T06:34:38.000Z</time>
      </trkpt>
      <trkpt lat="45.84997" lon="2.9655">
        <ele>1125.7</ele>
        <time>2021-08-28T06:34:59.000Z</time>
      </trkpt>
      <trkpt lat="45.85022" lon="2.96498">
        <ele>1115.2</ele>
      </trkpt>
      <trkpt lat="45.85025" lon="2.96454">
        <ele>1104.5</ele>
      </trkpt>
      <trkpt lat="45.8504" lon="2.96406">
        <ele>1088.1</ele>
      </trkpt>
      <trkpt lat="45.8503" lon="2.9638">
        <ele>1083.9</ele>
      </trkpt>
      <trkpt lat="45.85071" lon="2.96349">
        <ele>1063.9</ele>
        <time>2021-08-28T06:35:11.000Z</time>
      </trkpt>
      <trkpt lat="45.85076" lon="2.96338">
        <ele>1060</ele>
        <time>2021-08-28T06:35:15.000Z</time>
      </trkpt>
      <trkpt lat="45.85085" lon="2.96328">
        <ele>1055</ele>
        <time>2021-08-28T06:35:21.000Z</time>
      </trkpt>
      <trkpt lat="45.85092" lon="2.96332">
        <ele>1054.5</ele>
        <time>2021-08-28T06:35:30.000Z</time>
      </trkpt>
      <trkpt lat="45.85105" lon="2.96332">
        <ele>1051.5</ele>
        <time>2021-08-28T06:35:33.000Z</time>
      </trkpt>
      <trkpt lat="45.85111" lon="2.96332">
        <ele>1050</ele>
        <time>2021-08-28T06:35:39.000Z</time>
      </trkpt>
      <trkpt lat="45.85125" lon="2.9635">
        <ele>1050.4</ele>
        <time>2021-08-28T06:35:45.000Z</time>
      </trkpt>
      <trkpt lat="45.8514" lon="2.96357">
        <ele>1048</ele>
        <time>2021-08-28T06:35:51.000Z</time>
      </trkpt>
      <trkpt lat="45.85132" lon="2.96353">
        <ele>1049.3</ele>
        <time>2021-08-28T06:36:24.000Z</time>
      </trkpt>
      <trkpt lat="45.85123" lon="2.96349">
        <ele>1050.7</ele>
        <time>2021-08-28T06:36:50.000Z</time>
      </trkpt>
      <trkpt lat="45.85115" lon="2.96355">
        <ele>1053.9</ele>
        <time>2021-08-28T06:37:10.000Z</time>
      </trkpt>
      <trkpt lat="45.85114" lon="2.96345">
        <ele>1052.1</ele>
        <time>2021-08-28T06:37:27.000Z</time>
      </trkpt>
      <trkpt lat="45.85119" lon="2.96325">
        <ele>1046.6</ele>
        <time>2021-08-28T06:37:33.000Z</time>
      </trkpt>
      <trkpt lat="45.85122" lon="2.96307">
        <ele>1042</ele>
        <time>2021-08-28T06:37:39.000Z</time>
      </trkpt>
      <trkpt lat="45.85103" lon="2.96248">
        <ele>1030.5</ele>
        <time>2021-08-28T06:37:45.000Z</time>
      </trkpt>
      <trkpt lat="45.85104" lon="2.96227">
        <ele>1026.8</ele>
        <time>2021-08-28T06:37:51.000Z</time>
      </trkpt>
      <trkpt lat="45.85095" lon="2.96207">
        <ele>1023</ele>
        <time>2021-08-28T06:37:57.000Z</time>
      </trkpt>
      <trkpt lat="45.85089" lon="2.96198">
        <ele>1021</ele>
        <time>2021-08-28T06:38:03.000Z</time>
      </trkpt>
      <trkpt lat="45.85084" lon="2.96206">
        <ele>1022.5</ele>
        <time>2021-08-28T06:38:15.000Z</time>
      </trkpt>
      <trkpt lat="45.85078" lon="2.9621">
        <ele>1024.1</ele>
        <time>2021-08-28T06:38:31.000Z</time>
      </trkpt>
      <trkpt lat="45.85072" lon="2.96216">
        <ele>1026.3</ele>
        <time>2021-08-28T06:38:40.000Z</time>
      </trkpt>
      <trkpt lat="45.85065" lon="2.96206">
        <ele>1025</ele>
        <time>2021-08-28T06:38:45.000Z</time>
      </trkpt>
      <trkpt lat="45.85058" lon="2.96208">
        <ele>1026.4</ele>
        <time>2021-08-28T06:39:01.000Z</time>
      </trkpt>
      <trkpt lat="45.85057" lon="2.96221">
        <ele>1029.7</ele>
        <time>2021-08-28T06:41:31.000Z</time>
      </trkpt>
      <trkpt lat="45.85048" lon="2.96237">
        <ele>1035.1</ele>
        <time>2021-08-28T06:41:46.000Z</time>
      </trkpt>
      <trkpt lat="45.85044" lon="2.96245">
        <ele>1037.8</ele>
        <time>2021-08-28T06:41:55.000Z</time>
      </trkpt>
      <trkpt lat="45.85037" lon="2.96254">
        <ele>1041.7</ele>
        <time>2021-08-28T06:42:09.000Z</time>
      </trkpt>
      <trkpt lat="45.85029" lon="2.96258">
        <ele>1044.6</ele>
        <time>2021-08-28T06:42:21.000Z</time>
      </trkpt>
      <trkpt lat="45.85023" lon="2.96262">
        <ele>1047.1</ele>
        <time>2021-08-28T06:42:28.000Z</time>
      </trkpt>
      <trkpt lat="45.85019" lon="2.96269">
        <ele>1050.3</ele>
        <time>2021-08-28T06:42:36.000Z</time>
      </trkpt>
      <trkpt lat="45.85012" lon="2.9627">
        <ele>1052.1</ele>
        <time>2021-08-28T06:42:42.000Z</time>
      </trkpt>
      <trkpt lat="45.85005" lon="2.96271">
        <ele>1053.8</ele>
        <time>2021-08-28T06:42:48.000Z</time>
      </trkpt>
      <trkpt lat="45.84997" lon="2.96268">
        <ele>1054.4</ele>
        <time>2021-08-28T06:42:55.000Z</time>
      </trkpt>
      <trkpt lat="45.8499" lon="2.96268">
        <ele>1056</ele>
        <time>2021-08-28T06:43:02.000Z</time>
      </trkpt>
      <trkpt lat="45.84983" lon="2.96268">
        <ele>1057.5</ele>
        <time>2021-08-28T06:43:11.000Z</time>
      </trkpt>
      <trkpt lat="45.84976" lon="2.96265">
        <ele>1058</ele>
        <time>2021-08-28T06:43:17.000Z</time>
      </trkpt>
      <trkpt lat="45.8497" lon="2.96268">
        <ele>1060.5</ele>
        <time>2021-08-28T06:43:25.000Z</time>
      </trkpt>
      <trkpt lat="45.84964" lon="2.96265">
        <ele>1060.7</ele>
        <time>2021-08-28T06:43:33.000Z</time>
      </trkpt>
      <trkpt lat="45.84956" lon="2.96262">
        <ele>1061.4</ele>
        <time>2021-08-28T06:43:40.000Z</time>
      </trkpt>
      <trkpt lat="45.84949" lon="2.96263">
        <ele>1063.4</ele>
        <time>2021-08-28T06:43:49.000Z</time>
      </trkpt>
      <trkpt lat="45.84942" lon="2.96264">
        <ele>1065.3</ele>
        <time>2021-08-28T06:43:57.000Z</time>
      </trkpt>
      <trkpt lat="45.84936" lon="2.96264">
        <ele>1066.7</ele>
        <time>2021-08-28T06:44:04.000Z</time>
      </trkpt>
      <trkpt lat="45.84928" lon="2.96261">
        <ele>1067.4</ele>
        <time>2021-08-28T06:44:11.000Z</time>
      </trkpt>
      <trkpt lat="45.84921" lon="2.96256">
        <ele>1067.2</ele>
        <time>2021-08-28T06:44:16.000Z</time>
      </trkpt>
      <trkpt lat="45.84913" lon="2.96252">
        <ele>1067</ele>
        <time>2021-08-28T06:44:25.000Z</time>
      </trkpt>
      <trkpt lat="45.84906" lon="2.96251">
        <ele>1067.1</ele>
        <time>2021-08-28T06:44:31.000Z</time>
      </trkpt>
      <trkpt lat="45.84898" lon="2.96248">
        <ele>1066.6</ele>
        <time>2021-08-28T06:44:38.000Z</time>
      </trkpt>
      <trkpt lat="45.84891" lon="2.96244">
        <ele>1065.7</ele>
        <time>2021-08-28T06:44:43.000Z</time>
      </trkpt>
      <trkpt lat="45.84884" lon="2.96239">
        <ele>1064.6</ele>
        <time>2021-08-28T06:44:49.000Z</time>
      </trkpt>
      <trkpt lat="45.84877" lon="2.96236">
        <ele>1064.1</ele>
        <time>2021-08-28T06:44:55.000Z</time>
      </trkpt>
      <trkpt lat="45.8487" lon="2.96233">
        <ele>1063.7</ele>
        <time>2021-08-28T06:45:01.000Z</time>
      </trkpt>
      <trkpt lat="45.84864" lon="2.96232">
        <ele>1063.9</ele>
        <time>2021-08-28T06:45:08.000Z</time>
      </trkpt>
      <trkpt lat="45.84855" lon="2.96227">
        <ele>1063.1</ele>
        <time>2021-08-28T06:45:12.000Z</time>
      </trkpt>
      <trkpt lat="45.84846" lon="2.9622">
        <ele>1061.8</ele>
        <time>2021-08-28T06:45:15.000Z</time>
      </trkpt>
      <trkpt lat="45.84836" lon="2.96214">
        <ele>1060.9</ele>
        <time>2021-08-28T06:45:21.000Z</time>
      </trkpt>
      <trkpt lat="45.84829" lon="2.96218">
        <ele>1062.4</ele>
        <time>2021-08-28T06:45:39.000Z</time>
      </trkpt>
      <trkpt lat="45.84823" lon="2.96218">
        <ele>1062.4</ele>
        <time>2021-08-28T06:45:48.000Z</time>
      </trkpt>
      <trkpt lat="45.84811" lon="2.96217">
        <ele>1062.2</ele>
        <time>2021-08-28T06:46:00.000Z</time>
      </trkpt>
      <trkpt lat="45.84805" lon="2.96212">
        <ele>1060.9</ele>
        <time>2021-08-28T06:46:04.000Z</time>
      </trkpt>
      <trkpt lat="45.84798" lon="2.9621">
        <ele>1060.4</ele>
        <time>2021-08-28T06:46:10.000Z</time>
      </trkpt>
      <trkpt lat="45.84791" lon="2.96208">
        <ele>1059.9</ele>
        <time>2021-08-28T06:46:15.000Z</time>
      </trkpt>
      <trkpt lat="45.84784" lon="2.96206">
        <ele>1059.5</ele>
        <time>2021-08-28T06:46:21.000Z</time>
      </trkpt>
      <trkpt lat="45.84777" lon="2.96205">
        <ele>1059.3</ele>
        <time>2021-08-28T06:46:27.000Z</time>
      </trkpt>
      <trkpt lat="45.8477" lon="2.96204">
        <ele>1059.2</ele>
        <time>2021-08-28T06:46:33.000Z</time>
      </trkpt>
      <trkpt lat="45.84764" lon="2.96202">
        <ele>1058.8</ele>
        <time>2021-08-28T06:46:39.000Z</time>
      </trkpt>
      <trkpt lat="45.84757" lon="2.96198">
        <ele>1058</ele>
        <time>2021-08-28T06:46:46.000Z</time>
      </trkpt>
      <trkpt lat="45.8475" lon="2.96196">
        <ele>1057.7</ele>
        <time>2021-08-28T06:46:52.000Z</time>
      </trkpt>
      <trkpt lat="45.84743" lon="2.96193">
        <ele>1057</ele>
        <time>2021-08-28T06:46:58.000Z</time>
      </trkpt>
      <trkpt lat="45.84736" lon="2.96191">
        <ele>1056.6</ele>
        <time>2021-08-28T06:47:04.000Z</time>
      </trkpt>
      <trkpt lat="45.84729" lon="2.9619">
        <ele>1056.5</ele>
        <time>2021-08-28T06:47:09.000Z</time>
      </trkpt>
      <trkpt lat="45.84723" lon="2.96188">
        <ele>1056.1</ele>
        <time>2021-08-28T06:47:17.000Z</time>
      </trkpt>
      <trkpt lat="45.84717" lon="2.96182">
        <ele>1054.9</ele>
        <time>2021-08-28T06:47:24.000Z</time>
      </trkpt>
      <trkpt lat="45.84708" lon="2.96175">
        <ele>1053.7</ele>
        <time>2021-08-28T06:47:31.000Z</time>
      </trkpt>
      <trkpt lat="45.847" lon="2.96172">
        <ele>1053.2</ele>
        <time>2021-08-28T06:47:37.000Z</time>
      </trkpt>
      <trkpt lat="45.84693" lon="2.96172">
        <ele>1053.4</ele>
        <time>2021-08-28T06:47:43.000Z</time>
      </trkpt>
      <trkpt lat="45.84686" lon="2.96173">
        <ele>1053.7</ele>
        <time>2021-08-28T06:47:50.000Z</time>
      </trkpt>
      <trkpt lat="45.84679" lon="2.96175">
        <ele>1054.2</ele>
        <time>2021-08-28T06:47:57.000Z</time>
      </trkpt>
      <trkpt lat="45.84672" lon="2.96176">
        <ele>1054.5</ele>
        <time>2021-08-28T06:48:04.000Z</time>
      </trkpt>
      <trkpt lat="45.84665" lon="2.96175">
        <ele>1054.8</ele>
        <time>2021-08-28T06:48:12.000Z</time>
      </trkpt>
      <trkpt lat="45.84658" lon="2.96177">
        <ele>1056.8</ele>
        <time>2021-08-28T06:48:19.000Z</time>
      </trkpt>
      <trkpt lat="45.84652" lon="2.96179">
        <ele>1058.6</ele>
        <time>2021-08-28T06:48:26.000Z</time>
      </trkpt>
      <trkpt lat="45.84645" lon="2.96183">
        <ele>1060.9</ele>
        <time>2021-08-28T06:48:34.000Z</time>
      </trkpt>
      <trkpt lat="45.84633" lon="2.96194">
        <ele>1065.7</ele>
        <time>2021-08-28T06:48:55.000Z</time>
      </trkpt>
      <trkpt lat="45.84623" lon="2.96202">
        <ele>1069.4</ele>
        <time>2021-08-28T06:49:11.000Z</time>
      </trkpt>
      <trkpt lat="45.8461" lon="2.96205">
        <ele>1073</ele>
        <time>2021-08-28T06:49:25.000Z</time>
      </trkpt>
      <trkpt lat="45.84595" lon="2.96209">
        <ele>1077.3</ele>
        <time>2021-08-28T06:49:49.000Z</time>
      </trkpt>
      <trkpt lat="45.84589" lon="2.9621">
        <ele>1078.9</ele>
        <time>2021-08-28T06:49:58.000Z</time>
      </trkpt>
      <trkpt lat="45.84582" lon="2.96212">
        <ele>1081</ele>
        <time>2021-08-28T06:50:08.000Z</time>
      </trkpt>
      <trkpt lat="45.84576" lon="2.96213">
        <ele>1083</ele>
        <time>2021-08-28T06:50:17.000Z</time>
      </trkpt>
      <trkpt lat="45.84569" lon="2.96212">
        <ele>1084.9</ele>
        <time>2021-08-28T06:50:24.000Z</time>
      </trkpt>
      <trkpt lat="45.84562" lon="2.96215">
        <ele>1087.5</ele>
        <time>2021-08-28T06:50:31.000Z</time>
      </trkpt>
      <trkpt lat="45.84555" lon="2.96219">
        <ele>1090.3</ele>
        <time>2021-08-28T06:50:40.000Z</time>
      </trkpt>
      <trkpt lat="45.84549" lon="2.96221">
        <ele>1092.4</ele>
        <time>2021-08-28T06:50:51.000Z</time>
      </trkpt>
      <trkpt lat="45.84543" lon="2.96226">
        <ele>1095.1</ele>
        <time>2021-08-28T06:51:14.000Z</time>
      </trkpt>
      <trkpt lat="45.84538" lon="2.96232">
        <ele>1097.6</ele>
        <time>2021-08-28T06:51:30.000Z</time>
      </trkpt>
      <trkpt lat="45.84534" lon="2.9624">
        <ele>1100.1</ele>
        <time>2021-08-28T06:51:46.000Z</time>
      </trkpt>
      <trkpt lat="45.84523" lon="2.96237">
        <ele>1102.9</ele>
        <time>2021-08-28T06:54:53.000Z</time>
      </trkpt>
      <trkpt lat="45.84514" lon="2.96242">
        <ele>1106.5</ele>
        <time>2021-08-28T06:55:36.000Z</time>
      </trkpt>
      <trkpt lat="45.84509" lon="2.96247">
        <ele>1108.8</ele>
        <time>2021-08-28T06:55:47.000Z</time>
      </trkpt>
      <trkpt lat="45.84503" lon="2.96251">
        <ele>1111.2</ele>
        <time>2021-08-28T06:55:58.000Z</time>
      </trkpt>
      <trkpt lat="45.84496" lon="2.96255">
        <ele>1113.3</ele>
        <time>2021-08-28T06:56:08.000Z</time>
      </trkpt>
      <trkpt lat="45.84489" lon="2.96256">
        <ele>1114.6</ele>
        <time>2021-08-28T06:56:18.000Z</time>
      </trkpt>
      <trkpt lat="45.84483" lon="2.96259">
        <ele>1115.9</ele>
        <time>2021-08-28T06:56:33.000Z</time>
      </trkpt>
      <trkpt lat="45.84476" lon="2.96262">
        <ele>1117.4</ele>
        <time>2021-08-28T06:56:47.000Z</time>
      </trkpt>
      <trkpt lat="45.8447" lon="2.96263">
        <ele>1118.4</ele>
        <time>2021-08-28T06:57:01.000Z</time>
      </trkpt>
      <trkpt lat="45.84463" lon="2.96264">
        <ele>1119.6</ele>
        <time>2021-08-28T06:57:13.000Z</time>
      </trkpt>
      <trkpt lat="45.84457" lon="2.96264">
        <ele>1120.6</ele>
        <time>2021-08-28T06:57:25.000Z</time>
      </trkpt>
      <trkpt lat="45.8445" lon="2.96266">
        <ele>1121.8</ele>
        <time>2021-08-28T06:57:37.000Z</time>
      </trkpt>
      <trkpt lat="45.84444" lon="2.96268">
        <ele>1122.8</ele>
        <time>2021-08-28T06:57:53.000Z</time>
      </trkpt>
      <trkpt lat="45.84437" lon="2.96269">
        <ele>1123.9</ele>
        <time>2021-08-28T06:58:04.000Z</time>
      </trkpt>
      <trkpt lat="45.84431" lon="2.9627">
        <ele>1124.8</ele>
        <time>2021-08-28T06:58:17.000Z</time>
      </trkpt>
      <trkpt lat="45.84424" lon="2.96272">
        <ele>1125.8</ele>
        <time>2021-08-28T06:58:33.000Z</time>
      </trkpt>
      <trkpt lat="45.84417" lon="2.96273">
        <ele>1126.8</ele>
        <time>2021-08-28T06:58:45.000Z</time>
      </trkpt>
      <trkpt lat="45.84411" lon="2.9627">
        <ele>1128</ele>
        <time>2021-08-28T06:58:52.000Z</time>
      </trkpt>
      <trkpt lat="45.84404" lon="2.9627">
        <ele>1129.2</ele>
        <time>2021-08-28T06:59:03.000Z</time>
      </trkpt>
      <trkpt lat="45.84398" lon="2.96273">
        <ele>1130</ele>
        <time>2021-08-28T06:59:19.000Z</time>
      </trkpt>
      <trkpt lat="45.84376" lon="2.96276">
        <ele>1133.6</ele>
      </trkpt>
      <trkpt lat="45.84326" lon="2.96245">
        <ele>1141.6</ele>
      </trkpt>
      <trkpt lat="45.84316" lon="2.96265">
        <ele>1141.2</ele>
      </trkpt>
      <trkpt lat="45.8429" lon="2.96265">
        <ele>1141</ele>
      </trkpt>
      <trkpt lat="45.84274" lon="2.96284">
        <ele>1140.5</ele>
      </trkpt>
      <trkpt lat="45.84247" lon="2.96286">
        <ele>1139.6</ele>
      </trkpt>
      <trkpt lat="45.84223" lon="2.96287">
        <ele>1131.6</ele>
      </trkpt>
      <trkpt lat="45.84187" lon="2.96259">
        <ele>1119.8</ele>
      </trkpt>
      <trkpt lat="45.84194" lon="2.96219">
        <ele>1118.1</ele>
      </trkpt>
      <trkpt lat="45.84176" lon="2.96192">
        <ele>1108.9</ele>
      </trkpt>
      <trkpt lat="45.84146" lon="2.96161">
        <ele>1098.7</ele>
      </trkpt>
      <trkpt lat="45.84112" lon="2.96157">
        <ele>1092.9</ele>
      </trkpt>
      <trkpt lat="45.84074" lon="2.96122">
        <ele>1079.9</ele>
        <time>2021-08-28T06:59:30.000Z</time>
      </trkpt>
      <trkpt lat="45.84072" lon="2.9611">
        <ele>1076.9</ele>
        <time>2021-08-28T06:59:34.000Z</time>
      </trkpt>
      <trkpt lat="45.84045" lon="2.96093">
        <ele>1070.1</ele>
        <time>2021-08-28T06:59:45.000Z</time>
      </trkpt>
      <trkpt lat="45.84029" lon="2.96087">
        <ele>1067</ele>
        <time>2021-08-28T06:59:51.000Z</time>
      </trkpt>
      <trkpt lat="45.84021" lon="2.96094">
        <ele>1067.8</ele>
        <time>2021-08-28T07:00:06.000Z</time>
      </trkpt>
      <trkpt lat="45.84015" lon="2.96088">
        <ele>1065.7</ele>
        <time>2021-08-28T07:00:33.000Z</time>
      </trkpt>
      <trkpt lat="45.84012" lon="2.96079">
        <ele>1063.4</ele>
        <time>2021-08-28T07:00:40.000Z</time>
      </trkpt>
      <trkpt lat="45.84" lon="2.96069">
        <ele>1059.9</ele>
        <time>2021-08-28T07:01:13.000Z</time>
      </trkpt>
      <trkpt lat="45.83991" lon="2.96058">
        <ele>1056.5</ele>
        <time>2021-08-28T07:01:34.000Z</time>
      </trkpt>
      <trkpt lat="45.83983" lon="2.96057">
        <ele>1055.4</ele>
        <time>2021-08-28T07:01:47.000Z</time>
      </trkpt>
      <trkpt lat="45.83976" lon="2.96057">
        <ele>1054.6</ele>
        <time>2021-08-28T07:02:03.000Z</time>
      </trkpt>
      <trkpt lat="45.8397" lon="2.96054">
        <ele>1053.3</ele>
        <time>2021-08-28T07:02:12.000Z</time>
      </trkpt>
      <trkpt lat="45.83966" lon="2.96062">
        <ele>1054.4</ele>
        <time>2021-08-28T07:02:29.000Z</time>
      </trkpt>
      <trkpt lat="45.83957" lon="2.96061">
        <ele>1053.2</ele>
        <time>2021-08-28T07:02:35.000Z</time>
      </trkpt>
      <trkpt lat="45.83951" lon="2.96061">
        <ele>1052.5</ele>
        <time>2021-08-28T07:02:42.000Z</time>
      </trkpt>
      <trkpt lat="45.83944" lon="2.9606">
        <ele>1051.5</ele>
        <time>2021-08-28T07:02:53.000Z</time>
      </trkpt>
      <trkpt lat="45.83933" lon="2.96058">
        <ele>1049.9</ele>
        <time>2021-08-28T07:03:08.000Z</time>
      </trkpt>
      <trkpt lat="45.8392" lon="2.96061">
        <ele>1048.9</ele>
        <time>2021-08-28T07:03:46.000Z</time>
      </trkpt>
      <trkpt lat="45.83912" lon="2.96057">
        <ele>1047.7</ele>
        <time>2021-08-28T07:04:11.000Z</time>
      </trkpt>
      <trkpt lat="45.839" lon="2.96053">
        <ele>1046.5</ele>
        <time>2021-08-28T07:04:37.000Z</time>
      </trkpt>
      <trkpt lat="45.83891" lon="2.96046">
        <ele>1045</ele>
        <time>2021-08-28T07:05:04.000Z</time>
      </trkpt>
      <trkpt lat="45.83881" lon="2.96043">
        <ele>1044.2</ele>
        <time>2021-08-28T07:05:36.000Z</time>
      </trkpt>
      <trkpt lat="45.83874" lon="2.96034">
        <ele>1042.7</ele>
        <time>2021-08-28T07:06:13.000Z</time>
      </trkpt>
      <trkpt lat="45.83876" lon="2.96044">
        <ele>1044.1</ele>
        <time>2021-08-28T07:07:17.000Z</time>
      </trkpt>
      <trkpt lat="45.83868" lon="2.96017">
        <ele>1040.1</ele>
        <time>2021-08-28T07:07:49.000Z</time>
      </trkpt>
      <trkpt lat="45.83821" lon="2.95981">
        <ele>1034</ele>
      </trkpt>
      <trkpt lat="45.83793" lon="2.95972">
        <ele>1032</ele>
      </trkpt>
      <trkpt lat="45.83765" lon="2.95948">
        <ele>1029.6</ele>
        <time>2021-08-28T07:07:51.000Z</time>
      </trkpt>
      <trkpt lat="45.8374" lon="2.95916">
        <ele>1028.7</ele>
      </trkpt>
      <trkpt lat="45.83704" lon="2.9584">
        <ele>1036</ele>
        <time>2021-08-28T07:07:57.000Z</time>
      </trkpt>
      <trkpt lat="45.83701" lon="2.95814">
        <ele>1038.2</ele>
        <time>2021-08-28T07:08:03.000Z</time>
      </trkpt>
      <trkpt lat="45.83699" lon="2.95797">
        <ele>1039.8</ele>
        <time>2021-08-28T07:08:09.000Z</time>
      </trkpt>
      <trkpt lat="45.83698" lon="2.95774">
        <ele>1041.5</ele>
        <time>2021-08-28T07:08:15.000Z</time>
      </trkpt>
      <trkpt lat="45.83696" lon="2.95758">
        <ele>1043.1</ele>
        <time>2021-08-28T07:08:21.000Z</time>
      </trkpt>
      <trkpt lat="45.83693" lon="2.95738">
        <ele>1044.9</ele>
        <time>2021-08-28T07:08:29.000Z</time>
      </trkpt>
      <trkpt lat="45.83692" lon="2.95727">
        <ele>1045.7</ele>
        <time>2021-08-28T07:08:33.000Z</time>
      </trkpt>
      <trkpt lat="45.83686" lon="2.95709">
        <ele>1048.1</ele>
        <time>2021-08-28T07:08:39.000Z</time>
      </trkpt>
      <trkpt lat="45.83684" lon="2.95693">
        <ele>1049.4</ele>
        <time>2021-08-28T07:08:47.000Z</time>
      </trkpt>
      <trkpt lat="45.83682" lon="2.95681">
        <ele>1050.4</ele>
        <time>2021-08-28T07:08:51.000Z</time>
      </trkpt>
      <trkpt lat="45.83677" lon="2.95661">
        <ele>1052.4</ele>
        <time>2021-08-28T07:09:00.000Z</time>
      </trkpt>
      <trkpt lat="45.8367" lon="2.95645">
        <ele>1053.9</ele>
        <time>2021-08-28T07:09:14.000Z</time>
      </trkpt>
      <trkpt lat="45.83662" lon="2.95638">
        <ele>1055</ele>
        <time>2021-08-28T07:09:27.000Z</time>
      </trkpt>
      <trkpt lat="45.83652" lon="2.95629">
        <ele>1055.4</ele>
        <time>2021-08-28T07:09:43.000Z</time>
      </trkpt>
      <trkpt lat="45.83644" lon="2.95622">
        <ele>1055.8</ele>
        <time>2021-08-28T07:10:06.000Z</time>
      </trkpt>
      <trkpt lat="45.83638" lon="2.95617">
        <ele>1056.1</ele>
        <time>2021-08-28T07:10:15.000Z</time>
      </trkpt>
      <trkpt lat="45.83632" lon="2.95616">
        <ele>1056.4</ele>
        <time>2021-08-28T07:10:22.000Z</time>
      </trkpt>
      <trkpt lat="45.83626" lon="2.95612">
        <ele>1056.6</ele>
        <time>2021-08-28T07:10:30.000Z</time>
      </trkpt>
      <trkpt lat="45.8362" lon="2.95607">
        <ele>1056.8</ele>
        <time>2021-08-28T07:10:40.000Z</time>
      </trkpt>
      <trkpt lat="45.83613" lon="2.95607">
        <ele>1057.2</ele>
        <time>2021-08-28T07:10:47.000Z</time>
      </trkpt>
      <trkpt lat="45.83607" lon="2.95604">
        <ele>1057.5</ele>
        <time>2021-08-28T07:10:54.000Z</time>
      </trkpt>
      <trkpt lat="45.83599" lon="2.95608">
        <ele>1058</ele>
        <time>2021-08-28T07:10:59.000Z</time>
      </trkpt>
      <trkpt lat="45.83592" lon="2.95607">
        <ele>1058.4</ele>
        <time>2021-08-28T07:11:06.000Z</time>
      </trkpt>
      <trkpt lat="45.83585" lon="2.9561">
        <ele>1058.9</ele>
        <time>2021-08-28T07:11:15.000Z</time>
      </trkpt>
      <trkpt lat="45.8357" lon="2.95597">
        <ele>1057.8</ele>
        <time>2021-08-28T07:11:24.000Z</time>
      </trkpt>
      <trkpt lat="45.83567" lon="2.95589">
        <ele>1057.4</ele>
        <time>2021-08-28T07:11:34.000Z</time>
      </trkpt>
      <trkpt lat="45.83558" lon="2.95567">
        <ele>1054.8</ele>
        <time>2021-08-28T07:11:39.000Z</time>
      </trkpt>
      <trkpt lat="45.83549" lon="2.95558">
        <ele>1053.5</ele>
        <time>2021-08-28T07:12:03.000Z</time>
      </trkpt>
      <trkpt lat="45.83539" lon="2.95562">
        <ele>1053.6</ele>
        <time>2021-08-28T07:12:16.000Z</time>
      </trkpt>
      <trkpt lat="45.83535" lon="2.95554">
        <ele>1052.7</ele>
        <time>2021-08-28T07:12:30.000Z</time>
      </trkpt>
      <trkpt lat="45.83524" lon="2.95554">
        <ele>1052.4</ele>
        <time>2021-08-28T07:12:54.000Z</time>
      </trkpt>
      <trkpt lat="45.83531" lon="2.9555">
        <ele>1052.2</ele>
        <time>2021-08-28T07:13:07.000Z</time>
      </trkpt>
      <trkpt lat="45.83536" lon="2.95545">
        <ele>1051.8</ele>
        <time>2021-08-28T07:13:15.000Z</time>
      </trkpt>
      <trkpt lat="45.83538" lon="2.95535">
        <ele>1050.8</ele>
        <time>2021-08-28T07:13:21.000Z</time>
      </trkpt>
      <trkpt lat="45.83539" lon="2.95526">
        <ele>1049.8</ele>
        <time>2021-08-28T07:13:29.000Z</time>
      </trkpt>
      <trkpt lat="45.83544" lon="2.95513">
        <ele>1048.4</ele>
        <time>2021-08-28T07:13:50.000Z</time>
      </trkpt>
      <trkpt lat="45.83543" lon="2.95503">
        <ele>1047.3</ele>
        <time>2021-08-28T07:14:14.000Z</time>
      </trkpt>
      <trkpt lat="45.83538" lon="2.9551">
        <ele>1048.1</ele>
        <time>2021-08-28T07:14:26.000Z</time>
      </trkpt>
      <trkpt lat="45.83536" lon="2.95519">
        <ele>1049.1</ele>
        <time>2021-08-28T07:14:40.000Z</time>
      </trkpt>
      <trkpt lat="45.83533" lon="2.95527">
        <ele>1049.9</ele>
        <time>2021-08-28T07:14:51.000Z</time>
      </trkpt>
      <trkpt lat="45.83529" lon="2.95535">
        <ele>1050.7</ele>
        <time>2021-08-28T07:15:02.000Z</time>
      </trkpt>
      <trkpt lat="45.83523" lon="2.9554">
        <ele>1051.1</ele>
        <time>2021-08-28T07:15:16.000Z</time>
      </trkpt>
      <trkpt lat="45.8352" lon="2.95531">
        <ele>1050.3</ele>
        <time>2021-08-28T07:15:47.000Z</time>
      </trkpt>
      <trkpt lat="45.83516" lon="2.95524">
        <ele>1049.7</ele>
        <time>2021-08-28T07:16:05.000Z</time>
      </trkpt>
      <trkpt lat="45.83523" lon="2.95512">
        <ele>1048.6</ele>
        <time>2021-08-28T07:16:49.000Z</time>
      </trkpt>
      <trkpt lat="45.83517" lon="2.95506">
        <ele>1048.1</ele>
        <time>2021-08-28T07:17:00.000Z</time>
      </trkpt>
      <trkpt lat="45.83511" lon="2.95505">
        <ele>1048.1</ele>
        <time>2021-08-28T07:17:08.000Z</time>
      </trkpt>
      <trkpt lat="45.83506" lon="2.95497">
        <ele>1047.3</ele>
        <time>2021-08-28T07:17:18.000Z</time>
      </trkpt>
      <trkpt lat="45.83504" lon="2.95488">
        <ele>1045.6</ele>
        <time>2021-08-28T07:17:28.000Z</time>
      </trkpt>
      <trkpt lat="45.83505" lon="2.95477">
        <ele>1043.4</ele>
        <time>2021-08-28T07:17:36.000Z</time>
      </trkpt>
      <trkpt lat="45.83503" lon="2.95467">
        <ele>1041.5</ele>
        <time>2021-08-28T07:17:46.000Z</time>
      </trkpt>
      <trkpt lat="45.83502" lon="2.95457">
        <ele>1039.6</ele>
        <time>2021-08-28T07:17:56.000Z</time>
      </trkpt>
      <trkpt lat="45.83503" lon="2.95447">
        <ele>1037.6</ele>
        <time>2021-08-28T07:18:02.000Z</time>
      </trkpt>
      <trkpt lat="45.83506" lon="2.95437">
        <ele>1035.5</ele>
        <time>2021-08-28T07:18:09.000Z</time>
      </trkpt>
      <trkpt lat="45.83509" lon="2.95426">
        <ele>1033.1</ele>
        <time>2021-08-28T07:18:19.000Z</time>
      </trkpt>
      <trkpt lat="45.83506" lon="2.95417">
        <ele>1031.6</ele>
        <time>2021-08-28T07:18:37.000Z</time>
      </trkpt>
      <trkpt lat="45.835" lon="2.95414">
        <ele>1031.6</ele>
        <time>2021-08-28T07:19:08.000Z</time>
      </trkpt>
      <trkpt lat="45.83494" lon="2.95408">
        <ele>1030.1</ele>
        <time>2021-08-28T07:19:30.000Z</time>
      </trkpt>
      <trkpt lat="45.83488" lon="2.95404">
        <ele>1028.9</ele>
        <time>2021-08-28T07:19:42.000Z</time>
      </trkpt>
      <trkpt lat="45.83483" lon="2.95397">
        <ele>1027.4</ele>
        <time>2021-08-28T07:19:56.000Z</time>
      </trkpt>
      <trkpt lat="45.83483" lon="2.95386">
        <ele>1025.6</ele>
        <time>2021-08-28T07:20:07.000Z</time>
      </trkpt>
      <trkpt lat="45.83482" lon="2.95375">
        <ele>1023.7</ele>
        <time>2021-08-28T07:20:16.000Z</time>
      </trkpt>
      <trkpt lat="45.83483" lon="2.95366">
        <ele>1022.3</ele>
        <time>2021-08-28T07:20:22.000Z</time>
      </trkpt>
      <trkpt lat="45.83486" lon="2.95356">
        <ele>1020.9</ele>
        <time>2021-08-28T07:20:29.000Z</time>
      </trkpt>
      <trkpt lat="45.83489" lon="2.95342">
        <ele>1018.8</ele>
        <time>2021-08-28T07:20:57.000Z</time>
      </trkpt>
      <trkpt lat="45.83484" lon="2.9533">
        <ele>1016.7</ele>
        <time>2021-08-28T07:21:59.000Z</time>
      </trkpt>
      <trkpt lat="45.83478" lon="2.95334">
        <ele>1016.8</ele>
        <time>2021-08-28T07:23:45.000Z</time>
      </trkpt>
      <trkpt lat="45.83472" lon="2.95331">
        <ele>1016.1</ele>
        <time>2021-08-28T07:24:21.000Z</time>
      </trkpt>
      <trkpt lat="45.83461" lon="2.95332">
        <ele>1015.5</ele>
        <time>2021-08-28T07:25:05.000Z</time>
      </trkpt>
      <trkpt lat="45.83455" lon="2.95331">
        <ele>1015</ele>
        <time>2021-08-28T07:25:59.000Z</time>
      </trkpt>
      <trkpt lat="45.83449" lon="2.95328">
        <ele>1014.4</ele>
        <time>2021-08-28T07:26:34.000Z</time>
      </trkpt>
      <trkpt lat="45.83443" lon="2.95332">
        <ele>1014.4</ele>
        <time>2021-08-28T07:26:54.000Z</time>
      </trkpt>
      <trkpt lat="45.83436" lon="2.95336">
        <ele>1014.6</ele>
        <time>2021-08-28T07:27:11.000Z</time>
      </trkpt>
      <trkpt lat="45.8343" lon="2.95332">
        <ele>1013.7</ele>
        <time>2021-08-28T07:28:14.000Z</time>
      </trkpt>
      <trkpt lat="45.83423" lon="2.95328">
        <ele>1012.8</ele>
        <time>2021-08-28T07:28:39.000Z</time>
      </trkpt>
      <trkpt lat="45.83419" lon="2.9532">
        <ele>1011.7</ele>
        <time>2021-08-28T07:28:54.000Z</time>
      </trkpt>
      <trkpt lat="45.83413" lon="2.95317">
        <ele>1011.2</ele>
        <time>2021-08-28T07:29:09.000Z</time>
      </trkpt>
      <trkpt lat="45.83405" lon="2.95311">
        <ele>1010.4</ele>
        <time>2021-08-28T07:29:37.000Z</time>
      </trkpt>
      <trkpt lat="45.83401" lon="2.95304">
        <ele>1009.6</ele>
        <time>2021-08-28T07:29:57.000Z</time>
      </trkpt>
      <trkpt lat="45.83395" lon="2.95298">
        <ele>1008.9</ele>
        <time>2021-08-28T07:30:12.000Z</time>
      </trkpt>
      <trkpt lat="45.83388" lon="2.95288">
        <ele>1007.8</ele>
        <time>2021-08-28T07:31:41.000Z</time>
      </trkpt>
      <trkpt lat="45.8338" lon="2.95288">
        <ele>1007.7</ele>
        <time>2021-08-28T07:32:04.000Z</time>
      </trkpt>
      <trkpt lat="45.83374" lon="2.95288">
        <ele>1007.6</ele>
        <time>2021-08-28T07:32:20.000Z</time>
      </trkpt>
      <trkpt lat="45.83372" lon="2.95275">
        <ele>1006.2</ele>
        <time>2021-08-28T07:33:15.000Z</time>
      </trkpt>
      <trkpt lat="45.83367" lon="2.95268">
        <ele>1005.3</ele>
        <time>2021-08-28T07:33:34.000Z</time>
      </trkpt>
      <trkpt lat="45.83363" lon="2.9526">
        <ele>1004.4</ele>
        <time>2021-08-28T07:33:48.000Z</time>
      </trkpt>
      <trkpt lat="45.83361" lon="2.95251">
        <ele>1003.4</ele>
        <time>2021-08-28T07:33:59.000Z</time>
      </trkpt>
      <trkpt lat="45.8336" lon="2.95241">
        <ele>1002.5</ele>
        <time>2021-08-28T07:34:07.000Z</time>
      </trkpt>
      <trkpt lat="45.83357" lon="2.95233">
        <ele>1001.8</ele>
        <time>2021-08-28T07:34:17.000Z</time>
      </trkpt>
      <trkpt lat="45.83355" lon="2.95219">
        <ele>1000.6</ele>
        <time>2021-08-28T07:34:39.000Z</time>
      </trkpt>
      <trkpt lat="45.83348" lon="2.95214">
        <ele>1000.3</ele>
        <time>2021-08-28T07:34:52.000Z</time>
      </trkpt>
      <trkpt lat="45.83342" lon="2.95211">
        <ele>1000.1</ele>
        <time>2021-08-28T07:35:05.000Z</time>
      </trkpt>
      <trkpt lat="45.83336" lon="2.95207">
        <ele>999.9</ele>
        <time>2021-08-28T07:35:17.000Z</time>
      </trkpt>
      <trkpt lat="45.8333" lon="2.952">
        <ele>999.7</ele>
        <time>2021-08-28T07:35:30.000Z</time>
      </trkpt>
      <trkpt lat="45.83326" lon="2.95193">
        <ele>999.7</ele>
        <time>2021-08-28T07:35:43.000Z</time>
      </trkpt>
      <trkpt lat="45.83324" lon="2.95183">
        <ele>999.2</ele>
        <time>2021-08-28T07:35:54.000Z</time>
      </trkpt>
      <trkpt lat="45.83322" lon="2.95173">
        <ele>998.7</ele>
        <time>2021-08-28T07:36:03.000Z</time>
      </trkpt>
      <trkpt lat="45.83325" lon="2.95165">
        <ele>997.8</ele>
        <time>2021-08-28T07:36:28.000Z</time>
      </trkpt>
      <trkpt lat="45.83327" lon="2.95155">
        <ele>997.1</ele>
        <time>2021-08-28T07:36:46.000Z</time>
      </trkpt>
      <trkpt lat="45.83326" lon="2.95146">
        <ele>996.8</ele>
        <time>2021-08-28T07:37:39.000Z</time>
      </trkpt>
      <trkpt lat="45.83319" lon="2.95146">
        <ele>997.6</ele>
        <time>2021-08-28T07:37:51.000Z</time>
      </trkpt>
      <trkpt lat="45.83312" lon="2.95146">
        <ele>998.3</ele>
        <time>2021-08-28T07:38:03.000Z</time>
      </trkpt>
      <trkpt lat="45.83305" lon="2.95147">
        <ele>999.1</ele>
        <time>2021-08-28T07:38:14.000Z</time>
      </trkpt>
      <trkpt lat="45.83299" lon="2.9515">
        <ele>999.9</ele>
        <time>2021-08-28T07:38:26.000Z</time>
      </trkpt>
      <trkpt lat="45.83295" lon="2.95158">
        <ele>1000.7</ele>
        <time>2021-08-28T07:38:53.000Z</time>
      </trkpt>
      <trkpt lat="45.8329" lon="2.95165">
        <ele>1001.6</ele>
        <time>2021-08-28T07:39:06.000Z</time>
      </trkpt>
      <trkpt lat="45.83285" lon="2.95173">
        <ele>1002.6</ele>
        <time>2021-08-28T07:39:18.000Z</time>
      </trkpt>
      <trkpt lat="45.8328" lon="2.9518">
        <ele>1003.6</ele>
        <time>2021-08-28T07:39:36.000Z</time>
      </trkpt>
      <trkpt lat="45.83277" lon="2.95188">
        <ele>1004.4</ele>
        <time>2021-08-28T07:39:47.000Z</time>
      </trkpt>
      <trkpt lat="45.83274" lon="2.95196">
        <ele>1005.3</ele>
        <time>2021-08-28T07:39:59.000Z</time>
      </trkpt>
      <trkpt lat="45.8327" lon="2.95205">
        <ele>1006.3</ele>
        <time>2021-08-28T07:40:11.000Z</time>
      </trkpt>
      <trkpt lat="45.83266" lon="2.95212">
        <ele>1007.1</ele>
        <time>2021-08-28T07:40:20.000Z</time>
      </trkpt>
      <trkpt lat="45.83263" lon="2.95221">
        <ele>1008</ele>
        <time>2021-08-28T07:40:30.000Z</time>
      </trkpt>
      <trkpt lat="45.83259" lon="2.95228">
        <ele>1008.8</ele>
        <time>2021-08-28T07:40:41.000Z</time>
      </trkpt>
      <trkpt lat="45.83255" lon="2.95239">
        <ele>1009.9</ele>
        <time>2021-08-28T07:40:45.000Z</time>
      </trkpt>
      <trkpt lat="45.83256" lon="2.95249">
        <ele>1010.4</ele>
        <time>2021-08-28T07:40:53.000Z</time>
      </trkpt>
      <trkpt lat="45.83255" lon="2.95259">
        <ele>1011.3</ele>
        <time>2021-08-28T07:41:00.000Z</time>
      </trkpt>
      <trkpt lat="45.83255" lon="2.95268">
        <ele>1012.1</ele>
        <time>2021-08-28T07:41:08.000Z</time>
      </trkpt>
      <trkpt lat="45.83255" lon="2.95278">
        <ele>1012.9</ele>
        <time>2021-08-28T07:41:19.000Z</time>
      </trkpt>
      <trkpt lat="45.83257" lon="2.95287">
        <ele>1013.5</ele>
        <time>2021-08-28T07:41:29.000Z</time>
      </trkpt>
      <trkpt lat="45.83259" lon="2.95297">
        <ele>1014.2</ele>
        <time>2021-08-28T07:41:43.000Z</time>
      </trkpt>
      <trkpt lat="45.83261" lon="2.95306">
        <ele>1014.8</ele>
        <time>2021-08-28T07:42:00.000Z</time>
      </trkpt>
      <trkpt lat="45.8326" lon="2.95315">
        <ele>1015.7</ele>
        <time>2021-08-28T07:42:12.000Z</time>
      </trkpt>
      <trkpt lat="45.83259" lon="2.95325">
        <ele>1016.6</ele>
        <time>2021-08-28T07:42:30.000Z</time>
      </trkpt>
      <trkpt lat="45.83257" lon="2.95334">
        <ele>1017.6</ele>
        <time>2021-08-28T07:43:03.000Z</time>
      </trkpt>
      <trkpt lat="45.83258" lon="2.95344">
        <ele>1018.4</ele>
        <time>2021-08-28T07:43:26.000Z</time>
      </trkpt>
      <trkpt lat="45.8326" lon="2.95353">
        <ele>1019.1</ele>
        <time>2021-08-28T07:44:09.000Z</time>
      </trkpt>
      <trkpt lat="45.83258" lon="2.95361">
        <ele>1019.9</ele>
        <time>2021-08-28T07:44:31.000Z</time>
      </trkpt>
      <trkpt lat="45.83256" lon="2.9537">
        <ele>1020.8</ele>
        <time>2021-08-28T07:44:41.000Z</time>
      </trkpt>
      <trkpt lat="45.83253" lon="2.9538">
        <ele>1021.8</ele>
        <time>2021-08-28T07:44:52.000Z</time>
      </trkpt>
      <trkpt lat="45.83247" lon="2.95382">
        <ele>1022.4</ele>
        <time>2021-08-28T07:45:43.000Z</time>
      </trkpt>
      <trkpt lat="45.83247" lon="2.95391">
        <ele>1023.1</ele>
        <time>2021-08-28T07:45:53.000Z</time>
      </trkpt>
      <trkpt lat="45.83246" lon="2.95401">
        <ele>1024.1</ele>
        <time>2021-08-28T07:46:01.000Z</time>
      </trkpt>
      <trkpt lat="45.83244" lon="2.9541">
        <ele>1025</ele>
        <time>2021-08-28T07:46:10.000Z</time>
      </trkpt>
      <trkpt lat="45.83241" lon="2.95418">
        <ele>1025.9</ele>
        <time>2021-08-28T07:46:18.000Z</time>
      </trkpt>
      <trkpt lat="45.83236" lon="2.95424">
        <ele>1026.8</ele>
        <time>2021-08-28T07:46:22.000Z</time>
      </trkpt>
      <trkpt lat="45.83232" lon="2.95435">
        <ele>1027.8</ele>
        <time>2021-08-28T07:46:30.000Z</time>
      </trkpt>
      <trkpt lat="45.83228" lon="2.95443">
        <ele>1028.7</ele>
        <time>2021-08-28T07:46:37.000Z</time>
      </trkpt>
      <trkpt lat="45.83225" lon="2.95452">
        <ele>1029.5</ele>
        <time>2021-08-28T07:46:45.000Z</time>
      </trkpt>
      <trkpt lat="45.83222" lon="2.95461">
        <ele>1030.3</ele>
        <time>2021-08-28T07:46:55.000Z</time>
      </trkpt>
      <trkpt lat="45.83218" lon="2.95469">
        <ele>1031.2</ele>
        <time>2021-08-28T07:47:04.000Z</time>
      </trkpt>
      <trkpt lat="45.83215" lon="2.95477">
        <ele>1032</ele>
        <time>2021-08-28T07:47:14.000Z</time>
      </trkpt>
      <trkpt lat="45.83211" lon="2.95484">
        <ele>1032.8</ele>
        <time>2021-08-28T07:47:24.000Z</time>
      </trkpt>
      <trkpt lat="45.83208" lon="2.95493">
        <ele>1033.6</ele>
        <time>2021-08-28T07:47:30.000Z</time>
      </trkpt>
      <trkpt lat="45.83206" lon="2.95503">
        <ele>1034.3</ele>
        <time>2021-08-28T07:47:37.000Z</time>
      </trkpt>
      <trkpt lat="45.83204" lon="2.95513">
        <ele>1034.6</ele>
        <time>2021-08-28T07:47:45.000Z</time>
      </trkpt>
      <trkpt lat="45.83201" lon="2.95522">
        <ele>1035.1</ele>
        <time>2021-08-28T07:47:53.000Z</time>
      </trkpt>
      <trkpt lat="45.832" lon="2.95531">
        <ele>1035.3</ele>
        <time>2021-08-28T07:48:02.000Z</time>
      </trkpt>
      <trkpt lat="45.83201" lon="2.95541">
        <ele>1035.4</ele>
        <time>2021-08-28T07:48:28.000Z</time>
      </trkpt>
      <trkpt lat="45.83206" lon="2.95547">
        <ele>1035.1</ele>
        <time>2021-08-28T07:48:53.000Z</time>
      </trkpt>
      <trkpt lat="45.83202" lon="2.95536">
        <ele>1035.2</ele>
        <time>2021-08-28T07:49:15.000Z</time>
      </trkpt>
      <trkpt lat="45.83193" lon="2.95516">
        <ele>1035.7</ele>
        <time>2021-08-28T07:49:24.000Z</time>
      </trkpt>
      <trkpt lat="45.83186" lon="2.95503">
        <ele>1036.2</ele>
        <time>2021-08-28T07:49:39.000Z</time>
      </trkpt>
      <trkpt lat="45.83183" lon="2.95489">
        <ele>1035.8</ele>
        <time>2021-08-28T07:50:31.000Z</time>
      </trkpt>
      <trkpt lat="45.8319" lon="2.95497">
        <ele>1035.6</ele>
        <time>2021-08-28T07:51:47.000Z</time>
      </trkpt>
      <trkpt lat="45.83196" lon="2.95508">
        <ele>1035.3</ele>
        <time>2021-08-28T07:52:19.000Z</time>
      </trkpt>
      <trkpt lat="45.83204" lon="2.95516">
        <ele>1034.7</ele>
        <time>2021-08-28T07:52:44.000Z</time>
      </trkpt>
      <trkpt lat="45.83208" lon="2.95529">
        <ele>1034.6</ele>
        <time>2021-08-28T07:53:34.000Z</time>
      </trkpt>
      <trkpt lat="45.83218" lon="2.95534">
        <ele>1033.7</ele>
        <time>2021-08-28T07:54:03.000Z</time>
      </trkpt>
      <trkpt lat="45.83227" lon="2.9554">
        <ele>1033</ele>
        <time>2021-08-28T07:54:43.000Z</time>
      </trkpt>
      <trkpt lat="45.83228" lon="2.9555">
        <ele>1033.2</ele>
        <time>2021-08-28T07:55:49.000Z</time>
      </trkpt>
      <trkpt lat="45.83225" lon="2.95559">
        <ele>1033.6</ele>
        <time>2021-08-28T07:56:07.000Z</time>
      </trkpt>
      <trkpt lat="45.83219" lon="2.95566">
        <ele>1034.3</ele>
        <time>2021-08-28T07:56:17.000Z</time>
      </trkpt>
      <trkpt lat="45.83223" lon="2.95575">
        <ele>1034.1</ele>
        <time>2021-08-28T07:56:40.000Z</time>
      </trkpt>
      <trkpt lat="45.83229" lon="2.95577">
        <ele>1033.6</ele>
        <time>2021-08-28T07:56:51.000Z</time>
      </trkpt>
      <trkpt lat="45.83236" lon="2.95579">
        <ele>1033.1</ele>
        <time>2021-08-28T07:57:02.000Z</time>
      </trkpt>
      <trkpt lat="45.83243" lon="2.95577">
        <ele>1032.4</ele>
        <time>2021-08-28T07:57:23.000Z</time>
      </trkpt>
      <trkpt lat="45.83241" lon="2.95587">
        <ele>1032.6</ele>
        <time>2021-08-28T07:58:31.000Z</time>
      </trkpt>
      <trkpt lat="45.83238" lon="2.95597">
        <ele>1032.3</ele>
        <time>2021-08-28T07:59:16.000Z</time>
      </trkpt>
      <trkpt lat="45.83235" lon="2.95605">
        <ele>1032.1</ele>
        <time>2021-08-28T07:59:24.000Z</time>
      </trkpt>
      <trkpt lat="45.83234" lon="2.95614">
        <ele>1031.7</ele>
        <time>2021-08-28T07:59:34.000Z</time>
      </trkpt>
      <trkpt lat="45.83231" lon="2.95623">
        <ele>1031.5</ele>
        <time>2021-08-28T08:00:00.000Z</time>
      </trkpt>
      <trkpt lat="45.83222" lon="2.95629">
        <ele>1031.8</ele>
        <time>2021-08-28T08:00:42.000Z</time>
      </trkpt>
      <trkpt lat="45.83215" lon="2.95631">
        <ele>1032.2</ele>
        <time>2021-08-28T08:00:50.000Z</time>
      </trkpt>
      <trkpt lat="45.83209" lon="2.9563">
        <ele>1032.7</ele>
        <time>2021-08-28T08:00:59.000Z</time>
      </trkpt>
      <trkpt lat="45.83202" lon="2.95628">
        <ele>1033.3</ele>
        <time>2021-08-28T08:01:13.000Z</time>
      </trkpt>
      <trkpt lat="45.83195" lon="2.95627">
        <ele>1033.8</ele>
        <time>2021-08-28T08:01:31.000Z</time>
      </trkpt>
      <trkpt lat="45.83188" lon="2.95627">
        <ele>1034.3</ele>
        <time>2021-08-28T08:01:42.000Z</time>
      </trkpt>
      <trkpt lat="45.83181" lon="2.95627">
        <ele>1034.8</ele>
        <time>2021-08-28T08:01:48.000Z</time>
      </trkpt>
      <trkpt lat="45.83174" lon="2.95625">
        <ele>1035.5</ele>
        <time>2021-08-28T08:01:56.000Z</time>
      </trkpt>
      <trkpt lat="45.83168" lon="2.95627">
        <ele>1035.8</ele>
        <time>2021-08-28T08:02:06.000Z</time>
      </trkpt>
      <trkpt lat="45.83161" lon="2.95626">
        <ele>1037.9</ele>
        <time>2021-08-28T08:02:18.000Z</time>
      </trkpt>
      <trkpt lat="45.83154" lon="2.95627">
        <ele>1040.3</ele>
        <time>2021-08-28T08:02:27.000Z</time>
      </trkpt>
      <trkpt lat="45.83147" lon="2.95627">
        <ele>1042.8</ele>
        <time>2021-08-28T08:02:37.000Z</time>
      </trkpt>
      <trkpt lat="45.8314" lon="2.95628">
        <ele>1045.1</ele>
        <time>2021-08-28T08:02:45.000Z</time>
      </trkpt>
      <trkpt lat="45.83133" lon="2.9563">
        <ele>1047.4</ele>
        <time>2021-08-28T08:02:53.000Z</time>
      </trkpt>
      <trkpt lat="45.83126" lon="2.95632">
        <ele>1049.6</ele>
        <time>2021-08-28T08:03:03.000Z</time>
      </trkpt>
      <trkpt lat="45.83118" lon="2.95628">
        <ele>1052.9</ele>
        <time>2021-08-28T08:03:42.000Z</time>
      </trkpt>
      <trkpt lat="45.83117" lon="2.95618">
        <ele>1054.4</ele>
        <time>2021-08-28T08:03:59.000Z</time>
      </trkpt>
      <trkpt lat="45.83113" lon="2.95611">
        <ele>1056.8</ele>
        <time>2021-08-28T08:04:27.000Z</time>
      </trkpt>
      <trkpt lat="45.83106" lon="2.95606">
        <ele>1060</ele>
        <time>2021-08-28T08:05:52.000Z</time>
      </trkpt>
      <trkpt lat="45.83106" lon="2.95597">
        <ele>1061.2</ele>
        <time>2021-08-28T08:06:17.000Z</time>
      </trkpt>
      <trkpt lat="45.83112" lon="2.95593">
        <ele>1059.4</ele>
        <time>2021-08-28T08:06:27.000Z</time>
      </trkpt>
      <trkpt lat="45.83113" lon="2.95584">
        <ele>1060.2</ele>
        <time>2021-08-28T08:06:35.000Z</time>
      </trkpt>
      <trkpt lat="45.83106" lon="2.95579">
        <ele>1063.2</ele>
        <time>2021-08-28T08:06:45.000Z</time>
      </trkpt>
      <trkpt lat="45.83099" lon="2.95571">
        <ele>1066.2</ele>
        <time>2021-08-28T08:06:51.000Z</time>
      </trkpt>
      <trkpt lat="45.83091" lon="2.95567">
        <ele>1069.7</ele>
        <time>2021-08-28T08:06:57.000Z</time>
      </trkpt>
      <trkpt lat="45.83084" lon="2.95563">
        <ele>1072.7</ele>
        <time>2021-08-28T08:07:03.000Z</time>
      </trkpt>
      <trkpt lat="45.83078" lon="2.95558">
        <ele>1076.9</ele>
        <time>2021-08-28T08:07:10.000Z</time>
      </trkpt>
      <trkpt lat="45.83072" lon="2.95553">
        <ele>1081.3</ele>
        <time>2021-08-28T08:07:33.000Z</time>
      </trkpt>
      <trkpt lat="45.83066" lon="2.95549">
        <ele>1085.7</ele>
        <time>2021-08-28T08:07:44.000Z</time>
      </trkpt>
      <trkpt lat="45.8306" lon="2.95549">
        <ele>1089.9</ele>
        <time>2021-08-28T08:07:52.000Z</time>
      </trkpt>
      <trkpt lat="45.83052" lon="2.95548">
        <ele>1095.5</ele>
        <time>2021-08-28T08:08:17.000Z</time>
      </trkpt>
      <trkpt lat="45.83047" lon="2.95542">
        <ele>1099.5</ele>
        <time>2021-08-28T08:08:54.000Z</time>
      </trkpt>
      <trkpt lat="45.8304" lon="2.95542">
        <ele>1104.4</ele>
        <time>2021-08-28T08:09:02.000Z</time>
      </trkpt>
      <trkpt lat="45.83034" lon="2.95539">
        <ele>1108.9</ele>
        <time>2021-08-28T08:09:10.000Z</time>
      </trkpt>
      <trkpt lat="45.83027" lon="2.95537">
        <ele>1114</ele>
        <time>2021-08-28T08:09:15.000Z</time>
      </trkpt>
      <trkpt lat="45.8302" lon="2.95534">
        <ele>1119.2</ele>
        <time>2021-08-28T08:09:22.000Z</time>
      </trkpt>
      <trkpt lat="45.83014" lon="2.95531">
        <ele>1123.7</ele>
        <time>2021-08-28T08:09:29.000Z</time>
      </trkpt>
      <trkpt lat="45.83007" lon="2.95528">
        <ele>1129</ele>
        <time>2021-08-28T08:09:36.000Z</time>
      </trkpt>
      <trkpt lat="45.83" lon="2.95529">
        <ele>1133.9</ele>
        <time>2021-08-28T08:09:43.000Z</time>
      </trkpt>
      <trkpt lat="45.82993" lon="2.95527">
        <ele>1136.5</ele>
        <time>2021-08-28T08:09:48.000Z</time>
      </trkpt>
      <trkpt lat="45.82987" lon="2.95524">
        <ele>1138.9</ele>
        <time>2021-08-28T08:09:53.000Z</time>
      </trkpt>
      <trkpt lat="45.8298" lon="2.95521">
        <ele>1141.6</ele>
        <time>2021-08-28T08:10:01.000Z</time>
      </trkpt>
      <trkpt lat="45.82972" lon="2.95522">
        <ele>1144.3</ele>
        <time>2021-08-28T08:10:50.000Z</time>
      </trkpt>
      <trkpt lat="45.82966" lon="2.95519">
        <ele>1146.7</ele>
        <time>2021-08-28T08:10:55.000Z</time>
      </trkpt>
      <trkpt lat="45.82959" lon="2.95515">
        <ele>1149.7</ele>
        <time>2021-08-28T08:11:06.000Z</time>
      </trkpt>
      <trkpt lat="45.82952" lon="2.95515">
        <ele>1152.1</ele>
        <time>2021-08-28T08:11:12.000Z</time>
      </trkpt>
      <trkpt lat="45.82945" lon="2.95515">
        <ele>1154.6</ele>
        <time>2021-08-28T08:11:19.000Z</time>
      </trkpt>
      <trkpt lat="45.82938" lon="2.95516">
        <ele>1156.9</ele>
        <time>2021-08-28T08:11:26.000Z</time>
      </trkpt>
      <trkpt lat="45.82931" lon="2.95516">
        <ele>1159.3</ele>
        <time>2021-08-28T08:11:35.000Z</time>
      </trkpt>
      <trkpt lat="45.82924" lon="2.95516">
        <ele>1161.8</ele>
        <time>2021-08-28T08:11:46.000Z</time>
      </trkpt>
      <trkpt lat="45.82917" lon="2.95516">
        <ele>1164.2</ele>
        <time>2021-08-28T08:11:54.000Z</time>
      </trkpt>
      <trkpt lat="45.8291" lon="2.95515">
        <ele>1163.4</ele>
        <time>2021-08-28T08:12:01.000Z</time>
      </trkpt>
      <trkpt lat="45.82903" lon="2.95512">
        <ele>1162.7</ele>
        <time>2021-08-28T08:12:07.000Z</time>
      </trkpt>
      <trkpt lat="45.82897" lon="2.95509">
        <ele>1162.2</ele>
        <time>2021-08-28T08:12:13.000Z</time>
      </trkpt>
      <trkpt lat="45.8289" lon="2.95506">
        <ele>1161.5</ele>
        <time>2021-08-28T08:12:19.000Z</time>
      </trkpt>
      <trkpt lat="45.82883" lon="2.95504">
        <ele>1160.7</ele>
        <time>2021-08-28T08:12:27.000Z</time>
      </trkpt>
      <trkpt lat="45.82876" lon="2.95501">
        <ele>1160</ele>
        <time>2021-08-28T08:12:47.000Z</time>
      </trkpt>
      <trkpt lat="45.8287" lon="2.95494">
        <ele>1157.4</ele>
        <time>2021-08-28T08:12:56.000Z</time>
      </trkpt>
      <trkpt lat="45.82864" lon="2.95492">
        <ele>1155.9</ele>
        <time>2021-08-28T08:13:02.000Z</time>
      </trkpt>
      <trkpt lat="45.82857" lon="2.95489">
        <ele>1154</ele>
        <time>2021-08-28T08:13:08.000Z</time>
      </trkpt>
      <trkpt lat="45.8285" lon="2.95486">
        <ele>1152.1</ele>
        <time>2021-08-28T08:13:15.000Z</time>
      </trkpt>
      <trkpt lat="45.82843" lon="2.95484">
        <ele>1150.6</ele>
        <time>2021-08-28T08:13:22.000Z</time>
      </trkpt>
      <trkpt lat="45.82836" lon="2.9548">
        <ele>1148.6</ele>
        <time>2021-08-28T08:13:29.000Z</time>
      </trkpt>
      <trkpt lat="45.8283" lon="2.95476">
        <ele>1145.6</ele>
        <time>2021-08-28T08:13:36.000Z</time>
      </trkpt>
      <trkpt lat="45.82824" lon="2.95471">
        <ele>1141.6</ele>
        <time>2021-08-28T08:13:44.000Z</time>
      </trkpt>
      <trkpt lat="45.82818" lon="2.95469">
        <ele>1138.4</ele>
        <time>2021-08-28T08:13:51.000Z</time>
      </trkpt>
      <trkpt lat="45.82812" lon="2.95467">
        <ele>1135.1</ele>
        <time>2021-08-28T08:13:58.000Z</time>
      </trkpt>
      <trkpt lat="45.82805" lon="2.95468">
        <ele>1132.1</ele>
        <time>2021-08-28T08:14:05.000Z</time>
      </trkpt>
      <trkpt lat="45.82797" lon="2.95468">
        <ele>1128.3</ele>
        <time>2021-08-28T08:14:13.000Z</time>
      </trkpt>
      <trkpt lat="45.82791" lon="2.95466">
        <ele>1125.2</ele>
        <time>2021-08-28T08:14:22.000Z</time>
      </trkpt>
      <trkpt lat="45.82784" lon="2.95463">
        <ele>1121.5</ele>
        <time>2021-08-28T08:14:31.000Z</time>
      </trkpt>
      <trkpt lat="45.82778" lon="2.9546">
        <ele>1118.3</ele>
        <time>2021-08-28T08:14:38.000Z</time>
      </trkpt>
      <trkpt lat="45.82771" lon="2.95458">
        <ele>1114.9</ele>
        <time>2021-08-28T08:14:45.000Z</time>
      </trkpt>
      <trkpt lat="45.82764" lon="2.95456">
        <ele>1111.5</ele>
        <time>2021-08-28T08:14:54.000Z</time>
      </trkpt>
      <trkpt lat="45.82758" lon="2.95453">
        <ele>1108.6</ele>
        <time>2021-08-28T08:15:02.000Z</time>
      </trkpt>
      <trkpt lat="45.82751" lon="2.9545">
        <ele>1105.2</ele>
        <time>2021-08-28T08:15:14.000Z</time>
      </trkpt>
      <trkpt lat="45.82744" lon="2.95448">
        <ele>1103.4</ele>
        <time>2021-08-28T08:15:24.000Z</time>
      </trkpt>
      <trkpt lat="45.82738" lon="2.95446">
        <ele>1102.1</ele>
        <time>2021-08-28T08:15:30.000Z</time>
      </trkpt>
      <trkpt lat="45.82731" lon="2.95443">
        <ele>1100.5</ele>
        <time>2021-08-28T08:15:35.000Z</time>
      </trkpt>
      <trkpt lat="45.82724" lon="2.95443">
        <ele>1099.2</ele>
        <time>2021-08-28T08:15:41.000Z</time>
      </trkpt>
      <trkpt lat="45.82717" lon="2.95445">
        <ele>1097.9</ele>
        <time>2021-08-28T08:15:51.000Z</time>
      </trkpt>
      <trkpt lat="45.8271" lon="2.95442">
        <ele>1096.4</ele>
        <time>2021-08-28T08:15:57.000Z</time>
      </trkpt>
      <trkpt lat="45.82704" lon="2.95446">
        <ele>1095.3</ele>
        <time>2021-08-28T08:16:05.000Z</time>
      </trkpt>
      <trkpt lat="45.82695" lon="2.95458">
        <ele>1093.6</ele>
        <time>2021-08-28T08:16:23.000Z</time>
      </trkpt>
      <trkpt lat="45.82687" lon="2.95458">
        <ele>1091.9</ele>
        <time>2021-08-28T08:16:31.000Z</time>
      </trkpt>
      <trkpt lat="45.82681" lon="2.95464">
        <ele>1090.5</ele>
        <time>2021-08-28T08:16:38.000Z</time>
      </trkpt>
      <trkpt lat="45.82674" lon="2.95467">
        <ele>1088.9</ele>
        <time>2021-08-28T08:16:45.000Z</time>
      </trkpt>
      <trkpt lat="45.82667" lon="2.95468">
        <ele>1087.2</ele>
        <time>2021-08-28T08:16:51.000Z</time>
      </trkpt>
      <trkpt lat="45.8266" lon="2.9547">
        <ele>1089.3</ele>
        <time>2021-08-28T08:16:58.000Z</time>
      </trkpt>
      <trkpt lat="45.82653" lon="2.95471">
        <ele>1091.5</ele>
        <time>2021-08-28T08:17:05.000Z</time>
      </trkpt>
      <trkpt lat="45.82646" lon="2.95474">
        <ele>1093.7</ele>
        <time>2021-08-28T08:17:11.000Z</time>
      </trkpt>
      <trkpt lat="45.82639" lon="2.95476">
        <ele>1095.9</ele>
        <time>2021-08-28T08:17:17.000Z</time>
      </trkpt>
      <trkpt lat="45.82633" lon="2.9548">
        <ele>1097.7</ele>
        <time>2021-08-28T08:17:23.000Z</time>
      </trkpt>
      <trkpt lat="45.82626" lon="2.95482">
        <ele>1099.9</ele>
        <time>2021-08-28T08:17:30.000Z</time>
      </trkpt>
      <trkpt lat="45.8262" lon="2.95486">
        <ele>1101.7</ele>
        <time>2021-08-28T08:17:36.000Z</time>
      </trkpt>
      <trkpt lat="45.82614" lon="2.95491">
        <ele>1103.5</ele>
        <time>2021-08-28T08:17:43.000Z</time>
      </trkpt>
      <trkpt lat="45.82604" lon="2.95497">
        <ele>1106.4</ele>
        <time>2021-08-28T08:17:57.000Z</time>
      </trkpt>
      <trkpt lat="45.82598" lon="2.95501">
        <ele>1108.2</ele>
        <time>2021-08-28T08:18:06.000Z</time>
      </trkpt>
      <trkpt lat="45.82592" lon="2.95504">
        <ele>1109.8</ele>
        <time>2021-08-28T08:18:15.000Z</time>
      </trkpt>
      <trkpt lat="45.82585" lon="2.95508">
        <ele>1111.7</ele>
        <time>2021-08-28T08:18:22.000Z</time>
      </trkpt>
      <trkpt lat="45.82579" lon="2.95511">
        <ele>1111.1</ele>
        <time>2021-08-28T08:18:28.000Z</time>
      </trkpt>
      <trkpt lat="45.82572" lon="2.95513">
        <ele>1109.5</ele>
        <time>2021-08-28T08:18:35.000Z</time>
      </trkpt>
      <trkpt lat="45.82565" lon="2.95516">
        <ele>1107.8</ele>
        <time>2021-08-28T08:18:42.000Z</time>
      </trkpt>
      <trkpt lat="45.82558" lon="2.95519">
        <ele>1106</ele>
        <time>2021-08-28T08:18:49.000Z</time>
      </trkpt>
      <trkpt lat="45.82552" lon="2.95522">
        <ele>1104.5</ele>
        <time>2021-08-28T08:18:56.000Z</time>
      </trkpt>
      <trkpt lat="45.82546" lon="2.95526">
        <ele>1102.8</ele>
        <time>2021-08-28T08:19:03.000Z</time>
      </trkpt>
      <trkpt lat="45.82539" lon="2.9553">
        <ele>1100.8</ele>
        <time>2021-08-28T08:19:10.000Z</time>
      </trkpt>
      <trkpt lat="45.82533" lon="2.95533">
        <ele>1099.2</ele>
        <time>2021-08-28T08:19:17.000Z</time>
      </trkpt>
      <trkpt lat="45.82526" lon="2.95536">
        <ele>1097.3</ele>
        <time>2021-08-28T08:19:23.000Z</time>
      </trkpt>
      <trkpt lat="45.8252" lon="2.9554">
        <ele>1095.5</ele>
        <time>2021-08-28T08:19:29.000Z</time>
      </trkpt>
      <trkpt lat="45.82514" lon="2.95544">
        <ele>1093.7</ele>
        <time>2021-08-28T08:19:35.000Z</time>
      </trkpt>
      <trkpt lat="45.82508" lon="2.95548">
        <ele>1091.8</ele>
        <time>2021-08-28T08:19:41.000Z</time>
      </trkpt>
      <trkpt lat="45.82501" lon="2.95552">
        <ele>1089.7</ele>
        <time>2021-08-28T08:19:47.000Z</time>
      </trkpt>
      <trkpt lat="45.82495" lon="2.95557">
        <ele>1086.8</ele>
        <time>2021-08-28T08:19:53.000Z</time>
      </trkpt>
      <trkpt lat="45.82489" lon="2.95561">
        <ele>1083.9</ele>
        <time>2021-08-28T08:20:00.000Z</time>
      </trkpt>
      <trkpt lat="45.82482" lon="2.95564">
        <ele>1080.7</ele>
        <time>2021-08-28T08:20:09.000Z</time>
      </trkpt>
      <trkpt lat="45.82476" lon="2.95568">
        <ele>1077.7</ele>
        <time>2021-08-28T08:20:17.000Z</time>
      </trkpt>
      <trkpt lat="45.8247" lon="2.95571">
        <ele>1074.9</ele>
        <time>2021-08-28T08:20:29.000Z</time>
      </trkpt>
      <trkpt lat="45.82459" lon="2.95569">
        <ele>1070.8</ele>
        <time>2021-08-28T08:20:45.000Z</time>
      </trkpt>
      <trkpt lat="45.82452" lon="2.95567">
        <ele>1068.3</ele>
        <time>2021-08-28T08:20:52.000Z</time>
      </trkpt>
      <trkpt lat="45.82445" lon="2.95563">
        <ele>1066.1</ele>
        <time>2021-08-28T08:20:57.000Z</time>
      </trkpt>
      <trkpt lat="45.82439" lon="2.9556">
        <ele>1064.2</ele>
        <time>2021-08-28T08:21:03.000Z</time>
      </trkpt>
      <trkpt lat="45.82432" lon="2.95561">
        <ele>1061.3</ele>
        <time>2021-08-28T08:21:15.000Z</time>
      </trkpt>
      <trkpt lat="45.82428" lon="2.95553">
        <ele>1060.9</ele>
        <time>2021-08-28T08:21:25.000Z</time>
      </trkpt>
      <trkpt lat="45.82421" lon="2.9555">
        <ele>1058.5</ele>
        <time>2021-08-28T08:21:38.000Z</time>
      </trkpt>
      <trkpt lat="45.82415" lon="2.95546">
        <ele>1056.7</ele>
        <time>2021-08-28T08:21:47.000Z</time>
      </trkpt>
      <trkpt lat="45.82409" lon="2.9554">
        <ele>1055.2</ele>
        <time>2021-08-28T08:21:55.000Z</time>
      </trkpt>
      <trkpt lat="45.82403" lon="2.95535">
        <ele>1053.6</ele>
        <time>2021-08-28T08:22:04.000Z</time>
      </trkpt>
      <trkpt lat="45.82397" lon="2.9553">
        <ele>1051.9</ele>
        <time>2021-08-28T08:22:12.000Z</time>
      </trkpt>
      <trkpt lat="45.8239" lon="2.95527">
        <ele>1049.5</ele>
        <time>2021-08-28T08:22:19.000Z</time>
      </trkpt>
      <trkpt lat="45.82384" lon="2.95522">
        <ele>1047.8</ele>
        <time>2021-08-28T08:22:27.000Z</time>
      </trkpt>
      <trkpt lat="45.82378" lon="2.95516">
        <ele>1046.2</ele>
        <time>2021-08-28T08:22:34.000Z</time>
      </trkpt>
      <trkpt lat="45.82373" lon="2.95511">
        <ele>1044.8</ele>
        <time>2021-08-28T08:22:41.000Z</time>
      </trkpt>
      <trkpt lat="45.82366" lon="2.95505">
        <ele>1042.7</ele>
        <time>2021-08-28T08:22:49.000Z</time>
      </trkpt>
      <trkpt lat="45.82361" lon="2.95499">
        <ele>1041.4</ele>
        <time>2021-08-28T08:22:57.000Z</time>
      </trkpt>
      <trkpt lat="45.82355" lon="2.95495">
        <ele>1039.3</ele>
        <time>2021-08-28T08:23:04.000Z</time>
      </trkpt>
      <trkpt lat="45.82349" lon="2.95489">
        <ele>1037.4</ele>
        <time>2021-08-28T08:23:12.000Z</time>
      </trkpt>
      <trkpt lat="45.82343" lon="2.95485">
        <ele>1035.4</ele>
        <time>2021-08-28T08:23:20.000Z</time>
      </trkpt>
      <trkpt lat="45.82337" lon="2.95483">
        <ele>1033.1</ele>
        <time>2021-08-28T08:23:27.000Z</time>
      </trkpt>
      <trkpt lat="45.82329" lon="2.95477">
        <ele>1030.6</ele>
        <time>2021-08-28T08:23:42.000Z</time>
      </trkpt>
      <trkpt lat="45.82323" lon="2.95476">
        <ele>1028.6</ele>
        <time>2021-08-28T08:23:50.000Z</time>
      </trkpt>
      <trkpt lat="45.82318" lon="2.95468">
        <ele>1027.5</ele>
        <time>2021-08-28T08:23:59.000Z</time>
      </trkpt>
      <trkpt lat="45.82316" lon="2.95458">
        <ele>1027.6</ele>
        <time>2021-08-28T08:24:07.000Z</time>
      </trkpt>
      <trkpt lat="45.82313" lon="2.95449">
        <ele>1027.2</ele>
        <time>2021-08-28T08:24:17.000Z</time>
      </trkpt>
      <trkpt lat="45.82313" lon="2.95439">
        <ele>1028.1</ele>
        <time>2021-08-28T08:24:25.000Z</time>
      </trkpt>
      <trkpt lat="45.82313" lon="2.95429">
        <ele>1028.9</ele>
        <time>2021-08-28T08:24:34.000Z</time>
      </trkpt>
      <trkpt lat="45.82312" lon="2.95419">
        <ele>1029.4</ele>
        <time>2021-08-28T08:24:48.000Z</time>
      </trkpt>
      <trkpt lat="45.82312" lon="2.95409">
        <ele>1030.1</ele>
        <time>2021-08-28T08:24:55.000Z</time>
      </trkpt>
      <trkpt lat="45.82313" lon="2.95399">
        <ele>1031.3</ele>
        <time>2021-08-28T08:25:02.000Z</time>
      </trkpt>
      <trkpt lat="45.8231" lon="2.95392">
        <ele>1030.7</ele>
        <time>2021-08-28T08:25:17.000Z</time>
      </trkpt>
      <trkpt lat="45.82308" lon="2.95382">
        <ele>1030.6</ele>
        <time>2021-08-28T08:25:27.000Z</time>
      </trkpt>
      <trkpt lat="45.82308" lon="2.95372">
        <ele>1031.4</ele>
        <time>2021-08-28T08:25:37.000Z</time>
      </trkpt>
      <trkpt lat="45.82309" lon="2.95362">
        <ele>1032.6</ele>
        <time>2021-08-28T08:25:46.000Z</time>
      </trkpt>
      <trkpt lat="45.82306" lon="2.95353">
        <ele>1032</ele>
        <time>2021-08-28T08:25:54.000Z</time>
      </trkpt>
      <trkpt lat="45.82302" lon="2.95346">
        <ele>1030.9</ele>
        <time>2021-08-28T08:26:02.000Z</time>
      </trkpt>
      <trkpt lat="45.82302" lon="2.95335">
        <ele>1031.7</ele>
        <time>2021-08-28T08:26:10.000Z</time>
      </trkpt>
      <trkpt lat="45.82304" lon="2.95326">
        <ele>1032.9</ele>
        <time>2021-08-28T08:26:16.000Z</time>
      </trkpt>
      <trkpt lat="45.82305" lon="2.95316">
        <ele>1033.6</ele>
        <time>2021-08-28T08:26:24.000Z</time>
      </trkpt>
      <trkpt lat="45.82307" lon="2.95307">
        <ele>1034.7</ele>
        <time>2021-08-28T08:26:33.000Z</time>
      </trkpt>
      <trkpt lat="45.82306" lon="2.95297">
        <ele>1034.5</ele>
        <time>2021-08-28T08:26:46.000Z</time>
      </trkpt>
      <trkpt lat="45.82297" lon="2.95289">
        <ele>1030.9</ele>
        <time>2021-08-28T08:27:12.000Z</time>
      </trkpt>
      <trkpt lat="45.82292" lon="2.95283">
        <ele>1028.9</ele>
        <time>2021-08-28T08:27:33.000Z</time>
      </trkpt>
      <trkpt lat="45.82294" lon="2.95273">
        <ele>1030</ele>
        <time>2021-08-28T08:27:43.000Z</time>
      </trkpt>
      <trkpt lat="45.82295" lon="2.95264">
        <ele>1030.6</ele>
        <time>2021-08-28T08:27:51.000Z</time>
      </trkpt>
      <trkpt lat="45.82297" lon="2.95254">
        <ele>1031.8</ele>
        <time>2021-08-28T08:28:00.000Z</time>
      </trkpt>
      <trkpt lat="45.82299" lon="2.95245">
        <ele>1032.8</ele>
        <time>2021-08-28T08:28:10.000Z</time>
      </trkpt>
      <trkpt lat="45.82303" lon="2.95237">
        <ele>1034.5</ele>
        <time>2021-08-28T08:28:21.000Z</time>
      </trkpt>
      <trkpt lat="45.82305" lon="2.95228">
        <ele>1035.4</ele>
        <time>2021-08-28T08:28:41.000Z</time>
      </trkpt>
      <trkpt lat="45.82309" lon="2.9522">
        <ele>1037.2</ele>
        <time>2021-08-28T08:28:54.000Z</time>
      </trkpt>
      <trkpt lat="45.82313" lon="2.95212">
        <ele>1039</ele>
        <time>2021-08-28T08:29:12.000Z</time>
      </trkpt>
      <trkpt lat="45.82316" lon="2.95204">
        <ele>1040.3</ele>
        <time>2021-08-28T08:29:25.000Z</time>
      </trkpt>
      <trkpt lat="45.8232" lon="2.95196">
        <ele>1042.1</ele>
        <time>2021-08-28T08:29:33.000Z</time>
      </trkpt>
      <trkpt lat="45.82321" lon="2.95186">
        <ele>1042.5</ele>
        <time>2021-08-28T08:29:43.000Z</time>
      </trkpt>
      <trkpt lat="45.82324" lon="2.95176">
        <ele>1043.9</ele>
        <time>2021-08-28T08:29:51.000Z</time>
      </trkpt>
      <trkpt lat="45.82328" lon="2.95167">
        <ele>1045.6</ele>
        <time>2021-08-28T08:30:00.000Z</time>
      </trkpt>
      <trkpt lat="45.82333" lon="2.9516">
        <ele>1047.8</ele>
        <time>2021-08-28T08:30:11.000Z</time>
      </trkpt>
      <trkpt lat="45.82336" lon="2.95152">
        <ele>1049.1</ele>
        <time>2021-08-28T08:30:32.000Z</time>
      </trkpt>
      <trkpt lat="45.82339" lon="2.95144">
        <ele>1050.5</ele>
        <time>2021-08-28T08:30:40.000Z</time>
      </trkpt>
      <trkpt lat="45.82344" lon="2.95136">
        <ele>1052.8</ele>
        <time>2021-08-28T08:30:47.000Z</time>
      </trkpt>
      <trkpt lat="45.82349" lon="2.9513">
        <ele>1055</ele>
        <time>2021-08-28T08:30:55.000Z</time>
      </trkpt>
      <trkpt lat="45.82352" lon="2.95121">
        <ele>1056.2</ele>
        <time>2021-08-28T08:31:05.000Z</time>
      </trkpt>
      <trkpt lat="45.82356" lon="2.95112">
        <ele>1057.9</ele>
        <time>2021-08-28T08:31:13.000Z</time>
      </trkpt>
      <trkpt lat="45.82361" lon="2.95106">
        <ele>1060</ele>
        <time>2021-08-28T08:31:20.000Z</time>
      </trkpt>
      <trkpt lat="45.82364" lon="2.95098">
        <ele>1061.1</ele>
        <time>2021-08-28T08:31:31.000Z</time>
      </trkpt>
      <trkpt lat="45.82368" lon="2.9509">
        <ele>1062.6</ele>
        <time>2021-08-28T08:31:40.000Z</time>
      </trkpt>
      <trkpt lat="45.82372" lon="2.95081">
        <ele>1063.9</ele>
        <time>2021-08-28T08:31:50.000Z</time>
      </trkpt>
      <trkpt lat="45.82373" lon="2.95072">
        <ele>1063.4</ele>
        <time>2021-08-28T08:32:02.000Z</time>
      </trkpt>
      <trkpt lat="45.82366" lon="2.9507">
        <ele>1060</ele>
        <time>2021-08-28T08:32:17.000Z</time>
      </trkpt>
      <trkpt lat="45.82356" lon="2.95073">
        <ele>1055.9</ele>
        <time>2021-08-28T08:32:21.000Z</time>
      </trkpt>
      <trkpt lat="45.82347" lon="2.9508">
        <ele>1052.7</ele>
      </trkpt>
      <trkpt lat="45.82341" lon="2.95084">
        <ele>1050.4</ele>
      </trkpt>
      <trkpt lat="45.82332" lon="2.951">
        <ele>1046.6</ele>
      </trkpt>
      <trkpt lat="45.82322" lon="2.95092">
        <ele>1042.1</ele>
      </trkpt>
      <trkpt lat="45.82312" lon="2.95102">
        <ele>1037.8</ele>
      </trkpt>
      <trkpt lat="45.82304" lon="2.95108">
        <ele>1034.3</ele>
      </trkpt>
      <trkpt lat="45.82283" lon="2.95104">
        <ele>1024.9</ele>
        <time>2021-08-28T08:32:27.000Z</time>
      </trkpt>
      <trkpt lat="45.8226" lon="2.95113">
        <ele>1014.8</ele>
        <time>2021-08-28T08:32:33.000Z</time>
      </trkpt>
      <trkpt lat="45.82245" lon="2.95117">
        <ele>1008.9</ele>
        <time>2021-08-28T08:32:42.000Z</time>
      </trkpt>
      <trkpt lat="45.82248" lon="2.95108">
        <ele>1009.7</ele>
        <time>2021-08-28T08:32:57.000Z</time>
      </trkpt>
      <trkpt lat="45.82255" lon="2.95103">
        <ele>1012.5</ele>
        <time>2021-08-28T08:33:04.000Z</time>
      </trkpt>
      <trkpt lat="45.8226" lon="2.95098">
        <ele>1014.6</ele>
        <time>2021-08-28T08:33:11.000Z</time>
      </trkpt>
      <trkpt lat="45.82266" lon="2.95091">
        <ele>1017.2</ele>
        <time>2021-08-28T08:33:18.000Z</time>
      </trkpt>
      <trkpt lat="45.82271" lon="2.95086">
        <ele>1019.4</ele>
        <time>2021-08-28T08:33:25.000Z</time>
      </trkpt>
      <trkpt lat="45.82278" lon="2.95081">
        <ele>1022.3</ele>
        <time>2021-08-28T08:33:34.000Z</time>
      </trkpt>
      <trkpt lat="45.82282" lon="2.95074">
        <ele>1023.5</ele>
        <time>2021-08-28T08:33:41.000Z</time>
      </trkpt>
      <trkpt lat="45.82288" lon="2.95068">
        <ele>1025.6</ele>
        <time>2021-08-28T08:33:49.000Z</time>
      </trkpt>
      <trkpt lat="45.82295" lon="2.95064">
        <ele>1028.3</ele>
        <time>2021-08-28T08:33:59.000Z</time>
      </trkpt>
      <trkpt lat="45.82283" lon="2.9506">
        <ele>1022.9</ele>
      </trkpt>
      <trkpt lat="45.8226" lon="2.95067">
        <ele>1013.5</ele>
        <time>2021-08-28T08:34:34.000Z</time>
      </trkpt>
      <trkpt lat="45.82246" lon="2.95064">
        <ele>1007.9</ele>
      </trkpt>
      <trkpt lat="45.82236" lon="2.95073">
        <ele>1005.4</ele>
      </trkpt>
      <trkpt lat="45.82223" lon="2.95071">
        <ele>1001.5</ele>
      </trkpt>
      <trkpt lat="45.82209" lon="2.95076">
        <ele>997.6</ele>
        <time>2021-08-28T08:34:39.000Z</time>
      </trkpt>
      <trkpt lat="45.82202" lon="2.95082">
        <ele>995.6</ele>
      </trkpt>
      <trkpt lat="45.82186" lon="2.95077">
        <ele>990.8</ele>
        <time>2021-08-28T08:34:45.000Z</time>
      </trkpt>
      <trkpt lat="45.82174" lon="2.95077">
        <ele>987.2</ele>
        <time>2021-08-28T08:34:51.000Z</time>
      </trkpt>
      <trkpt lat="45.82168" lon="2.95071">
        <ele>985.5</ele>
      </trkpt>
      <trkpt lat="45.82162" lon="2.95076">
        <ele>984.5</ele>
        <time>2021-08-28T08:34:57.000Z</time>
      </trkpt>
      <trkpt lat="45.82157" lon="2.95083">
        <ele>983.7</ele>
      </trkpt>
      <trkpt lat="45.82148" lon="2.95081">
        <ele>982.6</ele>
      </trkpt>
      <trkpt lat="45.82139" lon="2.95078">
        <ele>981.4</ele>
      </trkpt>
      <trkpt lat="45.8213" lon="2.95079">
        <ele>980.2</ele>
        <time>2021-08-28T08:35:03.000Z</time>
      </trkpt>
      <trkpt lat="45.82114" lon="2.9508">
        <ele>978.1</ele>
        <time>2021-08-28T08:35:09.000Z</time>
      </trkpt>
      <trkpt lat="45.82108" lon="2.95069">
        <ele>977.5</ele>
        <time>2021-08-28T08:35:39.000Z</time>
      </trkpt>
      <trkpt lat="45.82111" lon="2.95091">
        <ele>977.8</ele>
      </trkpt>
      <trkpt lat="45.82112" lon="2.95107">
        <ele>978.2</ele>
      </trkpt>
      <trkpt lat="45.82121" lon="2.95123">
        <ele>979.7</ele>
      </trkpt>
      <trkpt lat="45.82133" lon="2.95133">
        <ele>981.5</ele>
      </trkpt>
      <trkpt lat="45.82143" lon="2.95135">
        <ele>982.9</ele>
      </trkpt>
      <trkpt lat="45.82147" lon="2.95147">
        <ele>983.8</ele>
      </trkpt>
      <trkpt lat="45.82158" lon="2.95174">
        <ele>985.6</ele>
      </trkpt>
      <trkpt lat="45.82176" lon="2.95178">
        <ele>989.4</ele>
      </trkpt>
      <trkpt lat="45.82183" lon="2.95174">
        <ele>991.6</ele>
      </trkpt>
      <trkpt lat="45.82196" lon="2.95186">
        <ele>995.1</ele>
      </trkpt>
      <trkpt lat="45.82203" lon="2.95193">
        <ele>997.1</ele>
      </trkpt>
      <trkpt lat="45.82212" lon="2.95218">
        <ele>999.5</ele>
      </trkpt>
      <trkpt lat="45.82219" lon="2.95235">
        <ele>1001.5</ele>
      </trkpt>
      <trkpt lat="45.82218" lon="2.95272">
        <ele>1000.9</ele>
      </trkpt>
      <trkpt lat="45.82226" lon="2.9528">
        <ele>1003.3</ele>
      </trkpt>
      <trkpt lat="45.82233" lon="2.95295">
        <ele>1005.3</ele>
      </trkpt>
      <trkpt lat="45.82242" lon="2.95313">
        <ele>1007.8</ele>
      </trkpt>
      <trkpt lat="45.82245" lon="2.95322">
        <ele>1008.6</ele>
      </trkpt>
      <trkpt lat="45.82263" lon="2.95347">
        <ele>1014.6</ele>
      </trkpt>
      <trkpt lat="45.82271" lon="2.95356">
        <ele>1017.3</ele>
      </trkpt>
      <trkpt lat="45.82279" lon="2.9537">
        <ele>1019.7</ele>
      </trkpt>
      <trkpt lat="45.82286" lon="2.9538">
        <ele>1021.8</ele>
      </trkpt>
      <trkpt lat="45.82304" lon="2.95393">
        <ele>1028.2</ele>
      </trkpt>
      <trkpt lat="45.8232" lon="2.95401">
        <ele>1034</ele>
      </trkpt>
      <trkpt lat="45.82342" lon="2.95413">
        <ele>1041.9</ele>
      </trkpt>
      <trkpt lat="45.82353" lon="2.95426">
        <ele>1045.1</ele>
        <time>2021-08-28T08:36:10.000Z</time>
      </trkpt>
      <trkpt lat="45.82362" lon="2.95429">
        <ele>1048.5</ele>
      </trkpt>
      <trkpt lat="45.82373" lon="2.95435">
        <ele>1052.4</ele>
      </trkpt>
      <trkpt lat="45.82379" lon="2.95459">
        <ele>1052.6</ele>
        <time>2021-08-28T08:36:15.000Z</time>
      </trkpt>
      <trkpt lat="45.82372" lon="2.95477">
        <ele>1048</ele>
        <time>2021-08-28T08:36:21.000Z</time>
      </trkpt>
      <trkpt lat="45.82372" lon="2.95497">
        <ele>1046.1</ele>
        <time>2021-08-28T08:36:27.000Z</time>
      </trkpt>
      <trkpt lat="45.8238" lon="2.95496">
        <ele>1049.4</ele>
        <time>2021-08-28T08:36:42.000Z</time>
      </trkpt>
      <trkpt lat="45.82386" lon="2.95493">
        <ele>1052.2</ele>
        <time>2021-08-28T08:36:49.000Z</time>
      </trkpt>
      <trkpt lat="45.82393" lon="2.95489">
        <ele>1055.4</ele>
        <time>2021-08-28T08:36:55.000Z</time>
      </trkpt>
      <trkpt lat="45.82399" lon="2.95486">
        <ele>1058.1</ele>
        <time>2021-08-28T08:37:01.000Z</time>
      </trkpt>
      <trkpt lat="45.82405" lon="2.95482">
        <ele>1061</ele>
        <time>2021-08-28T08:37:07.000Z</time>
      </trkpt>
      <trkpt lat="45.82411" lon="2.9548">
        <ele>1063.6</ele>
        <time>2021-08-28T08:37:14.000Z</time>
      </trkpt>
      <trkpt lat="45.82418" lon="2.95476">
        <ele>1066.9</ele>
        <time>2021-08-28T08:37:19.000Z</time>
      </trkpt>
      <trkpt lat="45.82424" lon="2.95472">
        <ele>1069.7</ele>
        <time>2021-08-28T08:37:26.000Z</time>
      </trkpt>
      <trkpt lat="45.8243" lon="2.95467">
        <ele>1072.7</ele>
        <time>2021-08-28T08:37:32.000Z</time>
      </trkpt>
      <trkpt lat="45.82435" lon="2.95461">
        <ele>1075.4</ele>
        <time>2021-08-28T08:37:38.000Z</time>
      </trkpt>
      <trkpt lat="45.82441" lon="2.95456">
        <ele>1078.5</ele>
        <time>2021-08-28T08:37:44.000Z</time>
      </trkpt>
      <trkpt lat="45.82446" lon="2.9545">
        <ele>1081.3</ele>
        <time>2021-08-28T08:37:51.000Z</time>
      </trkpt>
      <trkpt lat="45.82452" lon="2.95446">
        <ele>1084.3</ele>
        <time>2021-08-28T08:37:58.000Z</time>
      </trkpt>
      <trkpt lat="45.82459" lon="2.95442">
        <ele>1087.7</ele>
        <time>2021-08-28T08:38:04.000Z</time>
      </trkpt>
      <trkpt lat="45.82464" lon="2.95437">
        <ele>1090.5</ele>
        <time>2021-08-28T08:38:11.000Z</time>
      </trkpt>
      <trkpt lat="45.82469" lon="2.9543">
        <ele>1093.6</ele>
        <time>2021-08-28T08:38:19.000Z</time>
      </trkpt>
      <trkpt lat="45.82474" lon="2.95422">
        <ele>1096.8</ele>
        <time>2021-08-28T08:38:28.000Z</time>
      </trkpt>
      <trkpt lat="45.82476" lon="2.95413">
        <ele>1098.6</ele>
        <time>2021-08-28T08:38:35.000Z</time>
      </trkpt>
      <trkpt lat="45.82479" lon="2.95404">
        <ele>1100.6</ele>
        <time>2021-08-28T08:38:43.000Z</time>
      </trkpt>
      <trkpt lat="45.8248" lon="2.95394">
        <ele>1101.7</ele>
        <time>2021-08-28T08:38:50.000Z</time>
      </trkpt>
      <trkpt lat="45.82483" lon="2.95384">
        <ele>1103.6</ele>
        <time>2021-08-28T08:38:58.000Z</time>
      </trkpt>
      <trkpt lat="45.82484" lon="2.95374">
        <ele>1104.6</ele>
        <time>2021-08-28T08:39:04.000Z</time>
      </trkpt>
      <trkpt lat="45.82489" lon="2.95368">
        <ele>1107</ele>
        <time>2021-08-28T08:39:10.000Z</time>
      </trkpt>
      <trkpt lat="45.82495" lon="2.95362">
        <ele>1109.7</ele>
        <time>2021-08-28T08:39:17.000Z</time>
      </trkpt>
      <trkpt lat="45.825" lon="2.95355">
        <ele>1112</ele>
        <time>2021-08-28T08:39:23.000Z</time>
      </trkpt>
      <trkpt lat="45.82505" lon="2.95347">
        <ele>1112.5</ele>
        <time>2021-08-28T08:39:29.000Z</time>
      </trkpt>
      <trkpt lat="45.8251" lon="2.95342">
        <ele>1112.9</ele>
        <time>2021-08-28T08:39:34.000Z</time>
      </trkpt>
      <trkpt lat="45.82516" lon="2.95336">
        <ele>1113.3</ele>
        <time>2021-08-28T08:39:39.000Z</time>
      </trkpt>
      <trkpt lat="45.82526" lon="2.95333">
        <ele>1113.6</ele>
        <time>2021-08-28T08:39:45.000Z</time>
      </trkpt>
      <trkpt lat="45.82534" lon="2.95328">
        <ele>1113.4</ele>
        <time>2021-08-28T08:39:51.000Z</time>
      </trkpt>
      <trkpt lat="45.82541" lon="2.95324">
        <ele>1113.2</ele>
        <time>2021-08-28T08:39:57.000Z</time>
      </trkpt>
      <trkpt lat="45.82547" lon="2.95319">
        <ele>1112.8</ele>
        <time>2021-08-28T08:40:03.000Z</time>
      </trkpt>
      <trkpt lat="45.82554" lon="2.95314">
        <ele>1112.3</ele>
        <time>2021-08-28T08:40:10.000Z</time>
      </trkpt>
      <trkpt lat="45.8256" lon="2.95308">
        <ele>1111.7</ele>
        <time>2021-08-28T08:40:17.000Z</time>
      </trkpt>
      <trkpt lat="45.82568" lon="2.95305">
        <ele>1111.3</ele>
        <time>2021-08-28T08:40:22.000Z</time>
      </trkpt>
      <trkpt lat="45.82579" lon="2.95305">
        <ele>1111.3</ele>
        <time>2021-08-28T08:40:27.000Z</time>
      </trkpt>
      <trkpt lat="45.82592" lon="2.95301">
        <ele>1108.7</ele>
        <time>2021-08-28T08:40:33.000Z</time>
      </trkpt>
      <trkpt lat="45.826" lon="2.95297">
        <ele>1106.4</ele>
        <time>2021-08-28T08:40:39.000Z</time>
      </trkpt>
      <trkpt lat="45.82607" lon="2.95292">
        <ele>1104.3</ele>
        <time>2021-08-28T08:40:45.000Z</time>
      </trkpt>
      <trkpt lat="45.82613" lon="2.95288">
        <ele>1102.6</ele>
        <time>2021-08-28T08:40:57.000Z</time>
      </trkpt>
      <trkpt lat="45.82618" lon="2.95278">
        <ele>1100.8</ele>
        <time>2021-08-28T08:41:03.000Z</time>
      </trkpt>
      <trkpt lat="45.82626" lon="2.9527">
        <ele>1098.6</ele>
        <time>2021-08-28T08:41:09.000Z</time>
      </trkpt>
      <trkpt lat="45.82632" lon="2.95262">
        <ele>1097.1</ele>
        <time>2021-08-28T08:41:15.000Z</time>
      </trkpt>
      <trkpt lat="45.82639" lon="2.95255">
        <ele>1095.5</ele>
        <time>2021-08-28T08:41:21.000Z</time>
      </trkpt>
      <trkpt lat="45.82646" lon="2.95246">
        <ele>1094</ele>
        <time>2021-08-28T08:41:27.000Z</time>
      </trkpt>
      <trkpt lat="45.82654" lon="2.95238">
        <ele>1092.4</ele>
        <time>2021-08-28T08:41:33.000Z</time>
      </trkpt>
      <trkpt lat="45.8266" lon="2.95229">
        <ele>1091.3</ele>
        <time>2021-08-28T08:41:39.000Z</time>
      </trkpt>
      <trkpt lat="45.82666" lon="2.9522">
        <ele>1090.4</ele>
        <time>2021-08-28T08:41:45.000Z</time>
      </trkpt>
      <trkpt lat="45.82672" lon="2.95213">
        <ele>1089.4</ele>
        <time>2021-08-28T08:41:51.000Z</time>
      </trkpt>
      <trkpt lat="45.82677" lon="2.95205">
        <ele>1088.7</ele>
        <time>2021-08-28T08:41:57.000Z</time>
      </trkpt>
      <trkpt lat="45.82682" lon="2.95198">
        <ele>1088</ele>
        <time>2021-08-28T08:42:04.000Z</time>
      </trkpt>
      <trkpt lat="45.82688" lon="2.95193">
        <ele>1087.4</ele>
        <time>2021-08-28T08:42:09.000Z</time>
      </trkpt>
      <trkpt lat="45.82695" lon="2.95187">
        <ele>1086.7</ele>
        <time>2021-08-28T08:42:15.000Z</time>
      </trkpt>
      <trkpt lat="45.82702" lon="2.95181">
        <ele>1086.1</ele>
        <time>2021-08-28T08:42:21.000Z</time>
      </trkpt>
      <trkpt lat="45.82711" lon="2.95175">
        <ele>1085.5</ele>
        <time>2021-08-28T08:42:27.000Z</time>
      </trkpt>
      <trkpt lat="45.8272" lon="2.95169">
        <ele>1085.1</ele>
        <time>2021-08-28T08:42:33.000Z</time>
      </trkpt>
      <trkpt lat="45.82727" lon="2.95163">
        <ele>1085.2</ele>
        <time>2021-08-28T08:42:39.000Z</time>
      </trkpt>
      <trkpt lat="45.82733" lon="2.95155">
        <ele>1086</ele>
        <time>2021-08-28T08:42:45.000Z</time>
      </trkpt>
      <trkpt lat="45.82742" lon="2.9515">
        <ele>1086.3</ele>
        <time>2021-08-28T08:42:51.000Z</time>
      </trkpt>
      <trkpt lat="45.82748" lon="2.95143">
        <ele>1087.1</ele>
        <time>2021-08-28T08:42:57.000Z</time>
      </trkpt>
      <trkpt lat="45.82754" lon="2.95137">
        <ele>1087.2</ele>
        <time>2021-08-28T08:43:03.000Z</time>
      </trkpt>
      <trkpt lat="45.82759" lon="2.9513">
        <ele>1087.4</ele>
        <time>2021-08-28T08:43:09.000Z</time>
      </trkpt>
      <trkpt lat="45.82765" lon="2.95122">
        <ele>1087.4</ele>
        <time>2021-08-28T08:43:15.000Z</time>
      </trkpt>
      <trkpt lat="45.82772" lon="2.95114">
        <ele>1087.2</ele>
        <time>2021-08-28T08:43:21.000Z</time>
      </trkpt>
      <trkpt lat="45.82779" lon="2.95107">
        <ele>1086.7</ele>
        <time>2021-08-28T08:43:27.000Z</time>
      </trkpt>
      <trkpt lat="45.82784" lon="2.95101">
        <ele>1086.4</ele>
        <time>2021-08-28T08:43:34.000Z</time>
      </trkpt>
      <trkpt lat="45.82789" lon="2.95093">
        <ele>1086.3</ele>
        <time>2021-08-28T08:43:40.000Z</time>
      </trkpt>
      <trkpt lat="45.82793" lon="2.95085">
        <ele>1086.5</ele>
        <time>2021-08-28T08:43:47.000Z</time>
      </trkpt>
      <trkpt lat="45.82798" lon="2.95079">
        <ele>1085.1</ele>
        <time>2021-08-28T08:43:53.000Z</time>
      </trkpt>
      <trkpt lat="45.82805" lon="2.95074">
        <ele>1083.1</ele>
        <time>2021-08-28T08:43:59.000Z</time>
      </trkpt>
      <trkpt lat="45.82811" lon="2.95071">
        <ele>1081.4</ele>
        <time>2021-08-28T08:44:03.000Z</time>
      </trkpt>
      <trkpt lat="45.82818" lon="2.95065">
        <ele>1079.3</ele>
        <time>2021-08-28T08:44:09.000Z</time>
      </trkpt>
      <trkpt lat="45.82825" lon="2.95058">
        <ele>1077.1</ele>
        <time>2021-08-28T08:44:15.000Z</time>
      </trkpt>
      <trkpt lat="45.82832" lon="2.95052">
        <ele>1075.1</ele>
        <time>2021-08-28T08:44:21.000Z</time>
      </trkpt>
      <trkpt lat="45.8284" lon="2.95045">
        <ele>1072.6</ele>
        <time>2021-08-28T08:44:27.000Z</time>
      </trkpt>
      <trkpt lat="45.82847" lon="2.95039">
        <ele>1070.5</ele>
        <time>2021-08-28T08:44:33.000Z</time>
      </trkpt>
      <trkpt lat="45.82853" lon="2.95035">
        <ele>1068.8</ele>
        <time>2021-08-28T08:44:39.000Z</time>
      </trkpt>
      <trkpt lat="45.82859" lon="2.95028">
        <ele>1066.9</ele>
        <time>2021-08-28T08:44:45.000Z</time>
      </trkpt>
      <trkpt lat="45.82866" lon="2.95022">
        <ele>1064.7</ele>
        <time>2021-08-28T08:44:51.000Z</time>
      </trkpt>
      <trkpt lat="45.82874" lon="2.95016">
        <ele>1062.4</ele>
        <time>2021-08-28T08:44:57.000Z</time>
      </trkpt>
      <trkpt lat="45.82881" lon="2.9501">
        <ele>1060.3</ele>
        <time>2021-08-28T08:45:03.000Z</time>
      </trkpt>
      <trkpt lat="45.82886" lon="2.95005">
        <ele>1058.7</ele>
        <time>2021-08-28T08:45:09.000Z</time>
      </trkpt>
      <trkpt lat="45.82892" lon="2.94999">
        <ele>1056.7</ele>
        <time>2021-08-28T08:45:15.000Z</time>
      </trkpt>
      <trkpt lat="45.82899" lon="2.94995">
        <ele>1054.2</ele>
        <time>2021-08-28T08:45:22.000Z</time>
      </trkpt>
      <trkpt lat="45.82905" lon="2.94991">
        <ele>1051.9</ele>
        <time>2021-08-28T08:45:28.000Z</time>
      </trkpt>
      <trkpt lat="45.8291" lon="2.94983">
        <ele>1049.1</ele>
        <time>2021-08-28T08:45:36.000Z</time>
      </trkpt>
      <trkpt lat="45.82916" lon="2.94977">
        <ele>1046.5</ele>
        <time>2021-08-28T08:45:43.000Z</time>
      </trkpt>
      <trkpt lat="45.82923" lon="2.94973">
        <ele>1044.1</ele>
        <time>2021-08-28T08:45:50.000Z</time>
      </trkpt>
      <trkpt lat="45.82929" lon="2.94969">
        <ele>1042</ele>
        <time>2021-08-28T08:45:56.000Z</time>
      </trkpt>
      <trkpt lat="45.82936" lon="2.94964">
        <ele>1039.5</ele>
        <time>2021-08-28T08:46:03.000Z</time>
      </trkpt>
      <trkpt lat="45.82943" lon="2.94959">
        <ele>1037.1</ele>
        <time>2021-08-28T08:46:10.000Z</time>
      </trkpt>
      <trkpt lat="45.82949" lon="2.94954">
        <ele>1034.9</ele>
        <time>2021-08-28T08:46:16.000Z</time>
      </trkpt>
      <trkpt lat="45.82955" lon="2.94949">
        <ele>1032.7</ele>
        <time>2021-08-28T08:46:22.000Z</time>
      </trkpt>
      <trkpt lat="45.82962" lon="2.94945">
        <ele>1030.5</ele>
        <time>2021-08-28T08:46:28.000Z</time>
      </trkpt>
      <trkpt lat="45.82968" lon="2.94939">
        <ele>1028.2</ele>
        <time>2021-08-28T08:46:34.000Z</time>
      </trkpt>
      <trkpt lat="45.82974" lon="2.94934">
        <ele>1026.1</ele>
        <time>2021-08-28T08:46:40.000Z</time>
      </trkpt>
      <trkpt lat="45.82981" lon="2.94929">
        <ele>1023.8</ele>
        <time>2021-08-28T08:46:46.000Z</time>
      </trkpt>
      <trkpt lat="45.82987" lon="2.94924">
        <ele>1021.8</ele>
        <time>2021-08-28T08:46:52.000Z</time>
      </trkpt>
      <trkpt lat="45.82993" lon="2.94921">
        <ele>1020.1</ele>
        <time>2021-08-28T08:46:58.000Z</time>
      </trkpt>
      <trkpt lat="45.82999" lon="2.94917">
        <ele>1018.2</ele>
        <time>2021-08-28T08:47:05.000Z</time>
      </trkpt>
      <trkpt lat="45.83006" lon="2.94915">
        <ele>1016.9</ele>
        <time>2021-08-28T08:47:11.000Z</time>
      </trkpt>
      <trkpt lat="45.83012" lon="2.94914">
        <ele>1015.9</ele>
        <time>2021-08-28T08:47:17.000Z</time>
      </trkpt>
      <trkpt lat="45.83019" lon="2.94913">
        <ele>1014.8</ele>
        <time>2021-08-28T08:47:23.000Z</time>
      </trkpt>
      <trkpt lat="45.83026" lon="2.94913">
        <ele>1013.8</ele>
        <time>2021-08-28T08:47:29.000Z</time>
      </trkpt>
      <trkpt lat="45.83033" lon="2.94912">
        <ele>1012.7</ele>
        <time>2021-08-28T08:47:34.000Z</time>
      </trkpt>
      <trkpt lat="45.8304" lon="2.9491">
        <ele>1011.4</ele>
        <time>2021-08-28T08:47:39.000Z</time>
      </trkpt>
      <trkpt lat="45.83047" lon="2.94907">
        <ele>1010.1</ele>
        <time>2021-08-28T08:47:45.000Z</time>
      </trkpt>
      <trkpt lat="45.83053" lon="2.94904">
        <ele>1009</ele>
        <time>2021-08-28T08:47:52.000Z</time>
      </trkpt>
      <trkpt lat="45.8306" lon="2.94902">
        <ele>1007.8</ele>
        <time>2021-08-28T08:47:59.000Z</time>
      </trkpt>
      <trkpt lat="45.83067" lon="2.94899">
        <ele>1006.6</ele>
        <time>2021-08-28T08:48:05.000Z</time>
      </trkpt>
      <trkpt lat="45.83074" lon="2.94898">
        <ele>1005.6</ele>
        <time>2021-08-28T08:48:12.000Z</time>
      </trkpt>
      <trkpt lat="45.83081" lon="2.94897">
        <ele>1004.6</ele>
        <time>2021-08-28T08:48:18.000Z</time>
      </trkpt>
      <trkpt lat="45.83089" lon="2.94895">
        <ele>1003.8</ele>
        <time>2021-08-28T08:48:24.000Z</time>
      </trkpt>
      <trkpt lat="45.83102" lon="2.94893">
        <ele>1002.8</ele>
        <time>2021-08-28T08:48:45.000Z</time>
      </trkpt>
      <trkpt lat="45.8311" lon="2.94891">
        <ele>1002.1</ele>
        <time>2021-08-28T08:48:51.000Z</time>
      </trkpt>
      <trkpt lat="45.83119" lon="2.94888">
        <ele>1001.3</ele>
        <time>2021-08-28T08:48:57.000Z</time>
      </trkpt>
      <trkpt lat="45.83128" lon="2.94886">
        <ele>1000.6</ele>
        <time>2021-08-28T08:49:03.000Z</time>
      </trkpt>
      <trkpt lat="45.83137" lon="2.94885">
        <ele>1000</ele>
        <time>2021-08-28T08:49:09.000Z</time>
      </trkpt>
      <trkpt lat="45.83145" lon="2.94883">
        <ele>999.3</ele>
        <time>2021-08-28T08:49:15.000Z</time>
      </trkpt>
      <trkpt lat="45.83154" lon="2.94883">
        <ele>998.8</ele>
        <time>2021-08-28T08:49:21.000Z</time>
      </trkpt>
      <trkpt lat="45.83164" lon="2.94882">
        <ele>998.1</ele>
        <time>2021-08-28T08:49:27.000Z</time>
      </trkpt>
      <trkpt lat="45.83174" lon="2.94882">
        <ele>997.4</ele>
        <time>2021-08-28T08:49:33.000Z</time>
      </trkpt>
      <trkpt lat="45.83184" lon="2.94882">
        <ele>996.8</ele>
        <time>2021-08-28T08:49:39.000Z</time>
      </trkpt>
      <trkpt lat="45.83193" lon="2.94881">
        <ele>996.1</ele>
        <time>2021-08-28T08:49:45.000Z</time>
      </trkpt>
      <trkpt lat="45.83201" lon="2.9488">
        <ele>995.6</ele>
        <time>2021-08-28T08:49:51.000Z</time>
      </trkpt>
      <trkpt lat="45.83206" lon="2.94873">
        <ele>994.8</ele>
        <time>2021-08-28T08:49:59.000Z</time>
      </trkpt>
      <trkpt lat="45.83213" lon="2.94869">
        <ele>994</ele>
        <time>2021-08-28T08:50:06.000Z</time>
      </trkpt>
      <trkpt lat="45.83219" lon="2.94866">
        <ele>993.4</ele>
        <time>2021-08-28T08:50:11.000Z</time>
      </trkpt>
      <trkpt lat="45.83225" lon="2.94863">
        <ele>992.8</ele>
        <time>2021-08-28T08:50:20.000Z</time>
      </trkpt>
      <trkpt lat="45.83238" lon="2.94861">
        <ele>991.8</ele>
        <time>2021-08-28T08:50:44.000Z</time>
      </trkpt>
      <trkpt lat="45.83246" lon="2.94861">
        <ele>991.3</ele>
        <time>2021-08-28T08:51:01.000Z</time>
      </trkpt>
      <trkpt lat="45.83254" lon="2.9486">
        <ele>990.3</ele>
        <time>2021-08-28T08:51:07.000Z</time>
      </trkpt>
      <trkpt lat="45.8326" lon="2.94863">
        <ele>989.6</ele>
        <time>2021-08-28T08:51:18.000Z</time>
      </trkpt>
      <trkpt lat="45.83272" lon="2.94867">
        <ele>988</ele>
        <time>2021-08-28T08:51:33.000Z</time>
      </trkpt>
      <trkpt lat="45.83269" lon="2.94874">
        <ele>989.1</ele>
        <time>2021-08-28T08:52:18.000Z</time>
      </trkpt>
      <trkpt lat="45.83262" lon="2.94879">
        <ele>990.5</ele>
        <time>2021-08-28T08:52:24.000Z</time>
      </trkpt>
      <trkpt lat="45.83255" lon="2.94883">
        <ele>991.8</ele>
        <time>2021-08-28T08:52:30.000Z</time>
      </trkpt>
      <trkpt lat="45.83249" lon="2.94885">
        <ele>992.8</ele>
        <time>2021-08-28T08:52:35.000Z</time>
      </trkpt>
      <trkpt lat="45.83242" lon="2.94887">
        <ele>993.4</ele>
        <time>2021-08-28T08:52:40.000Z</time>
      </trkpt>
      <trkpt lat="45.83236" lon="2.94889">
        <ele>993.9</ele>
        <time>2021-08-28T08:52:47.000Z</time>
      </trkpt>
      <trkpt lat="45.8323" lon="2.94893">
        <ele>994.6</ele>
        <time>2021-08-28T08:52:53.000Z</time>
      </trkpt>
      <trkpt lat="45.83223" lon="2.94896">
        <ele>995.2</ele>
        <time>2021-08-28T08:52:57.000Z</time>
      </trkpt>
      <trkpt lat="45.83216" lon="2.94897">
        <ele>995.7</ele>
        <time>2021-08-28T08:53:03.000Z</time>
      </trkpt>
      <trkpt lat="45.83202" lon="2.94896">
        <ele>996.5</ele>
        <time>2021-08-28T08:53:20.000Z</time>
      </trkpt>
      <trkpt lat="45.83194" lon="2.94892">
        <ele>996.8</ele>
        <time>2021-08-28T08:53:38.000Z</time>
      </trkpt>
      <trkpt lat="45.83188" lon="2.94891">
        <ele>997.1</ele>
        <time>2021-08-28T08:53:44.000Z</time>
      </trkpt>
      <trkpt lat="45.83181" lon="2.9489">
        <ele>997.5</ele>
        <time>2021-08-28T08:53:48.000Z</time>
      </trkpt>
      <trkpt lat="45.83174" lon="2.94891">
        <ele>998</ele>
        <time>2021-08-28T08:53:52.000Z</time>
      </trkpt>
      <trkpt lat="45.83167" lon="2.94892">
        <ele>998.5</ele>
        <time>2021-08-28T08:53:57.000Z</time>
      </trkpt>
      <trkpt lat="45.83158" lon="2.94891">
        <ele>999</ele>
        <time>2021-08-28T08:54:03.000Z</time>
      </trkpt>
      <trkpt lat="45.83148" lon="2.94891">
        <ele>999.7</ele>
        <time>2021-08-28T08:54:09.000Z</time>
      </trkpt>
      <trkpt lat="45.8314" lon="2.94891">
        <ele>1000.2</ele>
        <time>2021-08-28T08:54:15.000Z</time>
      </trkpt>
      <trkpt lat="45.83131" lon="2.94892">
        <ele>1000.8</ele>
        <time>2021-08-28T08:54:21.000Z</time>
      </trkpt>
      <trkpt lat="45.83123" lon="2.94896">
        <ele>1001.6</ele>
        <time>2021-08-28T08:54:27.000Z</time>
      </trkpt>
      <trkpt lat="45.83114" lon="2.949">
        <ele>1002.5</ele>
        <time>2021-08-28T08:54:33.000Z</time>
      </trkpt>
      <trkpt lat="45.83104" lon="2.94902">
        <ele>1003.4</ele>
        <time>2021-08-28T08:54:39.000Z</time>
      </trkpt>
      <trkpt lat="45.83095" lon="2.94903">
        <ele>1004.1</ele>
        <time>2021-08-28T08:54:45.000Z</time>
      </trkpt>
      <trkpt lat="45.83087" lon="2.94905">
        <ele>1004.8</ele>
        <time>2021-08-28T08:54:51.000Z</time>
      </trkpt>
      <trkpt lat="45.8308" lon="2.94905">
        <ele>1005.5</ele>
        <time>2021-08-28T08:54:57.000Z</time>
      </trkpt>
      <trkpt lat="45.83074" lon="2.94904">
        <ele>1006.2</ele>
        <time>2021-08-28T08:55:04.000Z</time>
      </trkpt>
      <trkpt lat="45.83066" lon="2.94906">
        <ele>1007.4</ele>
        <time>2021-08-28T08:55:09.000Z</time>
      </trkpt>
      <trkpt lat="45.83057" lon="2.94909">
        <ele>1009</ele>
        <time>2021-08-28T08:55:15.000Z</time>
      </trkpt>
      <trkpt lat="45.83049" lon="2.94911">
        <ele>1010.3</ele>
        <time>2021-08-28T08:55:21.000Z</time>
      </trkpt>
      <trkpt lat="45.8304" lon="2.94911">
        <ele>1011.6</ele>
        <time>2021-08-28T08:55:27.000Z</time>
      </trkpt>
      <trkpt lat="45.8303" lon="2.94911">
        <ele>1012.9</ele>
        <time>2021-08-28T08:55:33.000Z</time>
      </trkpt>
      <trkpt lat="45.83021" lon="2.94913">
        <ele>1014.5</ele>
        <time>2021-08-28T08:55:39.000Z</time>
      </trkpt>
      <trkpt lat="45.83011" lon="2.94916">
        <ele>1016.3</ele>
        <time>2021-08-28T08:55:45.000Z</time>
      </trkpt>
      <trkpt lat="45.83001" lon="2.94918">
        <ele>1018.1</ele>
        <time>2021-08-28T08:55:51.000Z</time>
      </trkpt>
      <trkpt lat="45.82992" lon="2.9492">
        <ele>1020.1</ele>
        <time>2021-08-28T08:55:57.000Z</time>
      </trkpt>
      <trkpt lat="45.82981" lon="2.94923">
        <ele>1022.8</ele>
        <time>2021-08-28T08:56:03.000Z</time>
      </trkpt>
      <trkpt lat="45.82971" lon="2.94927">
        <ele>1025.4</ele>
        <time>2021-08-28T08:56:09.000Z</time>
      </trkpt>
      <trkpt lat="45.8296" lon="2.94931">
        <ele>1028.3</ele>
        <time>2021-08-28T08:56:15.000Z</time>
      </trkpt>
      <trkpt lat="45.8295" lon="2.94935">
        <ele>1031.1</ele>
        <time>2021-08-28T08:56:21.000Z</time>
      </trkpt>
      <trkpt lat="45.8294" lon="2.94938">
        <ele>1033.7</ele>
        <time>2021-08-28T08:56:27.000Z</time>
      </trkpt>
      <trkpt lat="45.8293" lon="2.94941">
        <ele>1036.3</ele>
        <time>2021-08-28T08:56:33.000Z</time>
      </trkpt>
      <trkpt lat="45.8292" lon="2.94944">
        <ele>1038.9</ele>
        <time>2021-08-28T08:56:39.000Z</time>
      </trkpt>
      <trkpt lat="45.82909" lon="2.94946">
        <ele>1041.5</ele>
        <time>2021-08-28T08:56:45.000Z</time>
      </trkpt>
      <trkpt lat="45.82899" lon="2.94949">
        <ele>1044.2</ele>
        <time>2021-08-28T08:56:51.000Z</time>
      </trkpt>
      <trkpt lat="45.82889" lon="2.94952">
        <ele>1046.9</ele>
        <time>2021-08-28T08:56:57.000Z</time>
      </trkpt>
      <trkpt lat="45.82878" lon="2.94956">
        <ele>1050.1</ele>
        <time>2021-08-28T08:57:03.000Z</time>
      </trkpt>
      <trkpt lat="45.82869" lon="2.9496">
        <ele>1052.9</ele>
        <time>2021-08-28T08:57:09.000Z</time>
      </trkpt>
      <trkpt lat="45.82863" lon="2.9496">
        <ele>1054.2</ele>
        <time>2021-08-28T08:57:19.000Z</time>
      </trkpt>
      <trkpt lat="45.82853" lon="2.94954">
        <ele>1054.8</ele>
        <time>2021-08-28T08:57:51.000Z</time>
      </trkpt>
      <trkpt lat="45.82846" lon="2.94954">
        <ele>1056.2</ele>
        <time>2021-08-28T08:58:01.000Z</time>
      </trkpt>
      <trkpt lat="45.82839" lon="2.94956">
        <ele>1058.2</ele>
        <time>2021-08-28T08:58:05.000Z</time>
      </trkpt>
      <trkpt lat="45.82831" lon="2.9496">
        <ele>1060.9</ele>
        <time>2021-08-28T08:58:09.000Z</time>
      </trkpt>
      <trkpt lat="45.82821" lon="2.94963">
        <ele>1063.9</ele>
        <time>2021-08-28T08:58:15.000Z</time>
      </trkpt>
      <trkpt lat="45.82812" lon="2.94967">
        <ele>1066.9</ele>
        <time>2021-08-28T08:58:21.000Z</time>
      </trkpt>
      <trkpt lat="45.82802" lon="2.94974">
        <ele>1070.9</ele>
        <time>2021-08-28T08:58:27.000Z</time>
      </trkpt>
      <trkpt lat="45.82794" lon="2.94979">
        <ele>1074</ele>
        <time>2021-08-28T08:58:33.000Z</time>
      </trkpt>
      <trkpt lat="45.82783" lon="2.94983">
        <ele>1077.4</ele>
        <time>2021-08-28T08:58:39.000Z</time>
      </trkpt>
      <trkpt lat="45.82773" lon="2.94988">
        <ele>1080.9</ele>
        <time>2021-08-28T08:58:45.000Z</time>
      </trkpt>
      <trkpt lat="45.82764" lon="2.94993">
        <ele>1084.1</ele>
        <time>2021-08-28T08:58:51.000Z</time>
      </trkpt>
      <trkpt lat="45.82756" lon="2.94999">
        <ele>1087.4</ele>
        <time>2021-08-28T08:58:57.000Z</time>
      </trkpt>
      <trkpt lat="45.82747" lon="2.95004">
        <ele>1089.7</ele>
        <time>2021-08-28T08:59:03.000Z</time>
      </trkpt>
      <trkpt lat="45.82738" lon="2.95009">
        <ele>1091.2</ele>
        <time>2021-08-28T08:59:09.000Z</time>
      </trkpt>
      <trkpt lat="45.8273" lon="2.95014">
        <ele>1092.4</ele>
        <time>2021-08-28T08:59:15.000Z</time>
      </trkpt>
      <trkpt lat="45.8272" lon="2.95021">
        <ele>1093.8</ele>
        <time>2021-08-28T08:59:21.000Z</time>
      </trkpt>
      <trkpt lat="45.82714" lon="2.95024">
        <ele>1094.5</ele>
        <time>2021-08-28T08:59:41.000Z</time>
      </trkpt>
      <trkpt lat="45.82708" lon="2.95028">
        <ele>1095.2</ele>
        <time>2021-08-28T08:59:49.000Z</time>
      </trkpt>
      <trkpt lat="45.827" lon="2.95033">
        <ele>1096</ele>
        <time>2021-08-28T08:59:54.000Z</time>
      </trkpt>
      <trkpt lat="45.82694" lon="2.95038">
        <ele>1096.6</ele>
        <time>2021-08-28T08:59:59.000Z</time>
      </trkpt>
      <trkpt lat="45.82688" lon="2.95043">
        <ele>1097.1</ele>
        <time>2021-08-28T09:00:03.000Z</time>
      </trkpt>
      <trkpt lat="45.82679" lon="2.95051">
        <ele>1097.7</ele>
        <time>2021-08-28T09:00:09.000Z</time>
      </trkpt>
      <trkpt lat="45.8267" lon="2.95058">
        <ele>1098.2</ele>
        <time>2021-08-28T09:00:15.000Z</time>
      </trkpt>
      <trkpt lat="45.82662" lon="2.95065">
        <ele>1098</ele>
        <time>2021-08-28T09:00:21.000Z</time>
      </trkpt>
      <trkpt lat="45.82654" lon="2.95072">
        <ele>1097.4</ele>
        <time>2021-08-28T09:00:27.000Z</time>
      </trkpt>
      <trkpt lat="45.82648" lon="2.95077">
        <ele>1097</ele>
        <time>2021-08-28T09:00:34.000Z</time>
      </trkpt>
      <trkpt lat="45.82642" lon="2.95083">
        <ele>1096.5</ele>
        <time>2021-08-28T09:00:39.000Z</time>
      </trkpt>
      <trkpt lat="45.82634" lon="2.9509">
        <ele>1095.5</ele>
        <time>2021-08-28T09:00:45.000Z</time>
      </trkpt>
      <trkpt lat="45.82625" lon="2.95098">
        <ele>1094.5</ele>
        <time>2021-08-28T09:00:51.000Z</time>
      </trkpt>
      <trkpt lat="45.82616" lon="2.95106">
        <ele>1093.7</ele>
        <time>2021-08-28T09:00:57.000Z</time>
      </trkpt>
      <trkpt lat="45.82607" lon="2.95113">
        <ele>1093</ele>
        <time>2021-08-28T09:01:03.000Z</time>
      </trkpt>
      <trkpt lat="45.82599" lon="2.95121">
        <ele>1092.4</ele>
        <time>2021-08-28T09:01:09.000Z</time>
      </trkpt>
      <trkpt lat="45.82591" lon="2.95129">
        <ele>1092</ele>
        <time>2021-08-28T09:01:15.000Z</time>
      </trkpt>
      <trkpt lat="45.82582" lon="2.95134">
        <ele>1091.9</ele>
        <time>2021-08-28T09:01:21.000Z</time>
      </trkpt>
      <trkpt lat="45.82574" lon="2.9514">
        <ele>1092.8</ele>
        <time>2021-08-28T09:01:27.000Z</time>
      </trkpt>
      <trkpt lat="45.82566" lon="2.95147">
        <ele>1093.7</ele>
        <time>2021-08-28T09:01:33.000Z</time>
      </trkpt>
      <trkpt lat="45.82558" lon="2.95154">
        <ele>1094.7</ele>
        <time>2021-08-28T09:01:39.000Z</time>
      </trkpt>
      <trkpt lat="45.82552" lon="2.95161">
        <ele>1095.5</ele>
        <time>2021-08-28T09:01:45.000Z</time>
      </trkpt>
      <trkpt lat="45.82545" lon="2.9517">
        <ele>1096.9</ele>
        <time>2021-08-28T09:01:51.000Z</time>
      </trkpt>
      <trkpt lat="45.82538" lon="2.95177">
        <ele>1098.7</ele>
        <time>2021-08-28T09:01:57.000Z</time>
      </trkpt>
      <trkpt lat="45.82532" lon="2.95184">
        <ele>1100.2</ele>
        <time>2021-08-28T09:02:03.000Z</time>
      </trkpt>
      <trkpt lat="45.82527" lon="2.95193">
        <ele>1101.7</ele>
        <time>2021-08-28T09:02:09.000Z</time>
      </trkpt>
      <trkpt lat="45.82523" lon="2.95201">
        <ele>1103</ele>
        <time>2021-08-28T09:02:15.000Z</time>
      </trkpt>
      <trkpt lat="45.82518" lon="2.9521">
        <ele>1104.3</ele>
        <time>2021-08-28T09:02:21.000Z</time>
      </trkpt>
      <trkpt lat="45.82512" lon="2.95219">
        <ele>1105.7</ele>
        <time>2021-08-28T09:02:27.000Z</time>
      </trkpt>
      <trkpt lat="45.82506" lon="2.95229">
        <ele>1107</ele>
        <time>2021-08-28T09:02:33.000Z</time>
      </trkpt>
      <trkpt lat="45.825" lon="2.95237">
        <ele>1108.1</ele>
        <time>2021-08-28T09:02:39.000Z</time>
      </trkpt>
      <trkpt lat="45.82493" lon="2.95242">
        <ele>1106.8</ele>
        <time>2021-08-28T09:02:45.000Z</time>
      </trkpt>
      <trkpt lat="45.82487" lon="2.9525">
        <ele>1105.9</ele>
        <time>2021-08-28T09:02:51.000Z</time>
      </trkpt>
      <trkpt lat="45.8248" lon="2.95257">
        <ele>1104.3</ele>
        <time>2021-08-28T09:02:57.000Z</time>
      </trkpt>
      <trkpt lat="45.82474" lon="2.95266">
        <ele>1102.9</ele>
        <time>2021-08-28T09:03:03.000Z</time>
      </trkpt>
      <trkpt lat="45.82469" lon="2.95271">
        <ele>1101.6</ele>
        <time>2021-08-28T09:03:09.000Z</time>
      </trkpt>
      <trkpt lat="45.82463" lon="2.95276">
        <ele>1100</ele>
        <time>2021-08-28T09:03:16.000Z</time>
      </trkpt>
      <trkpt lat="45.82458" lon="2.95282">
        <ele>1098.5</ele>
        <time>2021-08-28T09:03:21.000Z</time>
      </trkpt>
      <trkpt lat="45.82452" lon="2.95287">
        <ele>1096.7</ele>
        <time>2021-08-28T09:03:29.000Z</time>
      </trkpt>
      <trkpt lat="45.82447" lon="2.95295">
        <ele>1095</ele>
        <time>2021-08-28T09:03:36.000Z</time>
      </trkpt>
      <trkpt lat="45.82444" lon="2.95303">
        <ele>1093.8</ele>
        <time>2021-08-28T09:03:42.000Z</time>
      </trkpt>
      <trkpt lat="45.82437" lon="2.95309">
        <ele>1091.4</ele>
        <time>2021-08-28T09:03:49.000Z</time>
      </trkpt>
      <trkpt lat="45.82432" lon="2.95317">
        <ele>1089.3</ele>
        <time>2021-08-28T09:03:55.000Z</time>
      </trkpt>
      <trkpt lat="45.82427" lon="2.95324">
        <ele>1087.3</ele>
        <time>2021-08-28T09:04:00.000Z</time>
      </trkpt>
      <trkpt lat="45.82421" lon="2.9533">
        <ele>1084.8</ele>
        <time>2021-08-28T09:04:06.000Z</time>
      </trkpt>
      <trkpt lat="45.82414" lon="2.95334">
        <ele>1081.7</ele>
        <time>2021-08-28T09:04:12.000Z</time>
      </trkpt>
      <trkpt lat="45.82407" lon="2.95339">
        <ele>1077.9</ele>
        <time>2021-08-28T09:04:16.000Z</time>
      </trkpt>
      <trkpt lat="45.82399" lon="2.95344">
        <ele>1073.6</ele>
        <time>2021-08-28T09:04:21.000Z</time>
      </trkpt>
      <trkpt lat="45.82391" lon="2.95353">
        <ele>1069</ele>
        <time>2021-08-28T09:04:27.000Z</time>
      </trkpt>
      <trkpt lat="45.82382" lon="2.95362">
        <ele>1064</ele>
        <time>2021-08-28T09:04:33.000Z</time>
      </trkpt>
      <trkpt lat="45.82374" lon="2.95371">
        <ele>1059.5</ele>
        <time>2021-08-28T09:04:39.000Z</time>
      </trkpt>
      <trkpt lat="45.82365" lon="2.9538">
        <ele>1054.7</ele>
        <time>2021-08-28T09:04:45.000Z</time>
      </trkpt>
      <trkpt lat="45.82357" lon="2.95386">
        <ele>1050.7</ele>
        <time>2021-08-28T09:04:51.000Z</time>
      </trkpt>
      <trkpt lat="45.82349" lon="2.95391">
        <ele>1046.8</ele>
        <time>2021-08-28T09:04:57.000Z</time>
      </trkpt>
      <trkpt lat="45.82341" lon="2.95396">
        <ele>1043</ele>
        <time>2021-08-28T09:05:03.000Z</time>
      </trkpt>
      <trkpt lat="45.82332" lon="2.95403">
        <ele>1038.6</ele>
        <time>2021-08-28T09:05:09.000Z</time>
      </trkpt>
      <trkpt lat="45.82323" lon="2.95407">
        <ele>1034.7</ele>
        <time>2021-08-28T09:05:15.000Z</time>
      </trkpt>
      <trkpt lat="45.82315" lon="2.95412">
        <ele>1031.1</ele>
        <time>2021-08-28T09:05:21.000Z</time>
      </trkpt>
      <trkpt lat="45.82306" lon="2.95418">
        <ele>1027.1</ele>
        <time>2021-08-28T09:05:27.000Z</time>
      </trkpt>
      <trkpt lat="45.82298" lon="2.95423">
        <ele>1023.5</ele>
        <time>2021-08-28T09:05:33.000Z</time>
      </trkpt>
      <trkpt lat="45.8229" lon="2.95426">
        <ele>1020.2</ele>
        <time>2021-08-28T09:05:39.000Z</time>
      </trkpt>
      <trkpt lat="45.82282" lon="2.95431">
        <ele>1016.7</ele>
        <time>2021-08-28T09:05:45.000Z</time>
      </trkpt>
      <trkpt lat="45.82274" lon="2.95437">
        <ele>1013.2</ele>
        <time>2021-08-28T09:05:51.000Z</time>
      </trkpt>
      <trkpt lat="45.82266" lon="2.95441">
        <ele>1009.9</ele>
        <time>2021-08-28T09:05:57.000Z</time>
      </trkpt>
      <trkpt lat="45.82258" lon="2.95446">
        <ele>1006.6</ele>
        <time>2021-08-28T09:06:03.000Z</time>
      </trkpt>
      <trkpt lat="45.82249" lon="2.95449">
        <ele>1003.2</ele>
        <time>2021-08-28T09:06:09.000Z</time>
      </trkpt>
      <trkpt lat="45.82241" lon="2.95452">
        <ele>1000.9</ele>
        <time>2021-08-28T09:06:15.000Z</time>
      </trkpt>
      <trkpt lat="45.82234" lon="2.95457">
        <ele>998.7</ele>
        <time>2021-08-28T09:06:21.000Z</time>
      </trkpt>
      <trkpt lat="45.82226" lon="2.95464">
        <ele>996.3</ele>
        <time>2021-08-28T09:06:27.000Z</time>
      </trkpt>
      <trkpt lat="45.82219" lon="2.95469">
        <ele>994.2</ele>
        <time>2021-08-28T09:06:33.000Z</time>
      </trkpt>
      <trkpt lat="45.82212" lon="2.95474">
        <ele>992.1</ele>
        <time>2021-08-28T09:06:39.000Z</time>
      </trkpt>
      <trkpt lat="45.82205" lon="2.95479">
        <ele>990</ele>
        <time>2021-08-28T09:06:45.000Z</time>
      </trkpt>
      <trkpt lat="45.82196" lon="2.95487">
        <ele>987.3</ele>
        <time>2021-08-28T09:06:51.000Z</time>
      </trkpt>
      <trkpt lat="45.82188" lon="2.95493">
        <ele>984.9</ele>
        <time>2021-08-28T09:06:57.000Z</time>
      </trkpt>
      <trkpt lat="45.82181" lon="2.95499">
        <ele>982.8</ele>
        <time>2021-08-28T09:07:03.000Z</time>
      </trkpt>
      <trkpt lat="45.82174" lon="2.95506">
        <ele>980.6</ele>
        <time>2021-08-28T09:07:09.000Z</time>
      </trkpt>
      <trkpt lat="45.82166" lon="2.95513">
        <ele>978.3</ele>
        <time>2021-08-28T09:07:15.000Z</time>
      </trkpt>
      <trkpt lat="45.8216" lon="2.9552">
        <ele>977.2</ele>
        <time>2021-08-28T09:07:21.000Z</time>
      </trkpt>
      <trkpt lat="45.82152" lon="2.95528">
        <ele>975.7</ele>
        <time>2021-08-28T09:07:27.000Z</time>
      </trkpt>
      <trkpt lat="45.82143" lon="2.95535">
        <ele>974.2</ele>
        <time>2021-08-28T09:07:33.000Z</time>
      </trkpt>
      <trkpt lat="45.82136" lon="2.95541">
        <ele>973</ele>
        <time>2021-08-28T09:07:39.000Z</time>
      </trkpt>
      <trkpt lat="45.8213" lon="2.95546">
        <ele>972</ele>
        <time>2021-08-28T09:07:45.000Z</time>
      </trkpt>
      <trkpt lat="45.82123" lon="2.95552">
        <ele>970.7</ele>
        <time>2021-08-28T09:07:51.000Z</time>
      </trkpt>
      <trkpt lat="45.82115" lon="2.95558">
        <ele>969.4</ele>
        <time>2021-08-28T09:07:57.000Z</time>
      </trkpt>
      <trkpt lat="45.82109" lon="2.95565">
        <ele>968.3</ele>
        <time>2021-08-28T09:08:03.000Z</time>
      </trkpt>
      <trkpt lat="45.82103" lon="2.95568">
        <ele>967.3</ele>
        <time>2021-08-28T09:08:09.000Z</time>
      </trkpt>
      <trkpt lat="45.82096" lon="2.95575">
        <ele>966.1</ele>
        <time>2021-08-28T09:08:15.000Z</time>
      </trkpt>
      <trkpt lat="45.8209" lon="2.95581">
        <ele>965</ele>
        <time>2021-08-28T09:08:21.000Z</time>
      </trkpt>
      <trkpt lat="45.82083" lon="2.95588">
        <ele>963.9</ele>
        <time>2021-08-28T09:08:27.000Z</time>
      </trkpt>
      <trkpt lat="45.82076" lon="2.95594">
        <ele>963.2</ele>
        <time>2021-08-28T09:08:33.000Z</time>
      </trkpt>
      <trkpt lat="45.82071" lon="2.95601">
        <ele>962.7</ele>
        <time>2021-08-28T09:08:39.000Z</time>
      </trkpt>
      <trkpt lat="45.82065" lon="2.95606">
        <ele>962.1</ele>
        <time>2021-08-28T09:08:45.000Z</time>
      </trkpt>
      <trkpt lat="45.82058" lon="2.95611">
        <ele>961.3</ele>
        <time>2021-08-28T09:08:53.000Z</time>
      </trkpt>
      <trkpt lat="45.82054" lon="2.95617">
        <ele>960.8</ele>
        <time>2021-08-28T09:08:59.000Z</time>
      </trkpt>
      <trkpt lat="45.82047" lon="2.95621">
        <ele>960.1</ele>
        <time>2021-08-28T09:09:07.000Z</time>
      </trkpt>
      <trkpt lat="45.8204" lon="2.95624">
        <ele>959.4</ele>
        <time>2021-08-28T09:09:14.000Z</time>
      </trkpt>
      <trkpt lat="45.82033" lon="2.9563">
        <ele>958.5</ele>
        <time>2021-08-28T09:09:19.000Z</time>
      </trkpt>
      <trkpt lat="45.82027" lon="2.95635">
        <ele>957.8</ele>
        <time>2021-08-28T09:09:27.000Z</time>
      </trkpt>
      <trkpt lat="45.8202" lon="2.95638">
        <ele>957</ele>
        <time>2021-08-28T09:09:33.000Z</time>
      </trkpt>
      <trkpt lat="45.8201" lon="2.95642">
        <ele>955.9</ele>
        <time>2021-08-28T09:09:39.000Z</time>
      </trkpt>
      <trkpt lat="45.82002" lon="2.95648">
        <ele>954.9</ele>
        <time>2021-08-28T09:09:45.000Z</time>
      </trkpt>
      <trkpt lat="45.81992" lon="2.95655">
        <ele>954</ele>
        <time>2021-08-28T09:09:51.000Z</time>
      </trkpt>
      <trkpt lat="45.81984" lon="2.95661">
        <ele>953.4</ele>
        <time>2021-08-28T09:09:57.000Z</time>
      </trkpt>
      <trkpt lat="45.81976" lon="2.95668">
        <ele>952.9</ele>
        <time>2021-08-28T09:10:03.000Z</time>
      </trkpt>
      <trkpt lat="45.81969" lon="2.95673">
        <ele>952.6</ele>
        <time>2021-08-28T09:10:09.000Z</time>
      </trkpt>
      <trkpt lat="45.81961" lon="2.95679">
        <ele>952.3</ele>
        <time>2021-08-28T09:10:15.000Z</time>
      </trkpt>
      <trkpt lat="45.81954" lon="2.95684">
        <ele>952.1</ele>
        <time>2021-08-28T09:10:21.000Z</time>
      </trkpt>
      <trkpt lat="45.81946" lon="2.95689">
        <ele>951.9</ele>
        <time>2021-08-28T09:10:27.000Z</time>
      </trkpt>
      <trkpt lat="45.8194" lon="2.95693">
        <ele>951.8</ele>
        <time>2021-08-28T09:10:50.000Z</time>
      </trkpt>
      <trkpt lat="45.81934" lon="2.95688">
        <ele>951.4</ele>
        <time>2021-08-28T09:11:07.000Z</time>
      </trkpt>
      <trkpt lat="45.81927" lon="2.95691">
        <ele>951.3</ele>
        <time>2021-08-28T09:11:33.000Z</time>
      </trkpt>
      <trkpt lat="45.8192" lon="2.9569">
        <ele>951</ele>
        <time>2021-08-28T09:11:43.000Z</time>
      </trkpt>
      <trkpt lat="45.81913" lon="2.95688">
        <ele>950.6</ele>
        <time>2021-08-28T09:11:52.000Z</time>
      </trkpt>
      <trkpt lat="45.81907" lon="2.95688">
        <ele>950.4</ele>
        <time>2021-08-28T09:12:02.000Z</time>
      </trkpt>
      <trkpt lat="45.819" lon="2.9569">
        <ele>950.2</ele>
        <time>2021-08-28T09:12:09.000Z</time>
      </trkpt>
      <trkpt lat="45.81894" lon="2.95689">
        <ele>950</ele>
        <time>2021-08-28T09:12:19.000Z</time>
      </trkpt>
      <trkpt lat="45.81891" lon="2.9568">
        <ele>949.6</ele>
        <time>2021-08-28T09:12:26.000Z</time>
      </trkpt>
      <trkpt lat="45.81888" lon="2.95671">
        <ele>949.1</ele>
        <time>2021-08-28T09:12:33.000Z</time>
      </trkpt>
      <trkpt lat="45.81886" lon="2.95661">
        <ele>949</ele>
        <time>2021-08-28T09:12:40.000Z</time>
      </trkpt>
      <trkpt lat="45.81883" lon="2.95651">
        <ele>949.2</ele>
        <time>2021-08-28T09:12:46.000Z</time>
      </trkpt>
      <trkpt lat="45.8188" lon="2.95641">
        <ele>949.3</ele>
        <time>2021-08-28T09:12:52.000Z</time>
      </trkpt>
      <trkpt lat="45.81892" lon="2.95636">
        <ele>949.8</ele>
      </trkpt>
      <trkpt lat="45.819" lon="2.95633">
        <ele>950.2</ele>
      </trkpt>
      <trkpt lat="45.81906" lon="2.95637">
        <ele>950.3</ele>
      </trkpt>
      <trkpt lat="45.81913" lon="2.95632">
        <ele>950.7</ele>
      </trkpt>
      <trkpt lat="45.81925" lon="2.95623">
        <ele>951.5</ele>
      </trkpt>
      <trkpt lat="45.81932" lon="2.95619">
        <ele>952</ele>
      </trkpt>
      <trkpt lat="45.81943" lon="2.95627">
        <ele>952.4</ele>
      </trkpt>
      <trkpt lat="45.81954" lon="2.9564">
        <ele>952.6</ele>
      </trkpt>
      <trkpt lat="45.81969" lon="2.9563">
        <ele>953.7</ele>
      </trkpt>
      <trkpt lat="45.81975" lon="2.95628">
        <ele>954.1</ele>
      </trkpt>
      <trkpt lat="45.81988" lon="2.95625">
        <ele>954.9</ele>
      </trkpt>
      <trkpt lat="45.82005" lon="2.95624">
        <ele>956</ele>
      </trkpt>
      <trkpt lat="45.82016" lon="2.95619">
        <ele>957.2</ele>
      </trkpt>
      <trkpt lat="45.82021" lon="2.95615">
        <ele>957.8</ele>
      </trkpt>
      <trkpt lat="45.82036" lon="2.95603">
        <ele>959.5</ele>
      </trkpt>
      <trkpt lat="45.82036" lon="2.95595">
        <ele>959.7</ele>
      </trkpt>
      <trkpt lat="45.8205" lon="2.95591">
        <ele>961</ele>
      </trkpt>
      <trkpt lat="45.82056" lon="2.95584">
        <ele>961.7</ele>
      </trkpt>
      <trkpt lat="45.82062" lon="2.95568">
        <ele>962.9</ele>
        <time>2021-08-28T09:13:00.000Z</time>
      </trkpt>
      <trkpt lat="45.82078" lon="2.95564">
        <ele>964.5</ele>
      </trkpt>
      <trkpt lat="45.82085" lon="2.95555">
        <ele>965.6</ele>
      </trkpt>
      <trkpt lat="45.82088" lon="2.95541">
        <ele>966.6</ele>
      </trkpt>
      <trkpt lat="45.8208" lon="2.95515">
        <ele>967</ele>
        <time>2021-08-28T09:13:06.000Z</time>
      </trkpt>
      <trkpt lat="45.82069" lon="2.95487">
        <ele>967.3</ele>
        <time>2021-08-28T09:13:12.000Z</time>
      </trkpt>
      <trkpt lat="45.8206" lon="2.95474">
        <ele>967.1</ele>
        <time>2021-08-28T09:13:18.000Z</time>
      </trkpt>
      <trkpt lat="45.8205" lon="2.95466">
        <ele>966.6</ele>
        <time>2021-08-28T09:13:24.000Z</time>
      </trkpt>
      <trkpt lat="45.8204" lon="2.95464">
        <ele>965.9</ele>
        <time>2021-08-28T09:13:30.000Z</time>
      </trkpt>
      <trkpt lat="45.82031" lon="2.95462">
        <ele>965.3</ele>
        <time>2021-08-28T09:13:36.000Z</time>
      </trkpt>
      <trkpt lat="45.82024" lon="2.95465">
        <ele>964.6</ele>
        <time>2021-08-28T09:13:42.000Z</time>
      </trkpt>
      <trkpt lat="45.82014" lon="2.95467">
        <ele>963.7</ele>
        <time>2021-08-28T09:13:48.000Z</time>
      </trkpt>
      <trkpt lat="45.82003" lon="2.95468">
        <ele>962.8</ele>
        <time>2021-08-28T09:13:54.000Z</time>
      </trkpt>
      <trkpt lat="45.81994" lon="2.95463">
        <ele>962.2</ele>
        <time>2021-08-28T09:14:00.000Z</time>
      </trkpt>
      <trkpt lat="45.81987" lon="2.95458">
        <ele>961.8</ele>
        <time>2021-08-28T09:14:06.000Z</time>
      </trkpt>
      <trkpt lat="45.81979" lon="2.95452">
        <ele>961.2</ele>
        <time>2021-08-28T09:14:12.000Z</time>
      </trkpt>
      <trkpt lat="45.81967" lon="2.95445">
        <ele>960.2</ele>
        <time>2021-08-28T09:14:36.000Z</time>
      </trkpt>
      <trkpt lat="45.81959" lon="2.95438">
        <ele>959.6</ele>
        <time>2021-08-28T09:14:59.000Z</time>
      </trkpt>
      <trkpt lat="45.81954" lon="2.95429">
        <ele>959.2</ele>
        <time>2021-08-28T09:15:07.000Z</time>
      </trkpt>
      <trkpt lat="45.81951" lon="2.9542">
        <ele>959.1</ele>
        <time>2021-08-28T09:15:12.000Z</time>
      </trkpt>
      <trkpt lat="45.81947" lon="2.95411">
        <ele>958.9</ele>
        <time>2021-08-28T09:15:18.000Z</time>
      </trkpt>
      <trkpt lat="45.81945" lon="2.95401">
        <ele>959.1</ele>
        <time>2021-08-28T09:15:23.000Z</time>
      </trkpt>
      <trkpt lat="45.81941" lon="2.95394">
        <ele>959</ele>
        <time>2021-08-28T09:15:28.000Z</time>
      </trkpt>
      <trkpt lat="45.81938" lon="2.95385">
        <ele>959.2</ele>
        <time>2021-08-28T09:15:34.000Z</time>
      </trkpt>
      <trkpt lat="45.81932" lon="2.95379">
        <ele>958.9</ele>
        <time>2021-08-28T09:15:40.000Z</time>
      </trkpt>
      <trkpt lat="45.81926" lon="2.95374">
        <ele>958.5</ele>
        <time>2021-08-28T09:15:47.000Z</time>
      </trkpt>
      <trkpt lat="45.81921" lon="2.95367">
        <ele>958.4</ele>
        <time>2021-08-28T09:15:58.000Z</time>
      </trkpt>
      <trkpt lat="45.81916" lon="2.95359">
        <ele>958.4</ele>
        <time>2021-08-28T09:16:05.000Z</time>
      </trkpt>
      <trkpt lat="45.81911" lon="2.95354">
        <ele>958.5</ele>
        <time>2021-08-28T09:16:12.000Z</time>
      </trkpt>
      <trkpt lat="45.81906" lon="2.95347">
        <ele>958.6</ele>
        <time>2021-08-28T09:16:19.000Z</time>
      </trkpt>
      <trkpt lat="45.81899" lon="2.95328">
        <ele>959.1</ele>
        <time>2021-08-28T09:16:46.000Z</time>
      </trkpt>
      <trkpt lat="45.81894" lon="2.95321">
        <ele>959</ele>
        <time>2021-08-28T09:16:57.000Z</time>
      </trkpt>
      <trkpt lat="45.81889" lon="2.95314">
        <ele>958.9</ele>
        <time>2021-08-28T09:17:05.000Z</time>
      </trkpt>
      <trkpt lat="45.81884" lon="2.95309">
        <ele>958.7</ele>
        <time>2021-08-28T09:17:10.000Z</time>
      </trkpt>
      <trkpt lat="45.81879" lon="2.95301">
        <ele>958.7</ele>
        <time>2021-08-28T09:17:15.000Z</time>
      </trkpt>
      <trkpt lat="45.81873" lon="2.95296">
        <ele>958.5</ele>
        <time>2021-08-28T09:17:24.000Z</time>
      </trkpt>
      <trkpt lat="45.81863" lon="2.95288">
        <ele>958.2</ele>
        <time>2021-08-28T09:17:47.000Z</time>
      </trkpt>
      <trkpt lat="45.81853" lon="2.9528">
        <ele>957.9</ele>
        <time>2021-08-28T09:18:07.000Z</time>
      </trkpt>
      <trkpt lat="45.81848" lon="2.95275">
        <ele>957.9</ele>
        <time>2021-08-28T09:18:17.000Z</time>
      </trkpt>
      <trkpt lat="45.81844" lon="2.95267">
        <ele>957.9</ele>
        <time>2021-08-28T09:18:41.000Z</time>
      </trkpt>
      <trkpt lat="45.81838" lon="2.95262">
        <ele>957.8</ele>
        <time>2021-08-28T09:18:52.000Z</time>
      </trkpt>
      <trkpt lat="45.81833" lon="2.95257">
        <ele>957.7</ele>
        <time>2021-08-28T09:18:57.000Z</time>
      </trkpt>
      <trkpt lat="45.81826" lon="2.95254">
        <ele>957.8</ele>
        <time>2021-08-28T09:19:04.000Z</time>
      </trkpt>
      <trkpt lat="45.81819" lon="2.95252">
        <ele>957.9</ele>
        <time>2021-08-28T09:19:11.000Z</time>
      </trkpt>
      <trkpt lat="45.81813" lon="2.95249">
        <ele>958</ele>
        <time>2021-08-28T09:19:17.000Z</time>
      </trkpt>
      <trkpt lat="45.81802" lon="2.95239">
        <ele>958.3</ele>
        <time>2021-08-28T09:19:40.000Z</time>
      </trkpt>
      <trkpt lat="45.81795" lon="2.95236">
        <ele>958.4</ele>
        <time>2021-08-28T09:19:47.000Z</time>
      </trkpt>
      <trkpt lat="45.81789" lon="2.95234">
        <ele>958.5</ele>
        <time>2021-08-28T09:19:53.000Z</time>
      </trkpt>
      <trkpt lat="45.81764" lon="2.95238">
        <ele>958.4</ele>
      </trkpt>
      <trkpt lat="45.81739" lon="2.95245">
        <ele>958.2</ele>
      </trkpt>
      <trkpt lat="45.81721" lon="2.95258">
        <ele>957.5</ele>
      </trkpt>
      <trkpt lat="45.81695" lon="2.95292">
        <ele>955.3</ele>
      </trkpt>
      <trkpt lat="45.81681" lon="2.95305">
        <ele>954.6</ele>
      </trkpt>
      <trkpt lat="45.81656" lon="2.95342">
        <ele>952.8</ele>
      </trkpt>
      <trkpt lat="45.81631" lon="2.95367">
        <ele>952</ele>
      </trkpt>
      <trkpt lat="45.81584" lon="2.95379">
        <ele>951.4</ele>
        <time>2021-08-28T09:19:57.000Z</time>
      </trkpt>
      <trkpt lat="45.81547" lon="2.95368">
        <ele>953.6</ele>
        <time>2021-08-28T09:20:03.000Z</time>
      </trkpt>
      <trkpt lat="45.81539" lon="2.95357">
        <ele>954.5</ele>
      </trkpt>
      <trkpt lat="45.81527" lon="2.95363">
        <ele>954.8</ele>
      </trkpt>
      <trkpt lat="45.81511" lon="2.95368">
        <ele>955.4</ele>
      </trkpt>
      <trkpt lat="45.81496" lon="2.95388">
        <ele>955.2</ele>
      </trkpt>
      <trkpt lat="45.81487" lon="2.95414">
        <ele>955.2</ele>
      </trkpt>
      <trkpt lat="45.8146" lon="2.95432">
        <ele>959.2</ele>
        <time>2021-08-28T09:20:09.000Z</time>
      </trkpt>
      <trkpt lat="45.81435" lon="2.95444">
        <ele>963</ele>
        <time>2021-08-28T09:20:15.000Z</time>
      </trkpt>
      <trkpt lat="45.81425" lon="2.95448">
        <ele>964.4</ele>
        <time>2021-08-28T09:20:21.000Z</time>
      </trkpt>
      <trkpt lat="45.81416" lon="2.95451">
        <ele>965.6</ele>
        <time>2021-08-28T09:20:27.000Z</time>
      </trkpt>
      <trkpt lat="45.8141" lon="2.9545">
        <ele>965.9</ele>
        <time>2021-08-28T09:20:34.000Z</time>
      </trkpt>
      <trkpt lat="45.81403" lon="2.95453">
        <ele>966.2</ele>
        <time>2021-08-28T09:20:40.000Z</time>
      </trkpt>
      <trkpt lat="45.81397" lon="2.9545">
        <ele>966.5</ele>
        <time>2021-08-28T09:20:47.000Z</time>
      </trkpt>
      <trkpt lat="45.8139" lon="2.9545">
        <ele>966.9</ele>
        <time>2021-08-28T09:20:53.000Z</time>
      </trkpt>
      <trkpt lat="45.81383" lon="2.9545">
        <ele>967.2</ele>
        <time>2021-08-28T09:21:00.000Z</time>
      </trkpt>
      <trkpt lat="45.81376" lon="2.95451">
        <ele>967.5</ele>
        <time>2021-08-28T09:21:07.000Z</time>
      </trkpt>
      <trkpt lat="45.81369" lon="2.95451">
        <ele>967.9</ele>
        <time>2021-08-28T09:21:13.000Z</time>
      </trkpt>
      <trkpt lat="45.81362" lon="2.95448">
        <ele>968.2</ele>
        <time>2021-08-28T09:21:20.000Z</time>
      </trkpt>
      <trkpt lat="45.81355" lon="2.95446">
        <ele>968.6</ele>
        <time>2021-08-28T09:21:28.000Z</time>
      </trkpt>
      <trkpt lat="45.81335" lon="2.95434">
        <ele>969.7</ele>
      </trkpt>
      <trkpt lat="45.81317" lon="2.95421">
        <ele>970.4</ele>
      </trkpt>
      <trkpt lat="45.81291" lon="2.95402">
        <ele>971.2</ele>
      </trkpt>
      <trkpt lat="45.81279" lon="2.95389">
        <ele>971.7</ele>
      </trkpt>
      <trkpt lat="45.81265" lon="2.95351">
        <ele>972.9</ele>
      </trkpt>
      <trkpt lat="45.81253" lon="2.95334">
        <ele>973.8</ele>
      </trkpt>
      <trkpt lat="45.81239" lon="2.95318">
        <ele>973.7</ele>
      </trkpt>
      <trkpt lat="45.81225" lon="2.95303">
        <ele>973.3</ele>
      </trkpt>
      <trkpt lat="45.81218" lon="2.95282">
        <ele>973</ele>
      </trkpt>
      <trkpt lat="45.81208" lon="2.95254">
        <ele>972.5</ele>
      </trkpt>
      <trkpt lat="45.81203" lon="2.95235">
        <ele>972.1</ele>
      </trkpt>
      <trkpt lat="45.81194" lon="2.95227">
        <ele>971.7</ele>
      </trkpt>
      <trkpt lat="45.81179" lon="2.95218">
        <ele>971.1</ele>
      </trkpt>
      <trkpt lat="45.81174" lon="2.9519">
        <ele>970.1</ele>
      </trkpt>
      <trkpt lat="45.81162" lon="2.95169">
        <ele>968.9</ele>
      </trkpt>
      <trkpt lat="45.81155" lon="2.95151">
        <ele>967.3</ele>
        <time>2021-08-28T09:21:34.000Z</time>
      </trkpt>
      <trkpt lat="45.81149" lon="2.95161">
        <ele>967.9</ele>
        <time>2021-08-28T09:21:39.000Z</time>
      </trkpt>
      <trkpt lat="45.81139" lon="2.9517">
        <ele>968.1</ele>
        <time>2021-08-28T09:21:45.000Z</time>
      </trkpt>
      <trkpt lat="45.81132" lon="2.95167">
        <ele>967.8</ele>
        <time>2021-08-28T09:21:57.000Z</time>
      </trkpt>
      <trkpt lat="45.81137" lon="2.95174">
        <ele>968.2</ele>
        <time>2021-08-28T09:22:04.000Z</time>
      </trkpt>
      <trkpt lat="45.81128" lon="2.95174">
        <ele>967.9</ele>
        <time>2021-08-28T09:22:09.000Z</time>
      </trkpt>
      <trkpt lat="45.81118" lon="2.95175">
        <ele>967.5</ele>
        <time>2021-08-28T09:22:15.000Z</time>
      </trkpt>
      <trkpt lat="45.81111" lon="2.95173">
        <ele>967.2</ele>
        <time>2021-08-28T09:22:21.000Z</time>
      </trkpt>
      <trkpt lat="45.81104" lon="2.95175">
        <ele>967</ele>
        <time>2021-08-28T09:22:41.000Z</time>
      </trkpt>
      <trkpt lat="45.81098" lon="2.95171">
        <ele>966.7</ele>
        <time>2021-08-28T09:22:54.000Z</time>
      </trkpt>
      <trkpt lat="45.81091" lon="2.95172">
        <ele>966.5</ele>
        <time>2021-08-28T09:23:02.000Z</time>
      </trkpt>
      <trkpt lat="45.81085" lon="2.95168">
        <ele>966.1</ele>
        <time>2021-08-28T09:23:10.000Z</time>
      </trkpt>
      <trkpt lat="45.81072" lon="2.95164">
        <ele>966.3</ele>
        <time>2021-08-28T09:23:27.000Z</time>
      </trkpt>
      <trkpt lat="45.81064" lon="2.95163">
        <ele>966.5</ele>
        <time>2021-08-28T09:23:39.000Z</time>
      </trkpt>
      <trkpt lat="45.81056" lon="2.95157">
        <ele>966.6</ele>
        <time>2021-08-28T09:24:06.000Z</time>
      </trkpt>
      <trkpt lat="45.81049" lon="2.95155">
        <ele>966.7</ele>
        <time>2021-08-28T09:24:13.000Z</time>
      </trkpt>
      <trkpt lat="45.81042" lon="2.95154">
        <ele>967</ele>
        <time>2021-08-28T09:24:18.000Z</time>
      </trkpt>
      <trkpt lat="45.81035" lon="2.95155">
        <ele>967.3</ele>
        <time>2021-08-28T09:24:25.000Z</time>
      </trkpt>
      <trkpt lat="45.81028" lon="2.95155">
        <ele>967.5</ele>
        <time>2021-08-28T09:24:34.000Z</time>
      </trkpt>
      <trkpt lat="45.81021" lon="2.95154">
        <ele>967.7</ele>
        <time>2021-08-28T09:24:42.000Z</time>
      </trkpt>
      <trkpt lat="45.81015" lon="2.95155">
        <ele>968</ele>
        <time>2021-08-28T09:24:49.000Z</time>
      </trkpt>
      <trkpt lat="45.81008" lon="2.95157">
        <ele>968.4</ele>
        <time>2021-08-28T09:24:56.000Z</time>
      </trkpt>
      <trkpt lat="45.81001" lon="2.95157">
        <ele>968.6</ele>
        <time>2021-08-28T09:25:04.000Z</time>
      </trkpt>
      <trkpt lat="45.80994" lon="2.95157">
        <ele>968.7</ele>
        <time>2021-08-28T09:25:13.000Z</time>
      </trkpt>
      <trkpt lat="45.80987" lon="2.95158">
        <ele>968.7</ele>
        <time>2021-08-28T09:25:25.000Z</time>
      </trkpt>
      <trkpt lat="45.80981" lon="2.95161">
        <ele>968.8</ele>
        <time>2021-08-28T09:25:28.000Z</time>
      </trkpt>
      <trkpt lat="45.80974" lon="2.95164">
        <ele>968.9</ele>
        <time>2021-08-28T09:25:33.000Z</time>
      </trkpt>
      <trkpt lat="45.80966" lon="2.95165">
        <ele>968.9</ele>
        <time>2021-08-28T09:25:39.000Z</time>
      </trkpt>
      <trkpt lat="45.80961" lon="2.95173">
        <ele>969</ele>
        <time>2021-08-28T09:25:49.000Z</time>
      </trkpt>
      <trkpt lat="45.80953" lon="2.95171">
        <ele>969</ele>
        <time>2021-08-28T09:25:57.000Z</time>
      </trkpt>
      <trkpt lat="45.80946" lon="2.95168">
        <ele>969</ele>
        <time>2021-08-28T09:26:05.000Z</time>
      </trkpt>
      <trkpt lat="45.80939" lon="2.95167">
        <ele>969</ele>
        <time>2021-08-28T09:26:15.000Z</time>
      </trkpt>
      <trkpt lat="45.80935" lon="2.95158">
        <ele>968.7</ele>
        <time>2021-08-28T09:26:33.000Z</time>
      </trkpt>
      <trkpt lat="45.80975" lon="2.95168">
        <ele>969</ele>
        <time>2021-08-28T09:26:39.000Z</time>
      </trkpt>
      <trkpt lat="45.8097" lon="2.95173">
        <ele>969</ele>
        <time>2021-08-28T09:26:45.000Z</time>
      </trkpt>
      <trkpt lat="45.80998" lon="2.95169">
        <ele>969</ele>
      </trkpt>
      <trkpt lat="45.81017" lon="2.95169">
        <ele>968.4</ele>
      </trkpt>
      <trkpt lat="45.8103" lon="2.95167">
        <ele>967.9</ele>
      </trkpt>
      <trkpt lat="45.81055" lon="2.95168">
        <ele>967.1</ele>
      </trkpt>
      <trkpt lat="45.81072" lon="2.95149">
        <ele>965.6</ele>
      </trkpt>
      <trkpt lat="45.81087" lon="2.95154">
        <ele>965.5</ele>
      </trkpt>
      <trkpt lat="45.81104" lon="2.95159">
        <ele>966.3</ele>
      </trkpt>
      <trkpt lat="45.81131" lon="2.95157">
        <ele>967.1</ele>
        <time>2021-08-28T09:26:51.000Z</time>
      </trkpt>
      <trkpt lat="45.81129" lon="2.95131">
        <ele>965.2</ele>
        <time>2021-08-28T09:26:57.000Z</time>
      </trkpt>
      <trkpt lat="45.81124" lon="2.95113">
        <ele>963.9</ele>
        <time>2021-08-28T09:27:03.000Z</time>
      </trkpt>
      <trkpt lat="45.81117" lon="2.95111">
        <ele>963.7</ele>
        <time>2021-08-28T09:27:13.000Z</time>
      </trkpt>
      <trkpt lat="45.8111" lon="2.9511">
        <ele>963.6</ele>
        <time>2021-08-28T09:27:23.000Z</time>
      </trkpt>
      <trkpt lat="45.81103" lon="2.9511">
        <ele>963.5</ele>
        <time>2021-08-28T09:27:29.000Z</time>
      </trkpt>
      <trkpt lat="45.81096" lon="2.95109">
        <ele>963.4</ele>
        <time>2021-08-28T09:27:37.000Z</time>
      </trkpt>
      <trkpt lat="45.81089" lon="2.95105">
        <ele>963.1</ele>
        <time>2021-08-28T09:27:46.000Z</time>
      </trkpt>
      <trkpt lat="45.81083" lon="2.95101">
        <ele>962.9</ele>
        <time>2021-08-28T09:27:53.000Z</time>
      </trkpt>
      <trkpt lat="45.81074" lon="2.95097">
        <ele>963.1</ele>
        <time>2021-08-28T09:28:32.000Z</time>
      </trkpt>
      <trkpt lat="45.81065" lon="2.95088">
        <ele>963.1</ele>
        <time>2021-08-28T09:28:52.000Z</time>
      </trkpt>
      <trkpt lat="45.81044" lon="2.95076">
        <ele>963.5</ele>
        <time>2021-08-28T09:28:57.000Z</time>
      </trkpt>
      <trkpt lat="45.8102" lon="2.95064">
        <ele>964.1</ele>
        <time>2021-08-28T09:29:03.000Z</time>
      </trkpt>
      <trkpt lat="45.80998" lon="2.95058">
        <ele>964.8</ele>
        <time>2021-08-28T09:29:09.000Z</time>
      </trkpt>
      <trkpt lat="45.80987" lon="2.95057">
        <ele>964.7</ele>
        <time>2021-08-28T09:29:15.000Z</time>
      </trkpt>
      <trkpt lat="45.80966" lon="2.95053">
        <ele>964.5</ele>
        <time>2021-08-28T09:29:21.000Z</time>
      </trkpt>
      <trkpt lat="45.80948" lon="2.95047">
        <ele>964.3</ele>
        <time>2021-08-28T09:29:27.000Z</time>
      </trkpt>
      <trkpt lat="45.80931" lon="2.95042">
        <ele>964</ele>
        <time>2021-08-28T09:29:33.000Z</time>
      </trkpt>
      <trkpt lat="45.80916" lon="2.95038">
        <ele>963.8</ele>
        <time>2021-08-28T09:29:39.000Z</time>
      </trkpt>
      <trkpt lat="45.80905" lon="2.95035">
        <ele>963.4</ele>
        <time>2021-08-28T09:29:45.000Z</time>
      </trkpt>
      <trkpt lat="45.80897" lon="2.95033">
        <ele>963.1</ele>
        <time>2021-08-28T09:29:51.000Z</time>
      </trkpt>
      <trkpt lat="45.80882" lon="2.95032">
        <ele>962.6</ele>
        <time>2021-08-28T09:29:57.000Z</time>
      </trkpt>
      <trkpt lat="45.80865" lon="2.95031">
        <ele>962.2</ele>
        <time>2021-08-28T09:30:03.000Z</time>
      </trkpt>
      <trkpt lat="45.80818" lon="2.95034">
        <ele>960.5</ele>
      </trkpt>
      <trkpt lat="45.80784" lon="2.95057">
        <ele>958.7</ele>
      </trkpt>
      <trkpt lat="45.80772" lon="2.9506">
        <ele>958</ele>
      </trkpt>
      <trkpt lat="45.80733" lon="2.95064">
        <ele>957.5</ele>
      </trkpt>
      <trkpt lat="45.80711" lon="2.95065">
        <ele>958.4</ele>
      </trkpt>
      <trkpt lat="45.80702" lon="2.95081">
        <ele>959.7</ele>
      </trkpt>
      <trkpt lat="45.80683" lon="2.95095">
        <ele>962.4</ele>
      </trkpt>
      <trkpt lat="45.80668" lon="2.95097">
        <ele>963.7</ele>
        <time>2021-08-28T09:30:09.000Z</time>
      </trkpt>
      <trkpt lat="45.80657" lon="2.95088">
        <ele>963.1</ele>
      </trkpt>
      <trkpt lat="45.80633" lon="2.95065">
        <ele>961.7</ele>
        <time>2021-08-28T09:30:15.000Z</time>
      </trkpt>
      <trkpt lat="45.80629" lon="2.95059">
        <ele>961.2</ele>
        <time>2021-08-28T09:32:08.000Z</time>
      </trkpt>
      <trkpt lat="45.80622" lon="2.95056">
        <ele>961.2</ele>
        <time>2021-08-28T09:32:24.000Z</time>
      </trkpt>
      <trkpt lat="45.80622" lon="2.95046">
        <ele>960.1</ele>
        <time>2021-08-28T09:32:34.000Z</time>
      </trkpt>
      <trkpt lat="45.8062" lon="2.95036">
        <ele>959.1</ele>
        <time>2021-08-28T09:32:40.000Z</time>
      </trkpt>
      <trkpt lat="45.80613" lon="2.95036">
        <ele>959.3</ele>
        <time>2021-08-28T09:32:46.000Z</time>
      </trkpt>
      <trkpt lat="45.80614" lon="2.95025">
        <ele>958</ele>
        <time>2021-08-28T09:32:58.000Z</time>
      </trkpt>
      <trkpt lat="45.80606" lon="2.95023">
        <ele>958.1</ele>
        <time>2021-08-28T09:33:03.000Z</time>
      </trkpt>
      <trkpt lat="45.80601" lon="2.9503">
        <ele>959</ele>
        <time>2021-08-28T09:33:14.000Z</time>
      </trkpt>
      <trkpt lat="45.80597" lon="2.95038">
        <ele>960.1</ele>
        <time>2021-08-28T09:33:20.000Z</time>
      </trkpt>
      <trkpt lat="45.8059" lon="2.95041">
        <ele>960.7</ele>
        <time>2021-08-28T09:33:25.000Z</time>
      </trkpt>
      <trkpt lat="45.80584" lon="2.95045">
        <ele>961.4</ele>
        <time>2021-08-28T09:33:31.000Z</time>
      </trkpt>
      <trkpt lat="45.80577" lon="2.95044">
        <ele>961.3</ele>
        <time>2021-08-28T09:33:38.000Z</time>
      </trkpt>
      <trkpt lat="45.80571" lon="2.9505">
        <ele>962</ele>
        <time>2021-08-28T09:33:45.000Z</time>
      </trkpt>
      <trkpt lat="45.80564" lon="2.95053">
        <ele>962.4</ele>
        <time>2021-08-28T09:33:52.000Z</time>
      </trkpt>
      <trkpt lat="45.80556" lon="2.95057">
        <ele>962.8</ele>
        <time>2021-08-28T09:33:57.000Z</time>
      </trkpt>
      <trkpt lat="45.80547" lon="2.95057">
        <ele>962.8</ele>
        <time>2021-08-28T09:34:03.000Z</time>
      </trkpt>
      <trkpt lat="45.8054" lon="2.95056">
        <ele>962.7</ele>
        <time>2021-08-28T09:34:09.000Z</time>
      </trkpt>
      <trkpt lat="45.80535" lon="2.95064">
        <ele>963.5</ele>
        <time>2021-08-28T09:34:16.000Z</time>
      </trkpt>
      <trkpt lat="45.8053" lon="2.95071">
        <ele>964.2</ele>
        <time>2021-08-28T09:34:24.000Z</time>
      </trkpt>
      <trkpt lat="45.80523" lon="2.95071">
        <ele>964.1</ele>
        <time>2021-08-28T09:34:32.000Z</time>
      </trkpt>
      <trkpt lat="45.80517" lon="2.95072">
        <ele>964.2</ele>
        <time>2021-08-28T09:34:36.000Z</time>
      </trkpt>
      <trkpt lat="45.80511" lon="2.95064">
        <ele>963.4</ele>
        <time>2021-08-28T09:34:43.000Z</time>
      </trkpt>
      <trkpt lat="45.80511" lon="2.95054">
        <ele>962.5</ele>
        <time>2021-08-28T09:34:49.000Z</time>
      </trkpt>
      <trkpt lat="45.80504" lon="2.95053">
        <ele>962.4</ele>
        <time>2021-08-28T09:35:51.000Z</time>
      </trkpt>
      <trkpt lat="45.80494" lon="2.95051">
        <ele>963.1</ele>
        <time>2021-08-28T09:36:22.000Z</time>
      </trkpt>
      <trkpt lat="45.80488" lon="2.95048">
        <ele>963.7</ele>
        <time>2021-08-28T09:36:37.000Z</time>
      </trkpt>
      <trkpt lat="45.8048" lon="2.95049">
        <ele>964.8</ele>
        <time>2021-08-28T09:37:04.000Z</time>
      </trkpt>
      <trkpt lat="45.80469" lon="2.95044">
        <ele>965.9</ele>
        <time>2021-08-28T09:37:12.000Z</time>
      </trkpt>
      <trkpt lat="45.8046" lon="2.95041">
        <ele>967</ele>
        <time>2021-08-28T09:37:18.000Z</time>
      </trkpt>
      <trkpt lat="45.80448" lon="2.9504">
        <ele>968.6</ele>
        <time>2021-08-28T09:37:39.000Z</time>
      </trkpt>
      <trkpt lat="45.80442" lon="2.95042">
        <ele>969.5</ele>
        <time>2021-08-28T09:37:49.000Z</time>
      </trkpt>
      <trkpt lat="45.80429" lon="2.95044">
        <ele>971.4</ele>
        <time>2021-08-28T09:38:11.000Z</time>
      </trkpt>
      <trkpt lat="45.80417" lon="2.95048">
        <ele>973.3</ele>
        <time>2021-08-28T09:38:27.000Z</time>
      </trkpt>
      <trkpt lat="45.80405" lon="2.95047">
        <ele>974.5</ele>
        <time>2021-08-28T09:39:01.000Z</time>
      </trkpt>
      <trkpt lat="45.80399" lon="2.95049">
        <ele>975.2</ele>
        <time>2021-08-28T09:39:11.000Z</time>
      </trkpt>
      <trkpt lat="45.80392" lon="2.95049">
        <ele>975.9</ele>
        <time>2021-08-28T09:39:22.000Z</time>
      </trkpt>
      <trkpt lat="45.80385" lon="2.9505">
        <ele>976.7</ele>
        <time>2021-08-28T09:39:35.000Z</time>
      </trkpt>
      <trkpt lat="45.80379" lon="2.95053">
        <ele>977.4</ele>
        <time>2021-08-28T09:39:45.000Z</time>
      </trkpt>
      <trkpt lat="45.80369" lon="2.95058">
        <ele>978.8</ele>
        <time>2021-08-28T09:40:02.000Z</time>
      </trkpt>
      <trkpt lat="45.80363" lon="2.95062">
        <ele>979.6</ele>
        <time>2021-08-28T09:40:13.000Z</time>
      </trkpt>
      <trkpt lat="45.80357" lon="2.95064">
        <ele>980.3</ele>
        <time>2021-08-28T09:40:23.000Z</time>
      </trkpt>
      <trkpt lat="45.80352" lon="2.9507">
        <ele>981.2</ele>
        <time>2021-08-28T09:40:33.000Z</time>
      </trkpt>
      <trkpt lat="45.80357" lon="2.95078">
        <ele>981.1</ele>
        <time>2021-08-28T09:40:56.000Z</time>
      </trkpt>
      <trkpt lat="45.8035" lon="2.95078">
        <ele>981.9</ele>
        <time>2021-08-28T09:41:07.000Z</time>
      </trkpt>
      <trkpt lat="45.80343" lon="2.95078">
        <ele>982.6</ele>
        <time>2021-08-28T09:41:14.000Z</time>
      </trkpt>
      <trkpt lat="45.80335" lon="2.95078">
        <ele>983.5</ele>
        <time>2021-08-28T09:41:21.000Z</time>
      </trkpt>
      <trkpt lat="45.80328" lon="2.95077">
        <ele>984.1</ele>
        <time>2021-08-28T09:41:27.000Z</time>
      </trkpt>
      <trkpt lat="45.80318" lon="2.95073">
        <ele>984.9</ele>
        <time>2021-08-28T09:41:34.000Z</time>
      </trkpt>
      <trkpt lat="45.8031" lon="2.95078">
        <ele>985.9</ele>
        <time>2021-08-28T09:41:44.000Z</time>
      </trkpt>
      <trkpt lat="45.80303" lon="2.95076">
        <ele>986.5</ele>
        <time>2021-08-28T09:41:53.000Z</time>
      </trkpt>
      <trkpt lat="45.80292" lon="2.95073">
        <ele>987.3</ele>
        <time>2021-08-28T09:42:06.000Z</time>
      </trkpt>
      <trkpt lat="45.80285" lon="2.95071">
        <ele>987.9</ele>
        <time>2021-08-28T09:42:13.000Z</time>
      </trkpt>
      <trkpt lat="45.80278" lon="2.95071">
        <ele>988.6</ele>
        <time>2021-08-28T09:42:18.000Z</time>
      </trkpt>
      <trkpt lat="45.80271" lon="2.9507">
        <ele>989.2</ele>
        <time>2021-08-28T09:42:25.000Z</time>
      </trkpt>
      <trkpt lat="45.80264" lon="2.95067">
        <ele>989.7</ele>
        <time>2021-08-28T09:42:32.000Z</time>
      </trkpt>
      <trkpt lat="45.80258" lon="2.95062">
        <ele>990</ele>
        <time>2021-08-28T09:42:53.000Z</time>
      </trkpt>
      <trkpt lat="45.80252" lon="2.95056">
        <ele>990.2</ele>
        <time>2021-08-28T09:42:59.000Z</time>
      </trkpt>
      <trkpt lat="45.80247" lon="2.95051">
        <ele>990.3</ele>
        <time>2021-08-28T09:43:08.000Z</time>
      </trkpt>
      <trkpt lat="45.80241" lon="2.95044">
        <ele>990.4</ele>
        <time>2021-08-28T09:43:17.000Z</time>
      </trkpt>
      <trkpt lat="45.80232" lon="2.95036">
        <ele>990.8</ele>
        <time>2021-08-28T09:43:32.000Z</time>
      </trkpt>
      <trkpt lat="45.80219" lon="2.95024">
        <ele>991.5</ele>
        <time>2021-08-28T09:43:49.000Z</time>
      </trkpt>
      <trkpt lat="45.80212" lon="2.95015">
        <ele>991.8</ele>
        <time>2021-08-28T09:44:02.000Z</time>
      </trkpt>
      <trkpt lat="45.80205" lon="2.95011">
        <ele>992.3</ele>
        <time>2021-08-28T09:44:09.000Z</time>
      </trkpt>
      <trkpt lat="45.802" lon="2.95004">
        <ele>992.6</ele>
        <time>2021-08-28T09:44:19.000Z</time>
      </trkpt>
      <trkpt lat="45.80191" lon="2.94993">
        <ele>993.4</ele>
        <time>2021-08-28T09:44:36.000Z</time>
      </trkpt>
      <trkpt lat="45.80186" lon="2.94986">
        <ele>994.1</ele>
        <time>2021-08-28T09:44:42.000Z</time>
      </trkpt>
      <trkpt lat="45.80177" lon="2.94981">
        <ele>995.2</ele>
        <time>2021-08-28T09:44:51.000Z</time>
      </trkpt>
      <trkpt lat="45.8017" lon="2.94979">
        <ele>996.1</ele>
        <time>2021-08-28T09:44:57.000Z</time>
      </trkpt>
      <trkpt lat="45.80162" lon="2.94978">
        <ele>997.1</ele>
        <time>2021-08-28T09:45:04.000Z</time>
      </trkpt>
      <trkpt lat="45.80155" lon="2.94977">
        <ele>998.1</ele>
        <time>2021-08-28T09:45:10.000Z</time>
      </trkpt>
      <trkpt lat="45.80147" lon="2.94976">
        <ele>999.2</ele>
        <time>2021-08-28T09:45:16.000Z</time>
      </trkpt>
      <trkpt lat="45.80141" lon="2.94977">
        <ele>1000</ele>
        <time>2021-08-28T09:45:21.000Z</time>
      </trkpt>
      <trkpt lat="45.80132" lon="2.94976">
        <ele>1001.2</ele>
        <time>2021-08-28T09:45:27.000Z</time>
      </trkpt>
      <trkpt lat="45.80124" lon="2.94975">
        <ele>1002.3</ele>
        <time>2021-08-28T09:45:33.000Z</time>
      </trkpt>
      <trkpt lat="45.8009" lon="2.94978">
        <ele>1006.7</ele>
      </trkpt>
      <trkpt lat="45.80065" lon="2.94998">
        <ele>1008.2</ele>
      </trkpt>
      <trkpt lat="45.80049" lon="2.94992">
        <ele>1010.5</ele>
      </trkpt>
      <trkpt lat="45.80032" lon="2.94984">
        <ele>1013.4</ele>
      </trkpt>
      <trkpt lat="45.80015" lon="2.95016">
        <ele>1012.4</ele>
      </trkpt>
      <trkpt lat="45.80001" lon="2.95022">
        <ele>1013.3</ele>
      </trkpt>
      <trkpt lat="45.79999" lon="2.95028">
        <ele>1013</ele>
        <time>2021-08-28T09:45:39.000Z</time>
      </trkpt>
      <trkpt lat="45.79967" lon="2.95049">
        <ele>1011.8</ele>
      </trkpt>
      <trkpt lat="45.79953" lon="2.95058">
        <ele>1010.9</ele>
        <time>2021-08-28T09:45:45.000Z</time>
      </trkpt>
      <trkpt lat="45.79949" lon="2.95068">
        <ele>1009.7</ele>
        <time>2021-08-28T09:45:51.000Z</time>
      </trkpt>
      <trkpt lat="45.79942" lon="2.95069">
        <ele>1009.5</ele>
        <time>2021-08-28T09:46:17.000Z</time>
      </trkpt>
      <trkpt lat="45.79934" lon="2.95066">
        <ele>1009.8</ele>
        <time>2021-08-28T09:46:26.000Z</time>
      </trkpt>
      <trkpt lat="45.79929" lon="2.9506">
        <ele>1010.6</ele>
        <time>2021-08-28T09:46:30.000Z</time>
      </trkpt>
      <trkpt lat="45.79925" lon="2.95052">
        <ele>1011.8</ele>
        <time>2021-08-28T09:46:33.000Z</time>
      </trkpt>
      <trkpt lat="45.79921" lon="2.95041">
        <ele>1013.5</ele>
        <time>2021-08-28T09:46:39.000Z</time>
      </trkpt>
      <trkpt lat="45.79922" lon="2.95032">
        <ele>1014.9</ele>
        <time>2021-08-28T09:46:45.000Z</time>
      </trkpt>
      <trkpt lat="45.79922" lon="2.95021">
        <ele>1016.5</ele>
        <time>2021-08-28T09:46:51.000Z</time>
      </trkpt>
      <trkpt lat="45.79921" lon="2.95005">
        <ele>1019</ele>
        <time>2021-08-28T09:46:57.000Z</time>
      </trkpt>
      <trkpt lat="45.79923" lon="2.94989">
        <ele>1021.7</ele>
        <time>2021-08-28T09:47:03.000Z</time>
      </trkpt>
      <trkpt lat="45.79922" lon="2.94975">
        <ele>1024.4</ele>
        <time>2021-08-28T09:47:09.000Z</time>
      </trkpt>
      <trkpt lat="45.79921" lon="2.94965">
        <ele>1026.4</ele>
        <time>2021-08-28T09:47:15.000Z</time>
      </trkpt>
      <trkpt lat="45.7992" lon="2.94948">
        <ele>1029.7</ele>
        <time>2021-08-28T09:47:21.000Z</time>
      </trkpt>
      <trkpt lat="45.79924" lon="2.94929">
        <ele>1032.9</ele>
        <time>2021-08-28T09:47:27.000Z</time>
      </trkpt>
      <trkpt lat="45.79921" lon="2.94913">
        <ele>1036.6</ele>
        <time>2021-08-28T09:47:33.000Z</time>
      </trkpt>
      <trkpt lat="45.79919" lon="2.94892">
        <ele>1043.1</ele>
        <time>2021-08-28T09:47:39.000Z</time>
      </trkpt>
      <trkpt lat="45.79918" lon="2.94881">
        <ele>1046.5</ele>
        <time>2021-08-28T09:47:45.000Z</time>
      </trkpt>
      <trkpt lat="45.79913" lon="2.94873">
        <ele>1049.4</ele>
        <time>2021-08-28T09:47:54.000Z</time>
      </trkpt>
      <trkpt lat="45.79907" lon="2.9487">
        <ele>1050.7</ele>
        <time>2021-08-28T09:48:03.000Z</time>
      </trkpt>
      <trkpt lat="45.79899" lon="2.94862">
        <ele>1053.7</ele>
        <time>2021-08-28T09:48:09.000Z</time>
      </trkpt>
      <trkpt lat="45.79892" lon="2.94862">
        <ele>1054.2</ele>
        <time>2021-08-28T09:48:17.000Z</time>
      </trkpt>
      <trkpt lat="45.79885" lon="2.94862">
        <ele>1054.7</ele>
        <time>2021-08-28T09:48:26.000Z</time>
      </trkpt>
      <trkpt lat="45.79877" lon="2.94861">
        <ele>1055.6</ele>
        <time>2021-08-28T09:48:32.000Z</time>
      </trkpt>
      <trkpt lat="45.7987" lon="2.9486">
        <ele>1056.4</ele>
        <time>2021-08-28T09:48:38.000Z</time>
      </trkpt>
      <trkpt lat="45.79864" lon="2.94857">
        <ele>1057.7</ele>
        <time>2021-08-28T09:48:42.000Z</time>
      </trkpt>
      <trkpt lat="45.79857" lon="2.94854">
        <ele>1059.1</ele>
        <time>2021-08-28T09:48:45.000Z</time>
      </trkpt>
      <trkpt lat="45.79847" lon="2.94852">
        <ele>1060.4</ele>
        <time>2021-08-28T09:48:51.000Z</time>
      </trkpt>
      <trkpt lat="45.79839" lon="2.94849">
        <ele>1061.9</ele>
        <time>2021-08-28T09:48:57.000Z</time>
      </trkpt>
      <trkpt lat="45.79832" lon="2.94849">
        <ele>1062.3</ele>
        <time>2021-08-28T09:49:03.000Z</time>
      </trkpt>
      <trkpt lat="45.79823" lon="2.9485">
        <ele>1061.8</ele>
        <time>2021-08-28T09:49:09.000Z</time>
      </trkpt>
      <trkpt lat="45.79817" lon="2.94854">
        <ele>1060.5</ele>
        <time>2021-08-28T09:49:15.000Z</time>
      </trkpt>
      <trkpt lat="45.79805" lon="2.94862">
        <ele>1057.8</ele>
        <time>2021-08-28T09:49:40.000Z</time>
      </trkpt>
      <trkpt lat="45.798" lon="2.94871">
        <ele>1054.9</ele>
        <time>2021-08-28T09:50:00.000Z</time>
      </trkpt>
      <trkpt lat="45.79806" lon="2.94878">
        <ele>1052.9</ele>
        <time>2021-08-28T09:50:09.000Z</time>
      </trkpt>
      <trkpt lat="45.79812" lon="2.94881">
        <ele>1052.2</ele>
        <time>2021-08-28T09:50:17.000Z</time>
      </trkpt>
      <trkpt lat="45.79819" lon="2.94885">
        <ele>1051.1</ele>
        <time>2021-08-28T09:50:27.000Z</time>
      </trkpt>
      <trkpt lat="45.79824" lon="2.9489">
        <ele>1049.7</ele>
        <time>2021-08-28T09:50:35.000Z</time>
      </trkpt>
      <trkpt lat="45.79829" lon="2.94896">
        <ele>1048.1</ele>
        <time>2021-08-28T09:50:48.000Z</time>
      </trkpt>
      <trkpt lat="45.79835" lon="2.949">
        <ele>1046.9</ele>
        <time>2021-08-28T09:51:22.000Z</time>
      </trkpt>
      <trkpt lat="45.79841" lon="2.94906">
        <ele>1044.6</ele>
        <time>2021-08-28T09:51:28.000Z</time>
      </trkpt>
      <trkpt lat="45.79848" lon="2.94909">
        <ele>1043.2</ele>
        <time>2021-08-28T09:51:34.000Z</time>
      </trkpt>
      <trkpt lat="45.79854" lon="2.94914">
        <ele>1041.3</ele>
        <time>2021-08-28T09:51:41.000Z</time>
      </trkpt>
      <trkpt lat="45.79861" lon="2.94919">
        <ele>1039.4</ele>
        <time>2021-08-28T09:51:48.000Z</time>
      </trkpt>
      <trkpt lat="45.79867" lon="2.94925">
        <ele>1037.6</ele>
        <time>2021-08-28T09:51:53.000Z</time>
      </trkpt>
      <trkpt lat="45.79873" lon="2.94932">
        <ele>1035.6</ele>
        <time>2021-08-28T09:51:59.000Z</time>
      </trkpt>
      <trkpt lat="45.79878" lon="2.94939">
        <ele>1033.7</ele>
        <time>2021-08-28T09:52:04.000Z</time>
      </trkpt>
      <trkpt lat="45.79883" lon="2.94946">
        <ele>1031.9</ele>
        <time>2021-08-28T09:52:09.000Z</time>
      </trkpt>
      <trkpt lat="45.7989" lon="2.94955">
        <ele>1029.7</ele>
        <time>2021-08-28T09:52:15.000Z</time>
      </trkpt>
      <trkpt lat="45.79894" lon="2.94962">
        <ele>1028</ele>
        <time>2021-08-28T09:52:21.000Z</time>
      </trkpt>
      <trkpt lat="45.799" lon="2.94969">
        <ele>1026.4</ele>
        <time>2021-08-28T09:52:27.000Z</time>
      </trkpt>
      <trkpt lat="45.79906" lon="2.94974">
        <ele>1025.2</ele>
        <time>2021-08-28T09:52:36.000Z</time>
      </trkpt>
      <trkpt lat="45.79912" lon="2.9498">
        <ele>1023.9</ele>
        <time>2021-08-28T09:52:43.000Z</time>
      </trkpt>
      <trkpt lat="45.79917" lon="2.94986">
        <ele>1022.7</ele>
        <time>2021-08-28T09:52:50.000Z</time>
      </trkpt>
      <trkpt lat="45.79924" lon="2.94988">
        <ele>1021.8</ele>
        <time>2021-08-28T09:52:58.000Z</time>
      </trkpt>
      <trkpt lat="45.79931" lon="2.94991">
        <ele>1020.8</ele>
        <time>2021-08-28T09:53:05.000Z</time>
      </trkpt>
      <trkpt lat="45.79937" lon="2.94995">
        <ele>1019.7</ele>
        <time>2021-08-28T09:53:13.000Z</time>
      </trkpt>
      <trkpt lat="45.79943" lon="2.95001">
        <ele>1018.3</ele>
        <time>2021-08-28T09:53:18.000Z</time>
      </trkpt>
      <trkpt lat="45.79948" lon="2.95007">
        <ele>1017.2</ele>
        <time>2021-08-28T09:53:23.000Z</time>
      </trkpt>
      <trkpt lat="45.79953" lon="2.95014">
        <ele>1016.1</ele>
        <time>2021-08-28T09:53:29.000Z</time>
      </trkpt>
      <trkpt lat="45.79958" lon="2.95021">
        <ele>1015.1</ele>
        <time>2021-08-28T09:53:37.000Z</time>
      </trkpt>
      <trkpt lat="45.79964" lon="2.95026">
        <ele>1014.3</ele>
        <time>2021-08-28T09:53:46.000Z</time>
      </trkpt>
      <trkpt lat="45.79971" lon="2.95031">
        <ele>1013.6</ele>
        <time>2021-08-28T09:53:53.000Z</time>
      </trkpt>
      <trkpt lat="45.79978" lon="2.95031">
        <ele>1013.4</ele>
        <time>2021-08-28T09:53:58.000Z</time>
      </trkpt>
      <trkpt lat="45.79984" lon="2.95034">
        <ele>1013</ele>
        <time>2021-08-28T09:54:07.000Z</time>
      </trkpt>
      <trkpt lat="45.79991" lon="2.95037">
        <ele>1012.5</ele>
        <time>2021-08-28T09:54:17.000Z</time>
      </trkpt>
      <trkpt lat="45.79998" lon="2.95039">
        <ele>1012.2</ele>
        <time>2021-08-28T09:54:24.000Z</time>
      </trkpt>
      <trkpt lat="45.80005" lon="2.95042">
        <ele>1011.6</ele>
        <time>2021-08-28T09:54:31.000Z</time>
      </trkpt>
      <trkpt lat="45.80011" lon="2.95043">
        <ele>1011</ele>
        <time>2021-08-28T09:54:39.000Z</time>
      </trkpt>
      <trkpt lat="45.80018" lon="2.95043">
        <ele>1010.4</ele>
        <time>2021-08-28T09:54:47.000Z</time>
      </trkpt>
      <trkpt lat="45.80025" lon="2.95044">
        <ele>1009.8</ele>
        <time>2021-08-28T09:54:54.000Z</time>
      </trkpt>
      <trkpt lat="45.80032" lon="2.95045">
        <ele>1009.1</ele>
        <time>2021-08-28T09:55:02.000Z</time>
      </trkpt>
      <trkpt lat="45.80038" lon="2.95045">
        <ele>1008.6</ele>
        <time>2021-08-28T09:55:10.000Z</time>
      </trkpt>
      <trkpt lat="45.80045" lon="2.95047">
        <ele>1008</ele>
        <time>2021-08-28T09:55:22.000Z</time>
      </trkpt>
      <trkpt lat="45.80051" lon="2.95051">
        <ele>1007.3</ele>
        <time>2021-08-28T09:55:29.000Z</time>
      </trkpt>
      <trkpt lat="45.80058" lon="2.95054">
        <ele>1006.7</ele>
        <time>2021-08-28T09:55:39.000Z</time>
      </trkpt>
      <trkpt lat="45.80061" lon="2.95045">
        <ele>1006.8</ele>
        <time>2021-08-28T09:55:47.000Z</time>
      </trkpt>
      <trkpt lat="45.80067" lon="2.9505">
        <ele>1006.1</ele>
        <time>2021-08-28T09:56:00.000Z</time>
      </trkpt>
      <trkpt lat="45.80074" lon="2.95052">
        <ele>1005.5</ele>
        <time>2021-08-28T09:56:10.000Z</time>
      </trkpt>
      <trkpt lat="45.8008" lon="2.95057">
        <ele>1004.9</ele>
        <time>2021-08-28T09:56:20.000Z</time>
      </trkpt>
      <trkpt lat="45.80085" lon="2.95065">
        <ele>1004.3</ele>
        <time>2021-08-28T09:56:29.000Z</time>
      </trkpt>
      <trkpt lat="45.80091" lon="2.95069">
        <ele>1003.7</ele>
        <time>2021-08-28T09:56:36.000Z</time>
      </trkpt>
      <trkpt lat="45.80097" lon="2.95074">
        <ele>1003.2</ele>
        <time>2021-08-28T09:56:41.000Z</time>
      </trkpt>
      <trkpt lat="45.80103" lon="2.95077">
        <ele>1002.7</ele>
        <time>2021-08-28T09:56:49.000Z</time>
      </trkpt>
      <trkpt lat="45.8011" lon="2.9508">
        <ele>1002.1</ele>
        <time>2021-08-28T09:56:58.000Z</time>
      </trkpt>
      <trkpt lat="45.80116" lon="2.95084">
        <ele>1001.6</ele>
        <time>2021-08-28T09:57:05.000Z</time>
      </trkpt>
      <trkpt lat="45.80122" lon="2.95089">
        <ele>1001.1</ele>
        <time>2021-08-28T09:57:13.000Z</time>
      </trkpt>
      <trkpt lat="45.80128" lon="2.95096">
        <ele>1000.6</ele>
        <time>2021-08-28T09:57:19.000Z</time>
      </trkpt>
      <trkpt lat="45.80135" lon="2.951">
        <ele>1000.1</ele>
        <time>2021-08-28T09:57:25.000Z</time>
      </trkpt>
      <trkpt lat="45.80142" lon="2.95104">
        <ele>999.6</ele>
        <time>2021-08-28T09:57:30.000Z</time>
      </trkpt>
      <trkpt lat="45.80149" lon="2.95108">
        <ele>999.1</ele>
        <time>2021-08-28T09:57:35.000Z</time>
      </trkpt>
      <trkpt lat="45.80157" lon="2.95114">
        <ele>998.6</ele>
        <time>2021-08-28T09:57:42.000Z</time>
      </trkpt>
      <trkpt lat="45.80163" lon="2.95119">
        <ele>998.2</ele>
        <time>2021-08-28T09:57:49.000Z</time>
      </trkpt>
      <trkpt lat="45.8017" lon="2.95122">
        <ele>997.8</ele>
        <time>2021-08-28T09:57:54.000Z</time>
      </trkpt>
      <trkpt lat="45.80174" lon="2.95129">
        <ele>997.5</ele>
        <time>2021-08-28T09:58:03.000Z</time>
      </trkpt>
      <trkpt lat="45.80179" lon="2.95138">
        <ele>997.1</ele>
        <time>2021-08-28T09:58:13.000Z</time>
      </trkpt>
      <trkpt lat="45.80184" lon="2.95143">
        <ele>996.8</ele>
        <time>2021-08-28T09:58:21.000Z</time>
      </trkpt>
      <trkpt lat="45.80189" lon="2.95152">
        <ele>996.4</ele>
        <time>2021-08-28T09:58:29.000Z</time>
      </trkpt>
      <trkpt lat="45.80192" lon="2.95162">
        <ele>996.2</ele>
        <time>2021-08-28T09:58:36.000Z</time>
      </trkpt>
      <trkpt lat="45.80195" lon="2.9517">
        <ele>996</ele>
        <time>2021-08-28T09:58:43.000Z</time>
      </trkpt>
      <trkpt lat="45.80199" lon="2.95178">
        <ele>995.8</ele>
        <time>2021-08-28T09:58:49.000Z</time>
      </trkpt>
      <trkpt lat="45.802" lon="2.95188">
        <ele>995.8</ele>
        <time>2021-08-28T09:58:58.000Z</time>
      </trkpt>
      <trkpt lat="45.80205" lon="2.95196">
        <ele>995.4</ele>
        <time>2021-08-28T09:59:05.000Z</time>
      </trkpt>
      <trkpt lat="45.80207" lon="2.95206">
        <ele>995.3</ele>
        <time>2021-08-28T09:59:13.000Z</time>
      </trkpt>
      <trkpt lat="45.80209" lon="2.95215">
        <ele>995.2</ele>
        <time>2021-08-28T09:59:19.000Z</time>
      </trkpt>
      <trkpt lat="45.80212" lon="2.95224">
        <ele>995</ele>
        <time>2021-08-28T09:59:27.000Z</time>
      </trkpt>
      <trkpt lat="45.80214" lon="2.95233">
        <ele>994.9</ele>
        <time>2021-08-28T09:59:35.000Z</time>
      </trkpt>
      <trkpt lat="45.80218" lon="2.95242">
        <ele>994.7</ele>
        <time>2021-08-28T09:59:44.000Z</time>
      </trkpt>
      <trkpt lat="45.80221" lon="2.95252">
        <ele>994.5</ele>
        <time>2021-08-28T09:59:52.000Z</time>
      </trkpt>
      <trkpt lat="45.80222" lon="2.95261">
        <ele>994.4</ele>
        <time>2021-08-28T10:00:00.000Z</time>
      </trkpt>
      <trkpt lat="45.80227" lon="2.9528">
        <ele>994.3</ele>
        <time>2021-08-28T10:00:19.000Z</time>
      </trkpt>
      <trkpt lat="45.80229" lon="2.9529">
        <ele>994.2</ele>
        <time>2021-08-28T10:00:28.000Z</time>
      </trkpt>
      <trkpt lat="45.80231" lon="2.953">
        <ele>994.2</ele>
        <time>2021-08-28T10:00:36.000Z</time>
      </trkpt>
      <trkpt lat="45.80236" lon="2.95318">
        <ele>994.3</ele>
        <time>2021-08-28T10:00:54.000Z</time>
      </trkpt>
      <trkpt lat="45.80241" lon="2.95333">
        <ele>994.3</ele>
        <time>2021-08-28T10:01:09.000Z</time>
      </trkpt>
      <trkpt lat="45.80239" lon="2.95343">
        <ele>994.9</ele>
        <time>2021-08-28T10:01:17.000Z</time>
      </trkpt>
      <trkpt lat="45.80238" lon="2.95353">
        <ele>995.5</ele>
        <time>2021-08-28T10:01:24.000Z</time>
      </trkpt>
      <trkpt lat="45.80238" lon="2.95363">
        <ele>996.1</ele>
        <time>2021-08-28T10:01:28.000Z</time>
      </trkpt>
      <trkpt lat="45.80237" lon="2.95373">
        <ele>996.7</ele>
        <time>2021-08-28T10:01:33.000Z</time>
      </trkpt>
      <trkpt lat="45.80237" lon="2.95386">
        <ele>997.4</ele>
        <time>2021-08-28T10:01:39.000Z</time>
      </trkpt>
      <trkpt lat="45.80236" lon="2.95398">
        <ele>998.1</ele>
        <time>2021-08-28T10:01:45.000Z</time>
      </trkpt>
      <trkpt lat="45.80235" lon="2.95409">
        <ele>998.8</ele>
        <time>2021-08-28T10:01:52.000Z</time>
      </trkpt>
      <trkpt lat="45.80234" lon="2.95422">
        <ele>999.7</ele>
        <time>2021-08-28T10:02:02.000Z</time>
      </trkpt>
      <trkpt lat="45.80231" lon="2.95441">
        <ele>1001.6</ele>
        <time>2021-08-28T10:02:15.000Z</time>
      </trkpt>
      <trkpt lat="45.80231" lon="2.95461">
        <ele>1003.5</ele>
        <time>2021-08-28T10:02:35.000Z</time>
      </trkpt>
      <trkpt lat="45.80224" lon="2.9548">
        <ele>1005.4</ele>
        <time>2021-08-28T10:02:52.000Z</time>
      </trkpt>
      <trkpt lat="45.80221" lon="2.9549">
        <ele>1006.4</ele>
        <time>2021-08-28T10:02:57.000Z</time>
      </trkpt>
      <trkpt lat="45.80213" lon="2.9552">
        <ele>1008.8</ele>
        <time>2021-08-28T10:03:03.000Z</time>
      </trkpt>
      <trkpt lat="45.80211" lon="2.9553">
        <ele>1009.5</ele>
        <time>2021-08-28T10:03:28.000Z</time>
      </trkpt>
      <trkpt lat="45.8021" lon="2.9554">
        <ele>1010.1</ele>
        <time>2021-08-28T10:03:42.000Z</time>
      </trkpt>
      <trkpt lat="45.80211" lon="2.9555">
        <ele>1010.8</ele>
        <time>2021-08-28T10:03:51.000Z</time>
      </trkpt>
      <trkpt lat="45.80211" lon="2.9556">
        <ele>1011.5</ele>
        <time>2021-08-28T10:03:58.000Z</time>
      </trkpt>
      <trkpt lat="45.8021" lon="2.95569">
        <ele>1012.1</ele>
        <time>2021-08-28T10:04:06.000Z</time>
      </trkpt>
      <trkpt lat="45.80208" lon="2.95579">
        <ele>1012.7</ele>
        <time>2021-08-28T10:04:15.000Z</time>
      </trkpt>
      <trkpt lat="45.80206" lon="2.95588">
        <ele>1013.1</ele>
        <time>2021-08-28T10:04:26.000Z</time>
      </trkpt>
      <trkpt lat="45.80205" lon="2.95598">
        <ele>1013.5</ele>
        <time>2021-08-28T10:04:33.000Z</time>
      </trkpt>
      <trkpt lat="45.80203" lon="2.95608">
        <ele>1013.9</ele>
        <time>2021-08-28T10:04:41.000Z</time>
      </trkpt>
      <trkpt lat="45.80201" lon="2.95621">
        <ele>1014.4</ele>
        <time>2021-08-28T10:04:53.000Z</time>
      </trkpt>
      <trkpt lat="45.802" lon="2.95631">
        <ele>1014.7</ele>
        <time>2021-08-28T10:05:03.000Z</time>
      </trkpt>
      <trkpt lat="45.80197" lon="2.9564">
        <ele>1015</ele>
        <time>2021-08-28T10:05:12.000Z</time>
      </trkpt>
      <trkpt lat="45.8019" lon="2.95651">
        <ele>1015.2</ele>
        <time>2021-08-28T10:05:22.000Z</time>
      </trkpt>
      <trkpt lat="45.80188" lon="2.95662">
        <ele>1015.6</ele>
        <time>2021-08-28T10:05:29.000Z</time>
      </trkpt>
      <trkpt lat="45.80186" lon="2.95671">
        <ele>1016</ele>
        <time>2021-08-28T10:05:34.000Z</time>
      </trkpt>
      <trkpt lat="45.80185" lon="2.95682">
        <ele>1016.6</ele>
        <time>2021-08-28T10:05:40.000Z</time>
      </trkpt>
      <trkpt lat="45.80184" lon="2.95691">
        <ele>1017.1</ele>
        <time>2021-08-28T10:05:44.000Z</time>
      </trkpt>
      <trkpt lat="45.80181" lon="2.957">
        <ele>1017.5</ele>
        <time>2021-08-28T10:05:50.000Z</time>
      </trkpt>
      <trkpt lat="45.80179" lon="2.95709">
        <ele>1018</ele>
        <time>2021-08-28T10:05:55.000Z</time>
      </trkpt>
      <trkpt lat="45.80177" lon="2.95718">
        <ele>1018.5</ele>
        <time>2021-08-28T10:06:02.000Z</time>
      </trkpt>
      <trkpt lat="45.80175" lon="2.95727">
        <ele>1018.9</ele>
        <time>2021-08-28T10:06:09.000Z</time>
      </trkpt>
      <trkpt lat="45.80174" lon="2.95737">
        <ele>1019.5</ele>
        <time>2021-08-28T10:06:18.000Z</time>
      </trkpt>
      <trkpt lat="45.80171" lon="2.95747">
        <ele>1020</ele>
        <time>2021-08-28T10:06:25.000Z</time>
      </trkpt>
      <trkpt lat="45.80166" lon="2.95753">
        <ele>1020.1</ele>
        <time>2021-08-28T10:06:33.000Z</time>
      </trkpt>
      <trkpt lat="45.8016" lon="2.9576">
        <ele>1020.4</ele>
        <time>2021-08-28T10:06:40.000Z</time>
      </trkpt>
      <trkpt lat="45.80155" lon="2.95766">
        <ele>1020.7</ele>
        <time>2021-08-28T10:06:51.000Z</time>
      </trkpt>
      <trkpt lat="45.8015" lon="2.95773">
        <ele>1021.1</ele>
        <time>2021-08-28T10:06:59.000Z</time>
      </trkpt>
      <trkpt lat="45.80145" lon="2.95785">
        <ele>1021.7</ele>
        <time>2021-08-28T10:07:07.000Z</time>
      </trkpt>
      <trkpt lat="45.80139" lon="2.95791">
        <ele>1022.1</ele>
        <time>2021-08-28T10:07:16.000Z</time>
      </trkpt>
      <trkpt lat="45.80134" lon="2.95798">
        <ele>1022.6</ele>
        <time>2021-08-28T10:07:23.000Z</time>
      </trkpt>
      <trkpt lat="45.80132" lon="2.95807">
        <ele>1023.2</ele>
        <time>2021-08-28T10:07:29.000Z</time>
      </trkpt>
      <trkpt lat="45.80124" lon="2.95816">
        <ele>1023.9</ele>
        <time>2021-08-28T10:07:35.000Z</time>
      </trkpt>
      <trkpt lat="45.80116" lon="2.95827">
        <ele>1024.8</ele>
        <time>2021-08-28T10:07:41.000Z</time>
      </trkpt>
      <trkpt lat="45.80108" lon="2.95835">
        <ele>1025.5</ele>
        <time>2021-08-28T10:07:55.000Z</time>
      </trkpt>
      <trkpt lat="45.80102" lon="2.95833">
        <ele>1025.5</ele>
        <time>2021-08-28T10:08:08.000Z</time>
      </trkpt>
      <trkpt lat="45.80097" lon="2.95826">
        <ele>1025.1</ele>
        <time>2021-08-28T10:08:36.000Z</time>
      </trkpt>
      <trkpt lat="45.80091" lon="2.95822">
        <ele>1024.9</ele>
        <time>2021-08-28T10:08:45.000Z</time>
      </trkpt>
      <trkpt lat="45.80085" lon="2.95822">
        <ele>1025</ele>
        <time>2021-08-28T10:09:02.000Z</time>
      </trkpt>
      <trkpt lat="45.80078" lon="2.95824">
        <ele>1026.2</ele>
        <time>2021-08-28T10:09:13.000Z</time>
      </trkpt>
      <trkpt lat="45.80071" lon="2.95827">
        <ele>1027.7</ele>
        <time>2021-08-28T10:09:25.000Z</time>
      </trkpt>
      <trkpt lat="45.80066" lon="2.95835">
        <ele>1029.2</ele>
        <time>2021-08-28T10:09:34.000Z</time>
      </trkpt>
      <trkpt lat="45.80064" lon="2.95845">
        <ele>1030.1</ele>
        <time>2021-08-28T10:09:40.000Z</time>
      </trkpt>
      <trkpt lat="45.80066" lon="2.95857">
        <ele>1030.4</ele>
        <time>2021-08-28T10:09:45.000Z</time>
      </trkpt>
      <trkpt lat="45.80059" lon="2.95866">
        <ele>1032.3</ele>
        <time>2021-08-28T10:09:53.000Z</time>
      </trkpt>
      <trkpt lat="45.80056" lon="2.95874">
        <ele>1033.4</ele>
        <time>2021-08-28T10:09:58.000Z</time>
      </trkpt>
      <trkpt lat="45.80052" lon="2.95883">
        <ele>1034.7</ele>
        <time>2021-08-28T10:10:03.000Z</time>
      </trkpt>
      <trkpt lat="45.80046" lon="2.9589">
        <ele>1036.4</ele>
        <time>2021-08-28T10:10:09.000Z</time>
      </trkpt>
      <trkpt lat="45.80043" lon="2.959">
        <ele>1037.6</ele>
        <time>2021-08-28T10:10:15.000Z</time>
      </trkpt>
      <trkpt lat="45.80039" lon="2.9591">
        <ele>1039.1</ele>
        <time>2021-08-28T10:10:21.000Z</time>
      </trkpt>
      <trkpt lat="45.80041" lon="2.95919">
        <ele>1039.3</ele>
        <time>2021-08-28T10:10:26.000Z</time>
      </trkpt>
      <trkpt lat="45.80042" lon="2.95932">
        <ele>1039.8</ele>
        <time>2021-08-28T10:10:32.000Z</time>
      </trkpt>
      <trkpt lat="45.80045" lon="2.95953">
        <ele>1040.5</ele>
        <time>2021-08-28T10:10:38.000Z</time>
      </trkpt>
      <trkpt lat="45.80046" lon="2.95968">
        <ele>1041.1</ele>
        <time>2021-08-28T10:10:44.000Z</time>
      </trkpt>
      <trkpt lat="45.80045" lon="2.95977">
        <ele>1041.9</ele>
        <time>2021-08-28T10:10:53.000Z</time>
      </trkpt>
      <trkpt lat="45.80038" lon="2.95981">
        <ele>1043.7</ele>
        <time>2021-08-28T10:10:58.000Z</time>
      </trkpt>
      <trkpt lat="45.80031" lon="2.95986">
        <ele>1045.5</ele>
        <time>2021-08-28T10:11:04.000Z</time>
      </trkpt>
      <trkpt lat="45.80025" lon="2.95989">
        <ele>1046.9</ele>
        <time>2021-08-28T10:11:11.000Z</time>
      </trkpt>
      <trkpt lat="45.80018" lon="2.95992">
        <ele>1048.6</ele>
        <time>2021-08-28T10:11:15.000Z</time>
      </trkpt>
      <trkpt lat="45.80012" lon="2.95995">
        <ele>1050.1</ele>
        <time>2021-08-28T10:11:20.000Z</time>
      </trkpt>
      <trkpt lat="45.80005" lon="2.95999">
        <ele>1051.9</ele>
        <time>2021-08-28T10:11:26.000Z</time>
      </trkpt>
      <trkpt lat="45.79996" lon="2.96003">
        <ele>1054.2</ele>
        <time>2021-08-28T10:11:32.000Z</time>
      </trkpt>
      <trkpt lat="45.79987" lon="2.96009">
        <ele>1056.9</ele>
        <time>2021-08-28T10:11:38.000Z</time>
      </trkpt>
      <trkpt lat="45.79978" lon="2.96016">
        <ele>1059.5</ele>
        <time>2021-08-28T10:11:44.000Z</time>
      </trkpt>
      <trkpt lat="45.79969" lon="2.96023">
        <ele>1062.2</ele>
        <time>2021-08-28T10:11:50.000Z</time>
      </trkpt>
      <trkpt lat="45.7996" lon="2.96028">
        <ele>1064.7</ele>
        <time>2021-08-28T10:11:56.000Z</time>
      </trkpt>
      <trkpt lat="45.79951" lon="2.96033">
        <ele>1067.2</ele>
        <time>2021-08-28T10:12:02.000Z</time>
      </trkpt>
      <trkpt lat="45.79944" lon="2.96037">
        <ele>1069.2</ele>
        <time>2021-08-28T10:12:08.000Z</time>
      </trkpt>
      <trkpt lat="45.79936" lon="2.96044">
        <ele>1071.4</ele>
        <time>2021-08-28T10:12:14.000Z</time>
      </trkpt>
      <trkpt lat="45.7993" lon="2.96052">
        <ele>1073.1</ele>
        <time>2021-08-28T10:12:20.000Z</time>
      </trkpt>
      <trkpt lat="45.79921" lon="2.96058">
        <ele>1075.6</ele>
        <time>2021-08-28T10:12:26.000Z</time>
      </trkpt>
      <trkpt lat="45.79913" lon="2.96063">
        <ele>1077.9</ele>
        <time>2021-08-28T10:12:32.000Z</time>
      </trkpt>
      <trkpt lat="45.79905" lon="2.96069">
        <ele>1080.3</ele>
        <time>2021-08-28T10:12:38.000Z</time>
      </trkpt>
      <trkpt lat="45.79899" lon="2.96077">
        <ele>1082.2</ele>
        <time>2021-08-28T10:12:44.000Z</time>
      </trkpt>
      <trkpt lat="45.79891" lon="2.96081">
        <ele>1084.7</ele>
        <time>2021-08-28T10:12:50.000Z</time>
      </trkpt>
      <trkpt lat="45.79884" lon="2.96089">
        <ele>1086.9</ele>
        <time>2021-08-28T10:12:56.000Z</time>
      </trkpt>
      <trkpt lat="45.79876" lon="2.96098">
        <ele>1089.5</ele>
        <time>2021-08-28T10:13:02.000Z</time>
      </trkpt>
      <trkpt lat="45.79871" lon="2.96105">
        <ele>1091.1</ele>
        <time>2021-08-28T10:13:08.000Z</time>
      </trkpt>
      <trkpt lat="45.79865" lon="2.96112">
        <ele>1092.9</ele>
        <time>2021-08-28T10:13:14.000Z</time>
      </trkpt>
      <trkpt lat="45.79858" lon="2.9612">
        <ele>1095</ele>
        <time>2021-08-28T10:13:20.000Z</time>
      </trkpt>
      <trkpt lat="45.79851" lon="2.96126">
        <ele>1097</ele>
        <time>2021-08-28T10:13:26.000Z</time>
      </trkpt>
      <trkpt lat="45.79844" lon="2.96135">
        <ele>1099</ele>
        <time>2021-08-28T10:13:32.000Z</time>
      </trkpt>
      <trkpt lat="45.79838" lon="2.96141">
        <ele>1100.7</ele>
        <time>2021-08-28T10:13:38.000Z</time>
      </trkpt>
      <trkpt lat="45.79833" lon="2.96147">
        <ele>1102.1</ele>
        <time>2021-08-28T10:13:44.000Z</time>
      </trkpt>
      <trkpt lat="45.79827" lon="2.96155">
        <ele>1103.6</ele>
        <time>2021-08-28T10:13:51.000Z</time>
      </trkpt>
      <trkpt lat="45.79823" lon="2.96162">
        <ele>1104.5</ele>
        <time>2021-08-28T10:13:56.000Z</time>
      </trkpt>
      <trkpt lat="45.79818" lon="2.96168">
        <ele>1105.6</ele>
        <time>2021-08-28T10:14:01.000Z</time>
      </trkpt>
      <trkpt lat="45.79812" lon="2.96177">
        <ele>1106.4</ele>
        <time>2021-08-28T10:14:07.000Z</time>
      </trkpt>
      <trkpt lat="45.79807" lon="2.96184">
        <ele>1107.1</ele>
        <time>2021-08-28T10:14:12.000Z</time>
      </trkpt>
      <trkpt lat="45.79801" lon="2.96195">
        <ele>1107.8</ele>
        <time>2021-08-28T10:14:18.000Z</time>
      </trkpt>
      <trkpt lat="45.79796" lon="2.96205">
        <ele>1108.2</ele>
        <time>2021-08-28T10:14:24.000Z</time>
      </trkpt>
      <trkpt lat="45.79789" lon="2.96215">
        <ele>1109.1</ele>
        <time>2021-08-28T10:14:30.000Z</time>
      </trkpt>
      <trkpt lat="45.79784" lon="2.96226">
        <ele>1109.4</ele>
        <time>2021-08-28T10:14:36.000Z</time>
      </trkpt>
      <trkpt lat="45.79779" lon="2.96234">
        <ele>1109.9</ele>
        <time>2021-08-28T10:14:42.000Z</time>
      </trkpt>
      <trkpt lat="45.79775" lon="2.96244">
        <ele>1110.1</ele>
        <time>2021-08-28T10:14:48.000Z</time>
      </trkpt>
      <trkpt lat="45.79771" lon="2.96254">
        <ele>1109.7</ele>
        <time>2021-08-28T10:14:54.000Z</time>
      </trkpt>
      <trkpt lat="45.79767" lon="2.96264">
        <ele>1108.6</ele>
        <time>2021-08-28T10:15:01.000Z</time>
      </trkpt>
      <trkpt lat="45.79764" lon="2.96273">
        <ele>1107.4</ele>
        <time>2021-08-28T10:15:07.000Z</time>
      </trkpt>
      <trkpt lat="45.79761" lon="2.96281">
        <ele>1106.3</ele>
        <time>2021-08-28T10:15:12.000Z</time>
      </trkpt>
      <trkpt lat="45.79756" lon="2.96288">
        <ele>1105.8</ele>
        <time>2021-08-28T10:15:18.000Z</time>
      </trkpt>
      <trkpt lat="45.7975" lon="2.96296">
        <ele>1105.1</ele>
        <time>2021-08-28T10:15:27.000Z</time>
      </trkpt>
      <trkpt lat="45.79738" lon="2.96307">
        <ele>1104</ele>
        <time>2021-08-28T10:15:35.000Z</time>
      </trkpt>
      <trkpt lat="45.7973" lon="2.96309">
        <ele>1104.4</ele>
        <time>2021-08-28T10:15:39.000Z</time>
      </trkpt>
      <trkpt lat="45.79723" lon="2.9631">
        <ele>1104.9</ele>
        <time>2021-08-28T10:15:43.000Z</time>
      </trkpt>
      <trkpt lat="45.79713" lon="2.9631">
        <ele>1106</ele>
        <time>2021-08-28T10:15:48.000Z</time>
      </trkpt>
      <trkpt lat="45.79703" lon="2.9631">
        <ele>1107.1</ele>
        <time>2021-08-28T10:15:54.000Z</time>
      </trkpt>
      <trkpt lat="45.79697" lon="2.96305">
        <ele>1109.1</ele>
        <time>2021-08-28T10:16:02.000Z</time>
      </trkpt>
      <trkpt lat="45.7969" lon="2.96306">
        <ele>1109.6</ele>
        <time>2021-08-28T10:16:08.000Z</time>
      </trkpt>
      <trkpt lat="45.79683" lon="2.96306">
        <ele>1110.4</ele>
        <time>2021-08-28T10:16:14.000Z</time>
      </trkpt>
      <trkpt lat="45.79675" lon="2.96305">
        <ele>1111.6</ele>
        <time>2021-08-28T10:16:20.000Z</time>
      </trkpt>
      <trkpt lat="45.79672" lon="2.96296">
        <ele>1114.6</ele>
        <time>2021-08-28T10:16:30.000Z</time>
      </trkpt>
      <trkpt lat="45.7967" lon="2.96287">
        <ele>1117.5</ele>
        <time>2021-08-28T10:16:40.000Z</time>
      </trkpt>
      <trkpt lat="45.79666" lon="2.96278">
        <ele>1120.6</ele>
        <time>2021-08-28T10:16:52.000Z</time>
      </trkpt>
      <trkpt lat="45.79669" lon="2.96269">
        <ele>1123</ele>
        <time>2021-08-28T10:17:03.000Z</time>
      </trkpt>
      <trkpt lat="45.7967" lon="2.96259">
        <ele>1125.8</ele>
        <time>2021-08-28T10:17:13.000Z</time>
      </trkpt>
      <trkpt lat="45.79671" lon="2.96249">
        <ele>1128.4</ele>
        <time>2021-08-28T10:17:23.000Z</time>
      </trkpt>
      <trkpt lat="45.79673" lon="2.9624">
        <ele>1129.7</ele>
        <time>2021-08-28T10:17:34.000Z</time>
      </trkpt>
      <trkpt lat="45.79677" lon="2.96229">
        <ele>1130.8</ele>
        <time>2021-08-28T10:17:48.000Z</time>
      </trkpt>
      <trkpt lat="45.79675" lon="2.9622">
        <ele>1132.7</ele>
        <time>2021-08-28T10:18:03.000Z</time>
      </trkpt>
      <trkpt lat="45.79675" lon="2.96208">
        <ele>1134.8</ele>
        <time>2021-08-28T10:18:22.000Z</time>
      </trkpt>
      <trkpt lat="45.79676" lon="2.96198">
        <ele>1136.2</ele>
        <time>2021-08-28T10:18:33.000Z</time>
      </trkpt>
      <trkpt lat="45.79674" lon="2.96189">
        <ele>1138.2</ele>
        <time>2021-08-28T10:18:46.000Z</time>
      </trkpt>
      <trkpt lat="45.79675" lon="2.96172">
        <ele>1140.9</ele>
        <time>2021-08-28T10:19:20.000Z</time>
      </trkpt>
      <trkpt lat="45.79677" lon="2.96163">
        <ele>1141.6</ele>
        <time>2021-08-28T10:19:34.000Z</time>
      </trkpt>
      <trkpt lat="45.79684" lon="2.96157">
        <ele>1140.3</ele>
        <time>2021-08-28T10:19:46.000Z</time>
      </trkpt>
      <trkpt lat="45.79687" lon="2.96148">
        <ele>1140.3</ele>
        <time>2021-08-28T10:19:59.000Z</time>
      </trkpt>
      <trkpt lat="45.79688" lon="2.96138">
        <ele>1140.9</ele>
        <time>2021-08-28T10:20:08.000Z</time>
      </trkpt>
      <trkpt lat="45.79691" lon="2.96128">
        <ele>1140.9</ele>
        <time>2021-08-28T10:20:16.000Z</time>
      </trkpt>
      <trkpt lat="45.79689" lon="2.96119">
        <ele>1142.3</ele>
        <time>2021-08-28T10:20:27.000Z</time>
      </trkpt>
      <trkpt lat="45.79693" lon="2.96109">
        <ele>1142</ele>
        <time>2021-08-28T10:20:38.000Z</time>
      </trkpt>
      <trkpt lat="45.79695" lon="2.961">
        <ele>1142.1</ele>
        <time>2021-08-28T10:20:48.000Z</time>
      </trkpt>
      <trkpt lat="45.79696" lon="2.9609">
        <ele>1142.6</ele>
        <time>2021-08-28T10:21:04.000Z</time>
      </trkpt>
      <trkpt lat="45.79702" lon="2.96079">
        <ele>1141.1</ele>
        <time>2021-08-28T10:21:26.000Z</time>
      </trkpt>
      <trkpt lat="45.79705" lon="2.9607">
        <ele>1140</ele>
        <time>2021-08-28T10:21:36.000Z</time>
      </trkpt>
      <trkpt lat="45.79705" lon="2.96059">
        <ele>1140</ele>
        <time>2021-08-28T10:21:48.000Z</time>
      </trkpt>
      <trkpt lat="45.79707" lon="2.9605">
        <ele>1139.3</ele>
        <time>2021-08-28T10:21:53.000Z</time>
      </trkpt>
      <trkpt lat="45.79708" lon="2.96041">
        <ele>1138.9</ele>
        <time>2021-08-28T10:22:11.000Z</time>
      </trkpt>
      <trkpt lat="45.79713" lon="2.96033">
        <ele>1137.1</ele>
        <time>2021-08-28T10:22:25.000Z</time>
      </trkpt>
      <trkpt lat="45.79717" lon="2.96025">
        <ele>1135.7</ele>
        <time>2021-08-28T10:22:35.000Z</time>
      </trkpt>
      <trkpt lat="45.79722" lon="2.9602">
        <ele>1133.9</ele>
        <time>2021-08-28T10:22:40.000Z</time>
      </trkpt>
      <trkpt lat="45.79726" lon="2.9601">
        <ele>1132.4</ele>
        <time>2021-08-28T10:22:48.000Z</time>
      </trkpt>
      <trkpt lat="45.79728" lon="2.96001">
        <ele>1131.7</ele>
        <time>2021-08-28T10:22:55.000Z</time>
      </trkpt>
      <trkpt lat="45.79734" lon="2.95993">
        <ele>1129</ele>
        <time>2021-08-28T10:23:02.000Z</time>
      </trkpt>
      <trkpt lat="45.79738" lon="2.95985">
        <ele>1127</ele>
        <time>2021-08-28T10:23:10.000Z</time>
      </trkpt>
      <trkpt lat="45.79743" lon="2.95979">
        <ele>1124.9</ele>
        <time>2021-08-28T10:23:21.000Z</time>
      </trkpt>
      <trkpt lat="45.79747" lon="2.95972">
        <ele>1123</ele>
        <time>2021-08-28T10:23:29.000Z</time>
      </trkpt>
      <trkpt lat="45.79754" lon="2.95965">
        <ele>1120.3</ele>
        <time>2021-08-28T10:23:36.000Z</time>
      </trkpt>
      <trkpt lat="45.7976" lon="2.95962">
        <ele>1118.4</ele>
        <time>2021-08-28T10:23:43.000Z</time>
      </trkpt>
      <trkpt lat="45.79766" lon="2.95958">
        <ele>1116.4</ele>
        <time>2021-08-28T10:23:53.000Z</time>
      </trkpt>
      <trkpt lat="45.79773" lon="2.95955">
        <ele>1114.1</ele>
        <time>2021-08-28T10:24:03.000Z</time>
      </trkpt>
      <trkpt lat="45.79782" lon="2.9595">
        <ele>1111.1</ele>
        <time>2021-08-28T10:24:20.000Z</time>
      </trkpt>
      <trkpt lat="45.79788" lon="2.95946">
        <ele>1109</ele>
        <time>2021-08-28T10:24:30.000Z</time>
      </trkpt>
      <trkpt lat="45.79796" lon="2.95945">
        <ele>1106.6</ele>
        <time>2021-08-28T10:24:37.000Z</time>
      </trkpt>
      <trkpt lat="45.79802" lon="2.95942">
        <ele>1104.6</ele>
        <time>2021-08-28T10:24:45.000Z</time>
      </trkpt>
      <trkpt lat="45.79812" lon="2.95937">
        <ele>1101.2</ele>
        <time>2021-08-28T10:25:01.000Z</time>
      </trkpt>
      <trkpt lat="45.79819" lon="2.95933">
        <ele>1098.8</ele>
        <time>2021-08-28T10:25:17.000Z</time>
      </trkpt>
      <trkpt lat="45.79826" lon="2.95931">
        <ele>1096.5</ele>
        <time>2021-08-28T10:25:26.000Z</time>
      </trkpt>
      <trkpt lat="45.79833" lon="2.95929">
        <ele>1094.3</ele>
        <time>2021-08-28T10:25:33.000Z</time>
      </trkpt>
      <trkpt lat="45.79839" lon="2.95926">
        <ele>1092.3</ele>
        <time>2021-08-28T10:25:44.000Z</time>
      </trkpt>
      <trkpt lat="45.79844" lon="2.95921">
        <ele>1090.3</ele>
        <time>2021-08-28T10:25:56.000Z</time>
      </trkpt>
      <trkpt lat="45.79851" lon="2.95918">
        <ele>1088</ele>
        <time>2021-08-28T10:26:04.000Z</time>
      </trkpt>
      <trkpt lat="45.79857" lon="2.95913">
        <ele>1085.9</ele>
        <time>2021-08-28T10:26:19.000Z</time>
      </trkpt>
      <trkpt lat="45.79863" lon="2.95909">
        <ele>1083.8</ele>
        <time>2021-08-28T10:26:32.000Z</time>
      </trkpt>
      <trkpt lat="45.79869" lon="2.95907">
        <ele>1081.9</ele>
        <time>2021-08-28T10:26:42.000Z</time>
      </trkpt>
      <trkpt lat="45.79881" lon="2.95907">
        <ele>1078.4</ele>
        <time>2021-08-28T10:27:04.000Z</time>
      </trkpt>
      <trkpt lat="45.79887" lon="2.95902">
        <ele>1076.2</ele>
        <time>2021-08-28T10:27:27.000Z</time>
      </trkpt>
      <trkpt lat="45.79893" lon="2.95895">
        <ele>1073.8</ele>
        <time>2021-08-28T10:27:46.000Z</time>
      </trkpt>
      <trkpt lat="45.79898" lon="2.95889">
        <ele>1071.8</ele>
        <time>2021-08-28T10:27:58.000Z</time>
      </trkpt>
      <trkpt lat="45.79902" lon="2.95882">
        <ele>1070</ele>
        <time>2021-08-28T10:28:11.000Z</time>
      </trkpt>
      <trkpt lat="45.79908" lon="2.95876">
        <ele>1067.6</ele>
        <time>2021-08-28T10:28:22.000Z</time>
      </trkpt>
      <trkpt lat="45.79912" lon="2.95868">
        <ele>1065.7</ele>
        <time>2021-08-28T10:28:31.000Z</time>
      </trkpt>
      <trkpt lat="45.79918" lon="2.95863">
        <ele>1063.5</ele>
        <time>2021-08-28T10:28:42.000Z</time>
      </trkpt>
      <trkpt lat="45.79924" lon="2.95858">
        <ele>1061.6</ele>
        <time>2021-08-28T10:28:51.000Z</time>
      </trkpt>
      <trkpt lat="45.7993" lon="2.95854">
        <ele>1059.7</ele>
        <time>2021-08-28T10:29:01.000Z</time>
      </trkpt>
      <trkpt lat="45.79936" lon="2.95852">
        <ele>1058.1</ele>
        <time>2021-08-28T10:29:09.000Z</time>
      </trkpt>
      <trkpt lat="45.7995" lon="2.95851">
        <ele>1054.6</ele>
        <time>2021-08-28T10:29:28.000Z</time>
      </trkpt>
      <trkpt lat="45.79958" lon="2.95842">
        <ele>1051.9</ele>
        <time>2021-08-28T10:29:55.000Z</time>
      </trkpt>
      <trkpt lat="45.79966" lon="2.9584">
        <ele>1049.8</ele>
        <time>2021-08-28T10:30:18.000Z</time>
      </trkpt>
      <trkpt lat="45.79972" lon="2.95847">
        <ele>1048.9</ele>
        <time>2021-08-28T10:30:29.000Z</time>
      </trkpt>
      <trkpt lat="45.79978" lon="2.95856">
        <ele>1048.3</ele>
        <time>2021-08-28T10:30:57.000Z</time>
      </trkpt>
      <trkpt lat="45.79984" lon="2.95861">
        <ele>1047.2</ele>
        <time>2021-08-28T10:32:05.000Z</time>
      </trkpt>
      <trkpt lat="45.7992" lon="2.95825">
        <ele>1059.3</ele>
      </trkpt>
      <trkpt lat="45.79909" lon="2.95797">
        <ele>1059.3</ele>
      </trkpt>
      <trkpt lat="45.79891" lon="2.95818">
        <ele>1067</ele>
      </trkpt>
      <trkpt lat="45.79881" lon="2.95787">
        <ele>1066.5</ele>
      </trkpt>
      <trkpt lat="45.79878" lon="2.95757">
        <ele>1063.9</ele>
      </trkpt>
      <trkpt lat="45.79857" lon="2.95787">
        <ele>1073.5</ele>
      </trkpt>
      <trkpt lat="45.79849" lon="2.95754">
        <ele>1072</ele>
      </trkpt>
      <trkpt lat="45.7983" lon="2.95789">
        <ele>1081.5</ele>
      </trkpt>
      <trkpt lat="45.79818" lon="2.95794">
        <ele>1085</ele>
      </trkpt>
      <trkpt lat="45.79828" lon="2.95816">
        <ele>1085.3</ele>
      </trkpt>
      <trkpt lat="45.7981" lon="2.95808">
        <ele>1088.8</ele>
      </trkpt>
      <trkpt lat="45.79788" lon="2.9583">
        <ele>1097.5</ele>
      </trkpt>
      <trkpt lat="45.79778" lon="2.95864">
        <ele>1103.9</ele>
      </trkpt>
      <trkpt lat="45.79783" lon="2.95897">
        <ele>1106</ele>
      </trkpt>
      <trkpt lat="45.79767" lon="2.95884">
        <ele>1109.2</ele>
      </trkpt>
      <trkpt lat="45.7975" lon="2.95873">
        <ele>1112.8</ele>
      </trkpt>
      <trkpt lat="45.79726" lon="2.95878">
        <ele>1120.6</ele>
      </trkpt>
      <trkpt lat="45.79708" lon="2.95906">
        <ele>1130.1</ele>
      </trkpt>
      <trkpt lat="45.79684" lon="2.95873">
        <ele>1132.5</ele>
      </trkpt>
      <trkpt lat="45.7966" lon="2.95884">
        <ele>1142.1</ele>
      </trkpt>
      <trkpt lat="45.79636" lon="2.9591">
        <ele>1156.8</ele>
      </trkpt>
      <trkpt lat="45.79609" lon="2.9593">
        <ele>1171</ele>
      </trkpt>
      <trkpt lat="45.7959" lon="2.95917">
        <ele>1178.1</ele>
        <time>2021-08-28T10:33:01.000Z</time>
      </trkpt>
      <trkpt lat="45.79563" lon="2.95911">
        <ele>1178.9</ele>
      </trkpt>
      <trkpt lat="45.79545" lon="2.95899">
        <ele>1175</ele>
      </trkpt>
      <trkpt lat="45.79537" lon="2.95911">
        <ele>1178.3</ele>
        <time>2021-08-28T10:33:07.000Z</time>
      </trkpt>
      <trkpt lat="45.79516" lon="2.95901">
        <ele>1174.9</ele>
      </trkpt>
      <trkpt lat="45.79497" lon="2.95895">
        <ele>1171.6</ele>
      </trkpt>
      <trkpt lat="45.79483" lon="2.95861">
        <ele>1157.3</ele>
      </trkpt>
      <trkpt lat="45.79465" lon="2.95903">
        <ele>1160.8</ele>
        <time>2021-08-28T10:33:13.000Z</time>
      </trkpt>
      <trkpt lat="45.79454" lon="2.95862">
        <ele>1147.7</ele>
      </trkpt>
      <trkpt lat="45.7944" lon="2.95895">
        <ele>1149.1</ele>
      </trkpt>
      <trkpt lat="45.7943" lon="2.95871">
        <ele>1141.1</ele>
      </trkpt>
      <trkpt lat="45.79393" lon="2.95887">
        <ele>1134.8</ele>
        <time>2021-08-28T10:33:19.000Z</time>
      </trkpt>
      <trkpt lat="45.794" lon="2.95883">
        <ele>1135.6</ele>
        <time>2021-08-28T10:33:51.000Z</time>
      </trkpt>
      <trkpt lat="45.79406" lon="2.95883">
        <ele>1136.5</ele>
        <time>2021-08-28T10:34:11.000Z</time>
      </trkpt>
      <trkpt lat="45.79406" lon="2.95892">
        <ele>1137.5</ele>
        <time>2021-08-28T10:35:24.000Z</time>
      </trkpt>
      <trkpt lat="45.79401" lon="2.95901">
        <ele>1137.5</ele>
        <time>2021-08-28T10:35:33.000Z</time>
      </trkpt>
      <trkpt lat="45.79398" lon="2.95909">
        <ele>1137.6</ele>
        <time>2021-08-28T10:35:41.000Z</time>
      </trkpt>
      <trkpt lat="45.79408" lon="2.95912">
        <ele>1140.3</ele>
        <time>2021-08-28T10:36:11.000Z</time>
      </trkpt>
      <trkpt lat="45.79417" lon="2.95916">
        <ele>1143</ele>
        <time>2021-08-28T10:36:17.000Z</time>
      </trkpt>
      <trkpt lat="45.7941" lon="2.95923">
        <ele>1141.6</ele>
        <time>2021-08-28T10:36:28.000Z</time>
      </trkpt>
      <trkpt lat="45.79402" lon="2.95922">
        <ele>1139.5</ele>
        <time>2021-08-28T10:36:31.000Z</time>
      </trkpt>
      <trkpt lat="45.79395" lon="2.95925">
        <ele>1137.8</ele>
        <time>2021-08-28T10:36:36.000Z</time>
      </trkpt>
      <trkpt lat="45.79392" lon="2.95934">
        <ele>1137.3</ele>
        <time>2021-08-28T10:36:54.000Z</time>
      </trkpt>
      <trkpt lat="45.79392" lon="2.95944">
        <ele>1137.6</ele>
        <time>2021-08-28T10:37:02.000Z</time>
      </trkpt>
      <trkpt lat="45.79394" lon="2.95953">
        <ele>1138.4</ele>
        <time>2021-08-28T10:37:17.000Z</time>
      </trkpt>
      <trkpt lat="45.79396" lon="2.95963">
        <ele>1139.3</ele>
        <time>2021-08-28T10:37:31.000Z</time>
      </trkpt>
      <trkpt lat="45.79398" lon="2.95973">
        <ele>1140.3</ele>
        <time>2021-08-28T10:37:48.000Z</time>
      </trkpt>
      <trkpt lat="45.79395" lon="2.95982">
        <ele>1139.6</ele>
        <time>2021-08-28T10:37:59.000Z</time>
      </trkpt>
      <trkpt lat="45.79393" lon="2.95991">
        <ele>1139.2</ele>
        <time>2021-08-28T10:38:08.000Z</time>
      </trkpt>
      <trkpt lat="45.79397" lon="2.96">
        <ele>1140.9</ele>
        <time>2021-08-28T10:38:16.000Z</time>
      </trkpt>
      <trkpt lat="45.794" lon="2.96008">
        <ele>1141.6</ele>
        <time>2021-08-28T10:38:27.000Z</time>
      </trkpt>
      <trkpt lat="45.79405" lon="2.96015">
        <ele>1143.1</ele>
        <time>2021-08-28T10:38:38.000Z</time>
      </trkpt>
      <trkpt lat="45.79404" lon="2.96024">
        <ele>1142.3</ele>
        <time>2021-08-28T10:39:34.000Z</time>
      </trkpt>
      <trkpt lat="45.794" lon="2.96015">
        <ele>1141.3</ele>
        <time>2021-08-28T10:39:43.000Z</time>
      </trkpt>
      <trkpt lat="45.79396" lon="2.96007">
        <ele>1140.2</ele>
        <time>2021-08-28T10:39:48.000Z</time>
      </trkpt>
      <trkpt lat="45.79393" lon="2.95997">
        <ele>1139.4</ele>
        <time>2021-08-28T10:39:54.000Z</time>
      </trkpt>
      <trkpt lat="45.79394" lon="2.95986">
        <ele>1139.4</ele>
        <time>2021-08-28T10:40:26.000Z</time>
      </trkpt>
      <trkpt lat="45.79397" lon="2.95977">
        <ele>1140.1</ele>
        <time>2021-08-28T10:40:35.000Z</time>
      </trkpt>
      <trkpt lat="45.79398" lon="2.95967">
        <ele>1140.1</ele>
        <time>2021-08-28T10:40:46.000Z</time>
      </trkpt>
      <trkpt lat="45.79396" lon="2.95957">
        <ele>1139.1</ele>
        <time>2021-08-28T10:40:59.000Z</time>
      </trkpt>
      <trkpt lat="45.79393" lon="2.95948">
        <ele>1138</ele>
        <time>2021-08-28T10:41:07.000Z</time>
      </trkpt>
      <trkpt lat="45.79391" lon="2.95939">
        <ele>1137.1</ele>
        <time>2021-08-28T10:41:16.000Z</time>
      </trkpt>
      <trkpt lat="45.79396" lon="2.95933">
        <ele>1138.3</ele>
        <time>2021-08-28T10:41:25.000Z</time>
      </trkpt>
      <trkpt lat="45.794" lon="2.95925">
        <ele>1139.1</ele>
        <time>2021-08-28T10:41:38.000Z</time>
      </trkpt>
      <trkpt lat="45.79406" lon="2.95929">
        <ele>1140.9</ele>
        <time>2021-08-28T10:42:01.000Z</time>
      </trkpt>
      <trkpt lat="45.79405" lon="2.95907">
        <ele>1139</ele>
        <time>2021-08-28T10:42:15.000Z</time>
      </trkpt>
      <trkpt lat="45.79397" lon="2.95915">
        <ele>1137.9</ele>
        <time>2021-08-28T10:42:21.000Z</time>
      </trkpt>
      <trkpt lat="45.79402" lon="2.95927">
        <ele>1139.7</ele>
        <time>2021-08-28T10:42:27.000Z</time>
      </trkpt>
      <trkpt lat="45.79395" lon="2.95928">
        <ele>1137.9</ele>
        <time>2021-08-28T10:42:39.000Z</time>
      </trkpt>
      <trkpt lat="45.79392" lon="2.95919">
        <ele>1136.8</ele>
        <time>2021-08-28T10:42:54.000Z</time>
      </trkpt>
      <trkpt lat="45.79395" lon="2.9591">
        <ele>1137</ele>
        <time>2021-08-28T10:43:02.000Z</time>
      </trkpt>
      <trkpt lat="45.79402" lon="2.95907">
        <ele>1138.3</ele>
        <time>2021-08-28T10:43:12.000Z</time>
      </trkpt>
      <trkpt lat="45.79402" lon="2.95898">
        <ele>1137.4</ele>
        <time>2021-08-28T10:43:19.000Z</time>
      </trkpt>
      <trkpt lat="45.79399" lon="2.95888">
        <ele>1135.9</ele>
        <time>2021-08-28T10:43:43.000Z</time>
      </trkpt>
      <trkpt lat="45.79392" lon="2.95885">
        <ele>1134.5</ele>
        <time>2021-08-28T10:43:59.000Z</time>
      </trkpt>
      <trkpt lat="45.79391" lon="2.95875">
        <ele>1133.6</ele>
        <time>2021-08-28T10:44:12.000Z</time>
      </trkpt>
      <trkpt lat="45.79394" lon="2.95866">
        <ele>1133.3</ele>
        <time>2021-08-28T10:44:40.000Z</time>
      </trkpt>
      <trkpt lat="45.79389" lon="2.95858">
        <ele>1132.3</ele>
        <time>2021-08-28T10:44:48.000Z</time>
      </trkpt>
      <trkpt lat="45.7939" lon="2.95848">
        <ele>1131.7</ele>
        <time>2021-08-28T10:44:57.000Z</time>
      </trkpt>
      <trkpt lat="45.79392" lon="2.9584">
        <ele>1131.2</ele>
        <time>2021-08-28T10:45:23.000Z</time>
      </trkpt>
      <trkpt lat="45.79397" lon="2.95832">
        <ele>1130.7</ele>
        <time>2021-08-28T10:45:30.000Z</time>
      </trkpt>
      <trkpt lat="45.7939" lon="2.95829">
        <ele>1130.5</ele>
        <time>2021-08-28T10:46:48.000Z</time>
      </trkpt>
      <trkpt lat="45.79383" lon="2.95833">
        <ele>1130.6</ele>
        <time>2021-08-28T10:46:56.000Z</time>
      </trkpt>
      <trkpt lat="45.79378" lon="2.95839">
        <ele>1130.7</ele>
        <time>2021-08-28T10:47:04.000Z</time>
      </trkpt>
      <trkpt lat="45.79372" lon="2.95846">
        <ele>1130.7</ele>
        <time>2021-08-28T10:47:11.000Z</time>
      </trkpt>
      <trkpt lat="45.79367" lon="2.95852">
        <ele>1130.4</ele>
        <time>2021-08-28T10:47:19.000Z</time>
      </trkpt>
      <trkpt lat="45.79363" lon="2.9586">
        <ele>1130.1</ele>
        <time>2021-08-28T10:47:28.000Z</time>
      </trkpt>
      <trkpt lat="45.79362" lon="2.95869">
        <ele>1129.9</ele>
        <time>2021-08-28T10:47:37.000Z</time>
      </trkpt>
      <trkpt lat="45.79358" lon="2.95878">
        <ele>1129.2</ele>
        <time>2021-08-28T10:47:44.000Z</time>
      </trkpt>
      <trkpt lat="45.79353" lon="2.95886">
        <ele>1128.2</ele>
        <time>2021-08-28T10:47:52.000Z</time>
      </trkpt>
      <trkpt lat="45.79348" lon="2.95893">
        <ele>1127</ele>
        <time>2021-08-28T10:47:58.000Z</time>
      </trkpt>
      <trkpt lat="45.79343" lon="2.95899">
        <ele>1125.6</ele>
        <time>2021-08-28T10:48:06.000Z</time>
      </trkpt>
      <trkpt lat="45.79339" lon="2.95906">
        <ele>1124.3</ele>
        <time>2021-08-28T10:48:17.000Z</time>
      </trkpt>
      <trkpt lat="45.79335" lon="2.95914">
        <ele>1122.7</ele>
        <time>2021-08-28T10:48:23.000Z</time>
      </trkpt>
      <trkpt lat="45.79329" lon="2.95919">
        <ele>1123.3</ele>
        <time>2021-08-28T10:48:30.000Z</time>
      </trkpt>
      <trkpt lat="45.79322" lon="2.95923">
        <ele>1125.4</ele>
        <time>2021-08-28T10:48:40.000Z</time>
      </trkpt>
      <trkpt lat="45.79317" lon="2.95928">
        <ele>1126.8</ele>
        <time>2021-08-28T10:48:54.000Z</time>
      </trkpt>
      <trkpt lat="45.79312" lon="2.95936">
        <ele>1127.8</ele>
        <time>2021-08-28T10:49:05.000Z</time>
      </trkpt>
      <trkpt lat="45.79306" lon="2.95942">
        <ele>1129.3</ele>
        <time>2021-08-28T10:49:12.000Z</time>
      </trkpt>
      <trkpt lat="45.79302" lon="2.95949">
        <ele>1130</ele>
        <time>2021-08-28T10:49:22.000Z</time>
      </trkpt>
      <trkpt lat="45.79296" lon="2.95953">
        <ele>1131.4</ele>
        <time>2021-08-28T10:49:33.000Z</time>
      </trkpt>
      <trkpt lat="45.79289" lon="2.95957">
        <ele>1133.2</ele>
        <time>2021-08-28T10:49:40.000Z</time>
      </trkpt>
      <trkpt lat="45.79284" lon="2.95964">
        <ele>1134</ele>
        <time>2021-08-28T10:49:48.000Z</time>
      </trkpt>
      <trkpt lat="45.79278" lon="2.9597">
        <ele>1135.1</ele>
        <time>2021-08-28T10:49:58.000Z</time>
      </trkpt>
      <trkpt lat="45.79274" lon="2.95978">
        <ele>1135.3</ele>
        <time>2021-08-28T10:50:07.000Z</time>
      </trkpt>
      <trkpt lat="45.79268" lon="2.95983">
        <ele>1136.4</ele>
        <time>2021-08-28T10:50:12.000Z</time>
      </trkpt>
      <trkpt lat="45.79262" lon="2.95988">
        <ele>1137.4</ele>
        <time>2021-08-28T10:50:18.000Z</time>
      </trkpt>
      <trkpt lat="45.79256" lon="2.95993">
        <ele>1138.4</ele>
        <time>2021-08-28T10:50:36.000Z</time>
      </trkpt>
      <trkpt lat="45.79249" lon="2.95995">
        <ele>1139.9</ele>
        <time>2021-08-28T10:51:24.000Z</time>
      </trkpt>
      <trkpt lat="45.79245" lon="2.96005">
        <ele>1140</ele>
        <time>2021-08-28T10:51:29.000Z</time>
      </trkpt>
      <trkpt lat="45.7924" lon="2.96013">
        <ele>1141</ele>
        <time>2021-08-28T10:51:33.000Z</time>
      </trkpt>
      <trkpt lat="45.79234" lon="2.96019">
        <ele>1142.4</ele>
        <time>2021-08-28T10:51:40.000Z</time>
      </trkpt>
      <trkpt lat="45.79227" lon="2.96016">
        <ele>1144.5</ele>
        <time>2021-08-28T10:51:48.000Z</time>
      </trkpt>
      <trkpt lat="45.79221" lon="2.96011">
        <ele>1146.2</ele>
        <time>2021-08-28T10:52:33.000Z</time>
      </trkpt>
      <trkpt lat="45.79215" lon="2.96008">
        <ele>1147.8</ele>
        <time>2021-08-28T10:52:40.000Z</time>
      </trkpt>
      <trkpt lat="45.79208" lon="2.96007">
        <ele>1149.7</ele>
        <time>2021-08-28T10:52:47.000Z</time>
      </trkpt>
      <trkpt lat="45.79202" lon="2.96006">
        <ele>1151.2</ele>
        <time>2021-08-28T10:53:03.000Z</time>
      </trkpt>
      <trkpt lat="45.79195" lon="2.96001">
        <ele>1152.9</ele>
        <time>2021-08-28T10:53:44.000Z</time>
      </trkpt>
      <trkpt lat="45.7919" lon="2.95991">
        <ele>1154.7</ele>
        <time>2021-08-28T10:54:28.000Z</time>
      </trkpt>
      <trkpt lat="45.79186" lon="2.95983">
        <ele>1156.1</ele>
        <time>2021-08-28T10:54:56.000Z</time>
      </trkpt>
      <trkpt lat="45.7918" lon="2.95976">
        <ele>1157.9</ele>
        <time>2021-08-28T10:55:13.000Z</time>
      </trkpt>
      <trkpt lat="45.79175" lon="2.9597">
        <ele>1159.3</ele>
        <time>2021-08-28T10:55:24.000Z</time>
      </trkpt>
      <trkpt lat="45.79166" lon="2.95963">
        <ele>1161.4</ele>
        <time>2021-08-28T10:55:53.000Z</time>
      </trkpt>
      <trkpt lat="45.79161" lon="2.95957">
        <ele>1162.4</ele>
        <time>2021-08-28T10:56:12.000Z</time>
      </trkpt>
      <trkpt lat="45.79156" lon="2.95951">
        <ele>1163.2</ele>
        <time>2021-08-28T10:56:33.000Z</time>
      </trkpt>
      <trkpt lat="45.79149" lon="2.95948">
        <ele>1164.1</ele>
        <time>2021-08-28T10:56:42.000Z</time>
      </trkpt>
      <trkpt lat="45.79142" lon="2.95947">
        <ele>1165</ele>
        <time>2021-08-28T10:56:51.000Z</time>
      </trkpt>
      <trkpt lat="45.7914" lon="2.95939">
        <ele>1165.1</ele>
        <time>2021-08-28T10:57:01.000Z</time>
      </trkpt>
      <trkpt lat="45.79134" lon="2.95939">
        <ele>1165.7</ele>
        <time>2021-08-28T10:57:17.000Z</time>
      </trkpt>
      <trkpt lat="45.79127" lon="2.95939">
        <ele>1166.5</ele>
        <time>2021-08-28T10:57:22.000Z</time>
      </trkpt>
      <trkpt lat="45.79124" lon="2.95924">
        <ele>1166</ele>
        <time>2021-08-28T10:58:27.000Z</time>
      </trkpt>
      <trkpt lat="45.79117" lon="2.95922">
        <ele>1166.4</ele>
        <time>2021-08-28T10:58:44.000Z</time>
      </trkpt>
      <trkpt lat="45.7911" lon="2.95922">
        <ele>1166.9</ele>
        <time>2021-08-28T10:58:51.000Z</time>
      </trkpt>
      <trkpt lat="45.79104" lon="2.95925">
        <ele>1167.6</ele>
        <time>2021-08-28T10:59:03.000Z</time>
      </trkpt>
      <trkpt lat="45.79098" lon="2.95919">
        <ele>1167.4</ele>
        <time>2021-08-28T10:59:16.000Z</time>
      </trkpt>
      <trkpt lat="45.79091" lon="2.9592">
        <ele>1168</ele>
        <time>2021-08-28T10:59:23.000Z</time>
      </trkpt>
      <trkpt lat="45.79083" lon="2.95919">
        <ele>1168.3</ele>
        <time>2021-08-28T10:59:30.000Z</time>
      </trkpt>
      <trkpt lat="45.79076" lon="2.95918">
        <ele>1168.4</ele>
        <time>2021-08-28T10:59:35.000Z</time>
      </trkpt>
      <trkpt lat="45.79071" lon="2.95912">
        <ele>1168.5</ele>
        <time>2021-08-28T10:59:41.000Z</time>
      </trkpt>
      <trkpt lat="45.79064" lon="2.95907">
        <ele>1168.7</ele>
        <time>2021-08-28T10:59:47.000Z</time>
      </trkpt>
      <trkpt lat="45.79058" lon="2.95904">
        <ele>1168.8</ele>
        <time>2021-08-28T10:59:53.000Z</time>
      </trkpt>
      <trkpt lat="45.79051" lon="2.95903">
        <ele>1168.8</ele>
        <time>2021-08-28T11:00:00.000Z</time>
      </trkpt>
      <trkpt lat="45.79045" lon="2.95898">
        <ele>1168.8</ele>
        <time>2021-08-28T11:00:09.000Z</time>
      </trkpt>
      <trkpt lat="45.79039" lon="2.95893">
        <ele>1168.7</ele>
        <time>2021-08-28T11:00:17.000Z</time>
      </trkpt>
      <trkpt lat="45.79032" lon="2.95889">
        <ele>1168.4</ele>
        <time>2021-08-28T11:00:27.000Z</time>
      </trkpt>
      <trkpt lat="45.79026" lon="2.95886">
        <ele>1168.2</ele>
        <time>2021-08-28T11:00:50.000Z</time>
      </trkpt>
      <trkpt lat="45.7902" lon="2.95881">
        <ele>1167.8</ele>
        <time>2021-08-28T11:00:58.000Z</time>
      </trkpt>
      <trkpt lat="45.79019" lon="2.95871">
        <ele>1167.2</ele>
        <time>2021-08-28T11:01:08.000Z</time>
      </trkpt>
      <trkpt lat="45.7901" lon="2.95858">
        <ele>1165.8</ele>
        <time>2021-08-28T11:01:31.000Z</time>
      </trkpt>
      <trkpt lat="45.79003" lon="2.95863">
        <ele>1165.7</ele>
        <time>2021-08-28T11:02:03.000Z</time>
      </trkpt>
      <trkpt lat="45.78997" lon="2.95868">
        <ele>1165.2</ele>
        <time>2021-08-28T11:02:09.000Z</time>
      </trkpt>
      <trkpt lat="45.7899" lon="2.95869">
        <ele>1163.5</ele>
        <time>2021-08-28T11:02:16.000Z</time>
      </trkpt>
      <trkpt lat="45.78983" lon="2.95865">
        <ele>1161.5</ele>
        <time>2021-08-28T11:02:23.000Z</time>
      </trkpt>
      <trkpt lat="45.78976" lon="2.95862">
        <ele>1159.5</ele>
        <time>2021-08-28T11:02:30.000Z</time>
      </trkpt>
      <trkpt lat="45.78969" lon="2.95863">
        <ele>1157.9</ele>
        <time>2021-08-28T11:02:34.000Z</time>
      </trkpt>
      <trkpt lat="45.78962" lon="2.95863">
        <ele>1156.2</ele>
        <time>2021-08-28T11:02:42.000Z</time>
      </trkpt>
      <trkpt lat="45.78955" lon="2.95857">
        <ele>1154.1</ele>
        <time>2021-08-28T11:02:59.000Z</time>
      </trkpt>
      <trkpt lat="45.78948" lon="2.95857">
        <ele>1152.4</ele>
        <time>2021-08-28T11:03:28.000Z</time>
      </trkpt>
      <trkpt lat="45.7894" lon="2.95856">
        <ele>1150.4</ele>
        <time>2021-08-28T11:03:34.000Z</time>
      </trkpt>
      <trkpt lat="45.78934" lon="2.95855">
        <ele>1148.9</ele>
        <time>2021-08-28T11:03:39.000Z</time>
      </trkpt>
      <trkpt lat="45.78925" lon="2.95851">
        <ele>1146.6</ele>
        <time>2021-08-28T11:03:45.000Z</time>
      </trkpt>
      <trkpt lat="45.78918" lon="2.95848">
        <ele>1144.8</ele>
        <time>2021-08-28T11:03:51.000Z</time>
      </trkpt>
      <trkpt lat="45.78911" lon="2.95846">
        <ele>1142.3</ele>
        <time>2021-08-28T11:03:57.000Z</time>
      </trkpt>
      <trkpt lat="45.78904" lon="2.95848">
        <ele>1139.6</ele>
        <time>2021-08-28T11:04:05.000Z</time>
      </trkpt>
      <trkpt lat="45.78898" lon="2.95846">
        <ele>1137.2</ele>
        <time>2021-08-28T11:04:43.000Z</time>
      </trkpt>
      <trkpt lat="45.78891" lon="2.95846">
        <ele>1134.5</ele>
        <time>2021-08-28T11:04:49.000Z</time>
      </trkpt>
      <trkpt lat="45.78885" lon="2.95849">
        <ele>1132.3</ele>
        <time>2021-08-28T11:04:55.000Z</time>
      </trkpt>
      <trkpt lat="45.78879" lon="2.95854">
        <ele>1130.1</ele>
        <time>2021-08-28T11:05:01.000Z</time>
      </trkpt>
      <trkpt lat="45.78873" lon="2.95861">
        <ele>1127.9</ele>
        <time>2021-08-28T11:05:07.000Z</time>
      </trkpt>
      <trkpt lat="45.78867" lon="2.95868">
        <ele>1125.7</ele>
        <time>2021-08-28T11:05:13.000Z</time>
      </trkpt>
      <trkpt lat="45.78862" lon="2.95875">
        <ele>1123.9</ele>
        <time>2021-08-28T11:05:19.000Z</time>
      </trkpt>
      <trkpt lat="45.78856" lon="2.9588">
        <ele>1121.6</ele>
        <time>2021-08-28T11:05:25.000Z</time>
      </trkpt>
      <trkpt lat="45.78851" lon="2.95887">
        <ele>1119.7</ele>
        <time>2021-08-28T11:05:30.000Z</time>
      </trkpt>
      <trkpt lat="45.78847" lon="2.95895">
        <ele>1118.2</ele>
        <time>2021-08-28T11:05:35.000Z</time>
      </trkpt>
      <trkpt lat="45.78842" lon="2.95904">
        <ele>1116.4</ele>
        <time>2021-08-28T11:05:41.000Z</time>
      </trkpt>
      <trkpt lat="45.78837" lon="2.95911">
        <ele>1114.4</ele>
        <time>2021-08-28T11:05:47.000Z</time>
      </trkpt>
      <trkpt lat="45.78833" lon="2.9592">
        <ele>1113</ele>
        <time>2021-08-28T11:05:52.000Z</time>
      </trkpt>
      <trkpt lat="45.78829" lon="2.95928">
        <ele>1112.1</ele>
        <time>2021-08-28T11:05:58.000Z</time>
      </trkpt>
      <trkpt lat="45.78825" lon="2.95936">
        <ele>1111.2</ele>
        <time>2021-08-28T11:06:04.000Z</time>
      </trkpt>
      <trkpt lat="45.78822" lon="2.95944">
        <ele>1110.5</ele>
        <time>2021-08-28T11:06:11.000Z</time>
      </trkpt>
      <trkpt lat="45.78828" lon="2.95948">
        <ele>1112.5</ele>
        <time>2021-08-28T11:07:02.000Z</time>
      </trkpt>
      <trkpt lat="45.78832" lon="2.95956">
        <ele>1114</ele>
        <time>2021-08-28T11:07:48.000Z</time>
      </trkpt>
      <trkpt lat="45.78836" lon="2.95964">
        <ele>1115.9</ele>
        <time>2021-08-28T11:07:58.000Z</time>
      </trkpt>
      <trkpt lat="45.78841" lon="2.95971">
        <ele>1118.4</ele>
        <time>2021-08-28T11:08:49.000Z</time>
      </trkpt>
      <trkpt lat="45.78848" lon="2.95975">
        <ele>1121.7</ele>
        <time>2021-08-28T11:08:54.000Z</time>
      </trkpt>
      <trkpt lat="45.78854" lon="2.95969">
        <ele>1124.1</ele>
        <time>2021-08-28T11:09:09.000Z</time>
      </trkpt>
      <trkpt lat="45.78852" lon="2.95979">
        <ele>1123.7</ele>
        <time>2021-08-28T11:09:26.000Z</time>
      </trkpt>
      <trkpt lat="45.78845" lon="2.95982">
        <ele>1120.7</ele>
        <time>2021-08-28T11:09:30.000Z</time>
      </trkpt>
      <trkpt lat="45.78831" lon="2.95975">
        <ele>1114.4</ele>
        <time>2021-08-28T11:09:34.000Z</time>
      </trkpt>
      <trkpt lat="45.7883" lon="2.95965">
        <ele>1113.7</ele>
        <time>2021-08-28T11:09:40.000Z</time>
      </trkpt>
      <trkpt lat="45.78833" lon="2.95956">
        <ele>1114.3</ele>
        <time>2021-08-28T11:10:41.000Z</time>
      </trkpt>
      <trkpt lat="45.78834" lon="2.95946">
        <ele>1114.3</ele>
        <time>2021-08-28T11:10:52.000Z</time>
      </trkpt>
      <trkpt lat="45.78828" lon="2.95951">
        <ele>1112.6</ele>
        <time>2021-08-28T11:11:27.000Z</time>
      </trkpt>
      <trkpt lat="45.78822" lon="2.95955">
        <ele>1110.9</ele>
        <time>2021-08-28T11:11:36.000Z</time>
      </trkpt>
      <trkpt lat="45.78818" lon="2.95962">
        <ele>1109.9</ele>
        <time>2021-08-28T11:11:43.000Z</time>
      </trkpt>
      <trkpt lat="45.78815" lon="2.95971">
        <ele>1109.3</ele>
        <time>2021-08-28T11:11:49.000Z</time>
      </trkpt>
      <trkpt lat="45.78812" lon="2.95981">
        <ele>1108.7</ele>
        <time>2021-08-28T11:11:59.000Z</time>
      </trkpt>
      <trkpt lat="45.78808" lon="2.95989">
        <ele>1107.7</ele>
        <time>2021-08-28T11:12:12.000Z</time>
      </trkpt>
      <trkpt lat="45.78811" lon="2.95998">
        <ele>1109</ele>
        <time>2021-08-28T11:13:23.000Z</time>
      </trkpt>
      <trkpt lat="45.78811" lon="2.96008">
        <ele>1109.2</ele>
        <time>2021-08-28T11:13:32.000Z</time>
      </trkpt>
      <trkpt lat="45.78809" lon="2.96017">
        <ele>1108.7</ele>
        <time>2021-08-28T11:13:38.000Z</time>
      </trkpt>
      <trkpt lat="45.78809" lon="2.96028">
        <ele>1108.9</ele>
        <time>2021-08-28T11:13:45.000Z</time>
      </trkpt>
      <trkpt lat="45.7881" lon="2.96038">
        <ele>1109.4</ele>
        <time>2021-08-28T11:13:51.000Z</time>
      </trkpt>
      <trkpt lat="45.7881" lon="2.96049">
        <ele>1109.5</ele>
        <time>2021-08-28T11:13:57.000Z</time>
      </trkpt>
      <trkpt lat="45.78812" lon="2.96058">
        <ele>1110.2</ele>
        <time>2021-08-28T11:14:05.000Z</time>
      </trkpt>
      <trkpt lat="45.78812" lon="2.96067">
        <ele>1110.4</ele>
        <time>2021-08-28T11:14:10.000Z</time>
      </trkpt>
      <trkpt lat="45.78812" lon="2.96077">
        <ele>1110.5</ele>
        <time>2021-08-28T11:14:16.000Z</time>
      </trkpt>
      <trkpt lat="45.78813" lon="2.96086">
        <ele>1111</ele>
        <time>2021-08-28T11:14:23.000Z</time>
      </trkpt>
      <trkpt lat="45.78813" lon="2.96095">
        <ele>1111.3</ele>
        <time>2021-08-28T11:14:28.000Z</time>
      </trkpt>
      <trkpt lat="45.78814" lon="2.96105">
        <ele>1111.9</ele>
        <time>2021-08-28T11:14:34.000Z</time>
      </trkpt>
      <trkpt lat="45.78815" lon="2.96116">
        <ele>1112.5</ele>
        <time>2021-08-28T11:14:40.000Z</time>
      </trkpt>
      <trkpt lat="45.78815" lon="2.96126">
        <ele>1112.9</ele>
        <time>2021-08-28T11:14:46.000Z</time>
      </trkpt>
      <trkpt lat="45.78815" lon="2.96137">
        <ele>1113.2</ele>
        <time>2021-08-28T11:14:52.000Z</time>
      </trkpt>
      <trkpt lat="45.78815" lon="2.9615">
        <ele>1113.7</ele>
        <time>2021-08-28T11:14:57.000Z</time>
      </trkpt>
      <trkpt lat="45.78814" lon="2.96163">
        <ele>1113.9</ele>
        <time>2021-08-28T11:15:03.000Z</time>
      </trkpt>
      <trkpt lat="45.78814" lon="2.96173">
        <ele>1114.4</ele>
        <time>2021-08-28T11:15:09.000Z</time>
      </trkpt>
      <trkpt lat="45.78814" lon="2.96183">
        <ele>1115.1</ele>
        <time>2021-08-28T11:15:15.000Z</time>
      </trkpt>
      <trkpt lat="45.78813" lon="2.96194">
        <ele>1115.6</ele>
        <time>2021-08-28T11:15:23.000Z</time>
      </trkpt>
      <trkpt lat="45.78812" lon="2.96205">
        <ele>1116.1</ele>
        <time>2021-08-28T11:15:31.000Z</time>
      </trkpt>
      <trkpt lat="45.78812" lon="2.96216">
        <ele>1116.8</ele>
        <time>2021-08-28T11:15:36.000Z</time>
      </trkpt>
      <trkpt lat="45.78812" lon="2.96226">
        <ele>1117.4</ele>
        <time>2021-08-28T11:15:40.000Z</time>
      </trkpt>
      <trkpt lat="45.7881" lon="2.96239">
        <ele>1117.9</ele>
        <time>2021-08-28T11:15:45.000Z</time>
      </trkpt>
      <trkpt lat="45.78808" lon="2.96251">
        <ele>1118.4</ele>
        <time>2021-08-28T11:15:51.000Z</time>
      </trkpt>
      <trkpt lat="45.78804" lon="2.96262">
        <ele>1119</ele>
        <time>2021-08-28T11:15:57.000Z</time>
      </trkpt>
      <trkpt lat="45.78801" lon="2.96271">
        <ele>1119.5</ele>
        <time>2021-08-28T11:16:03.000Z</time>
      </trkpt>
      <trkpt lat="45.78797" lon="2.96281">
        <ele>1120.1</ele>
        <time>2021-08-28T11:16:09.000Z</time>
      </trkpt>
      <trkpt lat="45.78794" lon="2.9629">
        <ele>1120.8</ele>
        <time>2021-08-28T11:16:16.000Z</time>
      </trkpt>
      <trkpt lat="45.78791" lon="2.96298">
        <ele>1121.4</ele>
        <time>2021-08-28T11:16:22.000Z</time>
      </trkpt>
      <trkpt lat="45.78787" lon="2.96307">
        <ele>1122.1</ele>
        <time>2021-08-28T11:16:28.000Z</time>
      </trkpt>
      <trkpt lat="45.78782" lon="2.96315">
        <ele>1122.7</ele>
        <time>2021-08-28T11:16:33.000Z</time>
      </trkpt>
      <trkpt lat="45.78777" lon="2.96321">
        <ele>1123</ele>
        <time>2021-08-28T11:16:39.000Z</time>
      </trkpt>
      <trkpt lat="45.78772" lon="2.96329">
        <ele>1123.7</ele>
        <time>2021-08-28T11:16:45.000Z</time>
      </trkpt>
      <trkpt lat="45.78767" lon="2.96335">
        <ele>1124.2</ele>
        <time>2021-08-28T11:16:51.000Z</time>
      </trkpt>
      <trkpt lat="45.7876" lon="2.96336">
        <ele>1123.8</ele>
        <time>2021-08-28T11:16:58.000Z</time>
      </trkpt>
      <trkpt lat="45.78753" lon="2.96339">
        <ele>1123.7</ele>
        <time>2021-08-28T11:17:04.000Z</time>
      </trkpt>
      <trkpt lat="45.78747" lon="2.96344">
        <ele>1124</ele>
        <time>2021-08-28T11:17:13.000Z</time>
      </trkpt>
      <trkpt lat="45.7874" lon="2.96348">
        <ele>1124.2</ele>
        <time>2021-08-28T11:17:19.000Z</time>
      </trkpt>
      <trkpt lat="45.78734" lon="2.96352">
        <ele>1124.5</ele>
        <time>2021-08-28T11:17:24.000Z</time>
      </trkpt>
      <trkpt lat="45.78729" lon="2.96356">
        <ele>1124.7</ele>
        <time>2021-08-28T11:19:37.000Z</time>
      </trkpt>
      <trkpt lat="45.78723" lon="2.96362">
        <ele>1125.2</ele>
        <time>2021-08-28T11:19:46.000Z</time>
      </trkpt>
      <trkpt lat="45.78717" lon="2.96367">
        <ele>1125.6</ele>
        <time>2021-08-28T11:19:53.000Z</time>
      </trkpt>
      <trkpt lat="45.78712" lon="2.96374">
        <ele>1126.2</ele>
        <time>2021-08-28T11:20:00.000Z</time>
      </trkpt>
      <trkpt lat="45.78706" lon="2.96378">
        <ele>1126.5</ele>
        <time>2021-08-28T11:20:09.000Z</time>
      </trkpt>
      <trkpt lat="45.787" lon="2.96383">
        <ele>1126.9</ele>
        <time>2021-08-28T11:20:17.000Z</time>
      </trkpt>
      <trkpt lat="45.78695" lon="2.96388">
        <ele>1127.4</ele>
        <time>2021-08-28T11:20:23.000Z</time>
      </trkpt>
      <trkpt lat="45.78689" lon="2.96393">
        <ele>1127.8</ele>
        <time>2021-08-28T11:20:28.000Z</time>
      </trkpt>
      <trkpt lat="45.78682" lon="2.96398">
        <ele>1128.2</ele>
        <time>2021-08-28T11:20:34.000Z</time>
      </trkpt>
      <trkpt lat="45.78675" lon="2.96401">
        <ele>1128.4</ele>
        <time>2021-08-28T11:20:41.000Z</time>
      </trkpt>
      <trkpt lat="45.78669" lon="2.96403">
        <ele>1128.6</ele>
        <time>2021-08-28T11:20:47.000Z</time>
      </trkpt>
      <trkpt lat="45.78662" lon="2.96407">
        <ele>1128.8</ele>
        <time>2021-08-28T11:20:53.000Z</time>
      </trkpt>
      <trkpt lat="45.78657" lon="2.96411">
        <ele>1129.1</ele>
        <time>2021-08-28T11:20:59.000Z</time>
      </trkpt>
      <trkpt lat="45.78651" lon="2.96416">
        <ele>1129.4</ele>
        <time>2021-08-28T11:21:06.000Z</time>
      </trkpt>
      <trkpt lat="45.78645" lon="2.9642">
        <ele>1129.4</ele>
        <time>2021-08-28T11:21:14.000Z</time>
      </trkpt>
      <trkpt lat="45.78639" lon="2.96426">
        <ele>1129.5</ele>
        <time>2021-08-28T11:21:22.000Z</time>
      </trkpt>
      <trkpt lat="45.78634" lon="2.96432">
        <ele>1129.6</ele>
        <time>2021-08-28T11:21:29.000Z</time>
      </trkpt>
      <trkpt lat="45.78629" lon="2.96438">
        <ele>1129.7</ele>
        <time>2021-08-28T11:21:35.000Z</time>
      </trkpt>
      <trkpt lat="45.78624" lon="2.96446">
        <ele>1129.9</ele>
        <time>2021-08-28T11:21:43.000Z</time>
      </trkpt>
      <trkpt lat="45.78621" lon="2.96455">
        <ele>1130.2</ele>
        <time>2021-08-28T11:21:49.000Z</time>
      </trkpt>
      <trkpt lat="45.78617" lon="2.96464">
        <ele>1130.5</ele>
        <time>2021-08-28T11:21:56.000Z</time>
      </trkpt>
      <trkpt lat="45.78613" lon="2.96472">
        <ele>1130.7</ele>
        <time>2021-08-28T11:22:02.000Z</time>
      </trkpt>
      <trkpt lat="45.7861" lon="2.96481">
        <ele>1131</ele>
        <time>2021-08-28T11:22:08.000Z</time>
      </trkpt>
      <trkpt lat="45.78607" lon="2.9649">
        <ele>1131.4</ele>
        <time>2021-08-28T11:22:14.000Z</time>
      </trkpt>
      <trkpt lat="45.78602" lon="2.96497">
        <ele>1131.5</ele>
        <time>2021-08-28T11:22:20.000Z</time>
      </trkpt>
      <trkpt lat="45.78599" lon="2.96507">
        <ele>1131.8</ele>
        <time>2021-08-28T11:22:26.000Z</time>
      </trkpt>
      <trkpt lat="45.78598" lon="2.96516">
        <ele>1132</ele>
        <time>2021-08-28T11:22:36.000Z</time>
      </trkpt>
      <trkpt lat="45.78595" lon="2.96525">
        <ele>1132.2</ele>
        <time>2021-08-28T11:22:41.000Z</time>
      </trkpt>
      <trkpt lat="45.78591" lon="2.96532">
        <ele>1132.3</ele>
        <time>2021-08-28T11:22:47.000Z</time>
      </trkpt>
      <trkpt lat="45.78586" lon="2.96541">
        <ele>1132.5</ele>
        <time>2021-08-28T11:22:53.000Z</time>
      </trkpt>
      <trkpt lat="45.78582" lon="2.96549">
        <ele>1132.6</ele>
        <time>2021-08-28T11:22:58.000Z</time>
      </trkpt>
      <trkpt lat="45.78576" lon="2.96555">
        <ele>1132.3</ele>
        <time>2021-08-28T11:23:04.000Z</time>
      </trkpt>
      <trkpt lat="45.78572" lon="2.96564">
        <ele>1132.2</ele>
        <time>2021-08-28T11:23:13.000Z</time>
      </trkpt>
      <trkpt lat="45.78569" lon="2.96571">
        <ele>1132.2</ele>
        <time>2021-08-28T11:23:20.000Z</time>
      </trkpt>
      <trkpt lat="45.78565" lon="2.96579">
        <ele>1132.1</ele>
        <time>2021-08-28T11:23:25.000Z</time>
      </trkpt>
      <trkpt lat="45.78559" lon="2.96584">
        <ele>1131.7</ele>
        <time>2021-08-28T11:23:50.000Z</time>
      </trkpt>
      <trkpt lat="45.78555" lon="2.96592">
        <ele>1131.1</ele>
        <time>2021-08-28T11:23:56.000Z</time>
      </trkpt>
      <trkpt lat="45.78551" lon="2.96599">
        <ele>1130.6</ele>
        <time>2021-08-28T11:24:02.000Z</time>
      </trkpt>
      <trkpt lat="45.78547" lon="2.96608">
        <ele>1130</ele>
        <time>2021-08-28T11:24:09.000Z</time>
      </trkpt>
      <trkpt lat="45.78542" lon="2.96615">
        <ele>1129.5</ele>
        <time>2021-08-28T11:24:15.000Z</time>
      </trkpt>
      <trkpt lat="45.78539" lon="2.96624">
        <ele>1129</ele>
        <time>2021-08-28T11:24:21.000Z</time>
      </trkpt>
      <trkpt lat="45.78536" lon="2.96633">
        <ele>1128.6</ele>
        <time>2021-08-28T11:24:28.000Z</time>
      </trkpt>
      <trkpt lat="45.78532" lon="2.96641">
        <ele>1128.1</ele>
        <time>2021-08-28T11:24:35.000Z</time>
      </trkpt>
      <trkpt lat="45.78527" lon="2.96649">
        <ele>1127.5</ele>
        <time>2021-08-28T11:24:41.000Z</time>
      </trkpt>
      <trkpt lat="45.78521" lon="2.96656">
        <ele>1126.9</ele>
        <time>2021-08-28T11:24:47.000Z</time>
      </trkpt>
      <trkpt lat="45.78515" lon="2.9666">
        <ele>1126.4</ele>
        <time>2021-08-28T11:24:56.000Z</time>
      </trkpt>
      <trkpt lat="45.78507" lon="2.96661">
        <ele>1125.7</ele>
        <time>2021-08-28T11:25:04.000Z</time>
      </trkpt>
      <trkpt lat="45.78501" lon="2.9666">
        <ele>1125.2</ele>
        <time>2021-08-28T11:25:11.000Z</time>
      </trkpt>
      <trkpt lat="45.78494" lon="2.96658">
        <ele>1125</ele>
        <time>2021-08-28T11:25:18.000Z</time>
      </trkpt>
      <trkpt lat="45.78488" lon="2.96654">
        <ele>1125</ele>
        <time>2021-08-28T11:25:25.000Z</time>
      </trkpt>
      <trkpt lat="45.78481" lon="2.96649">
        <ele>1125</ele>
        <time>2021-08-28T11:25:31.000Z</time>
      </trkpt>
      <trkpt lat="45.78474" lon="2.96646">
        <ele>1125</ele>
        <time>2021-08-28T11:25:37.000Z</time>
      </trkpt>
      <trkpt lat="45.78468" lon="2.96643">
        <ele>1125</ele>
        <time>2021-08-28T11:25:45.000Z</time>
      </trkpt>
      <trkpt lat="45.78462" lon="2.96638">
        <ele>1125</ele>
        <time>2021-08-28T11:25:51.000Z</time>
      </trkpt>
      <trkpt lat="45.78456" lon="2.96634">
        <ele>1125.1</ele>
        <time>2021-08-28T11:25:57.000Z</time>
      </trkpt>
      <trkpt lat="45.7845" lon="2.9663">
        <ele>1125.1</ele>
        <time>2021-08-28T11:26:03.000Z</time>
      </trkpt>
      <trkpt lat="45.78444" lon="2.96626">
        <ele>1125.1</ele>
        <time>2021-08-28T11:26:09.000Z</time>
      </trkpt>
      <trkpt lat="45.78437" lon="2.96621">
        <ele>1125.2</ele>
        <time>2021-08-28T11:26:17.000Z</time>
      </trkpt>
      <trkpt lat="45.78431" lon="2.96618">
        <ele>1125.2</ele>
        <time>2021-08-28T11:26:23.000Z</time>
      </trkpt>
      <trkpt lat="45.78426" lon="2.96611">
        <ele>1125.4</ele>
        <time>2021-08-28T11:26:32.000Z</time>
      </trkpt>
      <trkpt lat="45.7842" lon="2.96607">
        <ele>1125.4</ele>
        <time>2021-08-28T11:26:38.000Z</time>
      </trkpt>
      <trkpt lat="45.78413" lon="2.96604">
        <ele>1126.2</ele>
        <time>2021-08-28T11:26:44.000Z</time>
      </trkpt>
      <trkpt lat="45.78406" lon="2.96601">
        <ele>1127.5</ele>
        <time>2021-08-28T11:26:50.000Z</time>
      </trkpt>
      <trkpt lat="45.78399" lon="2.96593">
        <ele>1129</ele>
        <time>2021-08-28T11:29:22.000Z</time>
      </trkpt>
      <trkpt lat="45.78394" lon="2.96585">
        <ele>1130</ele>
        <time>2021-08-28T11:30:25.000Z</time>
      </trkpt>
      <trkpt lat="45.78387" lon="2.96585">
        <ele>1131.3</ele>
        <time>2021-08-28T11:31:38.000Z</time>
      </trkpt>
      <trkpt lat="45.78382" lon="2.96579">
        <ele>1132.4</ele>
        <time>2021-08-28T11:31:52.000Z</time>
      </trkpt>
      <trkpt lat="45.78375" lon="2.96577">
        <ele>1133.7</ele>
        <time>2021-08-28T11:32:02.000Z</time>
      </trkpt>
      <trkpt lat="45.78368" lon="2.96574">
        <ele>1135.1</ele>
        <time>2021-08-28T11:32:11.000Z</time>
      </trkpt>
      <trkpt lat="45.78362" lon="2.96572">
        <ele>1136.3</ele>
        <time>2021-08-28T11:32:20.000Z</time>
      </trkpt>
      <trkpt lat="45.78355" lon="2.9657">
        <ele>1137.7</ele>
        <time>2021-08-28T11:32:37.000Z</time>
      </trkpt>
      <trkpt lat="45.78348" lon="2.9657">
        <ele>1139</ele>
        <time>2021-08-28T11:32:45.000Z</time>
      </trkpt>
      <trkpt lat="45.78342" lon="2.9657">
        <ele>1140.2</ele>
        <time>2021-08-28T11:32:52.000Z</time>
      </trkpt>
      <trkpt lat="45.78334" lon="2.96571">
        <ele>1141.6</ele>
        <time>2021-08-28T11:33:02.000Z</time>
      </trkpt>
      <trkpt lat="45.78327" lon="2.96571">
        <ele>1143.2</ele>
        <time>2021-08-28T11:33:10.000Z</time>
      </trkpt>
      <trkpt lat="45.78319" lon="2.96567">
        <ele>1145.3</ele>
        <time>2021-08-28T11:33:31.000Z</time>
      </trkpt>
      <trkpt lat="45.78311" lon="2.96561">
        <ele>1147.5</ele>
        <time>2021-08-28T11:33:49.000Z</time>
      </trkpt>
      <trkpt lat="45.78302" lon="2.96562">
        <ele>1149.5</ele>
        <time>2021-08-28T11:34:01.000Z</time>
      </trkpt>
      <trkpt lat="45.78296" lon="2.96568">
        <ele>1150.5</ele>
        <time>2021-08-28T11:34:07.000Z</time>
      </trkpt>
      <trkpt lat="45.7829" lon="2.96572">
        <ele>1151.6</ele>
        <time>2021-08-28T11:34:13.000Z</time>
      </trkpt>
      <trkpt lat="45.78285" lon="2.96578">
        <ele>1152.4</ele>
        <time>2021-08-28T11:34:17.000Z</time>
      </trkpt>
      <trkpt lat="45.78278" lon="2.96577">
        <ele>1154</ele>
        <time>2021-08-28T11:34:24.000Z</time>
      </trkpt>
      <trkpt lat="45.78272" lon="2.96572">
        <ele>1155.8</ele>
        <time>2021-08-28T11:34:33.000Z</time>
      </trkpt>
      <trkpt lat="45.78265" lon="2.96563">
        <ele>1158</ele>
        <time>2021-08-28T11:35:08.000Z</time>
      </trkpt>
      <trkpt lat="45.78255" lon="2.96568">
        <ele>1160</ele>
        <time>2021-08-28T11:35:23.000Z</time>
      </trkpt>
      <trkpt lat="45.78247" lon="2.96564">
        <ele>1162.3</ele>
        <time>2021-08-28T11:36:07.000Z</time>
      </trkpt>
      <trkpt lat="45.78245" lon="2.96554">
        <ele>1163.5</ele>
        <time>2021-08-28T11:36:24.000Z</time>
      </trkpt>
      <trkpt lat="45.78235" lon="2.96553">
        <ele>1166.3</ele>
        <time>2021-08-28T11:36:46.000Z</time>
      </trkpt>
      <trkpt lat="45.78224" lon="2.96556">
        <ele>1169.2</ele>
        <time>2021-08-28T11:37:10.000Z</time>
      </trkpt>
      <trkpt lat="45.78212" lon="2.96553">
        <ele>1172.5</ele>
        <time>2021-08-28T11:37:41.000Z</time>
      </trkpt>
      <trkpt lat="45.78207" lon="2.96546">
        <ele>1174</ele>
        <time>2021-08-28T11:37:49.000Z</time>
      </trkpt>
      <trkpt lat="45.782" lon="2.96534">
        <ele>1176</ele>
        <time>2021-08-28T11:38:04.000Z</time>
      </trkpt>
      <trkpt lat="45.78193" lon="2.96531">
        <ele>1177.7</ele>
        <time>2021-08-28T11:38:18.000Z</time>
      </trkpt>
      <trkpt lat="45.7818" lon="2.9653">
        <ele>1180.8</ele>
        <time>2021-08-28T11:38:46.000Z</time>
      </trkpt>
      <trkpt lat="45.78171" lon="2.96534">
        <ele>1183.1</ele>
        <time>2021-08-28T11:38:54.000Z</time>
      </trkpt>
      <trkpt lat="45.78164" lon="2.96531">
        <ele>1184.4</ele>
        <time>2021-08-28T11:39:04.000Z</time>
      </trkpt>
      <trkpt lat="45.78152" lon="2.9653">
        <ele>1185.6</ele>
        <time>2021-08-28T11:39:18.000Z</time>
      </trkpt>
      <trkpt lat="45.78145" lon="2.96529">
        <ele>1186.3</ele>
        <time>2021-08-28T11:39:26.000Z</time>
      </trkpt>
      <trkpt lat="45.78138" lon="2.96531">
        <ele>1187.2</ele>
        <time>2021-08-28T11:39:34.000Z</time>
      </trkpt>
      <trkpt lat="45.78132" lon="2.96534">
        <ele>1188</ele>
        <time>2021-08-28T11:39:43.000Z</time>
      </trkpt>
      <trkpt lat="45.7812" lon="2.9654">
        <ele>1189.7</ele>
        <time>2021-08-28T11:39:51.000Z</time>
      </trkpt>
      <trkpt lat="45.78114" lon="2.96541">
        <ele>1190.5</ele>
        <time>2021-08-28T11:39:57.000Z</time>
      </trkpt>
      <trkpt lat="45.78106" lon="2.96539">
        <ele>1191.2</ele>
        <time>2021-08-28T11:40:03.000Z</time>
      </trkpt>
      <trkpt lat="45.78097" lon="2.96532">
        <ele>1191.6</ele>
        <time>2021-08-28T11:40:13.000Z</time>
      </trkpt>
      <trkpt lat="45.78091" lon="2.96529">
        <ele>1192</ele>
        <time>2021-08-28T11:40:22.000Z</time>
      </trkpt>
      <trkpt lat="45.78084" lon="2.96524">
        <ele>1192.2</ele>
        <time>2021-08-28T11:40:31.000Z</time>
      </trkpt>
      <trkpt lat="45.78079" lon="2.96518">
        <ele>1192.3</ele>
        <time>2021-08-28T11:40:42.000Z</time>
      </trkpt>
      <trkpt lat="45.78066" lon="2.96524">
        <ele>1194.4</ele>
        <time>2021-08-28T11:41:05.000Z</time>
      </trkpt>
      <trkpt lat="45.78058" lon="2.96533">
        <ele>1196.1</ele>
        <time>2021-08-28T11:41:14.000Z</time>
      </trkpt>
      <trkpt lat="45.7805" lon="2.96543">
        <ele>1197.7</ele>
        <time>2021-08-28T11:41:21.000Z</time>
      </trkpt>
      <trkpt lat="45.78037" lon="2.96541">
        <ele>1199</ele>
        <time>2021-08-28T11:41:32.000Z</time>
      </trkpt>
      <trkpt lat="45.7803" lon="2.96541">
        <ele>1199.7</ele>
        <time>2021-08-28T11:41:40.000Z</time>
      </trkpt>
      <trkpt lat="45.78032" lon="2.9653">
        <ele>1198.9</ele>
        <time>2021-08-28T11:41:48.000Z</time>
      </trkpt>
      <trkpt lat="45.78032" lon="2.96519">
        <ele>1198.4</ele>
        <time>2021-08-28T11:41:52.000Z</time>
      </trkpt>
      <trkpt lat="45.78032" lon="2.9651">
        <ele>1197.9</ele>
        <time>2021-08-28T11:42:04.000Z</time>
      </trkpt>
      <trkpt lat="45.78035" lon="2.96492">
        <ele>1197.8</ele>
        <time>2021-08-28T11:42:17.000Z</time>
      </trkpt>
      <trkpt lat="45.78035" lon="2.96483">
        <ele>1198.8</ele>
        <time>2021-08-28T11:42:22.000Z</time>
      </trkpt>
      <trkpt lat="45.78035" lon="2.96473">
        <ele>1199.8</ele>
        <time>2021-08-28T11:42:28.000Z</time>
      </trkpt>
      <trkpt lat="45.78029" lon="2.96466">
        <ele>1201.4</ele>
        <time>2021-08-28T11:42:52.000Z</time>
      </trkpt>
      <trkpt lat="45.78024" lon="2.9646">
        <ele>1202.7</ele>
        <time>2021-08-28T11:43:00.000Z</time>
      </trkpt>
      <trkpt lat="45.78021" lon="2.96451">
        <ele>1204</ele>
        <time>2021-08-28T11:43:07.000Z</time>
      </trkpt>
      <trkpt lat="45.78019" lon="2.96432">
        <ele>1206.2</ele>
        <time>2021-08-28T11:43:46.000Z</time>
      </trkpt>
      <trkpt lat="45.78009" lon="2.96422">
        <ele>1208.4</ele>
        <time>2021-08-28T11:44:15.000Z</time>
      </trkpt>
      <trkpt lat="45.78003" lon="2.96417">
        <ele>1209.6</ele>
        <time>2021-08-28T11:44:41.000Z</time>
      </trkpt>
      <trkpt lat="45.78" lon="2.96408">
        <ele>1210.6</ele>
        <time>2021-08-28T11:44:51.000Z</time>
      </trkpt>
      <trkpt lat="45.77994" lon="2.96397">
        <ele>1211.7</ele>
        <time>2021-08-28T11:45:09.000Z</time>
      </trkpt>
      <trkpt lat="45.77987" lon="2.96384">
        <ele>1212.9</ele>
        <time>2021-08-28T11:45:30.000Z</time>
      </trkpt>
      <trkpt lat="45.77982" lon="2.96377">
        <ele>1213.5</ele>
        <time>2021-08-28T11:45:39.000Z</time>
      </trkpt>
      <trkpt lat="45.77978" lon="2.96367">
        <ele>1214.3</ele>
        <time>2021-08-28T11:45:46.000Z</time>
      </trkpt>
      <trkpt lat="45.77972" lon="2.96362">
        <ele>1214.7</ele>
        <time>2021-08-28T11:45:54.000Z</time>
      </trkpt>
      <trkpt lat="45.77965" lon="2.96362">
        <ele>1214.9</ele>
        <time>2021-08-28T11:46:19.000Z</time>
      </trkpt>
      <trkpt lat="45.77959" lon="2.96358">
        <ele>1215.3</ele>
        <time>2021-08-28T11:46:26.000Z</time>
      </trkpt>
      <trkpt lat="45.77952" lon="2.96354">
        <ele>1215.7</ele>
        <time>2021-08-28T11:46:33.000Z</time>
      </trkpt>
      <trkpt lat="45.77944" lon="2.96352">
        <ele>1215.9</ele>
        <time>2021-08-28T11:46:40.000Z</time>
      </trkpt>
      <trkpt lat="45.77938" lon="2.96351">
        <ele>1216.1</ele>
        <time>2021-08-28T11:46:48.000Z</time>
      </trkpt>
      <trkpt lat="45.7793" lon="2.96353">
        <ele>1216.2</ele>
        <time>2021-08-28T11:46:55.000Z</time>
      </trkpt>
      <trkpt lat="45.77924" lon="2.96349">
        <ele>1216.5</ele>
        <time>2021-08-28T11:47:02.000Z</time>
      </trkpt>
      <trkpt lat="45.77917" lon="2.96348">
        <ele>1216.6</ele>
        <time>2021-08-28T11:47:10.000Z</time>
      </trkpt>
      <trkpt lat="45.77909" lon="2.9635">
        <ele>1216.9</ele>
        <time>2021-08-28T11:47:18.000Z</time>
      </trkpt>
      <trkpt lat="45.77902" lon="2.96353">
        <ele>1217</ele>
        <time>2021-08-28T11:47:24.000Z</time>
      </trkpt>
      <trkpt lat="45.77895" lon="2.96355">
        <ele>1217.3</ele>
        <time>2021-08-28T11:47:29.000Z</time>
      </trkpt>
      <trkpt lat="45.77888" lon="2.96356">
        <ele>1217.5</ele>
        <time>2021-08-28T11:47:33.000Z</time>
      </trkpt>
      <trkpt lat="45.7788" lon="2.9636">
        <ele>1217.8</ele>
        <time>2021-08-28T11:47:39.000Z</time>
      </trkpt>
      <trkpt lat="45.7787" lon="2.96362">
        <ele>1218.2</ele>
        <time>2021-08-28T11:47:45.000Z</time>
      </trkpt>
      <trkpt lat="45.77862" lon="2.96364">
        <ele>1218.5</ele>
        <time>2021-08-28T11:47:51.000Z</time>
      </trkpt>
      <trkpt lat="45.77858" lon="2.96372">
        <ele>1218.8</ele>
        <time>2021-08-28T11:47:58.000Z</time>
      </trkpt>
      <trkpt lat="45.77854" lon="2.9638">
        <ele>1219.1</ele>
        <time>2021-08-28T11:48:05.000Z</time>
      </trkpt>
      <trkpt lat="45.7785" lon="2.96387">
        <ele>1219.4</ele>
        <time>2021-08-28T11:48:11.000Z</time>
      </trkpt>
      <trkpt lat="45.77843" lon="2.96387">
        <ele>1219.8</ele>
        <time>2021-08-28T11:48:18.000Z</time>
      </trkpt>
      <trkpt lat="45.77837" lon="2.96392">
        <ele>1220.2</ele>
        <time>2021-08-28T11:48:27.000Z</time>
      </trkpt>
      <trkpt lat="45.77831" lon="2.96397">
        <ele>1221</ele>
        <time>2021-08-28T11:48:34.000Z</time>
      </trkpt>
      <trkpt lat="45.77824" lon="2.964">
        <ele>1222.4</ele>
        <time>2021-08-28T11:48:47.000Z</time>
      </trkpt>
      <trkpt lat="45.77817" lon="2.96401">
        <ele>1223.8</ele>
        <time>2021-08-28T11:48:54.000Z</time>
      </trkpt>
      <trkpt lat="45.7781" lon="2.96405">
        <ele>1225.2</ele>
        <time>2021-08-28T11:49:05.000Z</time>
      </trkpt>
      <trkpt lat="45.77803" lon="2.96403">
        <ele>1226.5</ele>
        <time>2021-08-28T11:49:12.000Z</time>
      </trkpt>
      <trkpt lat="45.77797" lon="2.96406">
        <ele>1227.7</ele>
        <time>2021-08-28T11:49:24.000Z</time>
      </trkpt>
      <trkpt lat="45.77791" lon="2.96412">
        <ele>1229</ele>
        <time>2021-08-28T11:49:34.000Z</time>
      </trkpt>
      <trkpt lat="45.77784" lon="2.96415">
        <ele>1230.4</ele>
        <time>2021-08-28T11:49:43.000Z</time>
      </trkpt>
      <trkpt lat="45.77777" lon="2.96416">
        <ele>1231.8</ele>
        <time>2021-08-28T11:49:50.000Z</time>
      </trkpt>
      <trkpt lat="45.7777" lon="2.96418">
        <ele>1233.2</ele>
        <time>2021-08-28T11:49:57.000Z</time>
      </trkpt>
      <trkpt lat="45.77763" lon="2.96421">
        <ele>1234.5</ele>
        <time>2021-08-28T11:50:08.000Z</time>
      </trkpt>
      <trkpt lat="45.77758" lon="2.96426">
        <ele>1235.5</ele>
        <time>2021-08-28T11:50:19.000Z</time>
      </trkpt>
      <trkpt lat="45.7775" lon="2.96424">
        <ele>1237</ele>
        <time>2021-08-28T11:50:25.000Z</time>
      </trkpt>
      <trkpt lat="45.77743" lon="2.96424">
        <ele>1239.1</ele>
        <time>2021-08-28T11:50:32.000Z</time>
      </trkpt>
      <trkpt lat="45.77737" lon="2.96424">
        <ele>1240.9</ele>
        <time>2021-08-28T11:50:40.000Z</time>
      </trkpt>
      <trkpt lat="45.7773" lon="2.96426">
        <ele>1242.9</ele>
        <time>2021-08-28T11:50:47.000Z</time>
      </trkpt>
      <trkpt lat="45.77723" lon="2.96424">
        <ele>1245</ele>
        <time>2021-08-28T11:50:53.000Z</time>
      </trkpt>
      <trkpt lat="45.77716" lon="2.96424">
        <ele>1247.1</ele>
        <time>2021-08-28T11:51:00.000Z</time>
      </trkpt>
      <trkpt lat="45.7771" lon="2.96423">
        <ele>1248.9</ele>
        <time>2021-08-28T11:51:06.000Z</time>
      </trkpt>
      <trkpt lat="45.77703" lon="2.96428">
        <ele>1250.9</ele>
        <time>2021-08-28T11:51:13.000Z</time>
      </trkpt>
      <trkpt lat="45.77696" lon="2.96431">
        <ele>1252.9</ele>
        <time>2021-08-28T11:51:20.000Z</time>
      </trkpt>
      <trkpt lat="45.7769" lon="2.96436">
        <ele>1254.5</ele>
        <time>2021-08-28T11:51:27.000Z</time>
      </trkpt>
      <trkpt lat="45.77684" lon="2.96441">
        <ele>1256.1</ele>
        <time>2021-08-28T11:51:35.000Z</time>
      </trkpt>
      <trkpt lat="45.77677" lon="2.96443">
        <ele>1258.1</ele>
        <time>2021-08-28T11:51:46.000Z</time>
      </trkpt>
      <trkpt lat="45.7767" lon="2.96449">
        <ele>1259.9</ele>
        <time>2021-08-28T11:51:53.000Z</time>
      </trkpt>
      <trkpt lat="45.77664" lon="2.9645">
        <ele>1261.9</ele>
        <time>2021-08-28T11:52:02.000Z</time>
      </trkpt>
      <trkpt lat="45.77657" lon="2.96454">
        <ele>1264.8</ele>
        <time>2021-08-28T11:52:10.000Z</time>
      </trkpt>
      <trkpt lat="45.77652" lon="2.96461">
        <ele>1266.6</ele>
        <time>2021-08-28T11:52:17.000Z</time>
      </trkpt>
      <trkpt lat="45.77647" lon="2.96468">
        <ele>1268.5</ele>
        <time>2021-08-28T11:52:24.000Z</time>
      </trkpt>
      <trkpt lat="45.7764" lon="2.96478">
        <ele>1271.1</ele>
        <time>2021-08-28T11:52:34.000Z</time>
      </trkpt>
      <trkpt lat="45.77634" lon="2.96474">
        <ele>1273.8</ele>
        <time>2021-08-28T11:52:47.000Z</time>
      </trkpt>
      <trkpt lat="45.7763" lon="2.96465">
        <ele>1275.8</ele>
        <time>2021-08-28T11:53:01.000Z</time>
      </trkpt>
      <trkpt lat="45.77628" lon="2.96456">
        <ele>1277.1</ele>
        <time>2021-08-28T11:53:13.000Z</time>
      </trkpt>
      <trkpt lat="45.77619" lon="2.96443">
        <ele>1281.5</ele>
        <time>2021-08-28T11:53:45.000Z</time>
      </trkpt>
      <trkpt lat="45.77614" lon="2.96436">
        <ele>1283.9</ele>
        <time>2021-08-28T11:54:05.000Z</time>
      </trkpt>
      <trkpt lat="45.77606" lon="2.96429">
        <ele>1287.7</ele>
        <time>2021-08-28T11:54:22.000Z</time>
      </trkpt>
      <trkpt lat="45.77599" lon="2.96431">
        <ele>1290.6</ele>
        <time>2021-08-28T11:54:37.000Z</time>
      </trkpt>
      <trkpt lat="45.77593" lon="2.96435">
        <ele>1293</ele>
        <time>2021-08-28T11:54:50.000Z</time>
      </trkpt>
      <trkpt lat="45.77587" lon="2.9644">
        <ele>1295.3</ele>
        <time>2021-08-28T11:55:15.000Z</time>
      </trkpt>
      <trkpt lat="45.77577" lon="2.96447">
        <ele>1300.7</ele>
        <time>2021-08-28T11:55:32.000Z</time>
      </trkpt>
      <trkpt lat="45.77567" lon="2.96457">
        <ele>1306.7</ele>
        <time>2021-08-28T11:56:05.000Z</time>
      </trkpt>
      <trkpt lat="45.77559" lon="2.96472">
        <ele>1310.8</ele>
        <time>2021-08-28T11:56:40.000Z</time>
      </trkpt>
      <trkpt lat="45.77549" lon="2.96473">
        <ele>1317.1</ele>
        <time>2021-08-28T11:57:14.000Z</time>
      </trkpt>
      <trkpt lat="45.77548" lon="2.96463">
        <ele>1318.5</ele>
        <time>2021-08-28T11:57:53.000Z</time>
      </trkpt>
      <trkpt lat="45.77544" lon="2.96456">
        <ele>1321.7</ele>
        <time>2021-08-28T11:58:00.000Z</time>
      </trkpt>
      <trkpt lat="45.77535" lon="2.96446">
        <ele>1328.4</ele>
        <time>2021-08-28T11:58:11.000Z</time>
      </trkpt>
      <trkpt lat="45.77526" lon="2.96441">
        <ele>1334.8</ele>
        <time>2021-08-28T11:58:33.000Z</time>
      </trkpt>
      <trkpt lat="45.77514" lon="2.96438">
        <ele>1343.1</ele>
        <time>2021-08-28T11:59:07.000Z</time>
      </trkpt>
      <trkpt lat="45.77505" lon="2.96448">
        <ele>1348</ele>
        <time>2021-08-28T11:59:32.000Z</time>
      </trkpt>
      <trkpt lat="45.77497" lon="2.96459">
        <ele>1352.3</ele>
        <time>2021-08-28T12:00:19.000Z</time>
      </trkpt>
      <trkpt lat="45.77489" lon="2.96467">
        <ele>1357.7</ele>
        <time>2021-08-28T12:00:39.000Z</time>
      </trkpt>
      <trkpt lat="45.7748" lon="2.96478">
        <ele>1363.5</ele>
        <time>2021-08-28T12:00:52.000Z</time>
      </trkpt>
      <trkpt lat="45.77472" lon="2.96487">
        <ele>1368.6</ele>
        <time>2021-08-28T12:01:53.000Z</time>
      </trkpt>
      <trkpt lat="45.77463" lon="2.96493">
        <ele>1374.8</ele>
        <time>2021-08-28T12:02:14.000Z</time>
      </trkpt>
      <trkpt lat="45.77455" lon="2.96504">
        <ele>1378.7</ele>
        <time>2021-08-28T12:03:03.000Z</time>
      </trkpt>
      <trkpt lat="45.77451" lon="2.96511">
        <ele>1379.3</ele>
        <time>2021-08-28T12:03:13.000Z</time>
      </trkpt>
      <trkpt lat="45.77445" lon="2.96523">
        <ele>1379.4</ele>
        <time>2021-08-28T12:04:28.000Z</time>
      </trkpt>
      <trkpt lat="45.7744" lon="2.96537">
        <ele>1377.6</ele>
        <time>2021-08-28T12:04:45.000Z</time>
      </trkpt>
      <trkpt lat="45.77432" lon="2.96543">
        <ele>1380.7</ele>
        <time>2021-08-28T12:05:42.000Z</time>
      </trkpt>
      <trkpt lat="45.77422" lon="2.96539">
        <ele>1389.1</ele>
        <time>2021-08-28T12:06:03.000Z</time>
      </trkpt>
      <trkpt lat="45.77412" lon="2.96536">
        <ele>1396.3</ele>
        <time>2021-08-28T12:06:31.000Z</time>
      </trkpt>
      <trkpt lat="45.77402" lon="2.9654">
        <ele>1399.4</ele>
        <time>2021-08-28T12:06:53.000Z</time>
      </trkpt>
      <trkpt lat="45.77393" lon="2.96546">
        <ele>1401</ele>
        <time>2021-08-28T12:07:15.000Z</time>
      </trkpt>
      <trkpt lat="45.77384" lon="2.96552">
        <ele>1402.4</ele>
        <time>2021-08-28T12:08:23.000Z</time>
      </trkpt>
      <trkpt lat="45.77375" lon="2.96556">
        <ele>1404.8</ele>
        <time>2021-08-28T12:08:56.000Z</time>
      </trkpt>
      <trkpt lat="45.7737" lon="2.96569">
        <ele>1400.8</ele>
        <time>2021-08-28T12:10:06.000Z</time>
      </trkpt>
      <trkpt lat="45.77367" lon="2.96578">
        <ele>1397.7</ele>
        <time>2021-08-28T12:10:16.000Z</time>
      </trkpt>
      <trkpt lat="45.77362" lon="2.96585">
        <ele>1396.4</ele>
        <time>2021-08-28T12:10:32.000Z</time>
      </trkpt>
      <trkpt lat="45.77356" lon="2.9659">
        <ele>1396.4</ele>
        <time>2021-08-28T12:10:41.000Z</time>
      </trkpt>
      <trkpt lat="45.77352" lon="2.96599">
        <ele>1393.3</ele>
        <time>2021-08-28T12:10:48.000Z</time>
      </trkpt>
      <trkpt lat="45.77347" lon="2.96604">
        <ele>1392.6</ele>
        <time>2021-08-28T12:10:58.000Z</time>
      </trkpt>
      <trkpt lat="45.7734" lon="2.96608">
        <ele>1393.3</ele>
        <time>2021-08-28T12:11:08.000Z</time>
      </trkpt>
      <trkpt lat="45.77333" lon="2.9661">
        <ele>1395</ele>
        <time>2021-08-28T12:11:16.000Z</time>
      </trkpt>
      <trkpt lat="45.77326" lon="2.96611">
        <ele>1394.7</ele>
        <time>2021-08-28T12:11:21.000Z</time>
      </trkpt>
      <trkpt lat="45.7732" lon="2.9661">
        <ele>1395.5</ele>
        <time>2021-08-28T12:11:27.000Z</time>
      </trkpt>
      <trkpt lat="45.77311" lon="2.96609">
        <ele>1396.5</ele>
        <time>2021-08-28T12:11:33.000Z</time>
      </trkpt>
      <trkpt lat="45.77304" lon="2.96606">
        <ele>1398.3</ele>
        <time>2021-08-28T12:11:39.000Z</time>
      </trkpt>
      <trkpt lat="45.77298" lon="2.96603">
        <ele>1400.1</ele>
        <time>2021-08-28T12:11:47.000Z</time>
      </trkpt>
      <trkpt lat="45.77291" lon="2.96603">
        <ele>1400.4</ele>
        <time>2021-08-28T12:11:53.000Z</time>
      </trkpt>
      <trkpt lat="45.77284" lon="2.96601">
        <ele>1401.6</ele>
        <time>2021-08-28T12:11:58.000Z</time>
      </trkpt>
      <trkpt lat="45.77277" lon="2.966">
        <ele>1402.4</ele>
        <time>2021-08-28T12:12:07.000Z</time>
      </trkpt>
      <trkpt lat="45.7727" lon="2.96599">
        <ele>1403.1</ele>
        <time>2021-08-28T12:12:20.000Z</time>
      </trkpt>
      <trkpt lat="45.77263" lon="2.96602">
        <ele>1401.8</ele>
        <time>2021-08-28T12:12:31.000Z</time>
      </trkpt>
      <trkpt lat="45.77256" lon="2.96605">
        <ele>1400.6</ele>
        <time>2021-08-28T12:12:41.000Z</time>
      </trkpt>
      <trkpt lat="45.7725" lon="2.96609">
        <ele>1399</ele>
        <time>2021-08-28T12:12:50.000Z</time>
      </trkpt>
      <trkpt lat="45.77245" lon="2.96615">
        <ele>1394.8</ele>
        <time>2021-08-28T12:12:59.000Z</time>
      </trkpt>
      <trkpt lat="45.7724" lon="2.96622">
        <ele>1390.2</ele>
        <time>2021-08-28T12:13:06.000Z</time>
      </trkpt>
      <trkpt lat="45.77236" lon="2.96629">
        <ele>1386</ele>
        <time>2021-08-28T12:13:11.000Z</time>
      </trkpt>
      <trkpt lat="45.7723" lon="2.96635">
        <ele>1381.9</ele>
        <time>2021-08-28T12:13:19.000Z</time>
      </trkpt>
      <trkpt lat="45.77226" lon="2.96643">
        <ele>1377.6</ele>
        <time>2021-08-28T12:13:29.000Z</time>
      </trkpt>
      <trkpt lat="45.7722" lon="2.96647">
        <ele>1374.6</ele>
        <time>2021-08-28T12:13:43.000Z</time>
      </trkpt>
      <trkpt lat="45.77215" lon="2.96641">
        <ele>1375.9</ele>
        <time>2021-08-28T12:13:51.000Z</time>
      </trkpt>
      <trkpt lat="45.77208" lon="2.96642">
        <ele>1373.9</ele>
        <time>2021-08-28T12:14:03.000Z</time>
      </trkpt>
      <trkpt lat="45.77201" lon="2.96642">
        <ele>1372.3</ele>
        <time>2021-08-28T12:14:12.000Z</time>
      </trkpt>
      <trkpt lat="45.77194" lon="2.96643">
        <ele>1370.3</ele>
        <time>2021-08-28T12:14:24.000Z</time>
      </trkpt>
      <trkpt lat="45.77191" lon="2.96652">
        <ele>1366.5</ele>
        <time>2021-08-28T12:14:48.000Z</time>
      </trkpt>
      <trkpt lat="45.77185" lon="2.96649">
        <ele>1366.3</ele>
        <time>2021-08-28T12:15:28.000Z</time>
      </trkpt>
      <trkpt lat="45.77182" lon="2.9664">
        <ele>1368.6</ele>
        <time>2021-08-28T12:15:40.000Z</time>
      </trkpt>
      <trkpt lat="45.77176" lon="2.96634">
        <ele>1369.1</ele>
        <time>2021-08-28T12:15:51.000Z</time>
      </trkpt>
      <trkpt lat="45.7717" lon="2.96629">
        <ele>1369.2</ele>
        <time>2021-08-28T12:16:01.000Z</time>
      </trkpt>
      <trkpt lat="45.77165" lon="2.96621">
        <ele>1369.8</ele>
        <time>2021-08-28T12:16:08.000Z</time>
      </trkpt>
      <trkpt lat="45.77151" lon="2.9661">
        <ele>1365.5</ele>
        <time>2021-08-28T12:16:44.000Z</time>
      </trkpt>
      <trkpt lat="45.77147" lon="2.96602">
        <ele>1365.6</ele>
        <time>2021-08-28T12:16:52.000Z</time>
      </trkpt>
      <trkpt lat="45.77144" lon="2.96589">
        <ele>1367.6</ele>
        <time>2021-08-28T12:17:04.000Z</time>
      </trkpt>
      <trkpt lat="45.77143" lon="2.9658">
        <ele>1369.3</ele>
        <time>2021-08-28T12:17:13.000Z</time>
      </trkpt>
      <trkpt lat="45.77137" lon="2.96575">
        <ele>1366.8</ele>
        <time>2021-08-28T12:17:33.000Z</time>
      </trkpt>
      <trkpt lat="45.77136" lon="2.96584">
        <ele>1364.5</ele>
        <time>2021-08-28T12:17:49.000Z</time>
      </trkpt>
      <trkpt lat="45.7713" lon="2.96589">
        <ele>1359.8</ele>
        <time>2021-08-28T12:18:01.000Z</time>
      </trkpt>
      <trkpt lat="45.77131" lon="2.9658">
        <ele>1362.5</ele>
        <time>2021-08-28T12:18:25.000Z</time>
      </trkpt>
      <trkpt lat="45.77133" lon="2.96571">
        <ele>1365.3</ele>
        <time>2021-08-28T12:18:43.000Z</time>
      </trkpt>
      <trkpt lat="45.77131" lon="2.96562">
        <ele>1365.8</ele>
        <time>2021-08-28T12:18:54.000Z</time>
      </trkpt>
      <trkpt lat="45.77133" lon="2.96552">
        <ele>1368.8</ele>
        <time>2021-08-28T12:19:04.000Z</time>
      </trkpt>
      <trkpt lat="45.77133" lon="2.96542">
        <ele>1370.6</ele>
        <time>2021-08-28T12:19:25.000Z</time>
      </trkpt>
      <trkpt lat="45.77136" lon="2.96534">
        <ele>1374</ele>
        <time>2021-08-28T12:19:40.000Z</time>
      </trkpt>
      <trkpt lat="45.77139" lon="2.96526">
        <ele>1377.4</ele>
        <time>2021-08-28T12:19:49.000Z</time>
      </trkpt>
      <trkpt lat="45.77141" lon="2.96516">
        <ele>1380.6</ele>
        <time>2021-08-28T12:19:59.000Z</time>
      </trkpt>
      <trkpt lat="45.77142" lon="2.96506">
        <ele>1383.2</ele>
        <time>2021-08-28T12:20:12.000Z</time>
      </trkpt>
      <trkpt lat="45.7714" lon="2.96497">
        <ele>1383.3</ele>
        <time>2021-08-28T12:20:25.000Z</time>
      </trkpt>
      <trkpt lat="45.77143" lon="2.96488">
        <ele>1385.9</ele>
        <time>2021-08-28T12:20:42.000Z</time>
      </trkpt>
      <trkpt lat="45.77146" lon="2.96479">
        <ele>1388.6</ele>
        <time>2021-08-28T12:21:16.000Z</time>
      </trkpt>
      <trkpt lat="45.77146" lon="2.9647">
        <ele>1389.2</ele>
        <time>2021-08-28T12:21:27.000Z</time>
      </trkpt>
      <trkpt lat="45.77149" lon="2.9646">
        <ele>1391.8</ele>
        <time>2021-08-28T12:21:39.000Z</time>
      </trkpt>
      <trkpt lat="45.7715" lon="2.96451">
        <ele>1393.1</ele>
        <time>2021-08-28T12:21:49.000Z</time>
      </trkpt>
      <trkpt lat="45.77152" lon="2.9644">
        <ele>1395.1</ele>
        <time>2021-08-28T12:22:03.000Z</time>
      </trkpt>
      <trkpt lat="45.77151" lon="2.96421">
        <ele>1395.7</ele>
        <time>2021-08-28T12:22:10.000Z</time>
      </trkpt>
      <trkpt lat="45.77147" lon="2.96409">
        <ele>1394.3</ele>
        <time>2021-08-28T12:23:04.000Z</time>
      </trkpt>
      <trkpt lat="45.77143" lon="2.964">
        <ele>1392.8</ele>
        <time>2021-08-28T12:23:15.000Z</time>
      </trkpt>
      <trkpt lat="45.77139" lon="2.96392">
        <ele>1391.4</ele>
        <time>2021-08-28T12:23:22.000Z</time>
      </trkpt>
      <trkpt lat="45.77134" lon="2.96384">
        <ele>1389.4</ele>
        <time>2021-08-28T12:23:29.000Z</time>
      </trkpt>
      <trkpt lat="45.77128" lon="2.9638">
        <ele>1386.5</ele>
        <time>2021-08-28T12:23:36.000Z</time>
      </trkpt>
      <trkpt lat="45.77121" lon="2.96375">
        <ele>1383.2</ele>
        <time>2021-08-28T12:23:44.000Z</time>
      </trkpt>
      <trkpt lat="45.77116" lon="2.96367">
        <ele>1381.7</ele>
        <time>2021-08-28T12:23:51.000Z</time>
      </trkpt>
      <trkpt lat="45.7711" lon="2.96356">
        <ele>1380.3</ele>
        <time>2021-08-28T12:23:59.000Z</time>
      </trkpt>
      <trkpt lat="45.77106" lon="2.96346">
        <ele>1379.9</ele>
        <time>2021-08-28T12:24:03.000Z</time>
      </trkpt>
      <trkpt lat="45.77101" lon="2.96336">
        <ele>1379.2</ele>
        <time>2021-08-28T12:24:09.000Z</time>
      </trkpt>
      <trkpt lat="45.77099" lon="2.96325">
        <ele>1380.8</ele>
        <time>2021-08-28T12:24:24.000Z</time>
      </trkpt>
      <trkpt lat="45.77106" lon="2.96323">
        <ele>1384.5</ele>
        <time>2021-08-28T12:24:32.000Z</time>
      </trkpt>
      <trkpt lat="45.77113" lon="2.96321">
        <ele>1388.1</ele>
        <time>2021-08-28T12:24:41.000Z</time>
      </trkpt>
      <trkpt lat="45.77114" lon="2.96312">
        <ele>1390.3</ele>
        <time>2021-08-28T12:24:53.000Z</time>
      </trkpt>
      <trkpt lat="45.77111" lon="2.96304">
        <ele>1390.7</ele>
        <time>2021-08-28T12:24:58.000Z</time>
      </trkpt>
      <trkpt lat="45.7711" lon="2.96294">
        <ele>1392.4</ele>
        <time>2021-08-28T12:25:07.000Z</time>
      </trkpt>
      <trkpt lat="45.77103" lon="2.96289">
        <ele>1391.1</ele>
        <time>2021-08-28T12:25:13.000Z</time>
      </trkpt>
      <trkpt lat="45.77098" lon="2.96284">
        <ele>1390.6</ele>
        <time>2021-08-28T12:25:19.000Z</time>
      </trkpt>
      <trkpt lat="45.77091" lon="2.96279">
        <ele>1389.7</ele>
        <time>2021-08-28T12:25:25.000Z</time>
      </trkpt>
      <trkpt lat="45.77085" lon="2.96275">
        <ele>1389</ele>
        <time>2021-08-28T12:25:42.000Z</time>
      </trkpt>
      <trkpt lat="45.77079" lon="2.96272">
        <ele>1386</ele>
        <time>2021-08-28T12:25:50.000Z</time>
      </trkpt>
      <trkpt lat="45.77072" lon="2.96268">
        <ele>1381.8</ele>
        <time>2021-08-28T12:25:57.000Z</time>
      </trkpt>
      <trkpt lat="45.77066" lon="2.96263">
        <ele>1378.8</ele>
        <time>2021-08-28T12:26:03.000Z</time>
      </trkpt>
      <trkpt lat="45.77059" lon="2.9626">
        <ele>1374.4</ele>
        <time>2021-08-28T12:26:10.000Z</time>
      </trkpt>
      <trkpt lat="45.77065" lon="2.96265">
        <ele>1377.3</ele>
        <time>2021-08-28T12:27:22.000Z</time>
      </trkpt>
      <trkpt lat="45.77071" lon="2.96269">
        <ele>1380.7</ele>
        <time>2021-08-28T12:27:32.000Z</time>
      </trkpt>
      <trkpt lat="45.77067" lon="2.96277">
        <ele>1374.9</ele>
        <time>2021-08-28T12:27:50.000Z</time>
      </trkpt>
      <trkpt lat="45.77065" lon="2.96285">
        <ele>1370.7</ele>
        <time>2021-08-28T12:27:57.000Z</time>
      </trkpt>
      <trkpt lat="45.77061" lon="2.96294">
        <ele>1364.3</ele>
        <time>2021-08-28T12:28:08.000Z</time>
      </trkpt>
      <trkpt lat="45.77057" lon="2.96281">
        <ele>1365.6</ele>
        <time>2021-08-28T12:28:20.000Z</time>
      </trkpt>
      <trkpt lat="45.77056" lon="2.9627">
        <ele>1368.6</ele>
        <time>2021-08-28T12:28:22.000Z</time>
      </trkpt>
      <trkpt lat="45.77051" lon="2.96251">
        <ele>1371.6</ele>
        <time>2021-08-28T12:28:27.000Z</time>
      </trkpt>
      <trkpt lat="45.77053" lon="2.96272">
        <ele>1365.6</ele>
        <time>2021-08-28T12:28:59.000Z</time>
      </trkpt>
      <trkpt lat="45.77045" lon="2.96274">
        <ele>1358.6</ele>
        <time>2021-08-28T12:29:11.000Z</time>
      </trkpt>
      <trkpt lat="45.77038" lon="2.96279">
        <ele>1351.1</ele>
        <time>2021-08-28T12:29:17.000Z</time>
      </trkpt>
      <trkpt lat="45.77036" lon="2.96288">
        <ele>1346</ele>
        <time>2021-08-28T12:29:25.000Z</time>
      </trkpt>
      <trkpt lat="45.7704" lon="2.96296">
        <ele>1346.2</ele>
        <time>2021-08-28T12:29:29.000Z</time>
      </trkpt>
      <trkpt lat="45.77048" lon="2.96258">
        <ele>1366.8</ele>
        <time>2021-08-28T12:29:51.000Z</time>
      </trkpt>
      <trkpt lat="45.77047" lon="2.96248">
        <ele>1369.2</ele>
        <time>2021-08-28T12:29:56.000Z</time>
      </trkpt>
      <trkpt lat="45.77049" lon="2.96239">
        <ele>1371.6</ele>
        <time>2021-08-28T12:30:05.000Z</time>
      </trkpt>
      <trkpt lat="45.77041" lon="2.96243">
        <ele>1365.4</ele>
        <time>2021-08-28T12:30:11.000Z</time>
      </trkpt>
      <trkpt lat="45.77033" lon="2.96244">
        <ele>1359.4</ele>
        <time>2021-08-28T12:30:17.000Z</time>
      </trkpt>
      <trkpt lat="45.77037" lon="2.96237">
        <ele>1363.3</ele>
        <time>2021-08-28T12:31:10.000Z</time>
      </trkpt>
      <trkpt lat="45.77044" lon="2.9625">
        <ele>1366.7</ele>
        <time>2021-08-28T12:31:15.000Z</time>
      </trkpt>
      <trkpt lat="45.77051" lon="2.96262">
        <ele>1367.6</ele>
        <time>2021-08-28T12:31:21.000Z</time>
      </trkpt>
      <trkpt lat="45.77053" lon="2.96272">
        <ele>1365.6</ele>
        <time>2021-08-28T12:31:30.000Z</time>
      </trkpt>
      <trkpt lat="45.77057" lon="2.9628">
        <ele>1365.9</ele>
        <time>2021-08-28T12:31:34.000Z</time>
      </trkpt>
      <trkpt lat="45.7705" lon="2.96281">
        <ele>1360</ele>
        <time>2021-08-28T12:31:43.000Z</time>
      </trkpt>
      <trkpt lat="45.77049" lon="2.96269">
        <ele>1363.5</ele>
        <time>2021-08-28T12:32:21.000Z</time>
      </trkpt>
      <trkpt lat="45.77049" lon="2.9626">
        <ele>1366.8</ele>
        <time>2021-08-28T12:32:35.000Z</time>
      </trkpt>
      <trkpt lat="45.77048" lon="2.9625">
        <ele>1369.7</ele>
        <time>2021-08-28T12:32:42.000Z</time>
      </trkpt>
      <trkpt lat="45.77049" lon="2.96263">
        <ele>1365.7</ele>
        <time>2021-08-28T12:33:10.000Z</time>
      </trkpt>
      <trkpt lat="45.77049" lon="2.96273">
        <ele>1362.1</ele>
        <time>2021-08-28T12:33:16.000Z</time>
      </trkpt>
      <trkpt lat="45.77045" lon="2.96264">
        <ele>1362.3</ele>
        <time>2021-08-28T12:33:27.000Z</time>
      </trkpt>
      <trkpt lat="45.77046" lon="2.96252">
        <ele>1367.5</ele>
        <time>2021-08-28T12:33:39.000Z</time>
      </trkpt>
      <trkpt lat="45.77046" lon="2.96242">
        <ele>1369.1</ele>
        <time>2021-08-28T12:33:45.000Z</time>
      </trkpt>
      <trkpt lat="45.77052" lon="2.96247">
        <ele>1373</ele>
        <time>2021-08-28T12:35:31.000Z</time>
      </trkpt>
      <trkpt lat="45.77047" lon="2.96282">
        <ele>1357.2</ele>
        <time>2021-08-28T12:38:36.000Z</time>
      </trkpt>
      <trkpt lat="45.77061" lon="2.96249">
        <ele>1379.5</ele>
        <time>2021-08-28T12:38:42.000Z</time>
      </trkpt>
      <trkpt lat="45.77067" lon="2.96253">
        <ele>1382.9</ele>
        <time>2021-08-28T12:38:49.000Z</time>
      </trkpt>
      <trkpt lat="45.77075" lon="2.96261">
        <ele>1386.3</ele>
        <time>2021-08-28T12:39:18.000Z</time>
      </trkpt>
      <trkpt lat="45.77081" lon="2.96256">
        <ele>1392.4</ele>
        <time>2021-08-28T12:39:42.000Z</time>
      </trkpt>
      <trkpt lat="45.77083" lon="2.96246">
        <ele>1395.9</ele>
        <time>2021-08-28T12:39:50.000Z</time>
      </trkpt>
      <trkpt lat="45.77085" lon="2.96237">
        <ele>1396.7</ele>
        <time>2021-08-28T12:39:57.000Z</time>
      </trkpt>
      <trkpt lat="45.77083" lon="2.96227">
        <ele>1396.3</ele>
        <time>2021-08-28T12:40:04.000Z</time>
      </trkpt>
      <trkpt lat="45.77081" lon="2.96217">
        <ele>1395.2</ele>
        <time>2021-08-28T12:40:11.000Z</time>
      </trkpt>
      <trkpt lat="45.77075" lon="2.96211">
        <ele>1391.5</ele>
        <time>2021-08-28T12:40:17.000Z</time>
      </trkpt>
      <trkpt lat="45.77068" lon="2.96209">
        <ele>1387.1</ele>
        <time>2021-08-28T12:40:26.000Z</time>
      </trkpt>
      <trkpt lat="45.77061" lon="2.96208">
        <ele>1382.7</ele>
        <time>2021-08-28T12:40:41.000Z</time>
      </trkpt>
      <trkpt lat="45.7705" lon="2.96209">
        <ele>1375.5</ele>
        <time>2021-08-28T12:41:09.000Z</time>
      </trkpt>
      <trkpt lat="45.77058" lon="2.96215">
        <ele>1380.2</ele>
        <time>2021-08-28T12:42:29.000Z</time>
      </trkpt>
      <trkpt lat="45.77062" lon="2.96208">
        <ele>1383.3</ele>
        <time>2021-08-28T12:44:23.000Z</time>
      </trkpt>
      <trkpt lat="45.77068" lon="2.96212">
        <ele>1386.9</ele>
        <time>2021-08-28T12:44:58.000Z</time>
      </trkpt>
      <trkpt lat="45.77076" lon="2.96211">
        <ele>1392.2</ele>
        <time>2021-08-28T12:45:03.000Z</time>
      </trkpt>
      <trkpt lat="45.77083" lon="2.9621">
        <ele>1396.7</ele>
        <time>2021-08-28T12:45:10.000Z</time>
      </trkpt>
      <trkpt lat="45.77088" lon="2.96204">
        <ele>1397.9</ele>
        <time>2021-08-28T12:45:17.000Z</time>
      </trkpt>
      <trkpt lat="45.77087" lon="2.96193">
        <ele>1397.9</ele>
        <time>2021-08-28T12:45:42.000Z</time>
      </trkpt>
      <trkpt lat="45.77084" lon="2.96184">
        <ele>1397.7</ele>
        <time>2021-08-28T12:45:48.000Z</time>
      </trkpt>
      <trkpt lat="45.77082" lon="2.96175">
        <ele>1397.1</ele>
        <time>2021-08-28T12:45:54.000Z</time>
      </trkpt>
      <trkpt lat="45.77083" lon="2.96165">
        <ele>1397.6</ele>
        <time>2021-08-28T12:46:01.000Z</time>
      </trkpt>
      <trkpt lat="45.77082" lon="2.96154">
        <ele>1395.3</ele>
        <time>2021-08-28T12:46:08.000Z</time>
      </trkpt>
      <trkpt lat="45.77079" lon="2.96146">
        <ele>1392.5</ele>
        <time>2021-08-28T12:46:13.000Z</time>
      </trkpt>
      <trkpt lat="45.77077" lon="2.96136">
        <ele>1390</ele>
        <time>2021-08-28T12:46:21.000Z</time>
      </trkpt>
      <trkpt lat="45.77075" lon="2.96126">
        <ele>1387.4</ele>
        <time>2021-08-28T12:46:31.000Z</time>
      </trkpt>
      <trkpt lat="45.7707" lon="2.9612">
        <ele>1384.1</ele>
        <time>2021-08-28T12:46:39.000Z</time>
      </trkpt>
      <trkpt lat="45.77066" lon="2.96107">
        <ele>1380.2</ele>
        <time>2021-08-28T12:47:22.000Z</time>
      </trkpt>
      <trkpt lat="45.77067" lon="2.96098">
        <ele>1379.4</ele>
        <time>2021-08-28T12:47:33.000Z</time>
      </trkpt>
      <trkpt lat="45.77066" lon="2.96088">
        <ele>1377.5</ele>
        <time>2021-08-28T12:47:40.000Z</time>
      </trkpt>
      <trkpt lat="45.77066" lon="2.96078">
        <ele>1375.1</ele>
        <time>2021-08-28T12:47:49.000Z</time>
      </trkpt>
      <trkpt lat="45.7707" lon="2.96069">
        <ele>1374</ele>
        <time>2021-08-28T12:47:56.000Z</time>
      </trkpt>
      <trkpt lat="45.77075" lon="2.96062">
        <ele>1374</ele>
        <time>2021-08-28T12:48:03.000Z</time>
      </trkpt>
      <trkpt lat="45.7708" lon="2.96055">
        <ele>1374.2</ele>
        <time>2021-08-28T12:48:09.000Z</time>
      </trkpt>
      <trkpt lat="45.77088" lon="2.96053">
        <ele>1376.7</ele>
        <time>2021-08-28T12:48:15.000Z</time>
      </trkpt>
      <trkpt lat="45.77095" lon="2.96052">
        <ele>1378.7</ele>
        <time>2021-08-28T12:48:21.000Z</time>
      </trkpt>
      <trkpt lat="45.77102" lon="2.96056">
        <ele>1382.3</ele>
        <time>2021-08-28T12:48:27.000Z</time>
      </trkpt>
      <trkpt lat="45.77109" lon="2.96058">
        <ele>1385.1</ele>
        <time>2021-08-28T12:48:33.000Z</time>
      </trkpt>
      <trkpt lat="45.77116" lon="2.96057">
        <ele>1387.1</ele>
        <time>2021-08-28T12:48:40.000Z</time>
      </trkpt>
      <trkpt lat="45.77123" lon="2.96058">
        <ele>1389.7</ele>
        <time>2021-08-28T12:48:49.000Z</time>
      </trkpt>
      <trkpt lat="45.7713" lon="2.96056">
        <ele>1391.4</ele>
        <time>2021-08-28T12:48:59.000Z</time>
      </trkpt>
      <trkpt lat="45.77137" lon="2.96054">
        <ele>1393.2</ele>
        <time>2021-08-28T12:49:08.000Z</time>
      </trkpt>
      <trkpt lat="45.77144" lon="2.96054">
        <ele>1395.5</ele>
        <time>2021-08-28T12:49:22.000Z</time>
      </trkpt>
      <trkpt lat="45.77149" lon="2.96062">
        <ele>1399</ele>
        <time>2021-08-28T12:49:33.000Z</time>
      </trkpt>
      <trkpt lat="45.77154" lon="2.96069">
        <ele>1402.2</ele>
        <time>2021-08-28T12:49:47.000Z</time>
      </trkpt>
      <trkpt lat="45.77158" lon="2.96077">
        <ele>1405.1</ele>
        <time>2021-08-28T12:49:55.000Z</time>
      </trkpt>
      <trkpt lat="45.77163" lon="2.96083">
        <ele>1407.9</ele>
        <time>2021-08-28T12:50:03.000Z</time>
      </trkpt>
      <trkpt lat="45.77168" lon="2.9609">
        <ele>1409</ele>
        <time>2021-08-28T12:50:12.000Z</time>
      </trkpt>
      <trkpt lat="45.77172" lon="2.96098">
        <ele>1409.2</ele>
        <time>2021-08-28T12:50:20.000Z</time>
      </trkpt>
      <trkpt lat="45.77175" lon="2.96106">
        <ele>1409.3</ele>
        <time>2021-08-28T12:50:34.000Z</time>
      </trkpt>
      <trkpt lat="45.77175" lon="2.96097">
        <ele>1409.3</ele>
        <time>2021-08-28T12:52:11.000Z</time>
      </trkpt>
      <trkpt lat="45.7717" lon="2.96089">
        <ele>1409.1</ele>
        <time>2021-08-28T12:52:19.000Z</time>
      </trkpt>
      <trkpt lat="45.77166" lon="2.96081">
        <ele>1408.3</ele>
        <time>2021-08-28T12:53:20.000Z</time>
      </trkpt>
      <trkpt lat="45.7717" lon="2.96089">
        <ele>1409.1</ele>
        <time>2021-08-28T12:53:43.000Z</time>
      </trkpt>
      <trkpt lat="45.77166" lon="2.9608">
        <ele>1408.1</ele>
        <time>2021-08-28T12:53:50.000Z</time>
      </trkpt>
      <trkpt lat="45.77162" lon="2.96072">
        <ele>1405.3</ele>
        <time>2021-08-28T12:53:55.000Z</time>
      </trkpt>
      <trkpt lat="45.77157" lon="2.96065">
        <ele>1402.2</ele>
        <time>2021-08-28T12:54:01.000Z</time>
      </trkpt>
      <trkpt lat="45.77152" lon="2.96058">
        <ele>1399.1</ele>
        <time>2021-08-28T12:54:07.000Z</time>
      </trkpt>
      <trkpt lat="45.77147" lon="2.96052">
        <ele>1396.1</ele>
        <time>2021-08-28T12:54:13.000Z</time>
      </trkpt>
      <trkpt lat="45.77148" lon="2.96043">
        <ele>1394.3</ele>
        <time>2021-08-28T12:54:22.000Z</time>
      </trkpt>
      <trkpt lat="45.77151" lon="2.96034">
        <ele>1393.3</ele>
        <time>2021-08-28T12:54:29.000Z</time>
      </trkpt>
      <trkpt lat="45.77155" lon="2.96026">
        <ele>1393</ele>
        <time>2021-08-28T12:54:34.000Z</time>
      </trkpt>
      <trkpt lat="45.77158" lon="2.96017">
        <ele>1392.1</ele>
        <time>2021-08-28T12:54:40.000Z</time>
      </trkpt>
      <trkpt lat="45.77162" lon="2.96008">
        <ele>1391.8</ele>
        <time>2021-08-28T12:54:46.000Z</time>
      </trkpt>
      <trkpt lat="45.77165" lon="2.96">
        <ele>1391.3</ele>
        <time>2021-08-28T12:54:51.000Z</time>
      </trkpt>
      <trkpt lat="45.77168" lon="2.95989">
        <ele>1387.9</ele>
        <time>2021-08-28T12:54:57.000Z</time>
      </trkpt>
      <trkpt lat="45.77171" lon="2.95979">
        <ele>1384.4</ele>
        <time>2021-08-28T12:55:03.000Z</time>
      </trkpt>
      <trkpt lat="45.77175" lon="2.9597">
        <ele>1381.6</ele>
        <time>2021-08-28T12:55:09.000Z</time>
      </trkpt>
      <trkpt lat="45.77181" lon="2.95966">
        <ele>1381.1</ele>
        <time>2021-08-28T12:55:15.000Z</time>
      </trkpt>
      <trkpt lat="45.77188" lon="2.95968">
        <ele>1383</ele>
        <time>2021-08-28T12:55:21.000Z</time>
      </trkpt>
      <trkpt lat="45.77194" lon="2.95969">
        <ele>1384.5</ele>
        <time>2021-08-28T12:55:27.000Z</time>
      </trkpt>
      <trkpt lat="45.77201" lon="2.9597">
        <ele>1386.1</ele>
        <time>2021-08-28T12:55:33.000Z</time>
      </trkpt>
      <trkpt lat="45.7721" lon="2.95974">
        <ele>1389.1</ele>
        <time>2021-08-28T12:55:39.000Z</time>
      </trkpt>
      <trkpt lat="45.77217" lon="2.95975">
        <ele>1390.7</ele>
        <time>2021-08-28T12:55:45.000Z</time>
      </trkpt>
      <trkpt lat="45.77224" lon="2.95976">
        <ele>1392.2</ele>
        <time>2021-08-28T12:55:51.000Z</time>
      </trkpt>
      <trkpt lat="45.77231" lon="2.9598">
        <ele>1394.9</ele>
        <time>2021-08-28T12:55:57.000Z</time>
      </trkpt>
      <trkpt lat="45.7724" lon="2.95982">
        <ele>1397.1</ele>
        <time>2021-08-28T12:56:03.000Z</time>
      </trkpt>
      <trkpt lat="45.77246" lon="2.95982">
        <ele>1398.1</ele>
        <time>2021-08-28T12:56:11.000Z</time>
      </trkpt>
      <trkpt lat="45.77253" lon="2.95982">
        <ele>1398.6</ele>
        <time>2021-08-28T12:56:18.000Z</time>
      </trkpt>
      <trkpt lat="45.7726" lon="2.95983">
        <ele>1398.7</ele>
        <time>2021-08-28T12:56:26.000Z</time>
      </trkpt>
      <trkpt lat="45.77267" lon="2.95986">
        <ele>1399.5</ele>
        <time>2021-08-28T12:56:34.000Z</time>
      </trkpt>
      <trkpt lat="45.77272" lon="2.95991">
        <ele>1401.2</ele>
        <time>2021-08-28T12:56:40.000Z</time>
      </trkpt>
      <trkpt lat="45.77277" lon="2.95997">
        <ele>1403.2</ele>
        <time>2021-08-28T12:56:56.000Z</time>
      </trkpt>
      <trkpt lat="45.77282" lon="2.96004">
        <ele>1404.6</ele>
        <time>2021-08-28T12:57:03.000Z</time>
      </trkpt>
      <trkpt lat="45.77288" lon="2.96012">
        <ele>1405.2</ele>
        <time>2021-08-28T12:57:09.000Z</time>
      </trkpt>
      <trkpt lat="45.77293" lon="2.96019">
        <ele>1405.7</ele>
        <time>2021-08-28T12:57:15.000Z</time>
      </trkpt>
      <trkpt lat="45.77299" lon="2.96026">
        <ele>1406.2</ele>
        <time>2021-08-28T12:57:21.000Z</time>
      </trkpt>
      <trkpt lat="45.77305" lon="2.96033">
        <ele>1406.7</ele>
        <time>2021-08-28T12:57:27.000Z</time>
      </trkpt>
      <trkpt lat="45.77311" lon="2.96041">
        <ele>1407.3</ele>
        <time>2021-08-28T12:57:33.000Z</time>
      </trkpt>
      <trkpt lat="45.77317" lon="2.96049">
        <ele>1408</ele>
        <time>2021-08-28T12:57:39.000Z</time>
      </trkpt>
      <trkpt lat="45.77323" lon="2.96057">
        <ele>1408.6</ele>
        <time>2021-08-28T12:57:45.000Z</time>
      </trkpt>
      <trkpt lat="45.7733" lon="2.96065">
        <ele>1409.3</ele>
        <time>2021-08-28T12:57:51.000Z</time>
      </trkpt>
      <trkpt lat="45.77335" lon="2.96073">
        <ele>1409.8</ele>
        <time>2021-08-28T12:57:57.000Z</time>
      </trkpt>
      <trkpt lat="45.77341" lon="2.96079">
        <ele>1409.9</ele>
        <time>2021-08-28T12:58:03.000Z</time>
      </trkpt>
      <trkpt lat="45.77347" lon="2.96083">
        <ele>1409.8</ele>
        <time>2021-08-28T12:58:09.000Z</time>
      </trkpt>
      <trkpt lat="45.77353" lon="2.96091">
        <ele>1409.5</ele>
        <time>2021-08-28T12:58:15.000Z</time>
      </trkpt>
      <trkpt lat="45.77357" lon="2.96101">
        <ele>1409.4</ele>
        <time>2021-08-28T12:58:21.000Z</time>
      </trkpt>
      <trkpt lat="45.77359" lon="2.9611">
        <ele>1409.4</ele>
        <time>2021-08-28T12:58:27.000Z</time>
      </trkpt>
      <trkpt lat="45.7736" lon="2.9612">
        <ele>1409.6</ele>
        <time>2021-08-28T12:59:17.000Z</time>
      </trkpt>
      <trkpt lat="45.77362" lon="2.96129">
        <ele>1409.7</ele>
        <time>2021-08-28T12:59:22.000Z</time>
      </trkpt>
      <trkpt lat="45.77364" lon="2.96139">
        <ele>1409.9</ele>
        <time>2021-08-28T12:59:29.000Z</time>
      </trkpt>
      <trkpt lat="45.7737" lon="2.96141">
        <ele>1409.7</ele>
        <time>2021-08-28T13:00:17.000Z</time>
      </trkpt>
      <trkpt lat="45.77368" lon="2.96151">
        <ele>1410.1</ele>
        <time>2021-08-28T13:00:35.000Z</time>
      </trkpt>
      <trkpt lat="45.77371" lon="2.96159">
        <ele>1410.3</ele>
        <time>2021-08-28T13:00:41.000Z</time>
      </trkpt>
      <trkpt lat="45.77374" lon="2.96168">
        <ele>1410.6</ele>
        <time>2021-08-28T13:00:47.000Z</time>
      </trkpt>
      <trkpt lat="45.77377" lon="2.96179">
        <ele>1411.4</ele>
        <time>2021-08-28T13:00:55.000Z</time>
      </trkpt>
      <trkpt lat="45.77375" lon="2.96188">
        <ele>1412.2</ele>
        <time>2021-08-28T13:01:07.000Z</time>
      </trkpt>
      <trkpt lat="45.77368" lon="2.96191">
        <ele>1412.7</ele>
        <time>2021-08-28T13:01:17.000Z</time>
      </trkpt>
      <trkpt lat="45.77363" lon="2.96196">
        <ele>1413.4</ele>
        <time>2021-08-28T13:01:58.000Z</time>
      </trkpt>
      <trkpt lat="45.77356" lon="2.96196">
        <ele>1413.7</ele>
        <time>2021-08-28T13:02:09.000Z</time>
      </trkpt>
      <trkpt lat="45.77348" lon="2.96195">
        <ele>1414</ele>
        <time>2021-08-28T13:02:17.000Z</time>
      </trkpt>
      <trkpt lat="45.77342" lon="2.96199">
        <ele>1414.8</ele>
        <time>2021-08-28T13:02:24.000Z</time>
      </trkpt>
      <trkpt lat="45.77339" lon="2.96208">
        <ele>1416.1</ele>
        <time>2021-08-28T13:02:31.000Z</time>
      </trkpt>
      <trkpt lat="45.77337" lon="2.96218">
        <ele>1417.5</ele>
        <time>2021-08-28T13:02:38.000Z</time>
      </trkpt>
      <trkpt lat="45.77335" lon="2.96227">
        <ele>1418.8</ele>
        <time>2021-08-28T13:02:44.000Z</time>
      </trkpt>
      <trkpt lat="45.77335" lon="2.96237">
        <ele>1420.1</ele>
        <time>2021-08-28T13:02:52.000Z</time>
      </trkpt>
      <trkpt lat="45.77335" lon="2.96247">
        <ele>1421.4</ele>
        <time>2021-08-28T13:03:01.000Z</time>
      </trkpt>
      <trkpt lat="45.77335" lon="2.96256">
        <ele>1422.9</ele>
        <time>2021-08-28T13:03:10.000Z</time>
      </trkpt>
      <trkpt lat="45.77336" lon="2.96266">
        <ele>1424.5</ele>
        <time>2021-08-28T13:03:19.000Z</time>
      </trkpt>
      <trkpt lat="45.77331" lon="2.96272">
        <ele>1426</ele>
        <time>2021-08-28T13:03:28.000Z</time>
      </trkpt>
      <trkpt lat="45.77325" lon="2.96277">
        <ele>1426.8</ele>
        <time>2021-08-28T13:03:38.000Z</time>
      </trkpt>
      <trkpt lat="45.77325" lon="2.96267">
        <ele>1425.1</ele>
        <time>2021-08-28T13:04:01.000Z</time>
      </trkpt>
      <trkpt lat="45.77322" lon="2.96258">
        <ele>1423.5</ele>
        <time>2021-08-28T13:04:08.000Z</time>
      </trkpt>
      <trkpt lat="45.77317" lon="2.96253">
        <ele>1422.7</ele>
        <time>2021-08-28T13:04:14.000Z</time>
      </trkpt>
      <trkpt lat="45.77311" lon="2.96249">
        <ele>1422.1</ele>
        <time>2021-08-28T13:04:20.000Z</time>
      </trkpt>
      <trkpt lat="45.77304" lon="2.96253">
        <ele>1422.8</ele>
        <time>2021-08-28T13:04:26.000Z</time>
      </trkpt>
      <trkpt lat="45.77298" lon="2.96257">
        <ele>1423.5</ele>
        <time>2021-08-28T13:04:33.000Z</time>
      </trkpt>
      <trkpt lat="45.77293" lon="2.96263">
        <ele>1424.4</ele>
        <time>2021-08-28T13:04:43.000Z</time>
      </trkpt>
      <trkpt lat="45.77288" lon="2.96272">
        <ele>1425.8</ele>
        <time>2021-08-28T13:04:59.000Z</time>
      </trkpt>
      <trkpt lat="45.77288" lon="2.96281">
        <ele>1427.1</ele>
        <time>2021-08-28T13:05:09.000Z</time>
      </trkpt>
      <trkpt lat="45.77292" lon="2.9629">
        <ele>1428.5</ele>
        <time>2021-08-28T13:05:16.000Z</time>
      </trkpt>
      <trkpt lat="45.77295" lon="2.96299">
        <ele>1429.9</ele>
        <time>2021-08-28T13:05:24.000Z</time>
      </trkpt>
      <trkpt lat="45.77298" lon="2.96308">
        <ele>1431.4</ele>
        <time>2021-08-28T13:05:31.000Z</time>
      </trkpt>
      <trkpt lat="45.77299" lon="2.96318">
        <ele>1433</ele>
        <time>2021-08-28T13:05:39.000Z</time>
      </trkpt>
      <trkpt lat="45.77298" lon="2.96327">
        <ele>1434.3</ele>
        <time>2021-08-28T13:05:47.000Z</time>
      </trkpt>
      <trkpt lat="45.77297" lon="2.96337">
        <ele>1435.9</ele>
        <time>2021-08-28T13:05:54.000Z</time>
      </trkpt>
      <trkpt lat="45.77296" lon="2.96347">
        <ele>1437.6</ele>
        <time>2021-08-28T13:06:06.000Z</time>
      </trkpt>
      <trkpt lat="45.77298" lon="2.96356">
        <ele>1439.3</ele>
        <time>2021-08-28T13:06:14.000Z</time>
      </trkpt>
      <trkpt lat="45.77296" lon="2.96366">
        <ele>1440.9</ele>
        <time>2021-08-28T13:06:24.000Z</time>
      </trkpt>
      <trkpt lat="45.77298" lon="2.96375">
        <ele>1442.6</ele>
        <time>2021-08-28T13:06:38.000Z</time>
      </trkpt>
      <trkpt lat="45.77302" lon="2.96383">
        <ele>1444.4</ele>
        <time>2021-08-28T13:06:49.000Z</time>
      </trkpt>
      <trkpt lat="45.77304" lon="2.96392">
        <ele>1446.3</ele>
        <time>2021-08-28T13:06:58.000Z</time>
      </trkpt>
      <trkpt lat="45.77304" lon="2.96382">
        <ele>1444.5</ele>
        <time>2021-08-28T13:08:08.000Z</time>
      </trkpt>
      <trkpt lat="45.77302" lon="2.96373">
        <ele>1442.6</ele>
        <time>2021-08-28T13:08:14.000Z</time>
      </trkpt>
      <trkpt lat="45.773" lon="2.96363">
        <ele>1440.7</ele>
        <time>2021-08-28T13:08:22.000Z</time>
      </trkpt>
      <trkpt lat="45.77299" lon="2.96353">
        <ele>1438.8</ele>
        <time>2021-08-28T13:08:28.000Z</time>
      </trkpt>
      <trkpt lat="45.77295" lon="2.96345">
        <ele>1437.2</ele>
        <time>2021-08-28T13:08:37.000Z</time>
      </trkpt>
      <trkpt lat="45.77297" lon="2.96335">
        <ele>1435.5</ele>
        <time>2021-08-28T13:08:46.000Z</time>
      </trkpt>
      <trkpt lat="45.77299" lon="2.96326">
        <ele>1434.2</ele>
        <time>2021-08-28T13:08:52.000Z</time>
      </trkpt>
      <trkpt lat="45.77298" lon="2.96315">
        <ele>1432.5</ele>
        <time>2021-08-28T13:08:58.000Z</time>
      </trkpt>
      <trkpt lat="45.77298" lon="2.96305">
        <ele>1430.9</ele>
        <time>2021-08-28T13:09:03.000Z</time>
      </trkpt>
      <trkpt lat="45.77295" lon="2.96297">
        <ele>1429.6</ele>
        <time>2021-08-28T13:09:09.000Z</time>
      </trkpt>
      <trkpt lat="45.77291" lon="2.96289">
        <ele>1428.3</ele>
        <time>2021-08-28T13:09:15.000Z</time>
      </trkpt>
      <trkpt lat="45.77286" lon="2.96281">
        <ele>1427.1</ele>
        <time>2021-08-28T13:09:22.000Z</time>
      </trkpt>
      <trkpt lat="45.77281" lon="2.96274">
        <ele>1426</ele>
        <time>2021-08-28T13:09:30.000Z</time>
      </trkpt>
      <trkpt lat="45.77274" lon="2.96276">
        <ele>1426.3</ele>
        <time>2021-08-28T13:09:36.000Z</time>
      </trkpt>
      <trkpt lat="45.77268" lon="2.96281">
        <ele>1426.9</ele>
        <time>2021-08-28T13:09:43.000Z</time>
      </trkpt>
      <trkpt lat="45.77261" lon="2.96284">
        <ele>1427.2</ele>
        <time>2021-08-28T13:09:49.000Z</time>
      </trkpt>
      <trkpt lat="45.77255" lon="2.96288">
        <ele>1427.6</ele>
        <time>2021-08-28T13:09:55.000Z</time>
      </trkpt>
      <trkpt lat="45.77248" lon="2.96291">
        <ele>1427.6</ele>
        <time>2021-08-28T13:10:01.000Z</time>
      </trkpt>
      <trkpt lat="45.77241" lon="2.96294">
        <ele>1426.6</ele>
        <time>2021-08-28T13:10:07.000Z</time>
      </trkpt>
      <trkpt lat="45.77235" lon="2.96296">
        <ele>1425.7</ele>
        <time>2021-08-28T13:10:12.000Z</time>
      </trkpt>
      <trkpt lat="45.77228" lon="2.96301">
        <ele>1424.8</ele>
        <time>2021-08-28T13:10:19.000Z</time>
      </trkpt>
      <trkpt lat="45.77222" lon="2.96306">
        <ele>1424</ele>
        <time>2021-08-28T13:10:24.000Z</time>
      </trkpt>
      <trkpt lat="45.77216" lon="2.96308">
        <ele>1422.9</ele>
        <time>2021-08-28T13:10:29.000Z</time>
      </trkpt>
      <trkpt lat="45.77209" lon="2.96307">
        <ele>1421.4</ele>
        <time>2021-08-28T13:10:35.000Z</time>
      </trkpt>
      <trkpt lat="45.77202" lon="2.96303">
        <ele>1419.8</ele>
        <time>2021-08-28T13:10:41.000Z</time>
      </trkpt>
      <trkpt lat="45.77195" lon="2.96299">
        <ele>1418.3</ele>
        <time>2021-08-28T13:10:47.000Z</time>
      </trkpt>
      <trkpt lat="45.77188" lon="2.96296">
        <ele>1416.9</ele>
        <time>2021-08-28T13:10:53.000Z</time>
      </trkpt>
      <trkpt lat="45.77181" lon="2.96294">
        <ele>1415.6</ele>
        <time>2021-08-28T13:11:03.000Z</time>
      </trkpt>
      <trkpt lat="45.77176" lon="2.96301">
        <ele>1414.6</ele>
        <time>2021-08-28T13:11:54.000Z</time>
      </trkpt>
      <trkpt lat="45.77171" lon="2.96308">
        <ele>1413.5</ele>
        <time>2021-08-28T13:12:01.000Z</time>
      </trkpt>
      <trkpt lat="45.77165" lon="2.96313">
        <ele>1411.8</ele>
        <time>2021-08-28T13:12:11.000Z</time>
      </trkpt>
      <trkpt lat="45.77161" lon="2.96321">
        <ele>1409.7</ele>
        <time>2021-08-28T13:12:18.000Z</time>
      </trkpt>
      <trkpt lat="45.77158" lon="2.96331">
        <ele>1407.9</ele>
        <time>2021-08-28T13:12:38.000Z</time>
      </trkpt>
      <trkpt lat="45.77155" lon="2.9634">
        <ele>1405.6</ele>
        <time>2021-08-28T13:12:44.000Z</time>
      </trkpt>
      <trkpt lat="45.77152" lon="2.96349">
        <ele>1403.3</ele>
        <time>2021-08-28T13:12:51.000Z</time>
      </trkpt>
      <trkpt lat="45.77148" lon="2.96359">
        <ele>1400.1</ele>
        <time>2021-08-28T13:12:57.000Z</time>
      </trkpt>
      <trkpt lat="45.77144" lon="2.96366">
        <ele>1397.2</ele>
        <time>2021-08-28T13:13:03.000Z</time>
      </trkpt>
      <trkpt lat="45.77138" lon="2.96373">
        <ele>1393.1</ele>
        <time>2021-08-28T13:13:11.000Z</time>
      </trkpt>
      <trkpt lat="45.77133" lon="2.9638">
        <ele>1389.4</ele>
        <time>2021-08-28T13:13:19.000Z</time>
      </trkpt>
      <trkpt lat="45.77127" lon="2.96388">
        <ele>1384.8</ele>
        <time>2021-08-28T13:13:26.000Z</time>
      </trkpt>
      <trkpt lat="45.77124" lon="2.96396">
        <ele>1381.9</ele>
        <time>2021-08-28T13:13:34.000Z</time>
      </trkpt>
      <trkpt lat="45.77127" lon="2.96405">
        <ele>1382.4</ele>
        <time>2021-08-28T13:13:44.000Z</time>
      </trkpt>
      <trkpt lat="45.77132" lon="2.96412">
        <ele>1384.6</ele>
        <time>2021-08-28T13:13:53.000Z</time>
      </trkpt>
      <trkpt lat="45.77136" lon="2.9642">
        <ele>1386.3</ele>
        <time>2021-08-28T13:14:05.000Z</time>
      </trkpt>
      <trkpt lat="45.77139" lon="2.96429">
        <ele>1387.5</ele>
        <time>2021-08-28T13:14:14.000Z</time>
      </trkpt>
      <trkpt lat="45.77142" lon="2.96438">
        <ele>1388.8</ele>
        <time>2021-08-28T13:14:22.000Z</time>
      </trkpt>
      <trkpt lat="45.77143" lon="2.96447">
        <ele>1388.8</ele>
        <time>2021-08-28T13:14:29.000Z</time>
      </trkpt>
      <trkpt lat="45.77144" lon="2.96457">
        <ele>1388.8</ele>
        <time>2021-08-28T13:14:39.000Z</time>
      </trkpt>
      <trkpt lat="45.77142" lon="2.96466">
        <ele>1386.8</ele>
        <time>2021-08-28T13:14:46.000Z</time>
      </trkpt>
      <trkpt lat="45.77143" lon="2.96476">
        <ele>1386.8</ele>
        <time>2021-08-28T13:14:54.000Z</time>
      </trkpt>
      <trkpt lat="45.77143" lon="2.96486">
        <ele>1386.1</ele>
        <time>2021-08-28T13:15:02.000Z</time>
      </trkpt>
      <trkpt lat="45.77143" lon="2.96477">
        <ele>1386.7</ele>
        <time>2021-08-28T13:16:05.000Z</time>
      </trkpt>
      <trkpt lat="45.77141" lon="2.96466">
        <ele>1386.2</ele>
        <time>2021-08-28T13:16:12.000Z</time>
      </trkpt>
      <trkpt lat="45.77141" lon="2.96456">
        <ele>1386.9</ele>
        <time>2021-08-28T13:16:58.000Z</time>
      </trkpt>
      <trkpt lat="45.77139" lon="2.96446">
        <ele>1386.3</ele>
        <time>2021-08-28T13:17:04.000Z</time>
      </trkpt>
      <trkpt lat="45.77138" lon="2.96436">
        <ele>1386.4</ele>
        <time>2021-08-28T13:17:09.000Z</time>
      </trkpt>
      <trkpt lat="45.77136" lon="2.96427">
        <ele>1385.7</ele>
        <time>2021-08-28T13:17:15.000Z</time>
      </trkpt>
      <trkpt lat="45.77134" lon="2.96417">
        <ele>1385.2</ele>
        <time>2021-08-28T13:17:22.000Z</time>
      </trkpt>
      <trkpt lat="45.77131" lon="2.96409">
        <ele>1384.3</ele>
        <time>2021-08-28T13:17:37.000Z</time>
      </trkpt>
      <trkpt lat="45.77125" lon="2.96401">
        <ele>1381.8</ele>
        <time>2021-08-28T13:18:08.000Z</time>
      </trkpt>
      <trkpt lat="45.77122" lon="2.96392">
        <ele>1381.3</ele>
        <time>2021-08-28T13:18:15.000Z</time>
      </trkpt>
      <trkpt lat="45.77118" lon="2.96383">
        <ele>1380.3</ele>
        <time>2021-08-28T13:18:21.000Z</time>
      </trkpt>
      <trkpt lat="45.77114" lon="2.96376">
        <ele>1379.1</ele>
        <time>2021-08-28T13:18:27.000Z</time>
      </trkpt>
      <trkpt lat="45.7711" lon="2.96367">
        <ele>1378.4</ele>
        <time>2021-08-28T13:18:34.000Z</time>
      </trkpt>
      <trkpt lat="45.77106" lon="2.96359">
        <ele>1377.6</ele>
        <time>2021-08-28T13:18:40.000Z</time>
      </trkpt>
      <trkpt lat="45.77102" lon="2.9635">
        <ele>1377.1</ele>
        <time>2021-08-28T13:18:47.000Z</time>
      </trkpt>
      <trkpt lat="45.77099" lon="2.96342">
        <ele>1377.1</ele>
        <time>2021-08-28T13:18:56.000Z</time>
      </trkpt>
      <trkpt lat="45.77096" lon="2.96333">
        <ele>1377.3</ele>
        <time>2021-08-28T13:19:04.000Z</time>
      </trkpt>
      <trkpt lat="45.77092" lon="2.96325">
        <ele>1377.5</ele>
        <time>2021-08-28T13:19:10.000Z</time>
      </trkpt>
      <trkpt lat="45.77088" lon="2.96318">
        <ele>1377.7</ele>
        <time>2021-08-28T13:19:20.000Z</time>
      </trkpt>
      <trkpt lat="45.77083" lon="2.9631">
        <ele>1377.7</ele>
        <time>2021-08-28T13:19:27.000Z</time>
      </trkpt>
      <trkpt lat="45.7708" lon="2.963">
        <ele>1378.2</ele>
        <time>2021-08-28T13:19:33.000Z</time>
      </trkpt>
      <trkpt lat="45.77079" lon="2.9629">
        <ele>1380.5</ele>
        <time>2021-08-28T13:19:39.000Z</time>
      </trkpt>
      <trkpt lat="45.77078" lon="2.9628">
        <ele>1382.7</ele>
        <time>2021-08-28T13:19:45.000Z</time>
      </trkpt>
      <trkpt lat="45.77078" lon="2.96269">
        <ele>1386.1</ele>
        <time>2021-08-28T13:19:51.000Z</time>
      </trkpt>
      <trkpt lat="45.77082" lon="2.96259">
        <ele>1392.3</ele>
        <time>2021-08-28T13:19:57.000Z</time>
      </trkpt>
      <trkpt lat="45.77083" lon="2.96249">
        <ele>1395.8</ele>
        <time>2021-08-28T13:20:03.000Z</time>
      </trkpt>
      <trkpt lat="45.77085" lon="2.96239">
        <ele>1396.6</ele>
        <time>2021-08-28T13:20:10.000Z</time>
      </trkpt>
      <trkpt lat="45.77084" lon="2.96229">
        <ele>1396.6</ele>
        <time>2021-08-28T13:20:18.000Z</time>
      </trkpt>
      <trkpt lat="45.7708" lon="2.96222">
        <ele>1394.4</ele>
        <time>2021-08-28T13:20:23.000Z</time>
      </trkpt>
      <trkpt lat="45.77074" lon="2.96217">
        <ele>1390.6</ele>
        <time>2021-08-28T13:20:28.000Z</time>
      </trkpt>
      <trkpt lat="45.77067" lon="2.96214">
        <ele>1386.2</ele>
        <time>2021-08-28T13:20:34.000Z</time>
      </trkpt>
      <trkpt lat="45.77054" lon="2.96214">
        <ele>1377.6</ele>
        <time>2021-08-28T13:22:26.000Z</time>
      </trkpt>
      <trkpt lat="45.77047" lon="2.96212">
        <ele>1373.3</ele>
        <time>2021-08-28T13:22:31.000Z</time>
      </trkpt>
      <trkpt lat="45.7704" lon="2.96206">
        <ele>1369.5</ele>
        <time>2021-08-28T13:24:11.000Z</time>
      </trkpt>
      <trkpt lat="45.77033" lon="2.96205">
        <ele>1365.2</ele>
        <time>2021-08-28T13:24:15.000Z</time>
      </trkpt>
      <trkpt lat="45.77052" lon="2.96209">
        <ele>1376.8</ele>
        <time>2021-08-28T13:24:21.000Z</time>
      </trkpt>
      <trkpt lat="45.7706" lon="2.96212">
        <ele>1381.7</ele>
        <time>2021-08-28T13:24:27.000Z</time>
      </trkpt>
      <trkpt lat="45.77067" lon="2.96217">
        <ele>1386</ele>
        <time>2021-08-28T13:24:45.000Z</time>
      </trkpt>
      <trkpt lat="45.77074" lon="2.96216">
        <ele>1390.6</ele>
        <time>2021-08-28T13:24:51.000Z</time>
      </trkpt>
      <trkpt lat="45.77081" lon="2.96212">
        <ele>1395.4</ele>
        <time>2021-08-28T13:24:57.000Z</time>
      </trkpt>
      <trkpt lat="45.77081" lon="2.96203">
        <ele>1395.7</ele>
        <time>2021-08-28T13:25:05.000Z</time>
      </trkpt>
      <trkpt lat="45.77076" lon="2.96196">
        <ele>1392.8</ele>
        <time>2021-08-28T13:25:12.000Z</time>
      </trkpt>
      <trkpt lat="45.77071" lon="2.9619">
        <ele>1390.1</ele>
        <time>2021-08-28T13:25:19.000Z</time>
      </trkpt>
      <trkpt lat="45.77067" lon="2.96182">
        <ele>1388.2</ele>
        <time>2021-08-28T13:25:28.000Z</time>
      </trkpt>
      <trkpt lat="45.77061" lon="2.96176">
        <ele>1385.2</ele>
        <time>2021-08-28T13:26:00.000Z</time>
      </trkpt>
      <trkpt lat="45.77056" lon="2.96169">
        <ele>1383</ele>
        <time>2021-08-28T13:26:07.000Z</time>
      </trkpt>
      <trkpt lat="45.7705" lon="2.96164">
        <ele>1379.7</ele>
        <time>2021-08-28T13:26:14.000Z</time>
      </trkpt>
      <trkpt lat="45.77046" lon="2.96155">
        <ele>1376.4</ele>
        <time>2021-08-28T13:26:24.000Z</time>
      </trkpt>
      <trkpt lat="45.77043" lon="2.96147">
        <ele>1373.8</ele>
        <time>2021-08-28T13:26:30.000Z</time>
      </trkpt>
      <trkpt lat="45.77038" lon="2.96139">
        <ele>1370.3</ele>
        <time>2021-08-28T13:26:36.000Z</time>
      </trkpt>
      <trkpt lat="45.77034" lon="2.96132">
        <ele>1367.4</ele>
        <time>2021-08-28T13:26:45.000Z</time>
      </trkpt>
      <trkpt lat="45.7703" lon="2.96124">
        <ele>1364.5</ele>
        <time>2021-08-28T13:26:53.000Z</time>
      </trkpt>
      <trkpt lat="45.77026" lon="2.96115">
        <ele>1361.5</ele>
        <time>2021-08-28T13:27:00.000Z</time>
      </trkpt>
      <trkpt lat="45.77023" lon="2.96107">
        <ele>1359.2</ele>
        <time>2021-08-28T13:27:07.000Z</time>
      </trkpt>
      <trkpt lat="45.77019" lon="2.96099">
        <ele>1356.5</ele>
        <time>2021-08-28T13:27:13.000Z</time>
      </trkpt>
      <trkpt lat="45.77015" lon="2.96092">
        <ele>1353.9</ele>
        <time>2021-08-28T13:27:19.000Z</time>
      </trkpt>
      <trkpt lat="45.7701" lon="2.96085">
        <ele>1350.8</ele>
        <time>2021-08-28T13:27:25.000Z</time>
      </trkpt>
      <trkpt lat="45.77004" lon="2.9608">
        <ele>1346.6</ele>
        <time>2021-08-28T13:27:35.000Z</time>
      </trkpt>
      <trkpt lat="45.76998" lon="2.96082">
        <ele>1344.3</ele>
        <time>2021-08-28T13:27:45.000Z</time>
      </trkpt>
      <trkpt lat="45.76991" lon="2.96085">
        <ele>1340.6</ele>
        <time>2021-08-28T13:27:55.000Z</time>
      </trkpt>
      <trkpt lat="45.76985" lon="2.96092">
        <ele>1337.4</ele>
        <time>2021-08-28T13:28:02.000Z</time>
      </trkpt>
      <trkpt lat="45.76978" lon="2.96096">
        <ele>1333.4</ele>
        <time>2021-08-28T13:28:09.000Z</time>
      </trkpt>
      <trkpt lat="45.76971" lon="2.96099">
        <ele>1329.2</ele>
        <time>2021-08-28T13:28:17.000Z</time>
      </trkpt>
      <trkpt lat="45.76965" lon="2.96104">
        <ele>1325.7</ele>
        <time>2021-08-28T13:28:24.000Z</time>
      </trkpt>
      <trkpt lat="45.76959" lon="2.96108">
        <ele>1322.1</ele>
        <time>2021-08-28T13:28:32.000Z</time>
      </trkpt>
      <trkpt lat="45.76952" lon="2.96112">
        <ele>1317.8</ele>
        <time>2021-08-28T13:28:40.000Z</time>
      </trkpt>
      <trkpt lat="45.76946" lon="2.96114">
        <ele>1314.1</ele>
        <time>2021-08-28T13:28:47.000Z</time>
      </trkpt>
      <trkpt lat="45.76939" lon="2.96116">
        <ele>1309.7</ele>
        <time>2021-08-28T13:28:56.000Z</time>
      </trkpt>
      <trkpt lat="45.76933" lon="2.96111">
        <ele>1305.7</ele>
        <time>2021-08-28T13:29:05.000Z</time>
      </trkpt>
      <trkpt lat="45.76928" lon="2.96104">
        <ele>1302.4</ele>
        <time>2021-08-28T13:29:15.000Z</time>
      </trkpt>
      <trkpt lat="45.7693" lon="2.96094">
        <ele>1303.4</ele>
        <time>2021-08-28T13:29:25.000Z</time>
      </trkpt>
      <trkpt lat="45.76931" lon="2.96084">
        <ele>1303.8</ele>
        <time>2021-08-28T13:30:11.000Z</time>
      </trkpt>
      <trkpt lat="45.76936" lon="2.96078">
        <ele>1305.1</ele>
        <time>2021-08-28T13:30:20.000Z</time>
      </trkpt>
      <trkpt lat="45.76943" lon="2.96076">
        <ele>1308.6</ele>
        <time>2021-08-28T13:30:25.000Z</time>
      </trkpt>
      <trkpt lat="45.76948" lon="2.96068">
        <ele>1308.9</ele>
        <time>2021-08-28T13:30:32.000Z</time>
      </trkpt>
      <trkpt lat="45.76952" lon="2.9606">
        <ele>1308.5</ele>
        <time>2021-08-28T13:30:39.000Z</time>
      </trkpt>
      <trkpt lat="45.7696" lon="2.96054">
        <ele>1311.1</ele>
        <time>2021-08-28T13:30:45.000Z</time>
      </trkpt>
      <trkpt lat="45.76966" lon="2.96048">
        <ele>1312.4</ele>
        <time>2021-08-28T13:30:52.000Z</time>
      </trkpt>
      <trkpt lat="45.76972" lon="2.96044">
        <ele>1314.4</ele>
        <time>2021-08-28T13:31:02.000Z</time>
      </trkpt>
      <trkpt lat="45.76974" lon="2.96056">
        <ele>1320</ele>
        <time>2021-08-28T13:31:12.000Z</time>
      </trkpt>
      <trkpt lat="45.76979" lon="2.96049">
        <ele>1320.3</ele>
        <time>2021-08-28T13:31:16.000Z</time>
      </trkpt>
      <trkpt lat="45.76982" lon="2.96039">
        <ele>1318.2</ele>
        <time>2021-08-28T13:31:21.000Z</time>
      </trkpt>
      <trkpt lat="45.76976" lon="2.96033">
        <ele>1312.6</ele>
        <time>2021-08-28T13:31:29.000Z</time>
      </trkpt>
      <trkpt lat="45.7698" lon="2.96022">
        <ele>1310.7</ele>
        <time>2021-08-28T13:31:38.000Z</time>
      </trkpt>
      <trkpt lat="45.76982" lon="2.96013">
        <ele>1308.4</ele>
        <time>2021-08-28T13:31:42.000Z</time>
      </trkpt>
      <trkpt lat="45.76979" lon="2.96005">
        <ele>1303.8</ele>
        <time>2021-08-28T13:31:50.000Z</time>
      </trkpt>
      <trkpt lat="45.76973" lon="2.96004">
        <ele>1300.2</ele>
        <time>2021-08-28T13:32:16.000Z</time>
      </trkpt>
      <trkpt lat="45.76966" lon="2.96005">
        <ele>1296.9</ele>
        <time>2021-08-28T13:32:26.000Z</time>
      </trkpt>
      <trkpt lat="45.76976" lon="2.96011">
        <ele>1304.4</ele>
        <time>2021-08-28T13:32:41.000Z</time>
      </trkpt>
      <trkpt lat="45.76972" lon="2.96019">
        <ele>1305.2</ele>
        <time>2021-08-28T13:32:49.000Z</time>
      </trkpt>
      <trkpt lat="45.76975" lon="2.96011">
        <ele>1303.9</ele>
        <time>2021-08-28T13:33:19.000Z</time>
      </trkpt>
      <trkpt lat="45.76974" lon="2.95999">
        <ele>1298.8</ele>
        <time>2021-08-28T13:33:25.000Z</time>
      </trkpt>
      <trkpt lat="45.7697" lon="2.9599">
        <ele>1292.9</ele>
        <time>2021-08-28T13:33:30.000Z</time>
      </trkpt>
      <trkpt lat="45.76961" lon="2.95987">
        <ele>1287</ele>
        <time>2021-08-28T13:33:34.000Z</time>
      </trkpt>
      <trkpt lat="45.76952" lon="2.95984">
        <ele>1281.1</ele>
        <time>2021-08-28T13:36:07.000Z</time>
      </trkpt>
      <trkpt lat="45.76947" lon="2.95989">
        <ele>1280.6</ele>
        <time>2021-08-28T13:36:21.000Z</time>
      </trkpt>
      <trkpt lat="45.76942" lon="2.95997">
        <ele>1281.2</ele>
        <time>2021-08-28T13:36:31.000Z</time>
      </trkpt>
      <trkpt lat="45.76935" lon="2.95997">
        <ele>1277.5</ele>
        <time>2021-08-28T13:36:38.000Z</time>
      </trkpt>
      <trkpt lat="45.76929" lon="2.96002">
        <ele>1276.2</ele>
        <time>2021-08-28T13:36:45.000Z</time>
      </trkpt>
      <trkpt lat="45.76934" lon="2.95994">
        <ele>1275.8</ele>
        <time>2021-08-28T13:37:10.000Z</time>
      </trkpt>
      <trkpt lat="45.76938" lon="2.95986">
        <ele>1274.7</ele>
        <time>2021-08-28T13:37:15.000Z</time>
      </trkpt>
      <trkpt lat="45.76941" lon="2.95977">
        <ele>1272.6</ele>
        <time>2021-08-28T13:37:21.000Z</time>
      </trkpt>
      <trkpt lat="45.76944" lon="2.95968">
        <ele>1270.5</ele>
        <time>2021-08-28T13:37:27.000Z</time>
      </trkpt>
      <trkpt lat="45.76949" lon="2.95959">
        <ele>1269.4</ele>
        <time>2021-08-28T13:37:33.000Z</time>
      </trkpt>
      <trkpt lat="45.76954" lon="2.95954">
        <ele>1269.8</ele>
        <time>2021-08-28T13:37:40.000Z</time>
      </trkpt>
      <trkpt lat="45.76955" lon="2.95942">
        <ele>1265.4</ele>
        <time>2021-08-28T13:37:46.000Z</time>
      </trkpt>
      <trkpt lat="45.76949" lon="2.95938">
        <ele>1260.8</ele>
        <time>2021-08-28T13:37:55.000Z</time>
      </trkpt>
      <trkpt lat="45.76942" lon="2.95939">
        <ele>1257.8</ele>
        <time>2021-08-28T13:38:02.000Z</time>
      </trkpt>
      <trkpt lat="45.76936" lon="2.95942">
        <ele>1256.1</ele>
        <time>2021-08-28T13:38:09.000Z</time>
      </trkpt>
      <trkpt lat="45.76931" lon="2.95948">
        <ele>1256.1</ele>
        <time>2021-08-28T13:38:17.000Z</time>
      </trkpt>
      <trkpt lat="45.76926" lon="2.95955">
        <ele>1256.3</ele>
        <time>2021-08-28T13:38:27.000Z</time>
      </trkpt>
      <trkpt lat="45.76921" lon="2.9596">
        <ele>1255.8</ele>
        <time>2021-08-28T13:38:37.000Z</time>
      </trkpt>
      <trkpt lat="45.76916" lon="2.95967">
        <ele>1255.9</ele>
        <time>2021-08-28T13:38:45.000Z</time>
      </trkpt>
      <trkpt lat="45.76909" lon="2.9597">
        <ele>1252.8</ele>
        <time>2021-08-28T13:38:52.000Z</time>
      </trkpt>
      <trkpt lat="45.76902" lon="2.95974">
        <ele>1250</ele>
        <time>2021-08-28T13:38:59.000Z</time>
      </trkpt>
      <trkpt lat="45.76896" lon="2.95978">
        <ele>1247.7</ele>
        <time>2021-08-28T13:39:07.000Z</time>
      </trkpt>
      <trkpt lat="45.76888" lon="2.95981">
        <ele>1243.8</ele>
        <time>2021-08-28T13:39:21.000Z</time>
      </trkpt>
      <trkpt lat="45.76883" lon="2.95976">
        <ele>1238.9</ele>
        <time>2021-08-28T13:39:29.000Z</time>
      </trkpt>
      <trkpt lat="45.76887" lon="2.95968">
        <ele>1238.6</ele>
        <time>2021-08-28T13:39:47.000Z</time>
      </trkpt>
      <trkpt lat="45.76892" lon="2.9596">
        <ele>1238.8</ele>
        <time>2021-08-28T13:39:53.000Z</time>
      </trkpt>
      <trkpt lat="45.76897" lon="2.95952">
        <ele>1238.9</ele>
        <time>2021-08-28T13:39:59.000Z</time>
      </trkpt>
      <trkpt lat="45.76899" lon="2.95943">
        <ele>1236.8</ele>
        <time>2021-08-28T13:40:07.000Z</time>
      </trkpt>
      <trkpt lat="45.76893" lon="2.95937">
        <ele>1231.2</ele>
        <time>2021-08-28T13:40:12.000Z</time>
      </trkpt>
      <trkpt lat="45.76886" lon="2.95937">
        <ele>1227.2</ele>
        <time>2021-08-28T13:40:19.000Z</time>
      </trkpt>
      <trkpt lat="45.7688" lon="2.9594">
        <ele>1224.7</ele>
        <time>2021-08-28T13:40:26.000Z</time>
      </trkpt>
      <trkpt lat="45.76873" lon="2.95939">
        <ele>1220.3</ele>
        <time>2021-08-28T13:40:34.000Z</time>
      </trkpt>
      <trkpt lat="45.76868" lon="2.95945">
        <ele>1219.4</ele>
        <time>2021-08-28T13:40:44.000Z</time>
      </trkpt>
      <trkpt lat="45.76862" lon="2.9595">
        <ele>1217.5</ele>
        <time>2021-08-28T13:40:53.000Z</time>
      </trkpt>
      <trkpt lat="45.76861" lon="2.9596">
        <ele>1220.1</ele>
        <time>2021-08-28T13:41:04.000Z</time>
      </trkpt>
      <trkpt lat="45.76855" lon="2.95965">
        <ele>1218.1</ele>
        <time>2021-08-28T13:41:18.000Z</time>
      </trkpt>
      <trkpt lat="45.76848" lon="2.9597">
        <ele>1215.4</ele>
        <time>2021-08-28T13:41:24.000Z</time>
      </trkpt>
      <trkpt lat="45.76843" lon="2.95977">
        <ele>1214.4</ele>
        <time>2021-08-28T13:41:29.000Z</time>
      </trkpt>
      <trkpt lat="45.76839" lon="2.95984">
        <ele>1214</ele>
        <time>2021-08-28T13:41:36.000Z</time>
      </trkpt>
      <trkpt lat="45.76833" lon="2.95989">
        <ele>1211.6</ele>
        <time>2021-08-28T13:41:42.000Z</time>
      </trkpt>
      <trkpt lat="45.76828" lon="2.95995">
        <ele>1210.2</ele>
        <time>2021-08-28T13:41:47.000Z</time>
      </trkpt>
      <trkpt lat="45.7682" lon="2.95996">
        <ele>1205.5</ele>
        <time>2021-08-28T13:41:53.000Z</time>
      </trkpt>
      <trkpt lat="45.76813" lon="2.96002">
        <ele>1202.5</ele>
        <time>2021-08-28T13:42:01.000Z</time>
      </trkpt>
      <trkpt lat="45.76806" lon="2.96002">
        <ele>1198</ele>
        <time>2021-08-28T13:42:05.000Z</time>
      </trkpt>
      <trkpt lat="45.76801" lon="2.96009">
        <ele>1196.2</ele>
        <time>2021-08-28T13:42:15.000Z</time>
      </trkpt>
      <trkpt lat="45.76796" lon="2.96016">
        <ele>1194.2</ele>
        <time>2021-08-28T13:42:50.000Z</time>
      </trkpt>
      <trkpt lat="45.76793" lon="2.96025">
        <ele>1193.9</ele>
        <time>2021-08-28T13:42:56.000Z</time>
      </trkpt>
      <trkpt lat="45.76789" lon="2.96034">
        <ele>1192.8</ele>
        <time>2021-08-28T13:43:06.000Z</time>
      </trkpt>
      <trkpt lat="45.76785" lon="2.96042">
        <ele>1191.5</ele>
        <time>2021-08-28T13:43:13.000Z</time>
      </trkpt>
      <trkpt lat="45.7678" lon="2.96048">
        <ele>1189.1</ele>
        <time>2021-08-28T13:43:21.000Z</time>
      </trkpt>
      <trkpt lat="45.76774" lon="2.96053">
        <ele>1185.7</ele>
        <time>2021-08-28T13:43:30.000Z</time>
      </trkpt>
      <trkpt lat="45.76766" lon="2.96057">
        <ele>1180.8</ele>
        <time>2021-08-28T13:45:03.000Z</time>
      </trkpt>
      <trkpt lat="45.7677" lon="2.96048">
        <ele>1182.2</ele>
        <time>2021-08-28T13:45:15.000Z</time>
      </trkpt>
      <trkpt lat="45.76773" lon="2.9604">
        <ele>1183</ele>
        <time>2021-08-28T13:45:22.000Z</time>
      </trkpt>
      <trkpt lat="45.76777" lon="2.96031">
        <ele>1184.2</ele>
        <time>2021-08-28T13:45:28.000Z</time>
      </trkpt>
      <trkpt lat="45.7678" lon="2.96022">
        <ele>1184.7</ele>
        <time>2021-08-28T13:45:36.000Z</time>
      </trkpt>
      <trkpt lat="45.76785" lon="2.96016">
        <ele>1187</ele>
        <time>2021-08-28T13:45:47.000Z</time>
      </trkpt>
      <trkpt lat="45.76789" lon="2.96008">
        <ele>1188.2</ele>
        <time>2021-08-28T13:45:53.000Z</time>
      </trkpt>
      <trkpt lat="45.76795" lon="2.96003">
        <ele>1191.2</ele>
        <time>2021-08-28T13:46:02.000Z</time>
      </trkpt>
      <trkpt lat="45.76801" lon="2.95998">
        <ele>1194</ele>
        <time>2021-08-28T13:46:09.000Z</time>
      </trkpt>
      <trkpt lat="45.76806" lon="2.95987">
        <ele>1194.7</ele>
        <time>2021-08-28T13:46:16.000Z</time>
      </trkpt>
      <trkpt lat="45.76801" lon="2.95968">
        <ele>1187.6</ele>
        <time>2021-08-28T13:46:21.000Z</time>
      </trkpt>
      <trkpt lat="45.76792" lon="2.95959">
        <ele>1180.8</ele>
        <time>2021-08-28T13:46:27.000Z</time>
      </trkpt>
      <trkpt lat="45.76785" lon="2.95952">
        <ele>1175.8</ele>
        <time>2021-08-28T13:46:33.000Z</time>
      </trkpt>
      <trkpt lat="45.76779" lon="2.9596">
        <ele>1173.9</ele>
        <time>2021-08-28T13:46:43.000Z</time>
      </trkpt>
      <trkpt lat="45.76774" lon="2.95968">
        <ele>1172.4</ele>
        <time>2021-08-28T13:46:49.000Z</time>
      </trkpt>
      <trkpt lat="45.76767" lon="2.95972">
        <ele>1169</ele>
        <time>2021-08-28T13:46:55.000Z</time>
      </trkpt>
      <trkpt lat="45.76761" lon="2.9598">
        <ele>1166.6</ele>
        <time>2021-08-28T13:47:01.000Z</time>
      </trkpt>
      <trkpt lat="45.76757" lon="2.95988">
        <ele>1165.1</ele>
        <time>2021-08-28T13:47:07.000Z</time>
      </trkpt>
      <trkpt lat="45.76756" lon="2.95999">
        <ele>1165.7</ele>
        <time>2021-08-28T13:47:13.000Z</time>
      </trkpt>
      <trkpt lat="45.76756" lon="2.96008">
        <ele>1166.9</ele>
        <time>2021-08-28T13:47:21.000Z</time>
      </trkpt>
      <trkpt lat="45.76753" lon="2.96016">
        <ele>1166.1</ele>
        <time>2021-08-28T13:47:35.000Z</time>
      </trkpt>
      <trkpt lat="45.76747" lon="2.9602">
        <ele>1162.9</ele>
        <time>2021-08-28T13:47:43.000Z</time>
      </trkpt>
      <trkpt lat="45.76741" lon="2.96028">
        <ele>1160.5</ele>
        <time>2021-08-28T13:47:49.000Z</time>
      </trkpt>
      <trkpt lat="45.76735" lon="2.96026">
        <ele>1156.8</ele>
        <time>2021-08-28T13:48:04.000Z</time>
      </trkpt>
      <trkpt lat="45.76732" lon="2.96017">
        <ele>1154.2</ele>
        <time>2021-08-28T13:48:14.000Z</time>
      </trkpt>
      <trkpt lat="45.76731" lon="2.96007">
        <ele>1152.6</ele>
        <time>2021-08-28T13:48:23.000Z</time>
      </trkpt>
      <trkpt lat="45.76728" lon="2.95998">
        <ele>1150.3</ele>
        <time>2021-08-28T13:48:30.000Z</time>
      </trkpt>
      <trkpt lat="45.76733" lon="2.95989">
        <ele>1152.3</ele>
        <time>2021-08-28T13:48:39.000Z</time>
      </trkpt>
      <trkpt lat="45.76741" lon="2.95981">
        <ele>1155.7</ele>
        <time>2021-08-28T13:48:45.000Z</time>
      </trkpt>
      <trkpt lat="45.76742" lon="2.95971">
        <ele>1155.4</ele>
        <time>2021-08-28T13:49:02.000Z</time>
      </trkpt>
      <trkpt lat="45.76742" lon="2.95962">
        <ele>1154.6</ele>
        <time>2021-08-28T13:49:16.000Z</time>
      </trkpt>
      <trkpt lat="45.76743" lon="2.95952">
        <ele>1154.2</ele>
        <time>2021-08-28T13:49:35.000Z</time>
      </trkpt>
      <trkpt lat="45.76745" lon="2.95941">
        <ele>1154.2</ele>
        <time>2021-08-28T13:49:40.000Z</time>
      </trkpt>
      <trkpt lat="45.76751" lon="2.95935">
        <ele>1156.2</ele>
        <time>2021-08-28T13:49:47.000Z</time>
      </trkpt>
      <trkpt lat="45.76756" lon="2.95927">
        <ele>1157.8</ele>
        <time>2021-08-28T13:49:59.000Z</time>
      </trkpt>
      <trkpt lat="45.76759" lon="2.95919">
        <ele>1158.3</ele>
        <time>2021-08-28T13:50:05.000Z</time>
      </trkpt>
      <trkpt lat="45.76763" lon="2.95909">
        <ele>1159</ele>
        <time>2021-08-28T13:50:10.000Z</time>
      </trkpt>
      <trkpt lat="45.76766" lon="2.959">
        <ele>1159.3</ele>
        <time>2021-08-28T13:50:16.000Z</time>
      </trkpt>
      <trkpt lat="45.7677" lon="2.95889">
        <ele>1159.8</ele>
        <time>2021-08-28T13:50:23.000Z</time>
      </trkpt>
      <trkpt lat="45.76769" lon="2.95869">
        <ele>1157.1</ele>
        <time>2021-08-28T13:50:27.000Z</time>
      </trkpt>
      <trkpt lat="45.76766" lon="2.95851">
        <ele>1154.1</ele>
        <time>2021-08-28T13:50:33.000Z</time>
      </trkpt>
      <trkpt lat="45.76764" lon="2.95841">
        <ele>1152.3</ele>
        <time>2021-08-28T13:50:51.000Z</time>
      </trkpt>
      <trkpt lat="45.76766" lon="2.95831">
        <ele>1152</ele>
        <time>2021-08-28T13:50:57.000Z</time>
      </trkpt>
      <trkpt lat="45.76773" lon="2.95824">
        <ele>1153.8</ele>
        <time>2021-08-28T13:51:03.000Z</time>
      </trkpt>
      <trkpt lat="45.76775" lon="2.95815">
        <ele>1153.8</ele>
        <time>2021-08-28T13:51:09.000Z</time>
      </trkpt>
      <trkpt lat="45.76775" lon="2.95805">
        <ele>1153.1</ele>
        <time>2021-08-28T13:51:15.000Z</time>
      </trkpt>
      <trkpt lat="45.76774" lon="2.95795">
        <ele>1152.1</ele>
        <time>2021-08-28T13:51:23.000Z</time>
      </trkpt>
      <trkpt lat="45.76767" lon="2.95793">
        <ele>1150.1</ele>
        <time>2021-08-28T13:51:37.000Z</time>
      </trkpt>
      <trkpt lat="45.7676" lon="2.95795">
        <ele>1148.3</ele>
        <time>2021-08-28T13:51:46.000Z</time>
      </trkpt>
      <trkpt lat="45.76754" lon="2.958">
        <ele>1146.9</ele>
        <time>2021-08-28T13:51:53.000Z</time>
      </trkpt>
      <trkpt lat="45.76747" lon="2.95804">
        <ele>1145.3</ele>
        <time>2021-08-28T13:52:00.000Z</time>
      </trkpt>
      <trkpt lat="45.7674" lon="2.95804">
        <ele>1143.8</ele>
        <time>2021-08-28T13:52:07.000Z</time>
      </trkpt>
      <trkpt lat="45.76733" lon="2.95807">
        <ele>1142.3</ele>
        <time>2021-08-28T13:52:14.000Z</time>
      </trkpt>
      <trkpt lat="45.76726" lon="2.95806">
        <ele>1140.7</ele>
        <time>2021-08-28T13:52:20.000Z</time>
      </trkpt>
      <trkpt lat="45.76721" lon="2.958">
        <ele>1139.6</ele>
        <time>2021-08-28T13:52:26.000Z</time>
      </trkpt>
      <trkpt lat="45.76719" lon="2.95791">
        <ele>1139.2</ele>
        <time>2021-08-28T13:52:35.000Z</time>
      </trkpt>
      <trkpt lat="45.76717" lon="2.95782">
        <ele>1138.8</ele>
        <time>2021-08-28T13:52:47.000Z</time>
      </trkpt>
      <trkpt lat="45.76715" lon="2.95772">
        <ele>1138.4</ele>
        <time>2021-08-28T13:52:56.000Z</time>
      </trkpt>
      <trkpt lat="45.76715" lon="2.95762">
        <ele>1138.5</ele>
        <time>2021-08-28T13:53:04.000Z</time>
      </trkpt>
      <trkpt lat="45.7671" lon="2.95755">
        <ele>1137.7</ele>
        <time>2021-08-28T13:53:12.000Z</time>
      </trkpt>
      <trkpt lat="45.76706" lon="2.95747">
        <ele>1136.9</ele>
        <time>2021-08-28T13:53:18.000Z</time>
      </trkpt>
      <trkpt lat="45.767" lon="2.95742">
        <ele>1135.7</ele>
        <time>2021-08-28T13:53:26.000Z</time>
      </trkpt>
      <trkpt lat="45.76693" lon="2.95742">
        <ele>1134.6</ele>
        <time>2021-08-28T13:53:32.000Z</time>
      </trkpt>
      <trkpt lat="45.76685" lon="2.9574">
        <ele>1133.3</ele>
        <time>2021-08-28T13:53:39.000Z</time>
      </trkpt>
      <trkpt lat="45.76678" lon="2.95741">
        <ele>1132.3</ele>
        <time>2021-08-28T13:53:45.000Z</time>
      </trkpt>
      <trkpt lat="45.76671" lon="2.95738">
        <ele>1131.1</ele>
        <time>2021-08-28T13:53:51.000Z</time>
      </trkpt>
      <trkpt lat="45.76665" lon="2.95736">
        <ele>1129.9</ele>
        <time>2021-08-28T13:53:59.000Z</time>
      </trkpt>
      <trkpt lat="45.76659" lon="2.95741">
        <ele>1128.6</ele>
        <time>2021-08-28T13:54:05.000Z</time>
      </trkpt>
      <trkpt lat="45.76655" lon="2.9575">
        <ele>1128.1</ele>
        <time>2021-08-28T13:54:12.000Z</time>
      </trkpt>
      <trkpt lat="45.76652" lon="2.95758">
        <ele>1126.9</ele>
        <time>2021-08-28T13:54:17.000Z</time>
      </trkpt>
      <trkpt lat="45.7665" lon="2.95769">
        <ele>1125.8</ele>
        <time>2021-08-28T13:54:22.000Z</time>
      </trkpt>
      <trkpt lat="45.76647" lon="2.95778">
        <ele>1124.6</ele>
        <time>2021-08-28T13:54:27.000Z</time>
      </trkpt>
      <trkpt lat="45.76644" lon="2.95786">
        <ele>1123.5</ele>
        <time>2021-08-28T13:54:33.000Z</time>
      </trkpt>
      <trkpt lat="45.76645" lon="2.95796">
        <ele>1123.2</ele>
        <time>2021-08-28T13:54:55.000Z</time>
      </trkpt>
      <trkpt lat="45.76641" lon="2.95804">
        <ele>1121.9</ele>
        <time>2021-08-28T13:55:07.000Z</time>
      </trkpt>
      <trkpt lat="45.76641" lon="2.95814">
        <ele>1121.4</ele>
        <time>2021-08-28T13:55:31.000Z</time>
      </trkpt>
      <trkpt lat="45.76635" lon="2.9581">
        <ele>1120.2</ele>
        <time>2021-08-28T13:55:37.000Z</time>
      </trkpt>
      <trkpt lat="45.76629" lon="2.95804">
        <ele>1119.1</ele>
        <time>2021-08-28T13:55:46.000Z</time>
      </trkpt>
      <trkpt lat="45.76622" lon="2.958">
        <ele>1117.7</ele>
        <time>2021-08-28T13:55:54.000Z</time>
      </trkpt>
      <trkpt lat="45.76616" lon="2.95793">
        <ele>1116.6</ele>
        <time>2021-08-28T13:55:58.000Z</time>
      </trkpt>
      <trkpt lat="45.76609" lon="2.9579">
        <ele>1115.1</ele>
        <time>2021-08-28T13:56:03.000Z</time>
      </trkpt>
      <trkpt lat="45.766" lon="2.95786">
        <ele>1113.1</ele>
        <time>2021-08-28T13:56:09.000Z</time>
      </trkpt>
      <trkpt lat="45.76592" lon="2.95781">
        <ele>1111.3</ele>
        <time>2021-08-28T13:56:15.000Z</time>
      </trkpt>
      <trkpt lat="45.76586" lon="2.95777">
        <ele>1110</ele>
        <time>2021-08-28T13:56:22.000Z</time>
      </trkpt>
      <trkpt lat="45.76581" lon="2.95771">
        <ele>1108.7</ele>
        <time>2021-08-28T13:56:32.000Z</time>
      </trkpt>
      <trkpt lat="45.76575" lon="2.95766">
        <ele>1106.7</ele>
        <time>2021-08-28T13:56:38.000Z</time>
      </trkpt>
      <trkpt lat="45.76567" lon="2.95766">
        <ele>1103.9</ele>
        <time>2021-08-28T13:56:42.000Z</time>
      </trkpt>
      <trkpt lat="45.7656" lon="2.95767">
        <ele>1101.5</ele>
        <time>2021-08-28T13:56:46.000Z</time>
      </trkpt>
      <trkpt lat="45.76553" lon="2.95766">
        <ele>1099.1</ele>
        <time>2021-08-28T13:56:51.000Z</time>
      </trkpt>
      <trkpt lat="45.76543" lon="2.95765">
        <ele>1095.6</ele>
        <time>2021-08-28T13:56:57.000Z</time>
      </trkpt>
      <trkpt lat="45.76533" lon="2.95761">
        <ele>1092.2</ele>
        <time>2021-08-28T13:57:03.000Z</time>
      </trkpt>
      <trkpt lat="45.76524" lon="2.95762">
        <ele>1089.1</ele>
        <time>2021-08-28T13:57:09.000Z</time>
      </trkpt>
      <trkpt lat="45.76519" lon="2.95755">
        <ele>1087.5</ele>
        <time>2021-08-28T13:57:17.000Z</time>
      </trkpt>
      <trkpt lat="45.76513" lon="2.9575">
        <ele>1085.5</ele>
        <time>2021-08-28T13:57:25.000Z</time>
      </trkpt>
      <trkpt lat="45.76509" lon="2.95743">
        <ele>1083.9</ele>
        <time>2021-08-28T13:57:34.000Z</time>
      </trkpt>
      <trkpt lat="45.76505" lon="2.95734">
        <ele>1082.3</ele>
        <time>2021-08-28T13:57:41.000Z</time>
      </trkpt>
      <trkpt lat="45.76502" lon="2.95725">
        <ele>1081.1</ele>
        <time>2021-08-28T13:57:49.000Z</time>
      </trkpt>
      <trkpt lat="45.76503" lon="2.95715">
        <ele>1081.1</ele>
        <time>2021-08-28T13:57:56.000Z</time>
      </trkpt>
      <trkpt lat="45.76505" lon="2.95705">
        <ele>1081.5</ele>
        <time>2021-08-28T13:58:02.000Z</time>
      </trkpt>
      <trkpt lat="45.76503" lon="2.95696">
        <ele>1080.6</ele>
        <time>2021-08-28T13:58:09.000Z</time>
      </trkpt>
      <trkpt lat="45.76504" lon="2.95681">
        <ele>1080.5</ele>
        <time>2021-08-28T13:58:15.000Z</time>
      </trkpt>
      <trkpt lat="45.76505" lon="2.9567">
        <ele>1080.5</ele>
        <time>2021-08-28T13:58:21.000Z</time>
      </trkpt>
      <trkpt lat="45.76505" lon="2.95659">
        <ele>1080.6</ele>
        <time>2021-08-28T13:58:28.000Z</time>
      </trkpt>
      <trkpt lat="45.76506" lon="2.95649">
        <ele>1081</ele>
        <time>2021-08-28T13:58:33.000Z</time>
      </trkpt>
      <trkpt lat="45.76504" lon="2.95635">
        <ele>1080.7</ele>
        <time>2021-08-28T13:58:39.000Z</time>
      </trkpt>
      <trkpt lat="45.765" lon="2.95619">
        <ele>1080.1</ele>
        <time>2021-08-28T13:58:45.000Z</time>
      </trkpt>
      <trkpt lat="45.76495" lon="2.95607">
        <ele>1080.2</ele>
        <time>2021-08-28T13:58:51.000Z</time>
      </trkpt>
      <trkpt lat="45.76491" lon="2.95596">
        <ele>1080.5</ele>
        <time>2021-08-28T13:58:57.000Z</time>
      </trkpt>
      <trkpt lat="45.76486" lon="2.95584">
        <ele>1080.8</ele>
        <time>2021-08-28T13:59:03.000Z</time>
      </trkpt>
      <trkpt lat="45.76482" lon="2.95576">
        <ele>1080.6</ele>
        <time>2021-08-28T13:59:09.000Z</time>
      </trkpt>
      <trkpt lat="45.76474" lon="2.95568">
        <ele>1080.4</ele>
        <time>2021-08-28T13:59:15.000Z</time>
      </trkpt>
      <trkpt lat="45.76467" lon="2.95563">
        <ele>1080.3</ele>
        <time>2021-08-28T13:59:21.000Z</time>
      </trkpt>
      <trkpt lat="45.7646" lon="2.9556">
        <ele>1080.2</ele>
        <time>2021-08-28T13:59:27.000Z</time>
      </trkpt>
      <trkpt lat="45.76454" lon="2.95558">
        <ele>1080.2</ele>
        <time>2021-08-28T13:59:33.000Z</time>
      </trkpt>
      <trkpt lat="45.76449" lon="2.9555">
        <ele>1080.1</ele>
        <time>2021-08-28T13:59:49.000Z</time>
      </trkpt>
      <trkpt lat="45.76446" lon="2.95541">
        <ele>1080</ele>
        <time>2021-08-28T13:59:57.000Z</time>
      </trkpt>
      <trkpt lat="45.76441" lon="2.95533">
        <ele>1079.9</ele>
        <time>2021-08-28T14:00:12.000Z</time>
      </trkpt>
      <trkpt lat="45.76436" lon="2.95541">
        <ele>1080</ele>
        <time>2021-08-28T14:00:53.000Z</time>
      </trkpt>
      <trkpt lat="45.7643" lon="2.95539">
        <ele>1080</ele>
        <time>2021-08-28T14:01:03.000Z</time>
      </trkpt>
      <trkpt lat="45.76423" lon="2.95541">
        <ele>1080</ele>
        <time>2021-08-28T14:01:09.000Z</time>
      </trkpt>
      <trkpt lat="45.76416" lon="2.95542">
        <ele>1080</ele>
        <time>2021-08-28T14:01:16.000Z</time>
      </trkpt>
      <trkpt lat="45.76409" lon="2.95544">
        <ele>1080.1</ele>
        <time>2021-08-28T14:01:22.000Z</time>
      </trkpt>
      <trkpt lat="45.76403" lon="2.95549">
        <ele>1080.1</ele>
        <time>2021-08-28T14:01:27.000Z</time>
      </trkpt>
      <trkpt lat="45.76396" lon="2.95553">
        <ele>1080.1</ele>
        <time>2021-08-28T14:01:33.000Z</time>
      </trkpt>
      <trkpt lat="45.76394" lon="2.95562">
        <ele>1079.9</ele>
        <time>2021-08-28T14:01:39.000Z</time>
      </trkpt>
      <trkpt lat="45.76391" lon="2.95571">
        <ele>1079.7</ele>
        <time>2021-08-28T14:01:45.000Z</time>
      </trkpt>
      <trkpt lat="45.76389" lon="2.9558">
        <ele>1079.4</ele>
        <time>2021-08-28T14:01:52.000Z</time>
      </trkpt>
      <trkpt lat="45.76389" lon="2.95589">
        <ele>1078.7</ele>
        <time>2021-08-28T14:02:03.000Z</time>
      </trkpt>
      <trkpt lat="45.76385" lon="2.95603">
        <ele>1077</ele>
        <time>2021-08-28T14:02:36.000Z</time>
      </trkpt>
      <trkpt lat="45.76382" lon="2.95612">
        <ele>1075.9</ele>
        <time>2021-08-28T14:02:44.000Z</time>
      </trkpt>
      <trkpt lat="45.76378" lon="2.9562">
        <ele>1074.9</ele>
        <time>2021-08-28T14:02:51.000Z</time>
      </trkpt>
      <trkpt lat="45.76372" lon="2.95625">
        <ele>1074.2</ele>
        <time>2021-08-28T14:02:57.000Z</time>
      </trkpt>
      <trkpt lat="45.76365" lon="2.95627">
        <ele>1073.8</ele>
        <time>2021-08-28T14:03:02.000Z</time>
      </trkpt>
      <trkpt lat="45.76358" lon="2.9563">
        <ele>1073.4</ele>
        <time>2021-08-28T14:03:10.000Z</time>
      </trkpt>
      <trkpt lat="45.76352" lon="2.95634">
        <ele>1072.8</ele>
        <time>2021-08-28T14:03:18.000Z</time>
      </trkpt>
      <trkpt lat="45.76345" lon="2.95635">
        <ele>1072.6</ele>
        <time>2021-08-28T14:03:26.000Z</time>
      </trkpt>
      <trkpt lat="45.76339" lon="2.9564">
        <ele>1072</ele>
        <time>2021-08-28T14:03:32.000Z</time>
      </trkpt>
      <trkpt lat="45.76337" lon="2.95651">
        <ele>1070.7</ele>
        <time>2021-08-28T14:03:37.000Z</time>
      </trkpt>
      <trkpt lat="45.76334" lon="2.95661">
        <ele>1069.6</ele>
        <time>2021-08-28T14:03:54.000Z</time>
      </trkpt>
      <trkpt lat="45.76335" lon="2.9567">
        <ele>1068.7</ele>
        <time>2021-08-28T14:04:05.000Z</time>
      </trkpt>
      <trkpt lat="45.76328" lon="2.95667">
        <ele>1069.6</ele>
        <time>2021-08-28T14:04:22.000Z</time>
      </trkpt>
      <trkpt lat="45.76321" lon="2.95665">
        <ele>1070.7</ele>
        <time>2021-08-28T14:04:32.000Z</time>
      </trkpt>
      <trkpt lat="45.76315" lon="2.95676">
        <ele>1070.3</ele>
        <time>2021-08-28T14:04:39.000Z</time>
      </trkpt>
      <trkpt lat="45.76309" lon="2.95682">
        <ele>1070.3</ele>
        <time>2021-08-28T14:04:59.000Z</time>
      </trkpt>
      <trkpt lat="45.76309" lon="2.95672">
        <ele>1071.4</ele>
        <time>2021-08-28T14:05:12.000Z</time>
      </trkpt>
      <trkpt lat="45.76304" lon="2.95664">
        <ele>1072.9</ele>
        <time>2021-08-28T14:05:21.000Z</time>
      </trkpt>
      <trkpt lat="45.763" lon="2.95655">
        <ele>1074.5</ele>
        <time>2021-08-28T14:05:46.000Z</time>
      </trkpt>
      <trkpt lat="45.76294" lon="2.95649">
        <ele>1076.1</ele>
        <time>2021-08-28T14:05:53.000Z</time>
      </trkpt>
      <trkpt lat="45.76287" lon="2.95647">
        <ele>1077.3</ele>
        <time>2021-08-28T14:06:01.000Z</time>
      </trkpt>
      <trkpt lat="45.76281" lon="2.95648">
        <ele>1078</ele>
        <time>2021-08-28T14:06:18.000Z</time>
      </trkpt>
      <trkpt lat="45.76274" lon="2.95647">
        <ele>1079.1</ele>
        <time>2021-08-28T14:06:24.000Z</time>
      </trkpt>
      <trkpt lat="45.76267" lon="2.95649">
        <ele>1079.7</ele>
        <time>2021-08-28T14:06:29.000Z</time>
      </trkpt>
      <trkpt lat="45.76261" lon="2.95645">
        <ele>1081.1</ele>
        <time>2021-08-28T14:06:34.000Z</time>
      </trkpt>
      <trkpt lat="45.76254" lon="2.95642">
        <ele>1082.6</ele>
        <time>2021-08-28T14:06:41.000Z</time>
      </trkpt>
      <trkpt lat="45.76247" lon="2.9564">
        <ele>1083.7</ele>
        <time>2021-08-28T14:06:51.000Z</time>
      </trkpt>
      <trkpt lat="45.76241" lon="2.95635">
        <ele>1085.1</ele>
        <time>2021-08-28T14:06:57.000Z</time>
      </trkpt>
      <trkpt lat="45.76232" lon="2.95633">
        <ele>1086.3</ele>
        <time>2021-08-28T14:07:05.000Z</time>
      </trkpt>
      <trkpt lat="45.76222" lon="2.95635">
        <ele>1086.8</ele>
        <time>2021-08-28T14:07:10.000Z</time>
      </trkpt>
      <trkpt lat="45.76209" lon="2.95636">
        <ele>1087.8</ele>
        <time>2021-08-28T14:07:15.000Z</time>
      </trkpt>
      <trkpt lat="45.76203" lon="2.95637">
        <ele>1088.1</ele>
        <time>2021-08-28T14:07:22.000Z</time>
      </trkpt>
      <trkpt lat="45.76198" lon="2.95627">
        <ele>1090.3</ele>
        <time>2021-08-28T14:07:58.000Z</time>
      </trkpt>
      <trkpt lat="45.76193" lon="2.9562">
        <ele>1092</ele>
        <time>2021-08-28T14:08:06.000Z</time>
      </trkpt>
      <trkpt lat="45.76183" lon="2.95611">
        <ele>1094.5</ele>
        <time>2021-08-28T14:08:26.000Z</time>
      </trkpt>
      <trkpt lat="45.76175" lon="2.95609">
        <ele>1095.6</ele>
        <time>2021-08-28T14:08:51.000Z</time>
      </trkpt>
      <trkpt lat="45.76169" lon="2.95608">
        <ele>1096.3</ele>
        <time>2021-08-28T14:08:57.000Z</time>
      </trkpt>
      <trkpt lat="45.76158" lon="2.95595">
        <ele>1099.1</ele>
        <time>2021-08-28T14:09:26.000Z</time>
      </trkpt>
      <trkpt lat="45.76151" lon="2.95597">
        <ele>1098.9</ele>
        <time>2021-08-28T14:09:32.000Z</time>
      </trkpt>
      <trkpt lat="45.76144" lon="2.95599">
        <ele>1098.8</ele>
        <time>2021-08-28T14:09:38.000Z</time>
      </trkpt>
      <trkpt lat="45.76137" lon="2.95599">
        <ele>1099</ele>
        <time>2021-08-28T14:09:45.000Z</time>
      </trkpt>
      <trkpt lat="45.76135" lon="2.95587">
        <ele>1101.1</ele>
        <time>2021-08-28T14:10:23.000Z</time>
      </trkpt>
      <trkpt lat="45.76128" lon="2.95577">
        <ele>1101.9</ele>
        <time>2021-08-28T14:11:05.000Z</time>
      </trkpt>
      <trkpt lat="45.76122" lon="2.95568">
        <ele>1101.9</ele>
        <time>2021-08-28T14:11:22.000Z</time>
      </trkpt>
      <trkpt lat="45.76118" lon="2.9556">
        <ele>1101.8</ele>
        <time>2021-08-28T14:11:32.000Z</time>
      </trkpt>
      <trkpt lat="45.7611" lon="2.95561">
        <ele>1101.9</ele>
        <time>2021-08-28T14:11:40.000Z</time>
      </trkpt>
      <trkpt lat="45.76101" lon="2.95556">
        <ele>1101.9</ele>
        <time>2021-08-28T14:12:00.000Z</time>
      </trkpt>
      <trkpt lat="45.76094" lon="2.95555">
        <ele>1101.9</ele>
        <time>2021-08-28T14:12:26.000Z</time>
      </trkpt>
      <trkpt lat="45.76089" lon="2.95546">
        <ele>1101.6</ele>
        <time>2021-08-28T14:12:44.000Z</time>
      </trkpt>
      <trkpt lat="45.76083" lon="2.95548">
        <ele>1101.7</ele>
        <time>2021-08-28T14:12:55.000Z</time>
      </trkpt>
      <trkpt lat="45.76074" lon="2.95554">
        <ele>1102.3</ele>
        <time>2021-08-28T14:13:27.000Z</time>
      </trkpt>
      <trkpt lat="45.76067" lon="2.95559">
        <ele>1102.7</ele>
        <time>2021-08-28T14:13:35.000Z</time>
      </trkpt>
      <trkpt lat="45.7606" lon="2.95559">
        <ele>1102.9</ele>
        <time>2021-08-28T14:13:42.000Z</time>
      </trkpt>
      <trkpt lat="45.76052" lon="2.95559">
        <ele>1103.2</ele>
        <time>2021-08-28T14:13:46.000Z</time>
      </trkpt>
      <trkpt lat="45.76045" lon="2.95558">
        <ele>1103.5</ele>
        <time>2021-08-28T14:13:52.000Z</time>
      </trkpt>
      <trkpt lat="45.76039" lon="2.95561">
        <ele>1103.6</ele>
        <time>2021-08-28T14:13:57.000Z</time>
      </trkpt>
      <trkpt lat="45.76026" lon="2.95567">
        <ele>1103.8</ele>
        <time>2021-08-28T14:14:03.000Z</time>
      </trkpt>
      <trkpt lat="45.76016" lon="2.95567">
        <ele>1104</ele>
        <time>2021-08-28T14:14:09.000Z</time>
      </trkpt>
      <trkpt lat="45.76008" lon="2.95563">
        <ele>1104.5</ele>
        <time>2021-08-28T14:14:15.000Z</time>
      </trkpt>
      <trkpt lat="45.76001" lon="2.95557">
        <ele>1105.2</ele>
        <time>2021-08-28T14:14:21.000Z</time>
      </trkpt>
      <trkpt lat="45.75997" lon="2.9555">
        <ele>1105.9</ele>
        <time>2021-08-28T14:14:31.000Z</time>
      </trkpt>
      <trkpt lat="45.75992" lon="2.95543">
        <ele>1106.6</ele>
        <time>2021-08-28T14:14:37.000Z</time>
      </trkpt>
      <trkpt lat="45.75987" lon="2.95537">
        <ele>1107.3</ele>
        <time>2021-08-28T14:14:44.000Z</time>
      </trkpt>
      <trkpt lat="45.75982" lon="2.9553">
        <ele>1108.1</ele>
        <time>2021-08-28T14:14:53.000Z</time>
      </trkpt>
      <trkpt lat="45.75978" lon="2.95522">
        <ele>1109</ele>
        <time>2021-08-28T14:15:01.000Z</time>
      </trkpt>
      <trkpt lat="45.75975" lon="2.95513">
        <ele>1110</ele>
        <time>2021-08-28T14:15:06.000Z</time>
      </trkpt>
      <trkpt lat="45.75969" lon="2.95508">
        <ele>1110.7</ele>
        <time>2021-08-28T14:15:23.000Z</time>
      </trkpt>
      <trkpt lat="45.75963" lon="2.95507">
        <ele>1111.1</ele>
        <time>2021-08-28T14:15:31.000Z</time>
      </trkpt>
      <trkpt lat="45.75955" lon="2.95505">
        <ele>1111.6</ele>
        <time>2021-08-28T14:15:39.000Z</time>
      </trkpt>
      <trkpt lat="45.75947" lon="2.95505">
        <ele>1112</ele>
        <time>2021-08-28T14:15:54.000Z</time>
      </trkpt>
      <trkpt lat="45.7594" lon="2.95512">
        <ele>1111.6</ele>
        <time>2021-08-28T14:16:01.000Z</time>
      </trkpt>
      <trkpt lat="45.7593" lon="2.95506">
        <ele>1112.7</ele>
        <time>2021-08-28T14:16:15.000Z</time>
      </trkpt>
      <trkpt lat="45.75926" lon="2.95497">
        <ele>1113.8</ele>
        <time>2021-08-28T14:16:21.000Z</time>
      </trkpt>
      <trkpt lat="45.75922" lon="2.95489">
        <ele>1114.7</ele>
        <time>2021-08-28T14:16:27.000Z</time>
      </trkpt>
      <trkpt lat="45.75908" lon="2.95483">
        <ele>1115.5</ele>
        <time>2021-08-28T14:16:33.000Z</time>
      </trkpt>
      <trkpt lat="45.75896" lon="2.9548">
        <ele>1115.6</ele>
        <time>2021-08-28T14:16:39.000Z</time>
      </trkpt>
      <trkpt lat="45.75887" lon="2.95476">
        <ele>1116</ele>
        <time>2021-08-28T14:16:45.000Z</time>
      </trkpt>
      <trkpt lat="45.7588" lon="2.95465">
        <ele>1117.3</ele>
        <time>2021-08-28T14:16:51.000Z</time>
      </trkpt>
      <trkpt lat="45.75877" lon="2.95454">
        <ele>1118.8</ele>
        <time>2021-08-28T14:16:57.000Z</time>
      </trkpt>
      <trkpt lat="45.75874" lon="2.95445">
        <ele>1120.1</ele>
        <time>2021-08-28T14:17:07.000Z</time>
      </trkpt>
      <trkpt lat="45.75871" lon="2.95436">
        <ele>1121.4</ele>
        <time>2021-08-28T14:17:14.000Z</time>
      </trkpt>
      <trkpt lat="45.7586" lon="2.95435">
        <ele>1121.9</ele>
        <time>2021-08-28T14:17:17.000Z</time>
      </trkpt>
      <trkpt lat="45.75848" lon="2.95422">
        <ele>1124.4</ele>
        <time>2021-08-28T14:17:21.000Z</time>
      </trkpt>
      <trkpt lat="45.7584" lon="2.95412">
        <ele>1125.6</ele>
        <time>2021-08-28T14:17:27.000Z</time>
      </trkpt>
      <trkpt lat="45.75842" lon="2.95404">
        <ele>1125.4</ele>
        <time>2021-08-28T14:17:34.000Z</time>
      </trkpt>
      <trkpt lat="45.75839" lon="2.95395">
        <ele>1125.4</ele>
        <time>2021-08-28T14:17:41.000Z</time>
      </trkpt>
      <trkpt lat="45.75836" lon="2.95387">
        <ele>1125.5</ele>
        <time>2021-08-28T14:17:48.000Z</time>
      </trkpt>
      <trkpt lat="45.75835" lon="2.95376">
        <ele>1125.4</ele>
        <time>2021-08-28T14:17:55.000Z</time>
      </trkpt>
      <trkpt lat="45.75834" lon="2.95366">
        <ele>1125.3</ele>
        <time>2021-08-28T14:18:04.000Z</time>
      </trkpt>
      <trkpt lat="45.75829" lon="2.9536">
        <ele>1125</ele>
        <time>2021-08-28T14:18:16.000Z</time>
      </trkpt>
      <trkpt lat="45.75823" lon="2.95356">
        <ele>1124.5</ele>
        <time>2021-08-28T14:18:29.000Z</time>
      </trkpt>
      <trkpt lat="45.75816" lon="2.95352">
        <ele>1124</ele>
        <time>2021-08-28T14:18:36.000Z</time>
      </trkpt>
      <trkpt lat="45.75816" lon="2.95342">
        <ele>1124.1</ele>
        <time>2021-08-28T14:18:46.000Z</time>
      </trkpt>
      <trkpt lat="45.7581" lon="2.95337">
        <ele>1123.8</ele>
        <time>2021-08-28T14:18:53.000Z</time>
      </trkpt>
      <trkpt lat="45.75804" lon="2.95331">
        <ele>1123.4</ele>
        <time>2021-08-28T14:18:58.000Z</time>
      </trkpt>
      <trkpt lat="45.75799" lon="2.95326">
        <ele>1122.9</ele>
        <time>2021-08-28T14:19:07.000Z</time>
      </trkpt>
      <trkpt lat="45.75792" lon="2.95327">
        <ele>1122.7</ele>
        <time>2021-08-28T14:20:23.000Z</time>
      </trkpt>
      <trkpt lat="45.75785" lon="2.95318">
        <ele>1121.9</ele>
        <time>2021-08-28T14:21:18.000Z</time>
      </trkpt>
      <trkpt lat="45.75779" lon="2.9531">
        <ele>1121.3</ele>
        <time>2021-08-28T14:21:30.000Z</time>
      </trkpt>
      <trkpt lat="45.75774" lon="2.95303">
        <ele>1120.9</ele>
        <time>2021-08-28T14:21:39.000Z</time>
      </trkpt>
      <trkpt lat="45.75769" lon="2.95296">
        <ele>1120.5</ele>
        <time>2021-08-28T14:21:47.000Z</time>
      </trkpt>
      <trkpt lat="45.75761" lon="2.95291">
        <ele>1120.2</ele>
        <time>2021-08-28T14:21:55.000Z</time>
      </trkpt>
      <trkpt lat="45.75756" lon="2.95283">
        <ele>1119.9</ele>
        <time>2021-08-28T14:22:06.000Z</time>
      </trkpt>
      <trkpt lat="45.75751" lon="2.95274">
        <ele>1119.6</ele>
        <time>2021-08-28T14:22:17.000Z</time>
      </trkpt>
      <trkpt lat="45.75746" lon="2.95268">
        <ele>1118.8</ele>
        <time>2021-08-28T14:22:26.000Z</time>
      </trkpt>
      <trkpt lat="45.75745" lon="2.95258">
        <ele>1118.4</ele>
        <time>2021-08-28T14:22:34.000Z</time>
      </trkpt>
      <trkpt lat="45.75743" lon="2.95248">
        <ele>1117.8</ele>
        <time>2021-08-28T14:22:45.000Z</time>
      </trkpt>
      <trkpt lat="45.7574" lon="2.9524">
        <ele>1116.5</ele>
        <time>2021-08-28T14:22:51.000Z</time>
      </trkpt>
      <trkpt lat="45.75737" lon="2.95231">
        <ele>1115.2</ele>
        <time>2021-08-28T14:22:58.000Z</time>
      </trkpt>
      <trkpt lat="45.75735" lon="2.95221">
        <ele>1114</ele>
        <time>2021-08-28T14:23:05.000Z</time>
      </trkpt>
      <trkpt lat="45.75735" lon="2.95211">
        <ele>1113</ele>
        <time>2021-08-28T14:23:09.000Z</time>
      </trkpt>
      <trkpt lat="45.7573" lon="2.95201">
        <ele>1111.7</ele>
        <time>2021-08-28T14:23:15.000Z</time>
      </trkpt>
      <trkpt lat="45.75725" lon="2.95194">
        <ele>1110.7</ele>
        <time>2021-08-28T14:23:21.000Z</time>
      </trkpt>
      <trkpt lat="45.75722" lon="2.95186">
        <ele>1109.9</ele>
        <time>2021-08-28T14:23:29.000Z</time>
      </trkpt>
      <trkpt lat="45.75719" lon="2.95177">
        <ele>1109</ele>
        <time>2021-08-28T14:23:35.000Z</time>
      </trkpt>
      <trkpt lat="45.75718" lon="2.95168">
        <ele>1108.3</ele>
        <time>2021-08-28T14:23:39.000Z</time>
      </trkpt>
      <trkpt lat="45.75717" lon="2.95158">
        <ele>1106.9</ele>
        <time>2021-08-28T14:23:47.000Z</time>
      </trkpt>
      <trkpt lat="45.75721" lon="2.95149">
        <ele>1105.8</ele>
        <time>2021-08-28T14:23:54.000Z</time>
      </trkpt>
      <trkpt lat="45.75722" lon="2.9514">
        <ele>1104.5</ele>
        <time>2021-08-28T14:24:03.000Z</time>
      </trkpt>
      <trkpt lat="45.75721" lon="2.95131">
        <ele>1103.1</ele>
        <time>2021-08-28T14:24:09.000Z</time>
      </trkpt>
      <trkpt lat="45.75713" lon="2.9512">
        <ele>1101.2</ele>
        <time>2021-08-28T14:24:20.000Z</time>
      </trkpt>
      <trkpt lat="45.7571" lon="2.95112">
        <ele>1099.9</ele>
        <time>2021-08-28T14:24:27.000Z</time>
      </trkpt>
      <trkpt lat="45.75703" lon="2.95109">
        <ele>1099.1</ele>
        <time>2021-08-28T14:24:33.000Z</time>
      </trkpt>
      <trkpt lat="45.75693" lon="2.95108">
        <ele>1098.4</ele>
        <time>2021-08-28T14:24:42.000Z</time>
      </trkpt>
      <trkpt lat="45.75683" lon="2.95111">
        <ele>1098.4</ele>
        <time>2021-08-28T14:24:45.000Z</time>
      </trkpt>
      <trkpt lat="45.75674" lon="2.95114">
        <ele>1098.5</ele>
        <time>2021-08-28T14:24:51.000Z</time>
      </trkpt>
      <trkpt lat="45.75668" lon="2.95107">
        <ele>1097</ele>
        <time>2021-08-28T14:24:59.000Z</time>
      </trkpt>
      <trkpt lat="45.75664" lon="2.951">
        <ele>1095.5</ele>
        <time>2021-08-28T14:25:05.000Z</time>
      </trkpt>
      <trkpt lat="45.7566" lon="2.95092">
        <ele>1093.7</ele>
        <time>2021-08-28T14:25:11.000Z</time>
      </trkpt>
      <trkpt lat="45.75658" lon="2.95083">
        <ele>1092.2</ele>
        <time>2021-08-28T14:25:16.000Z</time>
      </trkpt>
      <trkpt lat="45.75652" lon="2.95082">
        <ele>1091.6</ele>
        <time>2021-08-28T14:25:22.000Z</time>
      </trkpt>
      <trkpt lat="45.75645" lon="2.9508">
        <ele>1090.9</ele>
        <time>2021-08-28T14:25:29.000Z</time>
      </trkpt>
      <trkpt lat="45.7564" lon="2.9507">
        <ele>1090.5</ele>
        <time>2021-08-28T14:25:33.000Z</time>
      </trkpt>
      <trkpt lat="45.75634" lon="2.9505">
        <ele>1090.5</ele>
        <time>2021-08-28T14:25:39.000Z</time>
      </trkpt>
      <trkpt lat="45.7564" lon="2.95043">
        <ele>1090.7</ele>
        <time>2021-08-28T14:25:52.000Z</time>
      </trkpt>
      <trkpt lat="45.75646" lon="2.95043">
        <ele>1090.6</ele>
        <time>2021-08-28T14:25:57.000Z</time>
      </trkpt>
      <trkpt lat="45.75655" lon="2.95037">
        <ele>1090.4</ele>
        <time>2021-08-28T14:26:03.000Z</time>
      </trkpt>
      <trkpt lat="45.75662" lon="2.95023">
        <ele>1089.6</ele>
        <time>2021-08-28T14:26:09.000Z</time>
      </trkpt>
      <trkpt lat="45.75657" lon="2.95014">
        <ele>1089.6</ele>
        <time>2021-08-28T14:26:15.000Z</time>
      </trkpt>
      <trkpt lat="45.75645" lon="2.95019">
        <ele>1090.5</ele>
        <time>2021-08-28T14:26:21.000Z</time>
      </trkpt>
      <trkpt lat="45.75628" lon="2.95017">
        <ele>1091.6</ele>
        <time>2021-08-28T14:26:27.000Z</time>
      </trkpt>
      <trkpt lat="45.75609" lon="2.95016">
        <ele>1092.9</ele>
        <time>2021-08-28T14:26:33.000Z</time>
      </trkpt>
      <trkpt lat="45.75599" lon="2.95018">
        <ele>1093.4</ele>
        <time>2021-08-28T14:26:39.000Z</time>
      </trkpt>
      <trkpt lat="45.75588" lon="2.95014">
        <ele>1094.6</ele>
        <time>2021-08-28T14:26:45.000Z</time>
      </trkpt>
      <trkpt lat="45.75581" lon="2.95017">
        <ele>1094.6</ele>
        <time>2021-08-28T14:26:52.000Z</time>
      </trkpt>
      <trkpt lat="45.75575" lon="2.95021">
        <ele>1094.2</ele>
        <time>2021-08-28T14:26:57.000Z</time>
      </trkpt>
      <trkpt lat="45.75567" lon="2.95025">
        <ele>1093.8</ele>
        <time>2021-08-28T14:27:03.000Z</time>
      </trkpt>
      <trkpt lat="45.75561" lon="2.95027">
        <ele>1093.6</ele>
        <time>2021-08-28T14:27:10.000Z</time>
      </trkpt>
      <trkpt lat="45.75556" lon="2.9502">
        <ele>1095.1</ele>
        <time>2021-08-28T14:27:26.000Z</time>
      </trkpt>
      <trkpt lat="45.7555" lon="2.95026">
        <ele>1094</ele>
        <time>2021-08-28T14:27:30.000Z</time>
      </trkpt>
      <trkpt lat="45.75543" lon="2.95032">
        <ele>1092.9</ele>
        <time>2021-08-28T14:27:33.000Z</time>
      </trkpt>
      <trkpt lat="45.75538" lon="2.95041">
        <ele>1090.9</ele>
        <time>2021-08-28T14:27:39.000Z</time>
      </trkpt>
      <trkpt lat="45.75533" lon="2.95066">
        <ele>1084.9</ele>
        <time>2021-08-28T14:27:45.000Z</time>
      </trkpt>
      <trkpt lat="45.75535" lon="2.95081">
        <ele>1081.5</ele>
        <time>2021-08-28T14:27:51.000Z</time>
      </trkpt>
      <trkpt lat="45.75527" lon="2.95078">
        <ele>1081.6</ele>
        <time>2021-08-28T14:28:01.000Z</time>
      </trkpt>
      <trkpt lat="45.75521" lon="2.95079">
        <ele>1080.9</ele>
        <time>2021-08-28T14:28:04.000Z</time>
      </trkpt>
      <trkpt lat="45.75513" lon="2.95079">
        <ele>1080.3</ele>
        <time>2021-08-28T14:28:18.000Z</time>
      </trkpt>
      <trkpt lat="45.75504" lon="2.95078">
        <ele>1079.9</ele>
        <time>2021-08-28T14:28:25.000Z</time>
      </trkpt>
      <trkpt lat="45.75498" lon="2.95077">
        <ele>1079.8</ele>
        <time>2021-08-28T14:28:27.000Z</time>
      </trkpt>
      <trkpt lat="45.7548" lon="2.95078">
        <ele>1078.4</ele>
        <time>2021-08-28T14:28:33.000Z</time>
      </trkpt>
      <trkpt lat="45.75466" lon="2.9508">
        <ele>1076.9</ele>
        <time>2021-08-28T14:28:39.000Z</time>
      </trkpt>
      <trkpt lat="45.7546" lon="2.95075">
        <ele>1078.1</ele>
        <time>2021-08-28T14:28:49.000Z</time>
      </trkpt>
      <trkpt lat="45.75455" lon="2.95069">
        <ele>1079.5</ele>
        <time>2021-08-28T14:28:55.000Z</time>
      </trkpt>
      <trkpt lat="45.75447" lon="2.95069">
        <ele>1079</ele>
        <time>2021-08-28T14:29:01.000Z</time>
      </trkpt>
      <trkpt lat="45.7544" lon="2.95069">
        <ele>1078.6</ele>
        <time>2021-08-28T14:29:08.000Z</time>
      </trkpt>
      <trkpt lat="45.75433" lon="2.95073">
        <ele>1077</ele>
        <time>2021-08-28T14:29:14.000Z</time>
      </trkpt>
      <trkpt lat="45.75426" lon="2.95073">
        <ele>1076.5</ele>
        <time>2021-08-28T14:29:21.000Z</time>
      </trkpt>
      <trkpt lat="45.75416" lon="2.95078">
        <ele>1074.7</ele>
        <time>2021-08-28T14:29:27.000Z</time>
      </trkpt>
      <trkpt lat="45.75409" lon="2.9508">
        <ele>1075.6</ele>
        <time>2021-08-28T14:29:35.000Z</time>
      </trkpt>
      <trkpt lat="45.75402" lon="2.95077">
        <ele>1077.8</ele>
        <time>2021-08-28T14:29:49.000Z</time>
      </trkpt>
      <trkpt lat="45.75393" lon="2.95079">
        <ele>1079.1</ele>
        <time>2021-08-28T14:29:54.000Z</time>
      </trkpt>
      <trkpt lat="45.75386" lon="2.95081">
        <ele>1080.1</ele>
        <time>2021-08-28T14:29:57.000Z</time>
      </trkpt>
      <trkpt lat="45.75371" lon="2.95081">
        <ele>1083.3</ele>
        <time>2021-08-28T14:30:03.000Z</time>
      </trkpt>
      <trkpt lat="45.75358" lon="2.95082">
        <ele>1085.9</ele>
        <time>2021-08-28T14:30:09.000Z</time>
      </trkpt>
      <trkpt lat="45.75352" lon="2.95079">
        <ele>1087.6</ele>
        <time>2021-08-28T14:30:16.000Z</time>
      </trkpt>
      <trkpt lat="45.75345" lon="2.95087">
        <ele>1088</ele>
        <time>2021-08-28T14:31:11.000Z</time>
      </trkpt>
      <trkpt lat="45.75342" lon="2.95096">
        <ele>1087.4</ele>
        <time>2021-08-28T14:31:18.000Z</time>
      </trkpt>
      <trkpt lat="45.75337" lon="2.95103">
        <ele>1087.5</ele>
        <time>2021-08-28T14:31:24.000Z</time>
      </trkpt>
      <trkpt lat="45.75327" lon="2.95111">
        <ele>1090</ele>
        <time>2021-08-28T14:31:28.000Z</time>
      </trkpt>
      <trkpt lat="45.75314" lon="2.95121">
        <ele>1094.2</ele>
        <time>2021-08-28T14:31:33.000Z</time>
      </trkpt>
      <trkpt lat="45.75303" lon="2.95127">
        <ele>1098.2</ele>
        <time>2021-08-28T14:31:39.000Z</time>
      </trkpt>
      <trkpt lat="45.75297" lon="2.95129">
        <ele>1100.6</ele>
        <time>2021-08-28T14:31:57.000Z</time>
      </trkpt>
      <trkpt lat="45.75295" lon="2.95139">
        <ele>1100.4</ele>
        <time>2021-08-28T14:32:13.000Z</time>
      </trkpt>
      <trkpt lat="45.7529" lon="2.95145">
        <ele>1101.9</ele>
        <time>2021-08-28T14:32:18.000Z</time>
      </trkpt>
      <trkpt lat="45.75286" lon="2.95153">
        <ele>1102.9</ele>
        <time>2021-08-28T14:32:25.000Z</time>
      </trkpt>
      <trkpt lat="45.75282" lon="2.9516">
        <ele>1104</ele>
        <time>2021-08-28T14:32:34.000Z</time>
      </trkpt>
      <trkpt lat="45.75282" lon="2.9517">
        <ele>1102.8</ele>
        <time>2021-08-28T14:32:55.000Z</time>
      </trkpt>
      <trkpt lat="45.75278" lon="2.95179">
        <ele>1102.8</ele>
        <time>2021-08-28T14:33:04.000Z</time>
      </trkpt>
      <trkpt lat="45.75274" lon="2.95188">
        <ele>1102.8</ele>
        <time>2021-08-28T14:33:10.000Z</time>
      </trkpt>
      <trkpt lat="45.7527" lon="2.95196">
        <ele>1103</ele>
        <time>2021-08-28T14:33:17.000Z</time>
      </trkpt>
      <trkpt lat="45.75265" lon="2.95203">
        <ele>1103.7</ele>
        <time>2021-08-28T14:33:24.000Z</time>
      </trkpt>
      <trkpt lat="45.75261" lon="2.95211">
        <ele>1103.8</ele>
        <time>2021-08-28T14:33:28.000Z</time>
      </trkpt>
      <trkpt lat="45.7525" lon="2.95217">
        <ele>1107.1</ele>
        <time>2021-08-28T14:34:06.000Z</time>
      </trkpt>
      <trkpt lat="45.75247" lon="2.95226">
        <ele>1105.9</ele>
        <time>2021-08-28T14:34:15.000Z</time>
      </trkpt>
      <trkpt lat="45.75242" lon="2.95232">
        <ele>1106</ele>
        <time>2021-08-28T14:34:22.000Z</time>
      </trkpt>
      <trkpt lat="45.75234" lon="2.95239">
        <ele>1106.6</ele>
        <time>2021-08-28T14:34:27.000Z</time>
      </trkpt>
      <trkpt lat="45.75233" lon="2.95248">
        <ele>1105.1</ele>
        <time>2021-08-28T14:34:35.000Z</time>
      </trkpt>
      <trkpt lat="45.75227" lon="2.95254">
        <ele>1105.1</ele>
        <time>2021-08-28T14:34:39.000Z</time>
      </trkpt>
      <trkpt lat="45.75219" lon="2.95261">
        <ele>1105.2</ele>
        <time>2021-08-28T14:34:45.000Z</time>
      </trkpt>
      <trkpt lat="45.75206" lon="2.95263">
        <ele>1108.1</ele>
        <time>2021-08-28T14:34:51.000Z</time>
      </trkpt>
      <trkpt lat="45.752" lon="2.95272">
        <ele>1106.8</ele>
        <time>2021-08-28T14:34:57.000Z</time>
      </trkpt>
      <trkpt lat="45.75196" lon="2.95281">
        <ele>1105</ele>
        <time>2021-08-28T14:35:07.000Z</time>
      </trkpt>
      <trkpt lat="45.75186" lon="2.95284">
        <ele>1106.6</ele>
        <time>2021-08-28T14:35:33.000Z</time>
      </trkpt>
      <trkpt lat="45.75176" lon="2.95297">
        <ele>1104.9</ele>
        <time>2021-08-28T14:36:18.000Z</time>
      </trkpt>
      <trkpt lat="45.75167" lon="2.95303">
        <ele>1105.1</ele>
        <time>2021-08-28T14:36:27.000Z</time>
      </trkpt>
      <trkpt lat="45.75161" lon="2.95308">
        <ele>1103.7</ele>
        <time>2021-08-28T14:36:35.000Z</time>
      </trkpt>
      <trkpt lat="45.75153" lon="2.95311">
        <ele>1102.9</ele>
        <time>2021-08-28T14:36:44.000Z</time>
      </trkpt>
      <trkpt lat="45.75146" lon="2.9531">
        <ele>1103.4</ele>
        <time>2021-08-28T14:36:51.000Z</time>
      </trkpt>
      <trkpt lat="45.7514" lon="2.95314">
        <ele>1102.3</ele>
        <time>2021-08-28T14:37:05.000Z</time>
      </trkpt>
      <trkpt lat="45.75135" lon="2.95324">
        <ele>1099.4</ele>
        <time>2021-08-28T14:37:18.000Z</time>
      </trkpt>
      <trkpt lat="45.75128" lon="2.95328">
        <ele>1098.5</ele>
        <time>2021-08-28T14:37:25.000Z</time>
      </trkpt>
      <trkpt lat="45.75124" lon="2.95338">
        <ele>1095.7</ele>
        <time>2021-08-28T14:37:31.000Z</time>
      </trkpt>
      <trkpt lat="45.75123" lon="2.95347">
        <ele>1093</ele>
        <time>2021-08-28T14:37:37.000Z</time>
      </trkpt>
      <trkpt lat="45.75117" lon="2.95352">
        <ele>1091.9</ele>
        <time>2021-08-28T14:38:04.000Z</time>
      </trkpt>
      <trkpt lat="45.75113" lon="2.9536">
        <ele>1089.8</ele>
        <time>2021-08-28T14:38:15.000Z</time>
      </trkpt>
      <trkpt lat="45.75106" lon="2.95362">
        <ele>1089.6</ele>
        <time>2021-08-28T14:38:37.000Z</time>
      </trkpt>
      <trkpt lat="45.75102" lon="2.95355">
        <ele>1091.9</ele>
        <time>2021-08-28T14:39:49.000Z</time>
      </trkpt>
      <trkpt lat="45.75107" lon="2.95349">
        <ele>1093.3</ele>
        <time>2021-08-28T14:40:13.000Z</time>
      </trkpt>
      <trkpt lat="45.7511" lon="2.95335">
        <ele>1097.2</ele>
        <time>2021-08-28T14:40:40.000Z</time>
      </trkpt>
      <trkpt lat="45.75117" lon="2.95333">
        <ele>1097.5</ele>
        <time>2021-08-28T14:40:50.000Z</time>
      </trkpt>
      <trkpt lat="45.75124" lon="2.95333">
        <ele>1097.1</ele>
        <time>2021-08-28T14:40:57.000Z</time>
      </trkpt>
      <trkpt lat="45.75134" lon="2.95331">
        <ele>1097.3</ele>
        <time>2021-08-28T14:41:03.000Z</time>
      </trkpt>
      <trkpt lat="45.75141" lon="2.95325">
        <ele>1098.8</ele>
        <time>2021-08-28T14:41:09.000Z</time>
      </trkpt>
      <trkpt lat="45.75146" lon="2.9532">
        <ele>1100.2</ele>
        <time>2021-08-28T14:41:15.000Z</time>
      </trkpt>
      <trkpt lat="45.75151" lon="2.95314">
        <ele>1102</ele>
        <time>2021-08-28T14:41:25.000Z</time>
      </trkpt>
      <trkpt lat="45.75159" lon="2.95308">
        <ele>1103.7</ele>
        <time>2021-08-28T14:41:28.000Z</time>
      </trkpt>
      <trkpt lat="45.75166" lon="2.95302">
        <ele>1105.5</ele>
        <time>2021-08-28T14:41:33.000Z</time>
      </trkpt>
      <trkpt lat="45.75179" lon="2.95295">
        <ele>1104.8</ele>
        <time>2021-08-28T14:41:39.000Z</time>
      </trkpt>
      <trkpt lat="45.7519" lon="2.9529">
        <ele>1103.7</ele>
        <time>2021-08-28T14:41:45.000Z</time>
      </trkpt>
      <trkpt lat="45.75196" lon="2.95286">
        <ele>1103.4</ele>
        <time>2021-08-28T14:41:56.000Z</time>
      </trkpt>
      <trkpt lat="45.75201" lon="2.9528">
        <ele>1104</ele>
        <time>2021-08-28T14:42:05.000Z</time>
      </trkpt>
      <trkpt lat="45.75206" lon="2.95272">
        <ele>1105.3</ele>
        <time>2021-08-28T14:42:12.000Z</time>
      </trkpt>
      <trkpt lat="45.75215" lon="2.95254">
        <ele>1108.4</ele>
        <time>2021-08-28T14:42:39.000Z</time>
      </trkpt>
      <trkpt lat="45.75219" lon="2.95246">
        <ele>1109.3</ele>
        <time>2021-08-28T14:42:53.000Z</time>
      </trkpt>
      <trkpt lat="45.75224" lon="2.95239">
        <ele>1109.3</ele>
        <time>2021-08-28T14:43:01.000Z</time>
      </trkpt>
      <trkpt lat="45.75218" lon="2.95233">
        <ele>1112</ele>
        <time>2021-08-28T14:43:12.000Z</time>
      </trkpt>
      <trkpt lat="45.7521" lon="2.95231">
        <ele>1114.5</ele>
        <time>2021-08-28T14:44:11.000Z</time>
      </trkpt>
      <trkpt lat="45.75202" lon="2.95224">
        <ele>1117.8</ele>
        <time>2021-08-28T14:44:23.000Z</time>
      </trkpt>
      <trkpt lat="45.7519" lon="2.95219">
        <ele>1121.6</ele>
        <time>2021-08-28T14:45:05.000Z</time>
      </trkpt>
      <trkpt lat="45.75197" lon="2.95208">
        <ele>1121.8</ele>
        <time>2021-08-28T14:45:21.000Z</time>
      </trkpt>
      <trkpt lat="45.75192" lon="2.95198">
        <ele>1124.6</ele>
        <time>2021-08-28T14:46:48.000Z</time>
      </trkpt>
      <trkpt lat="45.75193" lon="2.95183">
        <ele>1126.9</ele>
        <time>2021-08-28T14:47:10.000Z</time>
      </trkpt>
      <trkpt lat="45.75186" lon="2.95173">
        <ele>1130</ele>
        <time>2021-08-28T14:47:58.000Z</time>
      </trkpt>
      <trkpt lat="45.75176" lon="2.95166">
        <ele>1133</ele>
        <time>2021-08-28T14:48:49.000Z</time>
      </trkpt>
      <trkpt lat="45.75176" lon="2.95147">
        <ele>1131.4</ele>
        <time>2021-08-28T14:49:23.000Z</time>
      </trkpt>
      <trkpt lat="45.7517" lon="2.95142">
        <ele>1131.8</ele>
        <time>2021-08-28T14:51:29.000Z</time>
      </trkpt>
      <trkpt lat="45.75164" lon="2.95127">
        <ele>1130.5</ele>
        <time>2021-08-28T14:52:38.000Z</time>
      </trkpt>
      <trkpt lat="45.75158" lon="2.95116">
        <ele>1129</ele>
        <time>2021-08-28T14:53:11.000Z</time>
      </trkpt>
      <trkpt lat="45.75159" lon="2.95099">
        <ele>1127.4</ele>
        <time>2021-08-28T14:53:36.000Z</time>
      </trkpt>
      <trkpt lat="45.75162" lon="2.95085">
        <ele>1126.1</ele>
        <time>2021-08-28T14:53:50.000Z</time>
      </trkpt>
      <trkpt lat="45.7516" lon="2.95074">
        <ele>1126.5</ele>
        <time>2021-08-28T14:54:06.000Z</time>
      </trkpt>
      <trkpt lat="45.75166" lon="2.95062">
        <ele>1127.3</ele>
        <time>2021-08-28T14:54:31.000Z</time>
      </trkpt>
      <trkpt lat="45.75163" lon="2.95052">
        <ele>1127.9</ele>
        <time>2021-08-28T14:54:37.000Z</time>
      </trkpt>
      <trkpt lat="45.75165" lon="2.95043">
        <ele>1128.4</ele>
        <time>2021-08-28T14:54:41.000Z</time>
      </trkpt>
      <trkpt lat="45.75167" lon="2.95032">
        <ele>1129.1</ele>
        <time>2021-08-28T14:54:47.000Z</time>
      </trkpt>
      <trkpt lat="45.75164" lon="2.95012">
        <ele>1130.4</ele>
        <time>2021-08-28T14:54:56.000Z</time>
      </trkpt>
      <trkpt lat="45.75164" lon="2.95001">
        <ele>1131.1</ele>
        <time>2021-08-28T14:55:03.000Z</time>
      </trkpt>
      <trkpt lat="45.75165" lon="2.94992">
        <ele>1132.6</ele>
        <time>2021-08-28T14:55:20.000Z</time>
      </trkpt>
      <trkpt lat="45.75164" lon="2.94982">
        <ele>1134.7</ele>
        <time>2021-08-28T14:55:29.000Z</time>
      </trkpt>
      <trkpt lat="45.75161" lon="2.94973">
        <ele>1136.7</ele>
        <time>2021-08-28T14:55:40.000Z</time>
      </trkpt>
      <trkpt lat="45.7515" lon="2.94963">
        <ele>1139.6</ele>
        <time>2021-08-28T14:55:54.000Z</time>
      </trkpt>
      <trkpt lat="45.7514" lon="2.94953">
        <ele>1142.7</ele>
        <time>2021-08-28T14:56:11.000Z</time>
      </trkpt>
      <trkpt lat="45.75138" lon="2.9494">
        <ele>1145.7</ele>
        <time>2021-08-28T14:57:26.000Z</time>
      </trkpt>
      <trkpt lat="45.75135" lon="2.94928">
        <ele>1148.7</ele>
        <time>2021-08-28T14:58:06.000Z</time>
      </trkpt>
      <trkpt lat="45.75136" lon="2.94906">
        <ele>1151.9</ele>
        <time>2021-08-28T14:58:22.000Z</time>
      </trkpt>
      <trkpt lat="45.75134" lon="2.94896">
        <ele>1153.1</ele>
        <time>2021-08-28T14:59:14.000Z</time>
      </trkpt>
      <trkpt lat="45.75123" lon="2.9488">
        <ele>1156.6</ele>
        <time>2021-08-28T15:00:15.000Z</time>
      </trkpt>
      <trkpt lat="45.75107" lon="2.94872">
        <ele>1160.9</ele>
        <time>2021-08-28T15:00:21.000Z</time>
      </trkpt>
      <trkpt lat="45.75101" lon="2.94866">
        <ele>1163.1</ele>
        <time>2021-08-28T15:00:27.000Z</time>
      </trkpt>
      <trkpt lat="45.7509" lon="2.94863">
        <ele>1166.1</ele>
        <time>2021-08-28T15:01:17.000Z</time>
      </trkpt>
      <trkpt lat="45.75086" lon="2.94847">
        <ele>1169.8</ele>
        <time>2021-08-28T15:01:35.000Z</time>
      </trkpt>
      <trkpt lat="45.75073" lon="2.94844">
        <ele>1173</ele>
        <time>2021-08-28T15:02:06.000Z</time>
      </trkpt>
      <trkpt lat="45.75062" lon="2.9483">
        <ele>1176.8</ele>
        <time>2021-08-28T15:02:21.000Z</time>
      </trkpt>
      <trkpt lat="45.75055" lon="2.94826">
        <ele>1178</ele>
        <time>2021-08-28T15:02:27.000Z</time>
      </trkpt>
      <trkpt lat="45.75043" lon="2.94821">
        <ele>1180.1</ele>
        <time>2021-08-28T15:02:46.000Z</time>
      </trkpt>
      <trkpt lat="45.75034" lon="2.94821">
        <ele>1181.7</ele>
        <time>2021-08-28T15:02:51.000Z</time>
      </trkpt>
      <trkpt lat="45.75027" lon="2.9482">
        <ele>1182.9</ele>
        <time>2021-08-28T15:02:57.000Z</time>
      </trkpt>
      <trkpt lat="45.75016" lon="2.94818">
        <ele>1184.8</ele>
        <time>2021-08-28T15:03:07.000Z</time>
      </trkpt>
      <trkpt lat="45.75008" lon="2.94805">
        <ele>1185.9</ele>
        <time>2021-08-28T15:03:38.000Z</time>
      </trkpt>
      <trkpt lat="45.75" lon="2.94807">
        <ele>1187.4</ele>
        <time>2021-08-28T15:04:11.000Z</time>
      </trkpt>
      <trkpt lat="45.7499" lon="2.9481">
        <ele>1187.6</ele>
        <time>2021-08-28T15:04:24.000Z</time>
      </trkpt>
      <trkpt lat="45.7498" lon="2.94813">
        <ele>1187.8</ele>
        <time>2021-08-28T15:04:32.000Z</time>
      </trkpt>
      <trkpt lat="45.74965" lon="2.94807">
        <ele>1187.7</ele>
        <time>2021-08-28T15:04:47.000Z</time>
      </trkpt>
      <trkpt lat="45.74958" lon="2.94808">
        <ele>1187.8</ele>
        <time>2021-08-28T15:04:55.000Z</time>
      </trkpt>
      <trkpt lat="45.74946" lon="2.94805">
        <ele>1187.7</ele>
        <time>2021-08-28T15:05:30.000Z</time>
      </trkpt>
      <trkpt lat="45.74948" lon="2.94795">
        <ele>1186.9</ele>
        <time>2021-08-28T15:06:42.000Z</time>
      </trkpt>
      <trkpt lat="45.74957" lon="2.94791">
        <ele>1186.7</ele>
        <time>2021-08-28T15:07:04.000Z</time>
      </trkpt>
      <trkpt lat="45.74963" lon="2.94788">
        <ele>1186.6</ele>
        <time>2021-08-28T15:07:25.000Z</time>
      </trkpt>
      <trkpt lat="45.74957" lon="2.94789">
        <ele>1186.6</ele>
        <time>2021-08-28T15:07:45.000Z</time>
      </trkpt>
      <trkpt lat="45.7495" lon="2.9479">
        <ele>1186.6</ele>
        <time>2021-08-28T15:08:01.000Z</time>
      </trkpt>
      <trkpt lat="45.74944" lon="2.94796">
        <ele>1187</ele>
        <time>2021-08-28T15:08:05.000Z</time>
      </trkpt>
      <trkpt lat="45.74939" lon="2.94803">
        <ele>1187.6</ele>
        <time>2021-08-28T15:08:17.000Z</time>
      </trkpt>
      <trkpt lat="45.74933" lon="2.94807">
        <ele>1188</ele>
        <time>2021-08-28T15:08:28.000Z</time>
      </trkpt>
      <trkpt lat="45.74929" lon="2.94816">
        <ele>1188.9</ele>
        <time>2021-08-28T15:08:46.000Z</time>
      </trkpt>
      <trkpt lat="45.74923" lon="2.94819">
        <ele>1189.3</ele>
        <time>2021-08-28T15:09:04.000Z</time>
      </trkpt>
      <trkpt lat="45.74917" lon="2.94823">
        <ele>1189.9</ele>
        <time>2021-08-28T15:09:12.000Z</time>
      </trkpt>
      <trkpt lat="45.7491" lon="2.94826">
        <ele>1191.1</ele>
        <time>2021-08-28T15:09:19.000Z</time>
      </trkpt>
      <trkpt lat="45.74904" lon="2.94829">
        <ele>1192.2</ele>
        <time>2021-08-28T15:09:27.000Z</time>
      </trkpt>
      <trkpt lat="45.74896" lon="2.94833">
        <ele>1193.7</ele>
        <time>2021-08-28T15:09:33.000Z</time>
      </trkpt>
      <trkpt lat="45.74888" lon="2.94839">
        <ele>1195.1</ele>
        <time>2021-08-28T15:09:39.000Z</time>
      </trkpt>
      <trkpt lat="45.74878" lon="2.94842">
        <ele>1196.6</ele>
        <time>2021-08-28T15:09:45.000Z</time>
      </trkpt>
      <trkpt lat="45.74871" lon="2.94842">
        <ele>1197.5</ele>
        <time>2021-08-28T15:09:51.000Z</time>
      </trkpt>
      <trkpt lat="45.74863" lon="2.94846">
        <ele>1198.7</ele>
        <time>2021-08-28T15:09:57.000Z</time>
      </trkpt>
      <trkpt lat="45.74857" lon="2.94851">
        <ele>1199.7</ele>
        <time>2021-08-28T15:10:03.000Z</time>
      </trkpt>
      <trkpt lat="45.7485" lon="2.94854">
        <ele>1200.7</ele>
        <time>2021-08-28T15:10:10.000Z</time>
      </trkpt>
      <trkpt lat="45.74843" lon="2.94852">
        <ele>1201.5</ele>
        <time>2021-08-28T15:10:15.000Z</time>
      </trkpt>
      <trkpt lat="45.74836" lon="2.94853">
        <ele>1202.4</ele>
        <time>2021-08-28T15:10:21.000Z</time>
      </trkpt>
      <trkpt lat="45.74829" lon="2.94851">
        <ele>1202.1</ele>
        <time>2021-08-28T15:10:28.000Z</time>
      </trkpt>
      <trkpt lat="45.74817" lon="2.94854">
        <ele>1200.6</ele>
        <time>2021-08-28T15:10:41.000Z</time>
      </trkpt>
      <trkpt lat="45.7481" lon="2.94855">
        <ele>1199.8</ele>
        <time>2021-08-28T15:10:48.000Z</time>
      </trkpt>
      <trkpt lat="45.74798" lon="2.94856">
        <ele>1198.2</ele>
        <time>2021-08-28T15:11:13.000Z</time>
      </trkpt>
      <trkpt lat="45.74793" lon="2.94862">
        <ele>1197.7</ele>
        <time>2021-08-28T15:11:28.000Z</time>
      </trkpt>
      <trkpt lat="45.74782" lon="2.9485">
        <ele>1196.1</ele>
        <time>2021-08-28T15:11:44.000Z</time>
      </trkpt>
      <trkpt lat="45.74779" lon="2.94859">
        <ele>1195.8</ele>
        <time>2021-08-28T15:11:56.000Z</time>
      </trkpt>
      <trkpt lat="45.74772" lon="2.94864">
        <ele>1194.9</ele>
        <time>2021-08-28T15:12:09.000Z</time>
      </trkpt>
      <trkpt lat="45.74768" lon="2.94871">
        <ele>1194.5</ele>
        <time>2021-08-28T15:12:18.000Z</time>
      </trkpt>
      <trkpt lat="45.74764" lon="2.94879">
        <ele>1194</ele>
        <time>2021-08-28T15:12:23.000Z</time>
      </trkpt>
      <trkpt lat="45.74758" lon="2.94881">
        <ele>1193.1</ele>
        <time>2021-08-28T15:13:07.000Z</time>
      </trkpt>
      <trkpt lat="45.74753" lon="2.94888">
        <ele>1192.4</ele>
        <time>2021-08-28T15:13:20.000Z</time>
      </trkpt>
      <trkpt lat="45.74747" lon="2.94895">
        <ele>1191.2</ele>
        <time>2021-08-28T15:13:35.000Z</time>
      </trkpt>
      <trkpt lat="45.74744" lon="2.94904">
        <ele>1190.4</ele>
        <time>2021-08-28T15:13:54.000Z</time>
      </trkpt>
      <trkpt lat="45.74742" lon="2.94913">
        <ele>1190</ele>
        <time>2021-08-28T15:14:03.000Z</time>
      </trkpt>
      <trkpt lat="45.74739" lon="2.94922">
        <ele>1189</ele>
        <time>2021-08-28T15:14:15.000Z</time>
      </trkpt>
      <trkpt lat="45.74736" lon="2.94932">
        <ele>1187.9</ele>
        <time>2021-08-28T15:14:40.000Z</time>
      </trkpt>
      <trkpt lat="45.74735" lon="2.94943">
        <ele>1187.3</ele>
        <time>2021-08-28T15:15:22.000Z</time>
      </trkpt>
      <trkpt lat="45.74728" lon="2.94955">
        <ele>1185.3</ele>
        <time>2021-08-28T15:15:53.000Z</time>
      </trkpt>
      <trkpt lat="45.74724" lon="2.94964">
        <ele>1184.2</ele>
        <time>2021-08-28T15:16:03.000Z</time>
      </trkpt>
      <trkpt lat="45.74717" lon="2.94975">
        <ele>1182.5</ele>
        <time>2021-08-28T15:16:56.000Z</time>
      </trkpt>
      <trkpt lat="45.74713" lon="2.94983">
        <ele>1181.6</ele>
        <time>2021-08-28T15:16:59.000Z</time>
      </trkpt>
      <trkpt lat="45.74709" lon="2.94991">
        <ele>1180.7</ele>
        <time>2021-08-28T15:17:06.000Z</time>
      </trkpt>
      <trkpt lat="45.74702" lon="2.94994">
        <ele>1179.4</ele>
        <time>2021-08-28T15:17:19.000Z</time>
      </trkpt>
      <trkpt lat="45.74696" lon="2.94995">
        <ele>1178.3</ele>
        <time>2021-08-28T15:17:31.000Z</time>
      </trkpt>
      <trkpt lat="45.74689" lon="2.94996">
        <ele>1177</ele>
        <time>2021-08-28T15:17:36.000Z</time>
      </trkpt>
      <trkpt lat="45.74683" lon="2.95001">
        <ele>1175.8</ele>
        <time>2021-08-28T15:17:40.000Z</time>
      </trkpt>
      <trkpt lat="45.74676" lon="2.95005">
        <ele>1174.1</ele>
        <time>2021-08-28T15:17:45.000Z</time>
      </trkpt>
      <trkpt lat="45.74671" lon="2.95013">
        <ele>1172.4</ele>
        <time>2021-08-28T15:17:52.000Z</time>
      </trkpt>
      <trkpt lat="45.74664" lon="2.9502">
        <ele>1170.3</ele>
        <time>2021-08-28T15:17:57.000Z</time>
      </trkpt>
      <trkpt lat="45.74657" lon="2.95026">
        <ele>1168.3</ele>
        <time>2021-08-28T15:18:03.000Z</time>
      </trkpt>
      <trkpt lat="45.74648" lon="2.95033">
        <ele>1165.7</ele>
        <time>2021-08-28T15:18:09.000Z</time>
      </trkpt>
      <trkpt lat="45.74641" lon="2.95035">
        <ele>1164</ele>
        <time>2021-08-28T15:18:15.000Z</time>
      </trkpt>
      <trkpt lat="45.74637" lon="2.95043">
        <ele>1162.1</ele>
        <time>2021-08-28T15:18:23.000Z</time>
      </trkpt>
      <trkpt lat="45.74632" lon="2.95063">
        <ele>1158.2</ele>
        <time>2021-08-28T15:18:44.000Z</time>
      </trkpt>
      <trkpt lat="45.74628" lon="2.95071">
        <ele>1156.1</ele>
        <time>2021-08-28T15:18:50.000Z</time>
      </trkpt>
      <trkpt lat="45.74625" lon="2.95081">
        <ele>1153.8</ele>
        <time>2021-08-28T15:19:01.000Z</time>
      </trkpt>
      <trkpt lat="45.74626" lon="2.9509">
        <ele>1152.1</ele>
        <time>2021-08-28T15:19:09.000Z</time>
      </trkpt>
      <trkpt lat="45.74621" lon="2.95097">
        <ele>1149.1</ele>
        <time>2021-08-28T15:19:31.000Z</time>
      </trkpt>
      <trkpt lat="45.74618" lon="2.95106">
        <ele>1146.1</ele>
        <time>2021-08-28T15:19:40.000Z</time>
      </trkpt>
      <trkpt lat="45.74614" lon="2.95114">
        <ele>1143.1</ele>
        <time>2021-08-28T15:19:46.000Z</time>
      </trkpt>
      <trkpt lat="45.7461" lon="2.95128">
        <ele>1138.6</ele>
        <time>2021-08-28T15:20:10.000Z</time>
      </trkpt>
      <trkpt lat="45.74606" lon="2.95138">
        <ele>1135.1</ele>
        <time>2021-08-28T15:20:25.000Z</time>
      </trkpt>
      <trkpt lat="45.74602" lon="2.95147">
        <ele>1131.8</ele>
        <time>2021-08-28T15:20:36.000Z</time>
      </trkpt>
      <trkpt lat="45.74595" lon="2.95154">
        <ele>1128.3</ele>
        <time>2021-08-28T15:20:44.000Z</time>
      </trkpt>
      <trkpt lat="45.74589" lon="2.9516">
        <ele>1125.2</ele>
        <time>2021-08-28T15:20:52.000Z</time>
      </trkpt>
      <trkpt lat="45.74583" lon="2.95166">
        <ele>1122.1</ele>
        <time>2021-08-28T15:21:00.000Z</time>
      </trkpt>
      <trkpt lat="45.74578" lon="2.95172">
        <ele>1119.3</ele>
        <time>2021-08-28T15:21:13.000Z</time>
      </trkpt>
      <trkpt lat="45.74572" lon="2.95176">
        <ele>1116.8</ele>
        <time>2021-08-28T15:21:22.000Z</time>
      </trkpt>
      <trkpt lat="45.74564" lon="2.95187">
        <ele>1112.1</ele>
        <time>2021-08-28T15:21:33.000Z</time>
      </trkpt>
      <trkpt lat="45.74557" lon="2.95192">
        <ele>1109.1</ele>
        <time>2021-08-28T15:21:43.000Z</time>
      </trkpt>
      <trkpt lat="45.74546" lon="2.95191">
        <ele>1106.6</ele>
        <time>2021-08-28T15:22:09.000Z</time>
      </trkpt>
      <trkpt lat="45.74541" lon="2.952">
        <ele>1103.1</ele>
        <time>2021-08-28T15:22:18.000Z</time>
      </trkpt>
      <trkpt lat="45.74535" lon="2.95201">
        <ele>1101.4</ele>
        <time>2021-08-28T15:22:30.000Z</time>
      </trkpt>
      <trkpt lat="45.74528" lon="2.95202">
        <ele>1099.4</ele>
        <time>2021-08-28T15:22:41.000Z</time>
      </trkpt>
      <trkpt lat="45.74519" lon="2.95209">
        <ele>1095.5</ele>
        <time>2021-08-28T15:22:56.000Z</time>
      </trkpt>
      <trkpt lat="45.7451" lon="2.95216">
        <ele>1091.6</ele>
        <time>2021-08-28T15:23:06.000Z</time>
      </trkpt>
      <trkpt lat="45.74504" lon="2.95221">
        <ele>1088.9</ele>
        <time>2021-08-28T15:23:13.000Z</time>
      </trkpt>
      <trkpt lat="45.74498" lon="2.95225">
        <ele>1086.6</ele>
        <time>2021-08-28T15:23:22.000Z</time>
      </trkpt>
      <trkpt lat="45.74494" lon="2.95236">
        <ele>1083.2</ele>
        <time>2021-08-28T15:23:43.000Z</time>
      </trkpt>
      <trkpt lat="45.74489" lon="2.9525">
        <ele>1079</ele>
        <time>2021-08-28T15:24:05.000Z</time>
      </trkpt>
      <trkpt lat="45.74489" lon="2.9526">
        <ele>1077.2</ele>
        <time>2021-08-28T15:24:11.000Z</time>
      </trkpt>
      <trkpt lat="45.74481" lon="2.95269">
        <ele>1074.3</ele>
        <time>2021-08-28T15:24:48.000Z</time>
      </trkpt>
      <trkpt lat="45.74474" lon="2.95268">
        <ele>1073.3</ele>
        <time>2021-08-28T15:24:57.000Z</time>
      </trkpt>
      <trkpt lat="45.74465" lon="2.95266">
        <ele>1072.2</ele>
        <time>2021-08-28T15:25:03.000Z</time>
      </trkpt>
      <trkpt lat="45.74458" lon="2.95266">
        <ele>1071</ele>
        <time>2021-08-28T15:25:10.000Z</time>
      </trkpt>
      <trkpt lat="45.74451" lon="2.95264">
        <ele>1070.2</ele>
        <time>2021-08-28T15:25:16.000Z</time>
      </trkpt>
      <trkpt lat="45.74444" lon="2.95262">
        <ele>1069.3</ele>
        <time>2021-08-28T15:25:21.000Z</time>
      </trkpt>
      <trkpt lat="45.74438" lon="2.9526">
        <ele>1068.5</ele>
        <time>2021-08-28T15:25:27.000Z</time>
      </trkpt>
      <trkpt lat="45.74431" lon="2.95256">
        <ele>1067.8</ele>
        <time>2021-08-28T15:25:36.000Z</time>
      </trkpt>
      <trkpt lat="45.74416" lon="2.95253">
        <ele>1065.6</ele>
        <time>2021-08-28T15:25:49.000Z</time>
      </trkpt>
      <trkpt lat="45.7441" lon="2.95247">
        <ele>1065.4</ele>
        <time>2021-08-28T15:25:53.000Z</time>
      </trkpt>
      <trkpt lat="45.74405" lon="2.95239">
        <ele>1065.7</ele>
        <time>2021-08-28T15:25:58.000Z</time>
      </trkpt>
      <trkpt lat="45.74399" lon="2.95234">
        <ele>1065.5</ele>
        <time>2021-08-28T15:26:11.000Z</time>
      </trkpt>
      <trkpt lat="45.74393" lon="2.95227">
        <ele>1065.5</ele>
        <time>2021-08-28T15:26:17.000Z</time>
      </trkpt>
      <trkpt lat="45.74387" lon="2.95226">
        <ele>1064.6</ele>
        <time>2021-08-28T15:26:23.000Z</time>
      </trkpt>
      <trkpt lat="45.74379" lon="2.95221">
        <ele>1064</ele>
        <time>2021-08-28T15:26:27.000Z</time>
      </trkpt>
      <trkpt lat="45.74374" lon="2.95214">
        <ele>1064.1</ele>
        <time>2021-08-28T15:26:33.000Z</time>
      </trkpt>
      <trkpt lat="45.74366" lon="2.95213">
        <ele>1062.9</ele>
        <time>2021-08-28T15:26:39.000Z</time>
      </trkpt>
      <trkpt lat="45.74362" lon="2.95206">
        <ele>1063.1</ele>
        <time>2021-08-28T15:26:47.000Z</time>
      </trkpt>
      <trkpt lat="45.74352" lon="2.95198">
        <ele>1062.4</ele>
        <time>2021-08-28T15:27:04.000Z</time>
      </trkpt>
      <trkpt lat="45.74346" lon="2.95192">
        <ele>1062.1</ele>
        <time>2021-08-28T15:27:09.000Z</time>
      </trkpt>
      <trkpt lat="45.7434" lon="2.95185">
        <ele>1062</ele>
        <time>2021-08-28T15:27:15.000Z</time>
      </trkpt>
      <trkpt lat="45.74336" lon="2.95178">
        <ele>1062.1</ele>
        <time>2021-08-28T15:27:21.000Z</time>
      </trkpt>
      <trkpt lat="45.74331" lon="2.95171">
        <ele>1062.2</ele>
        <time>2021-08-28T15:27:27.000Z</time>
      </trkpt>
      <trkpt lat="45.74324" lon="2.95163">
        <ele>1062.1</ele>
        <time>2021-08-28T15:27:33.000Z</time>
      </trkpt>
      <trkpt lat="45.74318" lon="2.95157">
        <ele>1061.8</ele>
        <time>2021-08-28T15:27:41.000Z</time>
      </trkpt>
      <trkpt lat="45.74313" lon="2.95151">
        <ele>1061.6</ele>
        <time>2021-08-28T15:27:48.000Z</time>
      </trkpt>
      <trkpt lat="45.74302" lon="2.95144">
        <ele>1060.8</ele>
        <time>2021-08-28T15:27:59.000Z</time>
      </trkpt>
      <trkpt lat="45.74292" lon="2.95127">
        <ele>1060.7</ele>
        <time>2021-08-28T15:28:11.000Z</time>
      </trkpt>
      <trkpt lat="45.74287" lon="2.9512">
        <ele>1060.5</ele>
        <time>2021-08-28T15:28:20.000Z</time>
      </trkpt>
      <trkpt lat="45.7428" lon="2.95119">
        <ele>1059.7</ele>
        <time>2021-08-28T15:28:26.000Z</time>
      </trkpt>
      <trkpt lat="45.74276" lon="2.95112">
        <ele>1059.6</ele>
        <time>2021-08-28T15:28:36.000Z</time>
      </trkpt>
      <trkpt lat="45.74271" lon="2.95105">
        <ele>1059.4</ele>
        <time>2021-08-28T15:28:47.000Z</time>
      </trkpt>
      <trkpt lat="45.74265" lon="2.95098">
        <ele>1059.1</ele>
        <time>2021-08-28T15:28:53.000Z</time>
      </trkpt>
      <trkpt lat="45.74261" lon="2.95089">
        <ele>1059.1</ele>
        <time>2021-08-28T15:28:59.000Z</time>
      </trkpt>
      <trkpt lat="45.74255" lon="2.95083">
        <ele>1058.7</ele>
        <time>2021-08-28T15:29:05.000Z</time>
      </trkpt>
      <trkpt lat="45.74252" lon="2.95072">
        <ele>1058.7</ele>
        <time>2021-08-28T15:29:12.000Z</time>
      </trkpt>
      <trkpt lat="45.74243" lon="2.95068">
        <ele>1059.6</ele>
        <time>2021-08-28T15:29:46.000Z</time>
      </trkpt>
      <trkpt lat="45.74247" lon="2.9506">
        <ele>1059.3</ele>
        <time>2021-08-28T15:31:40.000Z</time>
      </trkpt>
      <trkpt lat="45.74254" lon="2.95065">
        <ele>1059.2</ele>
        <time>2021-08-28T15:31:54.000Z</time>
      </trkpt>
      <trkpt lat="45.74241" lon="2.95065">
        <ele>1060</ele>
        <time>2021-08-28T15:32:15.000Z</time>
      </trkpt>
    </trkseg>
  </trk>
</gpx>